# Wetter Temperatur Luftdruck Luftfeuchtigkeit Sichtweite Windgeschwindigkeit Windrichtung Zeit
1 Clear 12 1017 24 10000 5.24 303 11:54 08.04.2020
2 Clear 12 1017 24 10000 5.24 303 11:36 08.04.2020
3 Clear 12 1017 24 10000 5.24 303 11:18 08.04.2020
4 Clear 13 1017 20 10000 2.6 220 10:41 08.04.2020
5 Clear 14 1017 16 10000 3.1 330 10:22 08.04.2020
6 Clear 14 1017 16 10000 3.1 330 09:59 08.04.2020
7 Clear 14 1017 24 10000 5.7 270 09:41 08.04.2020
8 Clear 14 1017 19 10000 2.1 310 09:19 08.04.2020
9 Clear 14 1017 19 10000 2.1 310 08:58 08.04.2020
10 Clear 14 1017 19 10000 2.1 310 08:40 08.04.2020
11 Clear 14 1017 17 10000 1.5 200 08:21 08.04.2020
12 Clear 14 1017 17 10000 1.5 200 07:43 08.04.2020
13 Clear 13 1018 19 10000 3.6 250 07:22 08.04.2020
14 Clear 13 1018 19 10000 3.6 250 06:33 08.04.2020
15 Clear 12 1018 22 10000 6.37 315 05:22 08.04.2020
16 Clear 10 1018 29 10000 2.1 330 02:51 08.04.2020
17 Clear 10 1018 29 10000 2.1 330 02:22 08.04.2020
18 Clear 9 1017 34 10000 3.6 300 01:56 08.04.2020
19 Clear 7 1017 45 10000 6.37 323 01:28 08.04.2020
20 Clear 5 1017 45 10000 6.37 323 00:47 08.04.2020
21 Clear 4 1017 45 10000 6.37 323 00:47 08.04.2020
22 Clear 4 1017 45 10000 2.66 306 00:26 08.04.2020
23 Clear 3 1016 48 10000 2.66 306 23:57 07.04.2020
24 Clear 3 1016 48 10000 2.66 306 23:37 07.04.2020
25 Clear 2 1016 51 10000 2.66 306 23:19 07.04.2020
26 Clear 2 1016 51 10000 2.66 306 22:55 07.04.2020
27 Clear 3 1016 51 10000 2.66 306 22:37 07.04.2020
28 Clear 3 1016 45 10000 2.66 306 22:18 07.04.2020
29 Clear 4 1016 45 10000 2.66 306 21:42 07.04.2020
30 Clear 4 1016 45 10000 3.85 310 21:21 07.04.2020
31 Clear 5 1016 36 10000 3.85 310 20:59 07.04.2020
32 Clear 5 1016 36 10000 3.85 310 20:40 07.04.2020
33 Clear 5 1016 36 10000 3.85 310 20:21 07.04.2020
34 Clear 5 1016 33 10000 1.5 320 19:57 07.04.2020
35 Clear 6 1016 33 10000 1.5 320 19:38 07.04.2020
36 Clear 6 1016 33 10000 1.5 320 19:19 07.04.2020
37 Clear 6 1015 31 10000 3.85 310 18:58 07.04.2020
38 Clear 6 1015 31 10000 3.85 310 18:58 07.04.2020
39 Clear 7 1015 31 10000 3.85 310 18:39 07.04.2020
40 Clear 7 1015 31 10000 1.5 250 18:20 07.04.2020
41 Clear 7 1015 31 10000 1.5 250 17:45 07.04.2020
42 Clear 7 1015 31 10000 1.5 250 17:24 07.04.2020
43 Clear 8 1015 61 10000 4.76 315 16:48 07.04.2020
44 Clear 8 1015 61 10000 4.76 315 16:29 07.04.2020
45 Clear 8 1015 61 10000 4.76 315 15:59 07.04.2020
46 Clear 9 1015 61 10000 3.1 220 15:41 07.04.2020
47 Clear 10 1015 61 10000 3.1 220 15:23 07.04.2020
48 Clear 10 1015 61 10000 3.1 220 15:23 07.04.2020
49 Clear 10 1015 61 10000 3.1 220 14:42 07.04.2020
50 Clear 10 1015 61 10000 3.1 220 14:23 07.04.2020
51 Clear 10 1014 66 10000 5.21 314 13:57 07.04.2020
52 Clear 11 1014 66 10000 5.21 314 13:39 07.04.2020
53 Clear 11 1013 62 10000 5.21 314 13:18 07.04.2020
54 Clear 11 1013 62 10000 5.21 314 13:18 07.04.2020
55 Clear 12 1013 62 10000 5.21 314 12:55 07.04.2020
56 Clear 12 1013 62 10000 5.21 314 12:36 07.04.2020
57 Clear 13 1013 50 10000 4.55 263 12:18 07.04.2020
58 Clear 14 1013 50 10000 4.55 263 11:44 07.04.2020
59 Clear 15 1013 47 10000 3.1 250 11:25 07.04.2020
60 Clear 16 1013 47 10000 3.1 250 10:58 07.04.2020
61 Clear 16 1013 47 10000 3.1 250 10:38 07.04.2020
62 Clear 16 1013 44 10000 2.6 230 10:19 07.04.2020
63 Clear 17 1013 44 10000 2.6 230 09:45 07.04.2020
64 Clear 17 1014 48 10000 2.1 180 09:19 07.04.2020
65 Clear 17 1014 48 10000 2.1 180 08:55 07.04.2020
66 Clear 17 1014 48 10000 2.1 180 08:36 07.04.2020
67 Clear 17 1014 48 10000 2.1 260 08:18 07.04.2020
68 Clear 17 1014 48 10000 2.1 260 07:40 07.04.2020
69 Clear 17 1015 51 10000 5.31 252 07:21 07.04.2020
70 Clear 16 1015 51 10000 5.31 252 06:51 07.04.2020
71 Clear 16 1016 54 10000 2.6 270 06:21 07.04.2020
72 Clear 14 1016 54 10000 2.6 270 05:38 07.04.2020
73 Clear 13 1016 62 10000 3.83 242 04:46 07.04.2020
74 Clouds 10 1017 76 10000 1.5 240 03:26 07.04.2020
75 Clouds 9 1017 76 10000 2.33 209 02:54 07.04.2020
76 Clouds 7 1017 81 10000 2.35 202 01:48 07.04.2020
77 Clouds 6 1016 81 10000 2.35 202 01:25 07.04.2020
78 Clouds 5 1017 81 10000 1.72 191 00:29 07.04.2020
79 Clouds 4 1017 81 10000 1.72 191 23:55 06.04.2020
80 Clouds 3 1017 93 6000 3.1 140 23:36 06.04.2020
81 Clouds 3 1017 87 10000 1.72 191 23:18 06.04.2020
82 Clouds 4 1017 87 10000 1.72 191 22:38 06.04.2020
83 Clear 4 1017 81 10000 1.72 191 22:20 06.04.2020
84 Clear 4 1017 81 10000 1.72 191 21:57 06.04.2020
85 Clear 4 1017 81 10000 1.72 191 21:38 06.04.2020
86 Clear 4 1017 81 10000 1.74 222 21:18 06.04.2020
87 Clear 5 1017 81 10000 1.74 222 20:54 06.04.2020
88 Clear 5 1017 81 10000 1.74 222 20:36 06.04.2020
89 Clear 5 1017 75 10000 1.74 222 20:18 06.04.2020
90 Clear 5 1017 75 10000 1.74 222 20:18 06.04.2020
91 Clear 5 1017 75 10000 1.74 222 19:40 06.04.2020
92 Clear 6 1018 65 10000 1.74 222 19:22 06.04.2020
93 Clear 6 1018 65 10000 1.74 222 18:56 06.04.2020
94 Clear 7 1019 61 10000 1.8 239 18:37 06.04.2020
95 Clear 7 1019 61 10000 1.8 239 18:19 06.04.2020
96 Clear 7 1019 61 10000 1.8 239 17:42 06.04.2020
97 Clear 7 1019 56 10000 1.8 239 17:19 06.04.2020
98 Clear 7 1019 56 10000 1.8 239 17:19 06.04.2020
99 Clear 7 1019 56 10000 1.8 239 17:19 06.04.2020
100 Clear 8 1019 56 10000 1.8 239 16:50 06.04.2020
101 Clear 8 1019 56 10000 1.8 239 16:31 06.04.2020
102 Clear 8 1019 42 10000 1.8 239 15:40 06.04.2020
103 Clear 9 1019 42 10000 1.8 239 15:40 06.04.2020
104 Clear 10 1018 32 10000 1.5 240 13:45 06.04.2020
105 Clear 10 1018 32 10000 1.5 240 13:24 06.04.2020
106 Clouds 11 1018 32 10000 3.24 255 12:54 06.04.2020
107 Clouds 11 1018 32 10000 3.24 255 12:54 06.04.2020
108 Clouds 11 1018 32 10000 3.24 255 12:54 06.04.2020
109 Clouds 11 1018 32 10000 3.24 255 12:54 06.04.2020
110 Clouds 11 1018 32 10000 3.24 255 12:54 06.04.2020
111 Clouds 11 1018 32 10000 4.57 261 12:21 06.04.2020
112 Clear 12 1017 28 10000 1.5 330 11:54 06.04.2020
113 Clear 12 1017 28 10000 1.5 330 11:54 06.04.2020
114 Clear 12 1017 28 10000 1.5 330 11:54 06.04.2020
115 Clear 12 1017 28 10000 1.5 330 11:54 06.04.2020
116 Clear 12 1017 28 10000 1.5 330 11:54 06.04.2020
117 Clear 12 1017 28 10000 1.5 330 11:31 06.04.2020
118 Clear 12 1017 28 10000 1.5 330 11:31 06.04.2020
119 Clear 14 1018 28 10000 1.5 220 10:50 06.04.2020
120 Clear 14 1018 28 10000 1.5 220 10:50 06.04.2020
121 Clear 14 1018 28 10000 1.5 220 10:50 06.04.2020
122 Clear 14 1018 28 10000 1.5 220 10:50 06.04.2020
123 Clear 14 1018 28 10000 1.5 220 10:50 06.04.2020
124 Clear 14 1018 28 10000 1.5 220 10:21 06.04.2020
125 Clear 15 1018 28 10000 1.5 250 09:47 06.04.2020
126 Clear 15 1018 28 10000 1.5 250 09:47 06.04.2020
127 Clear 15 1018 28 10000 1.5 250 09:47 06.04.2020
128 Clear 15 1018 28 10000 1.5 250 09:47 06.04.2020
129 Clear 15 1018 28 10000 1.5 250 09:47 06.04.2020
130 Clear 15 1018 28 10000 1.5 250 09:20 06.04.2020
131 Clear 16 1018 26 10000 1.5 190 08:53 06.04.2020
132 Clear 16 1018 26 10000 1.5 190 08:30 06.04.2020
133 Clear 16 1019 25 10000 2.6 190 07:26 06.04.2020
134 Clear 15 1020 30 10000 1.5 330 06:40 06.04.2020
135 Clear 15 1020 30 10000 1.5 330 06:40 06.04.2020
136 Clear 15 1020 30 10000 1.5 330 06:18 06.04.2020
137 Clear 12 1021 32 10000 2.84 260 04:18 06.04.2020
138 Clear 8 1022 43 10000 0.73 170 02:56 06.04.2020
139 Clear 5 1022 65 10000 0.69 168 01:57 06.04.2020
140 Clear 1 1022 80 10000 0.69 168 00:59 06.04.2020
141 Clear 1 1022 80 10000 0.69 168 00:29 06.04.2020
142 Clear 0 1022 80 10000 0.56 252 23:59 05.04.2020
143 Clear -1 1022 80 10000 0.56 252 23:40 05.04.2020
144 Clear 0 1022 80 10000 0.56 252 23:21 05.04.2020
145 Clear 0 1022 80 10000 0.56 252 23:21 05.04.2020
146 Clear 0 1022 80 10000 0.56 252 23:21 05.04.2020
147 Clear 0 1022 80 10000 0.56 252 22:54 05.04.2020
148 Clear 0 1022 80 10000 0.56 252 22:36 05.04.2020
149 Clear 0 1022 80 10000 0.56 252 22:18 05.04.2020
150 Clear 1 1022 74 10000 0.56 252 21:43 05.04.2020
151 Clear 1 1022 74 10000 0.56 252 21:43 05.04.2020
152 Clear 1 1022 74 10000 0.56 252 21:43 05.04.2020
153 Clear 1 1022 74 10000 0.35 289 21:23 05.04.2020
154 Clear 1 1022 74 10000 1.23 280 20:25 05.04.2020
155 Clear 2 1022 50 10000 1.23 280 19:44 05.04.2020
156 Clear 2 1022 50 10000 1.23 280 19:25 05.04.2020
157 Clear 3 1022 50 10000 1.23 280 18:49 05.04.2020
158 Clear 3 1022 50 10000 1.23 280 18:49 05.04.2020
159 Clear 3 1022 45 10000 2.12 276 18:18 05.04.2020
160 Clear 3 1023 45 10000 1 210 17:49 05.04.2020
161 Clear 3 1023 45 10000 1 210 17:49 05.04.2020
162 Clear 3 1023 45 10000 1 210 17:49 05.04.2020
163 Clear 3 1023 45 10000 1 210 17:49 05.04.2020
164 Clear 3 1023 45 10000 1 210 17:49 05.04.2020
165 Clear 3 1023 45 10000 1 210 17:22 05.04.2020
166 Clear 4 1022 70 10000 2.12 276 16:47 05.04.2020
167 Clear 4 1022 70 10000 2.12 276 16:47 05.04.2020
168 Clear 4 1022 70 10000 2.12 276 16:47 05.04.2020
169 Clear 5 1022 70 10000 2.12 276 16:19 05.04.2020
170 Clear 6 1022 65 10000 2.12 276 15:46 05.04.2020
171 Clear 6 1022 65 10000 2.12 276 15:26 05.04.2020
172 Clear 6 1022 65 10000 2.12 276 15:26 05.04.2020
173 Clear 7 1022 61 10000 3.34 308 14:48 05.04.2020
174 Clear 7 1022 61 10000 3.34 308 14:48 05.04.2020
175 Clear 7 1022 61 10000 3.34 308 14:48 05.04.2020
176 Clear 8 1021 39 10000 1.5 170 13:59 05.04.2020
177 Clear 8 1021 39 10000 1.5 170 13:40 05.04.2020
178 Clear 8 1021 39 10000 1.5 170 13:40 05.04.2020
179 Clear 8 1021 39 10000 1.5 170 13:40 05.04.2020
180 Clear 8 1021 39 10000 1.5 170 13:40 05.04.2020
181 Clear 8 1021 39 10000 1.5 170 13:40 05.04.2020
182 Clear 10 1020 43 10000 2.6 240 12:20 05.04.2020
183 Clear 11 1020 43 10000 2.6 240 11:39 05.04.2020
184 Clear 11 1020 43 10000 2.6 240 11:19 05.04.2020
185 Clear 12 1020 30 10000 2.1 260 10:47 05.04.2020
186 Clear 12 1020 30 10000 2.1 260 10:23 05.04.2020
187 Clear 13 1020 20 10000 2.1 250 09:53 05.04.2020
188 Clear 13 1020 20 10000 2.1 250 09:27 05.04.2020
189 Clear 13 1020 20 10000 2.1 250 09:27 05.04.2020
190 Clear 13 1021 20 10000 2.6 250 08:32 05.04.2020
191 Clear 13 1021 20 10000 2.6 250 08:31 05.04.2020
192 Clear 13 1021 20 10000 2.6 250 08:31 05.04.2020
193 Clear 13 1021 20 10000 2.6 250 08:31 05.04.2020
194 Clear 13 1021 20 10000 2.6 250 08:31 05.04.2020
195 Clear 12 1022 18 10000 2.1 300 07:05 05.04.2020
196 Clear 12 1022 18 10000 2.1 300 07:05 05.04.2020
197 Clear 12 1022 18 10000 2.1 300 07:05 05.04.2020
198 Clear 12 1022 18 10000 2.1 300 07:05 05.04.2020
199 Clear 9 1023 18 10000 3.1 230 04:31 05.04.2020
200 Clear 7 1023 19 10000 2.1 240 03:27 05.04.2020
201 Clear 6 1023 19 10000 1.5 340 02:19 05.04.2020
202 Clear 5 1023 21 10000 2.1 330 01:42 05.04.2020
203 Clear 3 1023 34 10000 1.4 295 01:18 05.04.2020
204 Clear 3 1023 34 10000 1.4 295 01:18 05.04.2020
205 Clear 1 1023 34 10000 1.4 295 00:37 05.04.2020
206 Clear 0 1023 27 10000 1.67 297 00:18 05.04.2020
207 Clear 0 1023 27 10000 1.67 297 23:41 04.04.2020
208 Clear 0 1023 27 10000 1.67 297 23:21 04.04.2020
209 Clear 1 1023 23 10000 1.67 297 22:57 04.04.2020
210 Clear 1 1023 23 10000 1.67 297 22:39 04.04.2020
211 Clear 1 1023 23 10000 1.67 297 22:20 04.04.2020
212 Clear 1 1022 21 10000 1.67 297 21:57 04.04.2020
213 Clear 2 1022 21 10000 1.67 297 21:38 04.04.2020
214 Clear 2 1022 21 10000 3.65 328 21:19 04.04.2020
215 Clear 2 1022 23 10000 3.65 328 20:54 04.04.2020
216 Clear 2 1022 23 10000 3.65 328 20:36 04.04.2020
217 Clear 2 1022 23 10000 3.65 328 20:18 04.04.2020
218 Clear 3 1022 27 10000 3.65 328 19:40 04.04.2020
219 Clear 3 1022 27 10000 3.65 328 19:20 04.04.2020
220 Clear 4 1022 24 10000 3.65 328 18:59 04.04.2020
221 Clear 4 1022 24 10000 3.65 328 18:59 04.04.2020
222 Clear 4 1022 24 10000 4.03 329 18:39 04.04.2020
223 Clear 4 1022 24 10000 4.03 329 18:39 04.04.2020
224 Clear 4 1022 24 10000 6.21 330 18:20 04.04.2020
225 Clear 5 1022 24 10000 6.74 330 17:58 04.04.2020
226 Clear 5 1022 24 10000 6.21 330 17:38 04.04.2020
227 Clear 6 1022 24 10000 6.21 330 17:19 04.04.2020
228 Clear 6 1022 22 10000 6.21 330 16:44 04.04.2020
229 Clear 6 1022 22 10000 6.21 330 16:24 04.04.2020
230 Clear 7 1021 19 10000 3.1 320 15:58 04.04.2020
231 Clear 7 1021 19 10000 3.1 320 15:38 04.04.2020
232 Clear 7 1021 19 10000 3.1 320 15:19 04.04.2020
233 Clear 7 1021 19 10000 3.1 320 15:19 04.04.2020
234 Clear 8 1021 15 10000 2.1 320 14:46 04.04.2020
235 Clear 8 1021 15 10000 2.1 320 14:25 04.04.2020
236 Clear 8 1020 15 10000 2.6 320 14:00 04.04.2020
237 Clear 8 1020 15 10000 2.6 320 13:41 04.04.2020
238 Clear 8 1020 15 10000 2.6 320 13:41 04.04.2020
239 Clear 9 1020 15 10000 2.6 320 13:20 04.04.2020
240 Clear 9 1019 15 10000 3.1 320 12:57 04.04.2020
241 Clear 9 1019 15 10000 3.1 320 12:39 04.04.2020
242 Clear 9 1018 14 10000 4.1 310 12:19 04.04.2020
243 Clear 10 1018 14 10000 4.1 310 11:41 04.04.2020
244 Clear 11 1018 14 10000 4.1 310 11:23 04.04.2020
245 Clear 12 1018 17 10000 2.6 310 10:58 04.04.2020
246 Clear 12 1018 17 10000 2.6 310 10:40 04.04.2020
247 Clear 12 1018 17 10000 2.6 310 10:21 04.04.2020
248 Clear 12 1018 16 10000 7.66 328 09:55 04.04.2020
249 Clear 13 1018 16 10000 7.66 328 09:37 04.04.2020
250 Clear 13 1018 16 10000 7.83 321 09:19 04.04.2020
251 Clear 13 1018 17 10000 1.5 260 08:42 04.04.2020
252 Clear 13 1018 17 10000 1.5 260 08:23 04.04.2020
253 Clear 13 1018 19 10000 4.1 250 07:47 04.04.2020
254 Clear 13 1018 19 10000 4.1 250 07:29 04.04.2020
255 Clear 13 1018 20 10000 8.24 324 06:58 04.04.2020
256 Clear 13 1018 20 10000 6.5 321 06:21 04.04.2020
257 Clear 12 1018 20 10000 1.5 270 05:51 04.04.2020
258 Clear 12 1018 20 10000 1.5 270 05:32 04.04.2020
259 Clear 11 1018 25 10000 6.5 321 04:33 04.04.2020
260 Clear 11 1019 32 10000 2.1 330 03:55 04.04.2020
261 Clear 11 1019 32 10000 2.1 330 03:27 04.04.2020
262 Clouds 10 1018 61 10000 2.1 290 02:40 04.04.2020
263 Clouds 10 1018 61 10000 2.1 290 02:22 04.04.2020
264 Clear 8 1018 81 10000 5.97 312 01:27 04.04.2020
265 Clouds 7 1017 81 10000 5.97 312 00:55 04.04.2020
266 Mist 6 1017 87 9000 5.97 312 00:30 04.04.2020
267 Clear 6 1017 87 10000 3.36 263 23:55 03.04.2020
268 Clear 6 1017 87 10000 3.36 263 23:36 03.04.2020
269 Clear 6 1017 87 10000 3.36 263 23:18 03.04.2020
270 Clear 6 1017 81 10000 3.36 263 22:40 03.04.2020
271 Clear 6 1017 81 10000 3.36 263 22:19 03.04.2020
272 Clear 6 1017 81 10000 3.36 263 21:45 03.04.2020
273 Clear 7 1017 81 10000 3.36 263 21:27 03.04.2020
274 Clear 7 1018 87 10000 4.02 234 20:59 03.04.2020
275 Clear 7 1018 87 10000 4.02 234 20:40 03.04.2020
276 Clear 6 1018 87 10000 4.02 234 20:22 03.04.2020
277 Haze 6 1018 81 9000 4.02 234 19:58 03.04.2020
278 Haze 6 1018 81 9000 4.02 234 19:40 03.04.2020
279 Haze 7 1019 81 9000 4.02 234 19:21 03.04.2020
280 Haze 7 1019 81 9000 4.02 234 19:00 03.04.2020
281 Haze 7 1019 81 9000 4.02 234 18:41 03.04.2020
282 Haze 7 1019 81 9000 4.02 234 18:41 03.04.2020
283 Haze 7 1019 81 9000 3.46 217 18:23 03.04.2020
284 Clear 8 1019 70 10000 3.46 217 17:58 03.04.2020
285 Clear 8 1019 70 10000 3.46 217 17:39 03.04.2020
286 Clear 7 1019 70 10000 3.46 217 17:19 03.04.2020
287 Clear 7 1019 61 10000 3.46 217 16:46 03.04.2020
288 Clear 7 1019 81 8000 1.5 170 16:22 03.04.2020
289 Clear 8 1019 61 10000 3.46 217 15:59 03.04.2020
290 Clear 8 1019 61 10000 3.46 217 15:40 03.04.2020
291 Clear 9 1019 61 10000 3.34 237 15:21 03.04.2020
292 Clear 9 1019 75 10000 2.6 180 14:56 03.04.2020
293 Haze 10 1020 66 6000 2.1 220 14:38 03.04.2020
294 Clear 10 1019 50 10000 1.5 240 14:20 03.04.2020
295 Clear 10 1019 50 10000 1.5 240 13:45 03.04.2020
296 Clear 10 1019 50 10000 1.5 240 13:26 03.04.2020
297 Clear 11 1019 46 10000 3.92 235 12:56 03.04.2020
298 Clear 11 1019 46 10000 3.92 235 12:37 03.04.2020
299 Clear 12 1019 37 10000 1.5 240 12:18 03.04.2020
300 Clear 12 1019 37 10000 1.5 240 12:18 03.04.2020
301 Clear 13 1019 37 10000 1.5 240 11:54 03.04.2020
302 Clear 13 1019 37 10000 1.5 240 11:36 03.04.2020
303 Clear 14 1019 37 10000 1.5 240 11:18 03.04.2020
304 Clear 15 1018 28 10000 5.28 254 10:54 03.04.2020
305 Clear 15 1018 28 10000 5.28 254 10:36 03.04.2020
306 Clear 15 1018 28 10000 5.28 254 10:18 03.04.2020
307 Clear 16 1018 38 10000 2.1 230 09:40 03.04.2020
308 Clear 16 1018 38 10000 2.1 230 09:40 03.04.2020
309 Clear 16 1018 33 10000 2.1 230 09:22 03.04.2020
310 Clear 16 1019 36 10000 5.28 259 08:57 03.04.2020
311 Clear 16 1019 36 10000 5.28 259 08:39 03.04.2020
312 Clear 16 1019 33 10000 5.28 259 08:20 03.04.2020
313 Clear 16 1019 33 10000 5.28 259 07:50 03.04.2020
314 Clear 16 1019 33 10000 5.28 259 07:31 03.04.2020
315 Haze 16 1020 38 9000 2.1 250 06:49 03.04.2020
316 Haze 16 1020 38 9000 2.1 250 06:24 03.04.2020
317 Haze 14 1021 47 9000 3.59 254 05:40 03.04.2020
318 Clear 11 1023 62 10000 3.59 254 03:45 03.04.2020
319 Haze 9 1023 70 9000 1.02 262 02:56 03.04.2020
320 Haze 8 1023 70 9000 1.02 262 02:27 03.04.2020
321 Haze 5 1023 75 6000 1.08 262 01:23 03.04.2020
322 Haze 2 1023 81 6000 1.5 160 00:37 03.04.2020
323 Haze 2 1023 81 6000 1.5 160 00:19 03.04.2020
324 Mist 2 1023 93 9000 1.68 224 23:42 02.04.2020
325 Mist 1 1023 93 9000 1.68 224 23:23 02.04.2020
326 Clouds 1 1023 86 10000 1.68 224 22:58 02.04.2020
327 Clouds 1 1022 86 10000 1.68 224 22:38 02.04.2020
328 Clouds 2 1022 86 10000 1.68 224 22:20 02.04.2020
329 Clear 2 1022 81 10000 1.68 224 21:39 02.04.2020
330 Clear 2 1022 81 10000 2.08 221 21:20 02.04.2020
331 Clouds 2 1022 93 10000 1.5 180 20:58 02.04.2020
332 Clouds 2 1022 93 10000 1.5 180 20:40 02.04.2020
333 Clouds 2 1022 93 10000 1.5 180 20:40 02.04.2020
334 Clear 3 1022 80 10000 2.08 221 20:21 02.04.2020
335 Clear 3 1022 80 10000 2.08 221 19:44 02.04.2020
336 Clear 4 1022 70 10000 2.08 221 19:21 02.04.2020
337 Clear 4 1022 70 10000 2.08 221 18:58 02.04.2020
338 Clear 4 1022 70 10000 2.08 221 18:39 02.04.2020
339 Clear 5 1022 47 10000 1.35 236 18:20 02.04.2020
340 Clear 5 1022 47 10000 1.35 236 17:56 02.04.2020
341 Clear 5 1022 47 10000 1.35 236 17:38 02.04.2020
342 Clear 5 1022 47 10000 1.35 236 17:19 02.04.2020
343 Clear 6 1022 47 10000 1.35 236 16:55 02.04.2020
344 Clear 7 1022 47 10000 1.35 236 16:37 02.04.2020
345 Clouds 7 1022 49 10000 1.35 236 16:18 02.04.2020
346 Clouds 8 1022 49 10000 1.35 236 15:44 02.04.2020
347 Clear 8 1022 37 10000 2.1 230 15:21 02.04.2020
348 Clear 8 1022 37 10000 2.1 230 14:58 02.04.2020
349 Clear 8 1022 37 10000 2.1 230 14:39 02.04.2020
350 Clouds 8 1022 44 10000 2.6 240 14:19 02.04.2020
351 Clouds 9 1022 49 10000 2.6 240 13:56 02.04.2020
352 Clouds 9 1022 49 10000 2.6 240 13:38 02.04.2020
353 Clear 10 1021 32 10000 2.25 270 13:19 02.04.2020
354 Clear 11 1021 20 10000 1.5 240 12:48 02.04.2020
355 Clear 11 1021 20 10000 1.5 240 12:21 02.04.2020
356 Clouds 12 1021 20 10000 1.5 250 11:58 02.04.2020
357 Clouds 13 1021 20 10000 1.5 250 11:40 02.04.2020
358 Clouds 13 1021 20 10000 1.5 250 11:21 02.04.2020
359 Clear 14 1021 24 10000 1.5 280 10:58 02.04.2020
360 Clear 14 1021 24 10000 1.5 280 10:39 02.04.2020
361 Clear 14 1021 24 10000 1.5 280 10:21 02.04.2020
362 Clear 15 1021 30 10000 2.1 230 09:59 02.04.2020
363 Clear 15 1021 30 10000 2.1 230 09:59 02.04.2020
364 Clear 15 1021 30 10000 2.1 230 09:41 02.04.2020
365 Clear 15 1021 30 10000 2.1 230 09:23 02.04.2020
366 Clouds 15 1021 33 10000 2.1 280 08:57 02.04.2020
367 Clouds 16 1021 33 10000 2.1 280 08:38 02.04.2020
368 Clouds 16 1021 33 10000 2.1 280 08:19 02.04.2020
369 Clear 16 1021 30 10000 1.5 260 07:42 02.04.2020
370 Haze 15 1022 33 9000 4.5 256 07:19 02.04.2020
371 Haze 15 1022 33 9000 4.5 256 06:26 02.04.2020
372 Clear 14 1022 33 10000 4.31 262 05:59 02.04.2020
373 Clear 13 1022 33 10000 4.31 262 05:41 02.04.2020
374 Clear 8 1023 57 10000 1.26 222 02:46 02.04.2020
375 Clear 5 1022 61 10000 1.1 220 01:28 02.04.2020
376 Clear 2 1022 46 10000 1.1 220 00:42 02.04.2020
377 Clear 2 1022 58 10000 0.73 275 00:22 02.04.2020
378 Clear 1 1022 58 10000 0.73 275 23:41 01.04.2020
379 Clear 1 1022 58 10000 0.73 275 23:20 01.04.2020
380 Clear 2 1021 58 10000 0.73 275 22:57 01.04.2020
381 Clear 2 1021 58 10000 0.73 275 22:38 01.04.2020
382 Clear 2 1021 58 10000 0.73 275 22:19 01.04.2020
383 Clear 2 1021 58 10000 0.73 275 21:41 01.04.2020
384 Clear 2 1021 86 10000 1 60 21:19 01.04.2020
385 Clear 3 1021 54 10000 1.32 348 20:57 01.04.2020
386 Clear 3 1021 54 10000 1.32 348 20:38 01.04.2020
387 Clear 3 1021 54 10000 1.32 348 20:20 01.04.2020
388 Clear 3 1021 54 10000 1.32 348 19:58 01.04.2020
389 Clear 3 1021 54 10000 1.32 348 19:39 01.04.2020
390 Clear 3 1021 54 10000 1.32 348 19:19 01.04.2020
391 Clear 4 1020 54 10000 1.32 348 18:42 01.04.2020
392 Clear 4 1020 54 10000 1.32 348 18:42 01.04.2020
393 Clear 4 1020 54 10000 1.32 348 18:23 01.04.2020
394 Clear 5 1020 51 10000 1.96 1 17:57 01.04.2020
395 Clear 5 1020 51 10000 1.96 1 17:38 01.04.2020
396 Clear 6 1019 51 10000 1.96 1 17:19 01.04.2020
397 Clear 6 1019 51 10000 1.96 1 16:57 01.04.2020
398 Clear 6 1019 51 10000 1.96 1 16:39 01.04.2020
399 Clear 6 1019 51 10000 2.6 80 16:20 01.04.2020
400 Clear 6 1019 51 10000 2.6 80 15:56 01.04.2020
401 Clear 7 1019 51 10000 2.6 80 15:37 01.04.2020
402 Clear 7 1019 53 10000 2.6 80 15:18 01.04.2020
403 Clear 7 1017 57 10000 2.1 60 14:40 01.04.2020
404 Clear 8 1017 57 10000 2.1 60 14:22 01.04.2020
405 Clouds 8 1016 53 10000 5.7 20 13:59 01.04.2020
406 Clouds 8 1016 53 10000 5.7 20 13:39 01.04.2020
407 Clouds 8 1016 53 10000 5.7 20 13:20 01.04.2020
408 Clouds 8 1016 53 10000 5.7 20 13:20 01.04.2020
409 Clear 10 1014 24 10000 6.56 50 12:57 01.04.2020
410 Clear 10 1014 24 10000 6.56 50 12:37 01.04.2020
411 Clear 10 1013 24 10000 2.6 310 12:19 01.04.2020
412 Clear 11 1013 24 10000 2.6 310 11:56 01.04.2020
413 Clear 12 1013 24 10000 2.6 310 11:37 01.04.2020
414 Clear 12 1013 24 10000 2.6 310 11:18 01.04.2020
415 Clear 14 1012 24 10000 3.1 290 10:38 01.04.2020
416 Clear 14 1012 24 10000 3.1 290 10:20 01.04.2020
417 Clear 14 1012 30 10000 3.1 250 09:58 01.04.2020
418 Clear 15 1012 30 10000 3.1 250 09:39 01.04.2020
419 Clear 14 1012 30 10000 3.1 250 09:19 01.04.2020
420 Clear 16 1012 29 10000 1.5 240 08:44 01.04.2020
421 Clear 17 1011 31 10000 1.5 260 08:18 01.04.2020
422 Clear 17 1011 31 10000 1.5 260 07:48 01.04.2020
423 Clear 17 1011 31 10000 1.5 260 07:23 01.04.2020
424 Clear 17 1012 26 10000 6.79 287 06:59 01.04.2020
425 Clear 17 1012 26 10000 6.79 287 06:38 01.04.2020
426 Clear 17 1013 32 10000 3.12 304 06:20 01.04.2020
427 Clear 14 1014 35 10000 2.1 250 04:38 01.04.2020
428 Clouds 12 1015 32 10000 1.5 300 03:35 01.04.2020
429 Clouds 12 1014 34 10000 1.5 280 02:57 01.04.2020
430 Clouds 11 1014 34 10000 1.5 280 02:21 01.04.2020
431 Clouds 10 1014 34 10000 1.89 316 01:43 01.04.2020
432 Clouds 10 1014 34 10000 1.89 316 01:22 01.04.2020
433 Clear 9 1014 39 10000 2.1 300 00:46 01.04.2020
434 Clear 9 1014 39 10000 2.1 300 00:46 01.04.2020
435 Clear 9 1014 39 10000 2.1 300 00:21 01.04.2020
436 Clear 9 1014 43 10000 1.67 289 23:48 31.03.2020
437 Clear 9 1014 43 10000 1.67 289 23:28 31.03.2020
438 Clear 9 1014 43 10000 1.67 289 22:59 31.03.2020
439 Clear 9 1014 43 10000 1.67 289 22:37 31.03.2020
440 Clouds 9 1014 50 10000 1.5 270 22:19 31.03.2020
441 Clouds 9 1014 50 10000 1.5 270 21:57 31.03.2020
442 Clouds 9 1014 50 10000 1.5 270 21:39 31.03.2020
443 Clear 9 1014 53 10000 2.6 280 21:20 31.03.2020
444 Clouds 9 1014 50 10000 1.5 270 21:20 31.03.2020
445 Clear 10 1014 53 10000 2.6 280 20:56 31.03.2020
446 Clear 10 1014 53 10000 2.6 280 20:37 31.03.2020
447 Clear 10 1014 53 10000 2.6 280 20:37 31.03.2020
448 Clear 10 1014 50 10000 1.4 297 20:18 31.03.2020
449 Clear 10 1014 50 10000 1.4 297 19:42 31.03.2020
450 Clear 10 1014 50 10000 1.4 297 19:24 31.03.2020
451 Clear 10 1014 50 10000 1.4 297 18:59 31.03.2020
452 Clear 10 1014 50 10000 1.4 297 18:59 31.03.2020
453 Clouds 10 1015 46 10000 1.4 297 18:40 31.03.2020
454 Clouds 10 1015 46 10000 0.95 266 18:19 31.03.2020
455 Clouds 10 1015 46 10000 0.95 266 17:55 31.03.2020
456 Clouds 10 1015 70 10000 2.1 310 17:37 31.03.2020
457 Clouds 10 1015 46 10000 0.95 266 17:19 31.03.2020
458 Clouds 10 1015 46 10000 0.95 266 16:41 31.03.2020
459 Clouds 11 1015 46 10000 0.95 266 16:20 31.03.2020
460 Clouds 11 1015 43 10000 1.5 260 15:57 31.03.2020
461 Clouds 11 1015 43 10000 1.5 260 15:39 31.03.2020
462 Clouds 11 1015 43 10000 1.5 260 15:39 31.03.2020
463 Clouds 11 1015 43 10000 1.5 260 15:21 31.03.2020
464 Clear 12 1015 35 10000 1.81 271 14:57 31.03.2020
465 Clear 11 1015 36 10000 1.96 265 14:38 31.03.2020
466 Clear 12 1014 30 10000 1.5 310 14:20 31.03.2020
467 Clear 12 1014 30 10000 1.5 310 13:43 31.03.2020
468 Clear 12 1014 30 10000 1.5 310 13:20 31.03.2020
469 Clear 12 1014 30 10000 1.5 310 13:19 31.03.2020
470 Clear 12 1014 30 10000 1.5 310 13:19 31.03.2020
471 Clouds 14 1014 30 10000 1.96 265 12:56 31.03.2020
472 Clouds 14 1014 30 10000 1.96 265 12:38 31.03.2020
473 Clear 14 1014 31 10000 2.56 266 12:19 31.03.2020
474 Clear 16 1014 31 10000 2.56 266 11:39 31.03.2020
475 Clear 16 1014 25 10000 2.56 266 11:20 31.03.2020
476 Clear 17 1014 25 10000 2.56 266 10:58 31.03.2020
477 Clear 17 1014 25 10000 2.56 266 10:39 31.03.2020
478 Clear 17 1014 25 10000 2.56 266 10:21 31.03.2020
479 Clouds 18 1015 27 10000 1.5 230 09:56 31.03.2020
480 Clouds 18 1015 27 10000 1.5 230 09:37 31.03.2020
481 Clouds 18 1015 27 10000 1.5 230 09:37 31.03.2020
482 Clouds 18 1015 27 10000 1.5 230 09:37 31.03.2020
483 Clouds 18 1015 27 10000 1.5 230 09:19 31.03.2020
484 Clear 18 1015 27 10000 3.15 269 08:56 31.03.2020
485 Clear 18 1015 27 10000 3.15 269 08:37 31.03.2020
486 Clear 18 1015 27 10000 3.15 269 08:18 31.03.2020
487 Clear 18 1016 25 10000 3.1 250 07:44 31.03.2020
488 Clear 18 1017 26 10000 2.1 250 07:26 31.03.2020
489 Clear 17 1017 26 10000 2.1 250 06:59 31.03.2020
490 Clear 17 1017 26 10000 2.1 250 06:41 31.03.2020
491 Clear 16 1018 29 10000 1.64 242 05:44 31.03.2020
492 Clear 16 1018 29 10000 1.64 242 05:24 31.03.2020
493 Clear 9 1020 42 10000 0.52 173 02:56 31.03.2020
494 Clear 6 1020 65 10000 0.34 195 01:47 31.03.2020
495 Clear 5 1020 65 10000 0.34 195 01:22 31.03.2020
496 Clouds 2 1020 100 10000 1 300 00:43 31.03.2020
497 Clouds 2 1020 100 10000 1 300 00:23 31.03.2020
498 Clouds 2 1019 51 10000 1 350 23:40 30.03.2020
499 Clouds 2 1019 51 10000 1 350 23:20 30.03.2020
500 Clouds 1 1019 86 10000 2.6 130 22:57 30.03.2020
501 Clouds 1 1019 86 10000 2.6 130 22:38 30.03.2020
502 Clear 2 1020 51 10000 0.54 169 22:19 30.03.2020
503 Clear 2 1020 51 10000 0.54 169 21:57 30.03.2020
504 Clear 2 1020 51 10000 0.54 169 21:38 30.03.2020
505 Clear 3 1020 48 10000 0.5 213 21:20 30.03.2020
506 Clear 3 1020 48 10000 0.5 213 20:57 30.03.2020
507 Clear 3 1020 48 10000 0.5 213 20:38 30.03.2020
508 Clear 4 1020 48 10000 0.5 213 20:19 30.03.2020
509 Clear 4 1020 48 10000 0.5 213 20:19 30.03.2020
510 Clear 3 1020 65 10000 0.5 213 19:41 30.03.2020
511 Clear 3 1020 65 10000 0.5 213 19:41 30.03.2020
512 Clear 3 1020 65 10000 0.5 213 19:22 30.03.2020
513 Clear 4 1020 60 10000 0.5 213 18:57 30.03.2020
514 Clear 4 1020 60 10000 0.5 213 18:39 30.03.2020
515 Clear 5 1020 45 10000 0.91 271 18:21 30.03.2020
516 Clear 5 1020 45 10000 0.91 271 17:57 30.03.2020
517 Clear 6 1020 45 10000 0.91 271 17:38 30.03.2020
518 Clear 6 1021 39 10000 0.91 271 17:19 30.03.2020
519 Clear 6 1021 39 10000 0.91 271 16:56 30.03.2020
520 Clear 6 1021 39 10000 0.91 271 16:37 30.03.2020
521 Clear 6 1021 39 10000 0.91 271 16:19 30.03.2020
522 Clear 7 1020 36 10000 0.91 271 15:54 30.03.2020
523 Clear 7 1020 36 10000 0.91 271 15:36 30.03.2020
524 Clear 7 1020 36 10000 1.43 260 15:18 30.03.2020
525 Clear 8 1020 34 10000 1.43 260 14:39 30.03.2020
526 Clear 8 1020 34 10000 1.56 260 14:19 30.03.2020
527 Clear 10 1019 40 10000 2.1 300 13:59 30.03.2020
528 Clear 10 1019 40 10000 2.1 300 13:40 30.03.2020
529 Clear 10 1019 40 10000 2.1 300 13:20 30.03.2020
530 Clear 11 1019 32 10000 1.56 260 12:55 30.03.2020
531 Clear 12 1019 32 10000 1.56 260 12:36 30.03.2020
532 Clear 13 1018 33 10000 3.36 270 12:18 30.03.2020
533 Clear 13 1018 33 10000 3.36 270 12:18 30.03.2020
534 Clear 14 1018 33 10000 3.36 270 11:43 30.03.2020
535 Clear 15 1018 33 10000 3.36 270 11:24 30.03.2020
536 Clear 16 1018 26 10000 3.36 270 10:59 30.03.2020
537 Clear 16 1018 26 10000 3.36 270 10:39 30.03.2020
538 Clear 16 1018 26 10000 3.36 270 10:21 30.03.2020
539 Clear 17 1018 25 10000 2.1 240 09:54 30.03.2020
540 Clear 17 1018 25 10000 2.1 240 09:54 30.03.2020
541 Clear 17 1018 25 10000 2.1 240 09:36 30.03.2020
542 Clear 17 1018 25 10000 2.1 240 09:18 30.03.2020
543 Clear 16 1018 21 10000 2.1 250 08:39 30.03.2020
544 Clear 16 1018 21 10000 2.1 250 08:20 30.03.2020
545 Clear 16 1019 22 10000 2.1 330 07:45 30.03.2020
546 Clear 16 1019 22 10000 2.1 330 07:23 30.03.2020
547 Clear 15 1020 26 10000 2.62 254 06:47 30.03.2020
548 Clear 15 1020 26 10000 2.62 254 06:27 30.03.2020
549 Clear 14 1021 28 10000 2.01 203 05:44 30.03.2020
550 Clear 12 1021 32 10000 2.6 180 04:37 30.03.2020
551 Clear 12 1022 40 10000 2.01 203 04:18 30.03.2020
552 Clear 9 1022 46 10000 1.54 188 02:45 30.03.2020
553 Clear 6 1022 61 10000 1.2 206 01:58 30.03.2020
554 Clear 5 1022 61 10000 1.2 206 01:18 30.03.2020
555 Clear 1 1021 48 10000 1.2 206 00:29 30.03.2020
556 Clear 1 1021 57 10000 1.05 230 23:56 29.03.2020
557 Clear 1 1021 57 10000 1.05 230 23:37 29.03.2020
558 Clear 1 1021 57 10000 1.05 230 23:19 29.03.2020
559 Clear 1 1020 57 10000 1.05 230 22:41 29.03.2020
560 Clear 2 1020 57 10000 1.05 230 22:20 29.03.2020
561 Clear 3 1020 75 10000 1.05 230 21:59 29.03.2020
562 Clear 3 1020 75 10000 1.05 230 21:38 29.03.2020
563 Clear 2 1020 75 10000 1.43 238 21:20 29.03.2020
564 Clear 3 1020 70 10000 1.43 238 20:55 29.03.2020
565 Clear 3 1020 70 10000 1.43 238 20:37 29.03.2020
566 Clear 3 1020 70 10000 1.43 238 20:37 29.03.2020
567 Clear 3 1020 56 10000 1.43 238 20:19 29.03.2020
568 Clear 3 1020 56 10000 1.43 238 19:57 29.03.2020
569 Clear 3 1020 56 10000 1.43 238 19:57 29.03.2020
570 Clear 3 1020 56 10000 1.43 238 19:39 29.03.2020
571 Clear 4 1020 56 10000 1.43 238 19:21 29.03.2020
572 Clear 4 1020 48 10000 1.43 238 18:57 29.03.2020
573 Clear 4 1020 48 10000 1.43 238 18:38 29.03.2020
574 Clear 4 1020 52 10000 1.48 228 18:18 29.03.2020
575 Clear 4 1020 52 10000 1.48 228 17:55 29.03.2020
576 Clear 5 1020 52 10000 1.48 228 17:37 29.03.2020
577 Clear 5 1020 52 10000 1.48 228 17:18 29.03.2020
578 Clear 6 1020 42 10000 1.48 228 16:55 29.03.2020
579 Clear 6 1020 42 10000 1.48 228 16:36 29.03.2020
580 Clear 6 1020 39 10000 1.48 228 16:18 29.03.2020
581 Clear 7 1020 39 10000 1.48 228 15:41 29.03.2020
582 Clear 7 1020 39 10000 1.48 228 15:23 29.03.2020
583 Clear 7 1020 39 10000 1.48 228 15:23 29.03.2020
584 Clear 8 1020 39 10000 1.63 319 14:57 29.03.2020
585 Clear 8 1020 39 10000 1.63 319 14:39 29.03.2020
586 Clear 8 1020 34 10000 1.46 331 14:19 29.03.2020
587 Clear 9 1020 34 10000 1.46 331 13:56 29.03.2020
588 Clear 9 1020 34 10000 1.46 331 13:38 29.03.2020
589 Clear 10 1020 34 10000 1.46 331 13:19 29.03.2020
590 Clear 10 1019 40 10000 1.46 331 12:55 29.03.2020
591 Clear 11 1019 40 10000 1.46 331 12:37 29.03.2020
592 Haze 11 1019 37 9000 1.5 310 12:18 29.03.2020
593 Haze 11 1019 37 9000 1.5 310 12:18 29.03.2020
594 Haze 13 1019 37 9000 1.5 310 11:39 29.03.2020
595 Haze 13 1019 35 9000 1.5 270 11:21 29.03.2020
596 Haze 14 1019 35 9000 1.5 270 10:55 29.03.2020
597 Haze 15 1019 35 9000 1.5 270 10:37 29.03.2020
598 Haze 15 1019 35 9000 1.5 270 10:18 29.03.2020
599 Clear 15 1019 25 10000 3.02 298 09:39 29.03.2020
600 Clear 15 1019 25 10000 1.74 214 09:19 29.03.2020
601 Clear 15 1019 28 10000 1.74 214 08:52 29.03.2020
602 Clear 15 1019 28 10000 1.74 214 08:28 29.03.2020
603 Clear 15 1020 26 10000 1.74 214 07:56 29.03.2020
604 Clear 14 1020 26 10000 1.74 214 07:38 29.03.2020
605 Clear 14 1020 26 10000 1.74 214 07:19 29.03.2020
606 Clear 11 1023 34 10000 2.03 152 04:59 29.03.2020
607 Clear 9 1023 36 10000 2.03 152 03:42 29.03.2020
608 Clear 9 1023 36 10000 2.04 94 03:24 29.03.2020
609 Clear 7 1023 36 10000 2.04 94 01:50 29.03.2020
610 Clear 6 1024 38 10000 1.5 80 01:23 29.03.2020
611 Clear 4 1024 38 10000 1.5 80 00:53 29.03.2020
612 Clear 3 1024 38 10000 1.5 80 00:29 29.03.2020
613 Clear 0 1023 55 10000 2.02 90 23:41 28.03.2020
614 Clear 0 1023 56 10000 0.84 53 23:23 28.03.2020
615 Clear -1 1023 56 10000 0.84 53 22:57 28.03.2020
616 Clear -1 1023 56 10000 0.84 53 22:37 28.03.2020
617 Clear -1 1023 56 10000 0.84 53 22:18 28.03.2020
618 Clear -1 1022 56 10000 0.84 53 21:41 28.03.2020
619 Clear -1 1022 56 10000 0.84 53 21:23 28.03.2020
620 Clear 0 1022 55 10000 0.84 53 20:58 28.03.2020
621 Clear 0 1022 55 10000 0.84 53 20:39 28.03.2020
622 Clear 0 1022 55 10000 0.87 340 20:20 28.03.2020
623 Clear 0 1022 55 10000 0.87 340 19:56 28.03.2020
624 Clear 0 1022 55 10000 0.87 340 19:36 28.03.2020
625 Clear 1 1022 51 10000 0.87 340 19:18 28.03.2020
626 Clear 1 1022 51 10000 0.87 340 18:47 28.03.2020
627 Clear 1 1022 51 10000 0.87 340 18:22 28.03.2020
628 Clear 1 1022 51 10000 0.87 340 17:58 28.03.2020
629 Clear 2 1022 44 10000 0.87 340 17:38 28.03.2020
630 Clear 3 1022 35 10000 2.16 324 17:18 28.03.2020
631 Clear 3 1022 35 10000 2.16 324 16:42 28.03.2020
632 Clear 3 1022 35 10000 2.16 324 16:20 28.03.2020
633 Clear 4 1021 33 10000 2.16 324 15:55 28.03.2020
634 Clear 4 1021 33 10000 2.16 324 15:37 28.03.2020
635 Clear 4 1021 33 10000 2.16 324 15:18 28.03.2020
636 Clear 5 1021 28 10000 1.5 300 14:42 28.03.2020
637 Clear 5 1021 28 10000 1.5 300 14:22 28.03.2020
638 Clear 6 1021 28 10000 1.5 300 13:46 28.03.2020
639 Clear 6 1021 28 10000 1.5 300 13:26 28.03.2020
640 Clear 7 1020 21 10000 2.1 340 12:57 28.03.2020
641 Clear 7 1020 21 10000 2.1 340 12:37 28.03.2020
642 Clear 8 1019 18 10000 2.1 320 12:18 28.03.2020
643 Clear 9 1019 18 10000 2.1 320 11:42 28.03.2020
644 Clear 10 1019 17 10000 4.2 320 11:21 28.03.2020
645 Clear 10 1019 17 10000 4.2 320 11:21 28.03.2020
646 Clear 10 1019 17 10000 4.2 320 10:40 28.03.2020
647 Clear 11 1019 17 10000 4.2 320 10:22 28.03.2020
648 Clear 12 1018 16 10000 1.5 340 09:56 28.03.2020
649 Clear 12 1018 16 10000 1.5 340 09:37 28.03.2020
650 Clear 12 1018 17 10000 2.6 220 09:19 28.03.2020
651 Clear 12 1018 17 10000 2.6 220 08:42 28.03.2020
652 Clear 12 1018 17 10000 2.6 220 08:22 28.03.2020
653 Clear 12 1019 17 10000 3.1 210 07:46 28.03.2020
654 Clear 12 1019 17 10000 3.1 210 07:28 28.03.2020
655 Clear 12 1019 17 10000 2.6 260 06:37 28.03.2020
656 Clear 12 1019 17 10000 2.6 260 06:18 28.03.2020
657 Clear 10 1021 19 10000 2.1 40 05:21 28.03.2020
658 Clear 10 1021 19 10000 2.1 40 04:42 28.03.2020
659 Clear 9 1023 19 10000 1.5 240 03:55 28.03.2020
660 Clouds 7 1023 22 10000 1.5 350 02:26 28.03.2020
661 Clear 6 1023 22 10000 1.5 310 01:43 28.03.2020
662 Clear 6 1023 22 10000 1.5 310 01:18 28.03.2020
663 Clear 5 1023 20 10000 5.24 340 00:45 28.03.2020
664 Clear 5 1023 18 10000 1.5 350 23:59 27.03.2020
665 Clear 4 1023 18 10000 1.5 350 23:41 27.03.2020
666 Clear 4 1023 18 10000 1.5 350 23:41 27.03.2020
667 Clear 4 1022 17 10000 6.18 341 23:21 27.03.2020
668 Clear 4 1022 17 10000 6.18 341 22:56 27.03.2020
669 Clear 4 1022 17 10000 6.18 341 22:37 27.03.2020
670 Clear 4 1022 17 10000 6.18 341 22:19 27.03.2020
671 Clouds 5 1022 17 10000 1.5 330 21:44 27.03.2020
672 Clouds 5 1022 17 10000 1.5 330 21:25 27.03.2020
673 Clouds 5 1022 17 10000 1.5 330 21:25 27.03.2020
674 Clouds 6 1021 20 10000 2.1 330 20:59 27.03.2020
675 Clouds 6 1021 20 10000 2.1 330 20:41 27.03.2020
676 -273 0 0 0 0 0 20:20 27.03.2020
677 Clouds 6 1021 24 10000 2.6 310 19:58 27.03.2020
678 Clouds 6 1021 24 10000 2.6 310 19:39 27.03.2020
679 Clouds 6 1021 24 10000 2.6 310 19:20 27.03.2020
680 Clouds 7 1021 33 10000 2.6 320 18:44 27.03.2020
681 Clouds 7 1021 33 10000 2.6 320 18:25 27.03.2020
682 Clouds 7 1021 33 10000 2.6 320 17:58 27.03.2020
683 Clear 7 1020 28 10000 3.1 330 17:39 27.03.2020
684 Clouds 7 1020 31 10000 2.6 320 17:19 27.03.2020
685 Clouds 7 1020 31 10000 2.6 320 16:44 27.03.2020
686 Clouds 7 1020 31 10000 2.6 320 16:25 27.03.2020
687 Clear 7 1019 31 10000 2.6 320 15:55 27.03.2020
688 Clear 7 1019 31 10000 2.6 320 15:37 27.03.2020
689 Clear 8 1018 31 10000 6.99 325 15:19 27.03.2020
690 Clear 8 1018 31 10000 6.99 325 14:43 27.03.2020
691 Clear 9 1017 34 10000 6.61 320 14:24 27.03.2020
692 Clear 9 1017 34 10000 6.61 320 13:55 27.03.2020
693 Clear 9 1017 34 10000 6.61 320 13:36 27.03.2020
694 Clear 10 1015 34 10000 1.5 280 13:18 27.03.2020
695 Clear 10 1015 34 10000 1.5 280 12:42 27.03.2020
696 Clear 10 1015 34 10000 1.5 280 12:19 27.03.2020
697 Clear 12 1014 34 10000 6.27 316 11:55 27.03.2020
698 Clear 12 1014 34 10000 6.27 316 11:55 27.03.2020
699 Clear 12 1014 34 10000 6.27 316 11:36 27.03.2020
700 Clear 13 1013 35 10000 6.16 302 11:18 27.03.2020
701 Clear 13 1013 35 10000 6.16 302 10:41 27.03.2020
702 Clear 14 1013 33 10000 2.1 310 10:22 27.03.2020
703 Clear 15 1013 33 10000 2.1 310 09:58 27.03.2020
704 Clear 15 1013 33 10000 2.1 310 09:40 27.03.2020
705 Clear 15 1013 33 10000 2.1 310 09:21 27.03.2020
706 Clear 16 1013 38 10000 2.6 290 08:58 27.03.2020
707 Clear 16 1013 38 10000 2.6 290 08:39 27.03.2020
708 Clear 16 1012 44 10000 2.6 320 08:21 27.03.2020
709 Clear 17 1012 44 10000 2.6 320 07:53 27.03.2020
710 Clear 17 1012 44 10000 2.6 320 07:28 27.03.2020
711 Clear 16 1012 44 10000 2.6 320 06:59 27.03.2020
712 Clear 16 1011 48 10000 1.5 310 06:37 27.03.2020
713 Clouds 16 1012 58 10000 2.6 310 05:38 27.03.2020
714 Clouds 14 1012 82 10000 2.1 270 02:51 27.03.2020
715 Mist 11 1012 87 6000 1.5 270 01:50 27.03.2020
716 Mist 12 1011 87 6000 3.2 298 00:55 27.03.2020
717 Mist 12 1010 87 6000 3.2 298 00:32 27.03.2020
718 Mist 12 1010 93 6000 3.2 298 23:44 26.03.2020
719 Rain 12 1010 93 6000 3.2 298 23:24 26.03.2020
720 Rain 13 1010 93 6000 2.37 307 22:59 26.03.2020
721 Rain 13 1010 93 6000 2.37 307 22:59 26.03.2020
722 Rain 13 1010 93 6000 2.37 307 22:39 26.03.2020
723 Rain 13 1010 93 6000 2.37 307 22:20 26.03.2020
724 Rain 13 1010 93 4800 2.37 307 21:57 26.03.2020
725 Rain 13 1010 93 4800 2.37 307 21:39 26.03.2020
726 Rain 13 1010 93 4800 2.37 307 21:20 26.03.2020
727 Rain 13 1010 93 4800 1.5 280 20:58 26.03.2020
728 Rain 13 1010 93 4800 2.37 307 20:38 26.03.2020
729 Rain 13 1010 93 4800 2.37 307 20:38 26.03.2020
730 Rain 13 1010 93 4800 1.4 309 20:20 26.03.2020
731 Rain 13 1010 93 4800 1.61 308 20:20 26.03.2020
732 Mist 13 1010 100 3600 1.61 308 19:56 26.03.2020
733 Rain 13 1010 100 4000 1.61 308 19:37 26.03.2020
734 Mist 14 1011 93 3600 1.61 308 19:19 26.03.2020
735 Mist 14 1011 93 3600 1.61 308 18:55 26.03.2020
736 Rain 14 1011 100 2800 1.61 308 18:36 26.03.2020
737 Rain 14 1011 100 4800 1.61 308 18:18 26.03.2020
738 Rain 14 1011 100 3200 1.61 308 17:42 26.03.2020
739 Rain 14 1011 100 3200 1.26 356 17:18 26.03.2020
740 Rain 14 1011 100 3600 1.26 356 16:45 26.03.2020
741 Rain 14 1011 100 3600 1.26 356 16:45 26.03.2020
742 Rain 14 1011 100 3600 1.26 356 16:26 26.03.2020
743 Rain 14 1012 100 2600 1.26 356 15:58 26.03.2020
744 Mist 14 1012 93 4400 1.26 356 15:39 26.03.2020
745 Mist 14 1012 93 4400 1.26 356 15:21 26.03.2020
746 Rain 15 1012 93 4400 1.26 356 14:57 26.03.2020
747 Mist 15 1012 87 8000 1.26 356 14:38 26.03.2020
748 Mist 15 1012 87 8000 0.8 46 14:18 26.03.2020
749 Mist 15 1012 87 9000 0.8 46 13:41 26.03.2020
750 Mist 15 1012 87 9000 0.8 46 13:23 26.03.2020
751 Mist 15 1012 87 9000 1.5 60 12:56 26.03.2020
752 Clouds 15 1012 87 10000 1.41 85 12:37 26.03.2020
753 Clouds 16 1012 87 10000 1.41 85 12:18 26.03.2020
754 Mist 16 1012 87 8000 1.41 85 11:44 26.03.2020
755 Haze 16 1012 77 9000 0.87 46 11:20 26.03.2020
756 Haze 17 1012 77 9000 0.87 46 10:55 26.03.2020
757 Haze 17 1012 67 9000 3.6 150 10:36 26.03.2020
758 Haze 17 1012 67 9000 3.6 150 10:18 26.03.2020
759 Clouds 19 1012 52 10000 2.1 150 09:42 26.03.2020
760 Clouds 19 1012 52 10000 2.1 180 09:19 26.03.2020
761 Clouds 19 1012 52 10000 2.1 150 09:19 26.03.2020
762 Clouds 20 1013 45 10000 2.6 170 08:44 26.03.2020
763 Clouds 20 1013 40 10000 2.1 180 08:26 26.03.2020
764 Clouds 20 1013 40 10000 2.1 180 07:57 26.03.2020
765 Clouds 20 1013 40 10000 2.1 180 07:57 26.03.2020
766 Clouds 20 1013 40 10000 2.1 180 07:38 26.03.2020
767 Clouds 20 1014 32 10000 1.55 101 07:19 26.03.2020
768 Clouds 21 1014 32 10000 1.55 101 06:33 26.03.2020
769 Clouds 21 1015 34 10000 1.5 20 05:48 26.03.2020
770 Clouds 19 1016 34 10000 3.6 100 03:46 26.03.2020
771 Haze 17 1017 41 9000 2.6 50 02:58 26.03.2020
772 Haze 17 1017 41 9000 2.6 50 02:58 26.03.2020
773 Clear 14 1018 47 10000 1.62 97 01:51 26.03.2020
774 Clear 13 1018 58 10000 1.62 97 01:18 26.03.2020
775 Clear 11 1018 58 10000 1.6 87 00:32 26.03.2020
776 Clear 6 1018 70 10000 1.6 87 23:44 25.03.2020
777 Clear 6 1018 70 10000 1.6 87 23:24 25.03.2020
778 Clear 6 1018 70 10000 1.08 91 22:43 25.03.2020
779 Clear 6 1018 70 10000 1.08 91 22:23 25.03.2020
780 Clear 7 1018 70 10000 1.08 91 21:59 25.03.2020
781 Clear 7 1018 70 10000 1.08 91 21:41 25.03.2020
782 Clear 7 1018 70 10000 1.08 91 21:23 25.03.2020
783 Clear 7 1018 93 6000 1.5 320 20:57 25.03.2020
784 Clear 7 1018 93 6000 1.5 320 20:38 25.03.2020
785 Clear 7 1018 93 6000 1.5 320 20:38 25.03.2020
786 Clear 7 1018 70 10000 0.61 98 20:18 25.03.2020
787 Clear 8 1018 70 10000 0.55 70 19:43 25.03.2020
788 Clear 8 1018 70 10000 0.55 70 19:24 25.03.2020
789 Clear 8 1018 70 10000 0.61 82 18:59 25.03.2020
790 Clear 8 1018 70 10000 0.55 70 18:41 25.03.2020
791 Clear 8 1018 70 10000 0.55 70 18:23 25.03.2020
792 Clear 8 1018 70 10000 0.55 70 17:58 25.03.2020
793 Clear 8 1018 70 10000 0.55 70 17:58 25.03.2020
794 Clear 8 1018 66 10000 0.55 70 17:39 25.03.2020
795 Clear 9 1019 61 10000 0.2 20 17:21 25.03.2020
796 Clear 10 1019 61 10000 0.2 20 16:55 25.03.2020
797 Clear 10 1019 61 10000 0.2 20 16:36 25.03.2020
798 Clear 10 1019 61 10000 0.2 20 16:18 25.03.2020
799 Clear 10 1019 61 10000 0.2 20 15:41 25.03.2020
800 Clear 10 1019 61 10000 0.59 52 15:20 25.03.2020
801 Clear 11 1019 62 10000 0.2 20 14:56 25.03.2020
802 Clear 11 1019 62 10000 0.2 20 14:37 25.03.2020
803 Clear 11 1019 62 10000 0.8 322 14:18 25.03.2020
804 Clear 12 1019 58 10000 0.8 322 13:42 25.03.2020
805 Clear 12 1019 58 10000 0.8 322 13:22 25.03.2020
806 Clear 14 1018 50 10000 0.81 337 12:38 25.03.2020
807 Clouds 14 1018 38 10000 0.81 337 12:20 25.03.2020
808 Clouds 14 1018 38 10000 0.81 337 11:56 25.03.2020
809 Clouds 14 1018 38 10000 0.81 337 11:38 25.03.2020
810 Clouds 15 1019 38 10000 3.37 285 11:20 25.03.2020
811 Clouds 16 1019 38 10000 3.37 285 10:57 25.03.2020
812 Clouds 16 1019 38 10000 3.37 285 10:39 25.03.2020
813 Clouds 16 1019 38 10000 3.37 285 10:18 25.03.2020
814 Clouds 17 1018 36 10000 3.37 285 09:43 25.03.2020
815 Clouds 17 1018 36 10000 3.37 285 09:24 25.03.2020
816 Clouds 18 1018 36 10000 3.1 270 08:57 25.03.2020
817 Clouds 18 1018 36 10000 3.1 270 08:39 25.03.2020
818 Clouds 18 1018 27 10000 3.1 270 08:19 25.03.2020
819 Clouds 19 1018 24 10000 2.73 243 07:41 25.03.2020
820 Clouds 19 1018 24 10000 2.73 243 07:22 25.03.2020
821 Clear 19 1019 24 10000 1.5 270 06:48 25.03.2020
822 Clear 19 1019 24 10000 1.5 270 06:28 25.03.2020
823 Clear 18 1019 24 10000 1.5 270 05:56 25.03.2020
824 Haze 18 1021 25 8000 2.73 243 05:30 25.03.2020
825 Haze 18 1021 25 8000 2.28 197 04:39 25.03.2020
826 Haze 15 1021 30 8000 1.5 10 03:36 25.03.2020
827 Clear 14 1022 35 10000 2.28 197 02:31 25.03.2020
828 Clear 11 1021 40 10000 1.5 130 01:21 25.03.2020
829 Clear 8 1021 39 10000 0.91 147 00:48 25.03.2020
830 Clear 8 1021 39 10000 0.91 147 00:23 25.03.2020
831 Clear 4 1021 69 10000 0.91 147 23:45 24.03.2020
832 Clear 4 1021 69 10000 0.91 147 23:26 24.03.2020
833 Clear 4 1021 65 10000 0.79 136 22:56 24.03.2020
834 Clear 4 1021 65 10000 0.79 136 22:37 24.03.2020
835 Clear 4 1021 65 10000 0.79 136 22:19 24.03.2020
836 Clear 4 1021 65 10000 0.79 136 22:19 24.03.2020
837 Clear 4 1020 69 10000 0.79 136 21:56 24.03.2020
838 Clear 4 1020 69 10000 0.79 136 21:37 24.03.2020
839 Clear 4 1020 65 10000 0.79 136 21:18 24.03.2020
840 Clear 5 1020 65 10000 0.79 136 20:43 24.03.2020
841 Clear 5 1020 65 10000 0.79 136 20:24 24.03.2020
842 Clear 5 1020 65 10000 0.9 172 19:59 24.03.2020
843 Clear 5 1020 65 10000 0.9 172 19:41 24.03.2020
844 Clear 5 1020 65 10000 0.9 172 19:19 24.03.2020
845 Clear 5 1020 65 10000 0.9 172 18:55 24.03.2020
846 Clear 6 1020 60 10000 0.9 172 18:36 24.03.2020
847 Clear 6 1020 60 10000 0.9 172 18:18 24.03.2020
848 Clear 6 1020 60 10000 0.9 172 17:42 24.03.2020
849 Clear 6 1020 56 10000 0.9 172 17:22 24.03.2020
850 Clear 6 1022 60 10000 0.84 250 16:58 24.03.2020
851 Clear 6 1021 60 10000 0.5 180 16:39 24.03.2020
852 Clear 6 1022 60 10000 1 160 16:21 24.03.2020
853 Clear 7 1022 48 10000 0.5 120 15:57 24.03.2020
854 Clear 7 1021 56 10000 0.5 280 15:37 24.03.2020
855 Clear 7 1022 48 10000 0.5 120 15:19 24.03.2020
856 Clear 8 1021 49 10000 0.5 170 14:42 24.03.2020
857 Clear 10 1021 40 10000 1.55 268 14:19 24.03.2020
858 Clear 10 1020 34 10000 1.55 268 13:42 24.03.2020
859 Clear 10 1020 34 10000 1.68 260 13:24 24.03.2020
860 Clear 12 1020 32 10000 1.68 260 12:54 24.03.2020
861 Clear 12 1020 32 10000 1.68 260 12:36 24.03.2020
862 Clear 12 1019 30 10000 1.68 260 12:18 24.03.2020
863 Clear 12 1019 30 10000 1.68 260 12:18 24.03.2020
864 Clear 13 1019 30 10000 1.68 260 11:39 24.03.2020
865 Clear 13 1018 28 10000 1 220 11:19 24.03.2020
866 Clear 15 1018 26 10000 0.5 240 10:43 24.03.2020
867 Clear 15 1018 26 10000 0.5 240 10:43 24.03.2020
868 Clear 16 1018 29 10000 3.19 270 10:20 24.03.2020
869 Clear 17 1020 29 10000 2.1 280 09:58 24.03.2020
870 Clear 17 1018 17 10000 1.5 220 09:39 24.03.2020
871 Clear 17 1020 20 10000 2.6 240 09:21 24.03.2020
872 Clear 17 1018 18 10000 2.1 210 08:38 24.03.2020
873 Clear 17 1018 25 10000 2.6 270 08:20 24.03.2020
874 Clear 17 1020 20 10000 2.1 160 07:47 24.03.2020
875 Clear 17 1020 21 10000 2.1 40 07:24 24.03.2020
876 Clear 17 1021 21 10000 1.5 130 06:52 24.03.2020
877 Clear 17 1020 17 10000 2.6 230 06:25 24.03.2020
878 Clear 15 1022 19 10000 2.6 200 04:57 24.03.2020
879 Clear 14 1023 22 10000 1.5 190 03:48 24.03.2020
880 Clear 12 1023 32 10000 2.1 160 02:49 24.03.2020
881 Clear 9 1022 45 10000 1.5 10 01:42 24.03.2020
882 Clear 6 1021 60 10000 0.5 30 00:44 24.03.2020
883 Haze 6 1023 41 6000 0.5 210 00:23 24.03.2020
884 Mist 2 1022 86 4000 0.5 90 23:44 23.03.2020
885 Mist 2 1022 86 4000 0.5 90 23:26 23.03.2020
886 Mist 2 1022 86 4000 0.5 90 23:26 23.03.2020
887 Mist 2 1022 43 3200 0.5 80 22:55 23.03.2020
888 Haze 2 1021 69 8000 0.7 45 22:36 23.03.2020
889 Haze 2 1021 69 8000 0.7 45 22:18 23.03.2020
890 Clear 2 1020 86 10000 0.5 180 21:42 23.03.2020
891 Clear 3 1020 86 10000 0.5 180 21:20 23.03.2020
892 Clear 3 1021 43 6000 1 90 20:57 23.03.2020
893 Clear 3 1021 43 6000 1 90 20:57 23.03.2020
894 Clear 3 1020 80 10000 0.5 180 20:38 23.03.2020
895 Clear 4 1019 35 10000 1.5 350 20:19 23.03.2020
896 Clear 4 1019 74 10000 0.5 150 19:45 23.03.2020
897 Clear 4 1019 75 10000 0.69 322 19:27 23.03.2020
898 Clear 4 1019 75 10000 0.69 322 18:57 23.03.2020
899 Haze 5 1021 69 8000 1 150 18:39 23.03.2020
900 Clear 5 1019 70 10000 0.69 322 18:20 23.03.2020
901 Clear 5 1020 69 10000 1 330 17:42 23.03.2020
902 Clear 5 1019 69 10000 0.5 160 17:21 23.03.2020
903 Clear 6 1018 65 10000 1.44 309 16:57 23.03.2020
904 Clear 6 1020 60 10000 1 60 16:39 23.03.2020
905 Clear 6 1018 86 8000 1.5 300 16:20 23.03.2020
906 Clear 7 1018 56 10000 0.5 180 15:42 23.03.2020
907 Clear 7 1020 34 10000 0.5 130 15:20 23.03.2020
908 Clear 8 1019 34 10000 0.5 130 14:38 23.03.2020
909 Clear 8 1017 52 10000 0.5 120 14:20 23.03.2020
910 Clear 8 1017 52 10000 0.5 120 14:20 23.03.2020
911 Clear 9 1019 43 10000 1.5 150 13:59 23.03.2020
912 Clear 9 1017 49 10000 0.5 140 13:40 23.03.2020
913 Clear 9 1017 46 10000 1 170 13:20 23.03.2020
914 Clear 10 1017 37 10000 0.5 250 12:45 23.03.2020
915 Clear 10 1016 32 10000 1.5 270 12:25 23.03.2020
916 Clear 11 1016 37 10000 2.6 320 11:59 23.03.2020
917 Clear 12 1017 32 10000 0.5 350 11:40 23.03.2020
918 Clear 13 1017 38 10000 2.1 270 11:19 23.03.2020
919 Clear 13 1015 38 10000 0.5 290 10:57 23.03.2020
920 Clear 14 1017 38 10000 2.6 270 10:38 23.03.2020
921 Clear 14 1017 38 10000 2.6 270 10:20 23.03.2020
922 Clear 16 1014 20 10000 1 280 09:44 23.03.2020
923 Clear 16 1015 31 10000 4.6 250 09:21 23.03.2020
924 Clear 16 1016 23 10000 1.5 220 08:56 23.03.2020
925 Thunderstorm 17 1016 26 10000 3.6 280 08:36 23.03.2020
926 Thunderstorm 17 1016 26 10000 3.6 280 08:18 23.03.2020
927 Clear 17 1014 27 10000 1.5 220 07:42 23.03.2020
928 Haze 17 1015 29 9000 5.62 291 07:21 23.03.2020
929 Clear 16 1014 27 10000 2.6 210 06:49 23.03.2020
930 Clear 16 1015 25 10000 1 210 05:51 23.03.2020
931 Haze 15 1016 31 9000 2.6 200 04:58 23.03.2020
932 Clear 13 1018 28 10000 0.5 150 03:26 23.03.2020
933 Clear 10 1018 39 10000 1.5 210 01:50 23.03.2020
934 Clear 6 1019 45 10000 1 260 00:52 23.03.2020
935 Haze 6 1020 64 9000 0.5 330 00:33 23.03.2020
936 Clear 3 1020 69 10000 0.5 160 23:46 22.03.2020
937 Clear 2 1018 48 10000 1.93 215 23:25 22.03.2020
938 Clear 2 1019 35 10000 0.5 70 22:45 22.03.2020
939 Clear 2 1019 35 10000 0.5 70 22:23 22.03.2020
940 Clear 2 1019 35 10000 0.5 340 21:55 22.03.2020
941 Clear 2 1018 35 10000 0.5 150 21:37 22.03.2020
942 Clear 2 1017 64 10000 1 170 21:19 22.03.2020
943 Clear 2 1017 55 10000 0.5 180 20:46 22.03.2020
944 Clear 2 1017 51 10000 1.25 233 20:25 22.03.2020
945 Clear 2 1017 51 10000 0.81 254 20:25 22.03.2020
946 Clear 4 1018 51 10000 1 120 19:58 22.03.2020
947 Clear 4 1017 51 10000 0.5 150 19:40 22.03.2020
948 Clear 4 1018 55 10000 0.5 140 19:20 22.03.2020
949 Clear 5 1019 51 10000 1 140 18:58 22.03.2020
950 Clear 5 1019 51 10000 0.5 140 18:40 22.03.2020
951 Clear 5 1019 51 10000 0.5 140 18:21 22.03.2020
952 Clear 5 1019 47 10000 2.1 130 17:57 22.03.2020
953 Clear 5 1020 51 10000 1 130 17:38 22.03.2020
954 Clear 5 1017 41 10000 0.5 130 17:20 22.03.2020
955 Clear 6 1020 44 10000 0.5 280 16:57 22.03.2020
956 Clear 7 1017 31 10000 1.49 269 16:39 22.03.2020
957 Clear 7 1018 48 10000 1.5 290 16:21 22.03.2020
958 Clear 7 1017 31 10000 1.49 269 16:20 22.03.2020
959 Clear 8 1017 29 10000 1.5 340 15:40 22.03.2020
960 Clear 8 1018 45 10000 3.6 330 15:21 22.03.2020
961 Clear 9 1019 31 10000 1.5 360 14:46 22.03.2020
962 Clear 9 1017 45 10000 4.1 340 14:19 22.03.2020
963 Clear 9 1017 45 10000 4.1 340 14:19 22.03.2020
964 Clear 10 1016 20 10000 1 270 13:44 22.03.2020
965 Clear 10 1018 29 10000 3.1 330 13:20 22.03.2020
966 Clear 10 1015 18 10000 1 290 13:20 22.03.2020
967 Clear 11 1018 29 10000 2.1 310 12:58 22.03.2020
968 Clear 11 1015 17 10000 1.5 360 12:39 22.03.2020
969 Clear 12 1017 25 10000 2.1 300 12:19 22.03.2020
970 Clear 12 1016 23 10000 2.1 320 11:43 22.03.2020
971 Clear 12 1016 23 10000 2.1 320 11:25 22.03.2020
972 Clear 14 1013 16 10000 2.1 320 10:58 22.03.2020
973 Haze 14 1013 20 9000 5.95 320 10:40 22.03.2020
974 Haze 14 1013 20 9000 5.95 320 10:21 22.03.2020
975 Clear 15 1012 14 10000 1.5 330 09:45 22.03.2020
976 Clear 15 1014 17 10000 6.2 330 09:27 22.03.2020
977 Clear 16 1014 18 10000 3.6 330 08:48 22.03.2020
978 Haze 16 1012 20 8000 5.95 320 08:30 22.03.2020
979 Haze 17 1012 18 8000 2.1 240 07:54 22.03.2020
980 Haze 17 1012 18 8000 2.1 240 07:36 22.03.2020
981 Clear 16 1014 15 10000 2.6 320 06:41 22.03.2020
982 Clear 16 1012 14 10000 1.5 290 05:41 22.03.2020
983 Clear 15 1013 22 10000 2.1 290 04:39 22.03.2020
984 Clear 10 1015 46 10000 1.5 340 01:45 22.03.2020
985 Clear 8 1014 71 10000 0.5 320 00:49 22.03.2020
986 Clear 8 1017 60 10000 2.1 10 00:30 22.03.2020
987 Clear 6 1014 93 10000 0.5 300 23:45 21.03.2020
988 Clear 6 1014 93 10000 1.15 288 23:22 21.03.2020
989 Clear 6 1016 64 10000 1 60 22:58 21.03.2020
990 Clear 6 1013 81 10000 1.5 270 22:37 21.03.2020
991 Clear 6 1014 56 10000 4.6 330 22:19 21.03.2020
992 Clear 6 1015 56 10000 1.5 70 21:57 21.03.2020
993 Clear 6 1012 87 10000 0.5 180 21:38 21.03.2020
994 Clear 6 1012 87 10000 1.15 288 21:18 21.03.2020
995 Clear 7 1012 81 10000 1.5 210 20:42 21.03.2020
996 Clouds 8 1012 93 10000 0.86 288 20:21 21.03.2020
997 Mist 8 1014 100 2400 1 140 19:54 21.03.2020
998 Mist 9 1012 93 9000 1.5 230 19:36 21.03.2020
999 Mist 9 1014 100 3200 0.5 120 19:18 21.03.2020
1000 Mist 10 1012 93 8000 0.86 288 18:40 21.03.2020
1001 Mist 10 1012 87 8000 1.5 310 18:20 21.03.2020
1002 -273 0 0 0 0 0 17:58 21.03.2020
1003 Mist 10 1014 100 3200 1 200 17:39 21.03.2020
1004 Mist 11 1012 87 9000 1.88 273 17:21 21.03.2020
1005 Clouds 11 1011 81 10000 1.88 273 16:42 21.03.2020
1006 Clouds 11 1011 81 10000 1.88 273 16:22 21.03.2020
1007 Clouds 11 1011 81 10000 1.5 210 15:58 21.03.2020
1008 Clouds 11 1011 71 10000 0.5 180 15:39 21.03.2020
1009 Clear 11 1013 93 6000 1 190 15:21 21.03.2020
1010 Clouds 12 1012 93 6000 0.5 180 14:55 21.03.2020
1011 Clouds 12 1010 76 10000 1.88 273 14:37 21.03.2020
1012 Clouds 12 1010 76 10000 2.16 242 14:18 21.03.2020
1013 Clouds 12 1012 87 8000 1 190 13:57 21.03.2020
1014 Clouds 12 1009 67 10000 0.5 220 13:38 21.03.2020
1015 Clouds 12 1009 67 10000 1.5 180 13:19 21.03.2020
1016 Haze 13 1011 81 8000 2.05 235 12:41 21.03.2020
1017 Clear 13 1009 76 10000 2.05 235 12:20 21.03.2020
1018 Clouds 14 1008 59 10000 2.1 210 11:59 21.03.2020
1019 Haze 15 1011 71 9000 1.5 290 11:39 21.03.2020
1020 Clouds 15 1008 55 10000 2.1 230 11:20 21.03.2020
1021 Haze 16 1011 67 4800 1.5 290 10:58 21.03.2020
1022 Clouds 16 1008 48 10000 1.5 360 10:39 21.03.2020
1023 Clouds 17 1008 59 10000 2.6 240 10:21 21.03.2020
1024 Clouds 18 1010 55 10000 1 260 09:59 21.03.2020
1025 Clear 18 1008 42 10000 1.5 290 09:39 21.03.2020
1026 Clear 18 1007 42 10000 1 320 09:20 21.03.2020
1027 Clouds 19 1010 51 10000 2.6 230 08:55 21.03.2020
1028 Haze 19 1010 51 9000 2.6 220 08:37 21.03.2020
1029 Haze 19 1010 51 9000 2.6 220 08:18 21.03.2020
1030 Clear 19 1008 34 10000 1 260 07:33 21.03.2020
1031 Haze 17 1011 58 9000 3.1 290 06:56 21.03.2020
1032 Haze 18 1012 58 8000 1.5 230 06:36 21.03.2020
1033 Clouds 16 1010 48 10000 1.5 110 06:18 21.03.2020
1034 Clear 16 1012 45 10000 1.5 140 05:23 21.03.2020
1035 Clouds 14 1013 54 10000 1 200 03:38 21.03.2020
1036 Clouds 11 1015 66 10000 2.1 170 02:36 21.03.2020
1037 Clouds 10 1014 42 10000 1 220 01:42 21.03.2020
1038 Clouds 10 1014 57 10000 1.4 159 01:21 21.03.2020
1039 Clouds 9 1015 66 10000 0.5 190 00:38 21.03.2020
1040 Clouds 8 1015 66 10000 0.5 270 23:59 20.03.2020
1041 Clouds 8 1014 66 10000 1.5 170 23:41 20.03.2020
1042 Clouds 8 1014 56 10000 1 160 23:20 20.03.2020
1043 Clouds 8 1014 56 10000 0.5 170 22:43 20.03.2020
1044 Clouds 7 1013 57 10000 1.65 175 22:24 20.03.2020
1045 Clouds 7 1014 61 10000 2.1 180 21:58 20.03.2020
1046 Clouds 7 1013 56 10000 0.5 180 21:39 20.03.2020
1047 Clouds 7 1013 61 10000 2.6 160 21:19 20.03.2020
1048 Clouds 7 1014 57 10000 2.6 170 20:57 20.03.2020
1049 Clouds 6 1013 60 10000 1.65 175 20:39 20.03.2020
1050 Clouds 6 1013 60 10000 0.5 200 20:18 20.03.2020
1051 Clouds 6 1014 70 10000 1 160 19:46 20.03.2020
1052 Clouds 6 1013 55 10000 0.5 340 19:19 20.03.2020
1053 Clouds 6 1014 70 10000 1.5 150 18:56 20.03.2020
1054 Clouds 6 1014 70 10000 1.5 150 18:56 20.03.2020
1055 Clouds 5 1014 60 10000 0.5 10 18:37 20.03.2020
1056 Clouds 6 1013 56 10000 3.55 216 18:19 20.03.2020
1057 Clear 6 1014 60 10000 1 10 17:40 20.03.2020
1058 Clear 6 1013 51 10000 1 170 17:21 20.03.2020
1059 Clear 6 1014 56 10000 2.6 180 16:59 20.03.2020
1060 Clear 6 1013 51 10000 2.79 194 16:41 20.03.2020
1061 Clouds 6 1013 42 10000 2.79 194 16:19 20.03.2020
1062 Clouds 5 1014 48 10000 0.5 190 15:43 20.03.2020
1063 Clear 6 1015 52 10000 1 210 15:22 20.03.2020
1064 Clouds 7 1015 39 10000 1 140 14:56 20.03.2020
1065 Clouds 7 1014 48 10000 2.1 190 14:38 20.03.2020
1066 Clouds 7 1014 48 10000 2.1 190 14:19 20.03.2020
1067 Clear 8 1013 45 10000 5.22 205 13:45 20.03.2020
1068 Clear 9 1013 42 10000 0.5 190 13:19 20.03.2020
1069 Clear 9 1013 36 10000 0.5 350 12:41 20.03.2020
1070 Clear 10 1012 29 10000 5.71 211 12:23 20.03.2020
1071 Clear 10 1012 31 10000 1.5 170 11:59 20.03.2020
1072 Clouds 10 1014 39 10000 2.1 210 11:38 20.03.2020
1073 Clouds 11 1012 29 10000 1.5 180 11:19 20.03.2020
1074 Clouds 11 1012 23 10000 2.1 180 10:42 20.03.2020
1075 Clouds 12 1012 34 10000 4.6 220 10:21 20.03.2020
1076 Clouds 12 1013 32 10000 5.7 220 09:59 20.03.2020
1077 Clouds 12 1013 32 10000 5.7 220 09:59 20.03.2020
1078 Clear 13 1012 22 10000 1.5 200 09:41 20.03.2020
1079 Clear 13 1012 28 10000 6.71 223 09:19 20.03.2020
1080 Clouds 13 1012 17 10000 2.1 280 08:43 20.03.2020
1081 Clouds 13 1013 20 10000 3.1 230 08:22 20.03.2020
1082 Clouds 13 1013 20 10000 3.1 230 08:22 20.03.2020
1083 Clouds 13 1014 23 10000 5.7 220 07:55 20.03.2020
1084 Clear 13 1012 15 10000 2.6 260 07:37 20.03.2020
1085 Clouds 13 1013 17 10000 1.5 220 07:18 20.03.2020
1086 Clear 14 1014 23 10000 7.2 240 06:41 20.03.2020
1087 Clear 13 1015 26 10000 5.1 220 04:52 20.03.2020
1088 Clear 12 1014 25 10000 1.5 210 03:40 20.03.2020
1089 Clear 10 1016 51 10000 1.5 240 02:20 20.03.2020
1090 Clear 8 1016 51 10000 1.5 180 01:33 20.03.2020
1091 Clear 5 1016 60 10000 1 180 00:33 20.03.2020
1092 Clear 2 1015 69 10000 1 140 23:49 19.03.2020
1093 Clear 1 1015 60 10000 1.5 180 23:30 19.03.2020
1094 Clear 1 1014 60 10000 0.5 160 22:57 19.03.2020
1095 Clear 1 1016 60 10000 1.99 254 22:38 19.03.2020
1096 Clear 2 1014 60 10000 1 190 22:20 19.03.2020
1097 Clear 3 1014 69 10000 1 180 21:42 19.03.2020
1098 Clear 3 1014 69 10000 0.5 200 21:20 19.03.2020
1099 Clear 4 1015 74 10000 1 200 21:00 19.03.2020
1100 Clear 4 1014 64 10000 0.5 130 20:41 19.03.2020
1101 Clear 4 1014 64 10000 0.5 160 20:23 19.03.2020
1102 Clear 4 1015 74 10000 1 190 19:55 19.03.2020
1103 Clear 4 1014 64 10000 1 170 19:37 19.03.2020
1104 Clear 5 1013 55 10000 0.5 150 19:19 19.03.2020
1105 Clear 5 1013 52 10000 0.5 210 18:55 19.03.2020
1106 Clear 5 1015 64 10000 3.1 230 18:37 19.03.2020
1107 Clear 5 1015 64 10000 3.1 230 18:37 19.03.2020
1108 Clear 5 1013 56 10000 4.21 276 18:19 19.03.2020
1109 Clear 6 1015 56 10000 2.1 240 17:41 19.03.2020
1110 Clear 6 1013 56 10000 5.07 290 17:19 19.03.2020
1111 Clouds 6 1012 45 10000 1 140 16:44 19.03.2020
1112 Clear 6 1014 48 10000 3.1 290 16:24 19.03.2020
1113 Clear 6 1011 39 10000 3.6 210 15:46 19.03.2020
1114 Clear 6 1013 48 10000 2.6 320 15:28 19.03.2020
1115 Clear 6 1013 48 10000 2.6 290 14:58 19.03.2020
1116 Clear 7 1011 39 10000 2.6 280 14:40 19.03.2020
1117 Clear 7 1010 33 10000 3.1 230 14:19 19.03.2020
1118 Clear 7 1012 42 10000 4.1 320 13:40 19.03.2020
1119 Clear 7 1012 42 10000 4.1 320 13:40 19.03.2020
1120 Clear 7 1009 42 10000 8.83 284 13:19 19.03.2020
1121 Clear 7 1009 42 10000 8.83 284 12:56 19.03.2020
1122 Clear 7 1011 39 10000 4.1 310 12:38 19.03.2020
1123 Clouds 8 1008 45 10000 8.83 284 12:19 19.03.2020
1124 Clouds 7 1009 33 10000 3.6 300 11:42 19.03.2020
1125 Clouds 8 1008 36 10000 5.1 290 11:23 19.03.2020
1126 Clouds 8 1008 36 10000 5.1 290 10:56 19.03.2020
1127 Clouds 8 1008 36 10000 4.1 290 10:36 19.03.2020
1128 Clouds 8 1008 36 10000 4.1 290 10:18 19.03.2020
1129 Clouds 9 1005 39 10000 2.6 250 09:44 19.03.2020
1130 Clouds 9 1004 39 10000 1 290 09:26 19.03.2020
1131 Clouds 9 1006 25 10000 5.7 280 08:57 19.03.2020
1132 Clouds 9 1004 42 10000 3.6 230 08:37 19.03.2020
1133 Clouds 9 1006 46 10000 12.3 270 08:18 19.03.2020
1134 Clouds 9 1005 23 10000 6.2 300 07:42 19.03.2020
1135 Clouds 9 1005 39 10000 1.5 160 07:22 19.03.2020
1136 Clouds 9 1004 49 10000 11.04 273 06:27 19.03.2020
1137 Clouds 9 1004 42 10000 4.6 300 05:25 19.03.2020
1138 Clouds 10 1003 43 10000 3.1 220 04:51 19.03.2020
1139 Clouds 10 1006 45 10000 3.1 310 04:21 19.03.2020
1140 Haze 10 1003 76 2800 3.6 230 01:58 19.03.2020
1141 Haze 11 1002 87 2800 5.7 220 00:53 19.03.2020
1142 Clouds 11 1000 71 10000 2.1 250 00:19 19.03.2020
1143 Haze 11 1001 76 6000 5.7 210 23:43 18.03.2020
1144 Haze 11 1001 76 6000 5.7 210 23:23 18.03.2020
1145 Clouds 10 1002 74 10000 1.5 200 22:43 18.03.2020
1146 Clear 9 1002 81 8000 7.2 210 22:23 18.03.2020
1147 Haze 8 1003 76 4800 4.1 220 21:57 18.03.2020
1148 Haze 8 1003 81 4000 3.6 200 21:39 18.03.2020
1149 Haze 8 1003 81 4000 3.6 200 21:20 18.03.2020
1150 Haze 8 1004 76 4000 2.6 190 20:55 18.03.2020
1151 Clear 8 1004 74 10000 2.98 179 20:37 18.03.2020
1152 Haze 8 1004 76 4800 3.1 190 20:19 18.03.2020
1153 Haze 7 1005 71 6000 1 250 19:41 18.03.2020
1154 Clear 7 1004 66 10000 2.63 144 19:21 18.03.2020
1155 Clear 7 1004 66 10000 2.63 144 19:21 18.03.2020
1156 Clear 7 1004 66 10000 2.63 144 18:57 18.03.2020
1157 Clear 7 1008 64 10000 0.5 30 18:38 18.03.2020
1158 Clear 7 1006 53 10000 2.63 144 18:19 18.03.2020
1159 Clear 7 1007 64 10000 1.5 180 17:55 18.03.2020
1160 Clear 7 1008 74 10000 2.6 190 17:37 18.03.2020
1161 Clear 7 1008 45 10000 1 150 17:18 18.03.2020
1162 Clear 7 1008 64 10000 1.5 200 16:42 18.03.2020
1163 Clear 7 1008 30 10000 1.5 170 16:20 18.03.2020
1164 Clear 7 1008 30 10000 1.5 170 16:20 18.03.2020
1165 Clear 7 1009 56 10000 1.5 160 15:57 18.03.2020
1166 Clear 8 1010 45 10000 0.5 240 15:38 18.03.2020
1167 Clear 8 1010 45 10000 0.5 240 15:19 18.03.2020
1168 Clear 8 1010 39 10000 0.5 350 14:42 18.03.2020
1169 Clear 8 1010 39 10000 0.5 350 14:21 18.03.2020
1170 Clear 8 1010 39 10000 0.5 350 14:21 18.03.2020
1171 Clear 10 1011 39 10000 0.5 150 13:41 18.03.2020
1172 Clear 10 1009 39 10000 2.46 187 13:19 18.03.2020
1173 Clear 10 1010 42 10000 1.5 180 12:54 18.03.2020
1174 Clear 10 1011 39 10000 1 210 12:36 18.03.2020
1175 Clear 11 1009 37 10000 2.46 187 12:18 18.03.2020
1176 Clear 11 1010 42 10000 0.5 170 12:18 18.03.2020
1177 Clear 13 1011 32 10000 2.1 230 11:38 18.03.2020
1178 Clear 14 1010 28 10000 1 160 11:19 18.03.2020
1179 Clear 14 1012 28 10000 3.6 210 10:56 18.03.2020
1180 Clear 15 1012 30 10000 2.6 230 10:37 18.03.2020
1181 Clear 16 1010 30 10000 4.6 220 10:18 18.03.2020
1182 Clear 16 1010 30 10000 4.6 220 10:18 18.03.2020
1183 Clear 16 1010 30 10000 4.6 220 10:18 18.03.2020
1184 Clear 16 1010 21 10000 2.6 170 09:42 18.03.2020
1185 Clear 16 1012 28 10000 3.1 210 09:23 18.03.2020
1186 Clear 16 1012 28 10000 3.6 220 08:55 18.03.2020
1187 Clear 16 1012 28 10000 3.6 220 08:55 18.03.2020
1188 Clear 16 1011 18 10000 3.1 180 08:36 18.03.2020
1189 Clear 16 1013 28 10000 5.1 240 08:18 18.03.2020
1190 Clear 16 1013 26 10000 4.6 230 07:40 18.03.2020
1191 Clear 16 1012 23 10000 3.1 290 07:22 18.03.2020
1192 Clear 16 1012 20 10000 2.6 190 06:42 18.03.2020
1193 Clear 15 1015 26 10000 3.6 220 05:47 18.03.2020
1194 Clear 13 1014 28 10000 2.98 195 05:18 18.03.2020
1195 Haze 9 1017 57 3200 3.1 250 03:21 18.03.2020
1196 Clouds 6 1017 80 10000 1.5 350 02:37 18.03.2020
1197 Clouds 6 1017 80 10000 1.5 350 02:37 18.03.2020
1198 Clouds 6 1017 80 10000 1.5 350 02:37 18.03.2020
1199 Clouds 6 1017 80 10000 1.5 350 02:37 18.03.2020
1200 Mist 4 1018 87 1600 0.5 290 01:45 18.03.2020
1201 Clouds 3 1018 93 10000 1 330 01:20 18.03.2020
1202 Mist 1 1016 93 4000 1.4 144 00:22 18.03.2020
1203 Mist 0 1016 93 3200 1.4 144 23:43 17.03.2020
1204 Clear 0 1017 64 10000 0.5 10 23:22 17.03.2020
1205 Mist 0 1017 100 1600 1 60 22:47 17.03.2020
1206 Mist 0 1017 100 1600 1 60 22:28 17.03.2020
1207 Fog 0 1017 100 0 1.77 188 21:57 17.03.2020
1208 Clouds 0 1016 66 10000 0.5 180 21:36 17.03.2020
1209 Mist 0 1017 92 2000 0.5 110 21:18 17.03.2020
1210 Clear 0 1016 64 10000 0.5 180 20:38 17.03.2020
1211 Fog 0 1015 56 1800 2.6 140 20:19 17.03.2020
1212 Clear 1 1015 58 10000 1 20 19:42 17.03.2020
1213 Clear 1 1016 58 10000 0.5 50 19:22 17.03.2020
1214 Clear 1 1016 58 10000 1 20 18:59 17.03.2020
1215 Mist 1 1017 100 1200 1.42 199 18:40 17.03.2020
1216 Mist 2 1016 93 6000 1.42 199 18:22 17.03.2020
1217 Clear 2 1016 100 10000 0.5 30 17:56 17.03.2020
1218 Mist 2 1017 100 2000 0.5 120 17:38 17.03.2020
1219 Mist 3 1017 100 1600 1 170 17:19 17.03.2020
1220 Clear 3 1016 93 10000 0.5 30 16:42 17.03.2020
1221 Mist 3 1017 93 2400 0.5 140 16:19 17.03.2020
1222 Clouds 4 1016 46 10000 1.6 229 15:47 17.03.2020
1223 Clouds 4 1016 93 10000 0.5 20 15:23 17.03.2020
1224 Clear 5 1016 86 10000 1.6 229 14:47 17.03.2020
1225 Haze 5 1015 75 9000 1.6 229 14:27 17.03.2020
1226 Haze 5 1017 81 4000 2.1 150 13:58 17.03.2020
1227 Clear 5 1015 93 10000 0.5 230 13:40 17.03.2020
1228 Haze 6 1016 81 4800 1.5 150 13:21 17.03.2020
1229 Clear 7 1015 93 10000 1.5 10 12:44 17.03.2020
1230 Haze 7 1014 61 9000 2.78 281 12:24 17.03.2020
1231 Clear 8 1014 81 10000 0.5 10 11:56 17.03.2020
1232 Haze 8 1015 70 6000 1 130 11:37 17.03.2020
1233 Haze 10 1015 66 6000 1.5 200 11:19 17.03.2020
1234 Clouds 10 1013 57 10000 1 330 10:54 17.03.2020
1235 Haze 10 1014 61 8000 2.1 230 10:36 17.03.2020
1236 Clear 10 1012 57 10000 0.5 190 10:18 17.03.2020
1237 Clear 11 1012 61 10000 0.5 20 09:44 17.03.2020
1238 Clear 11 1013 46 10000 3.6 230 09:20 17.03.2020
1239 Haze 11 1013 62 9000 4.1 220 08:51 17.03.2020
1240 Haze 12 1013 58 8000 2.6 220 08:24 17.03.2020
1241 Haze 11 1013 58 8000 4.1 190 07:58 17.03.2020
1242 Haze 11 1013 62 8000 2.6 190 07:39 17.03.2020
1243 Haze 11 1012 62 8000 4.92 255 07:19 17.03.2020
1244 Haze 9 1013 62 8000 4.92 255 06:40 17.03.2020
1245 Clouds 7 1015 70 10000 1 120 05:58 17.03.2020
1246 Haze 6 1015 75 8000 2.1 210 04:40 17.03.2020
1247 Haze 4 1017 81 9000 1.5 180 02:56 17.03.2020
1248 Clouds 4 1017 74 10000 0.5 330 01:49 17.03.2020
1249 Clouds 4 1017 86 6000 3.6 170 01:25 17.03.2020
1250 Clouds 4 1017 74 10000 0.5 120 00:47 17.03.2020
1251 Clouds 4 1017 74 10000 0.5 130 23:50 16.03.2020
1252 Clouds 3 1017 80 10000 3.6 180 23:32 16.03.2020
1253 Clouds 3 1017 74 10000 1.5 170 22:42 16.03.2020
1254 Clouds 3 1017 74 10000 1 170 22:24 16.03.2020
1255 Clouds 3 1018 80 10000 4.6 180 21:58 16.03.2020
1256 Clouds 3 1018 80 10000 3.6 180 21:40 16.03.2020
1257 Clouds 3 1018 80 10000 3.6 180 21:22 16.03.2020
1258 Clouds 3 1018 76 10000 4.1 180 20:56 16.03.2020
1259 Clouds 3 1018 69 10000 2.26 166 20:37 16.03.2020
1260 Clouds 3 1018 72 10000 3.6 170 20:19 16.03.2020
1261 Clouds 3 1019 69 10000 0.5 170 19:41 16.03.2020
1262 Clouds 3 1019 69 10000 0.5 160 19:20 16.03.2020
1263 Clouds 2 1020 74 10000 2.1 180 18:43 16.03.2020
1264 Clouds 2 1019 69 10000 0.5 160 18:22 16.03.2020
1265 Clouds 1 1019 69 10000 0.5 170 17:56 16.03.2020
1266 Clouds 1 1019 69 10000 0.5 170 17:56 16.03.2020
1267 Clouds 2 1021 74 10000 2.1 180 17:37 16.03.2020
1268 Clouds 2 1019 69 10000 0.5 180 17:18 16.03.2020
1269 Clouds 2 1020 64 10000 0.5 170 16:44 16.03.2020
1270 Clouds 2 1021 74 10000 2.1 170 16:24 16.03.2020
1271 Clouds 2 1022 80 10000 2.1 170 15:44 16.03.2020
1272 Clouds 2 1022 80 10000 1 190 15:26 16.03.2020
1273 Clouds 2 1022 62 10000 1 170 14:49 16.03.2020
1274 Clouds 2 1022 80 10000 0.5 180 14:27 16.03.2020
1275 Clear 3 1022 74 10000 1.5 200 13:57 16.03.2020
1276 Clear 3 1021 48 10000 1 200 13:39 16.03.2020
1277 Clear 3 1023 74 10000 2.1 230 13:20 16.03.2020
1278 Clear 4 1022 74 10000 2.1 200 12:44 16.03.2020
1279 Clear 4 1020 38 10000 0.5 180 12:23 16.03.2020
1280 Clear 4 1021 35 10000 0.5 270 11:46 16.03.2020
1281 Clear 5 1021 26 10000 2.1 200 11:27 16.03.2020
1282 Clear 5 1023 59 10000 2.1 220 10:55 16.03.2020
1283 Clear 6 1023 48 10000 3.1 220 10:37 16.03.2020
1284 Clear 6 1023 48 10000 3.1 220 10:18 16.03.2020
1285 Clear 7 1022 33 10000 4.1 220 09:40 16.03.2020
1286 Clear 7 1022 33 10000 4.1 220 09:20 16.03.2020
1287 Clear 8 1020 18 10000 2.1 190 08:47 16.03.2020
1288 Clear 8 1022 30 10000 3.1 240 08:24 16.03.2020
1289 Clear 9 1020 18 10000 2.6 240 07:45 16.03.2020
1290 Clear 9 1020 19 10000 3.1 270 07:21 16.03.2020
1291 Clear 9 1020 19 10000 1 270 06:46 16.03.2020
1292 Clear 8 1021 23 10000 3.6 220 06:23 16.03.2020
1293 Clear 7 1024 26 10000 3.6 210 04:53 16.03.2020
1294 Clear 2 1026 47 10000 1.5 60 01:49 16.03.2020
1295 Clear 0 1025 34 10000 1 50 00:48 16.03.2020
1296 Clear -1 1025 58 10000 1 10 00:28 16.03.2020
1297 Clear -3 1025 79 10000 1 60 23:41 15.03.2020
1298 Clear -3 1023 79 10000 0.93 312 23:19 15.03.2020
1299 Clear -4 1023 85 10000 0.5 180 22:42 15.03.2020
1300 Clear -3 1025 79 10000 0.5 200 22:22 15.03.2020
1301 Clear -2 1022 79 10000 0.5 170 21:39 15.03.2020
1302 Clear -2 1024 68 10000 2.1 60 21:21 15.03.2020
1303 Clear -2 1024 79 10000 1 110 20:58 15.03.2020
1304 Clear -2 1022 79 10000 0.5 200 20:40 15.03.2020
1305 Clear -2 1022 63 10000 2.6 300 20:19 15.03.2020
1306 Clear -2 1023 68 10000 1 20 19:55 15.03.2020
1307 Clear -2 1021 74 10000 0.5 150 19:37 15.03.2020
1308 Clear -1 1023 63 10000 1.5 40 19:18 15.03.2020
1309 Clear -1 1020 74 10000 1 180 18:42 15.03.2020
1310 Clear -1 1022 73 10000 1 130 18:24 15.03.2020
1311 Clear -1 1021 73 10000 0.5 100 17:59 15.03.2020
1312 Clear -1 1019 74 10000 0.5 170 17:39 15.03.2020
1313 Clear 0 1019 74 10000 0.5 160 17:20 15.03.2020
1314 Clear 0 1018 37 10000 0.5 200 16:55 15.03.2020
1315 Clear 0 1018 37 10000 0.5 200 16:36 15.03.2020
1316 Clear 1 1020 63 10000 0.5 140 16:18 15.03.2020
1317 Clear 1 1019 63 10000 1.5 170 15:41 15.03.2020
1318 Clear 1 1019 37 10000 1.5 10 15:20 15.03.2020
1319 Clear 1 1018 37 10000 1.5 10 14:47 15.03.2020
1320 Clear 2 1015 55 10000 1.5 360 14:26 15.03.2020
1321 Clear 2 1017 33 10000 1.5 30 13:59 15.03.2020
1322 Clear 2 1017 33 10000 1.5 30 13:59 15.03.2020
1323 Clouds 2 1014 51 10000 3.6 350 13:39 15.03.2020
1324 Clear 2 1017 50 10000 3.6 360 13:20 15.03.2020
1325 Clouds 2 1013 44 10000 1.5 330 12:44 15.03.2020
1326 Clouds 3 1013 40 10000 1.5 20 12:26 15.03.2020
1327 Clear 3 1015 47 10000 2.1 340 11:57 15.03.2020
1328 Clear 3 1014 43 10000 2.6 330 11:39 15.03.2020
1329 Clouds 4 1011 35 10000 3.1 360 11:20 15.03.2020
1330 Clouds 4 1014 40 10000 2.6 330 10:55 15.03.2020
1331 Clouds 4 1010 30 10000 2.1 310 10:36 15.03.2020
1332 Clouds 4 1011 35 10000 10.3 310 10:18 15.03.2020
1333 Clouds 5 1009 26 10000 2.1 320 09:39 15.03.2020
1334 -273 0 0 0 0 0 09:21 15.03.2020
1335 Clouds 7 1011 26 10000 6.7 290 08:42 15.03.2020
1336 Clouds 7 1011 26 10000 6.7 290 08:20 15.03.2020
1337 Clouds 7 1011 32 10000 5.7 300 07:51 15.03.2020
1338 Clouds 8 1011 28 10000 5.1 310 07:29 15.03.2020
1339 Clear 8 1010 26 10000 5.1 320 06:49 15.03.2020
1340 Clouds 9 1007 19 10000 2.6 260 05:50 15.03.2020
1341 Clouds 9 1008 21 10000 3.6 230 05:18 15.03.2020
1342 Clouds 8 1008 23 10000 3.1 210 04:41 15.03.2020
1343 Clouds 8 1008 23 10000 3.1 210 04:41 15.03.2020
1344 Clouds 8 1011 24 10000 5.7 320 04:23 15.03.2020
1345 Clouds 8 1010 29 10000 7.2 330 03:30 15.03.2020
1346 Clear 7 1010 33 10000 1 20 02:37 15.03.2020
1347 Clouds 5 1011 56 10000 5.1 330 01:20 15.03.2020
1348 Clouds 3 1011 51 10000 1 300 00:42 15.03.2020
1349 Clouds 2 1011 80 10000 0.5 250 00:21 15.03.2020
1350 Mist 2 1012 51 1200 0.5 330 23:41 14.03.2020
1351 Clear 2 1010 75 10000 4.6 270 23:21 14.03.2020
1352 Mist 1 1011 86 4000 0.5 140 22:57 14.03.2020
1353 Mist 1 1012 56 1200 0.5 110 22:38 14.03.2020
1354 Mist 1 1012 56 1200 0.5 110 22:20 14.03.2020
1355 Mist 0 1011 56 4800 1 220 21:56 14.03.2020
1356 Clouds 0 1011 92 10000 0.5 160 21:36 14.03.2020
1357 Mist 0 1012 86 4000 0.5 170 21:18 14.03.2020
1358 Mist 0 1012 86 4000 0.5 170 21:18 14.03.2020
1359 Mist 1 1012 56 1600 1.5 130 20:58 14.03.2020
1360 Mist 1 1012 100 1200 1 160 20:39 14.03.2020
1361 Mist 1 1012 100 1200 1 160 20:18 14.03.2020
1362 Clear 1 1011 56 10000 0.5 130 19:42 14.03.2020
1363 Mist 1 1013 56 2800 1 150 19:24 14.03.2020
1364 Mist 1 1013 56 4000 1 150 18:41 14.03.2020
1365 Clear 2 1011 86 10000 0.5 150 18:21 14.03.2020
1366 Clear 2 1013 86 4800 0.5 180 17:44 14.03.2020
1367 Clear 3 1012 80 10000 1 170 17:24 14.03.2020
1368 Haze 3 1013 80 6000 1 140 17:00 14.03.2020
1369 Clear 4 1012 51 10000 3.44 272 16:40 14.03.2020
1370 Haze 4 1013 74 6000 0.5 220 16:21 14.03.2020
1371 -273 0 0 0 0 0 16:21 14.03.2020
1372 Haze 4 1013 80 4800 0.5 210 15:51 14.03.2020
1373 Haze 5 1014 51 4800 0.5 250 15:25 14.03.2020
1374 Haze 5 1013 51 6000 1 240 14:45 14.03.2020
1375 Haze 5 1013 54 4800 1.5 220 14:23 14.03.2020
1376 Mist 5 1014 86 4000 0.5 130 13:57 14.03.2020
1377 Haze 6 1012 80 5000 4.1 250 13:39 14.03.2020
1378 Haze 6 1012 80 5000 4.1 250 13:20 14.03.2020
1379 Clouds 6 1012 70 9000 5.7 250 12:44 14.03.2020
1380 Clouds 6 1012 70 9000 5.7 250 12:26 14.03.2020
1381 Clouds 7 1012 58 10000 5.7 260 11:47 14.03.2020
1382 Clouds 7 1012 58 10000 5.7 260 11:27 14.03.2020
1383 Clear 7 1012 65 10000 6.7 250 10:59 14.03.2020
1384 Clouds 7 1012 44 10000 6.2 260 10:40 14.03.2020
1385 Clouds 8 1012 44 10000 6.2 260 10:22 14.03.2020
1386 Clouds 8 1012 61 10000 7.2 250 09:43 14.03.2020
1387 Clouds 8 1012 44 10000 5.7 250 09:24 14.03.2020
1388 Clear 10 1013 57 10000 8.7 250 08:47 14.03.2020
1389 Clouds 9 1013 44 10000 6.7 230 08:28 14.03.2020
1390 Clouds 8 1013 37 10000 9.8 240 07:51 14.03.2020
1391 Clouds 8 1013 49 10000 7.2 220 07:23 14.03.2020
1392 Clear 8 1013 31 10000 3.1 200 06:59 14.03.2020
1393 Clouds 9 1015 45 10000 4.1 220 06:39 14.03.2020
1394 Clear 8 1015 28 10000 2.6 240 05:19 14.03.2020
1395 Clear 6 1017 26 10000 1 160 03:42 14.03.2020
1396 Clear 6 1019 38 10000 3.1 240 03:23 14.03.2020
1397 Clear 4 1020 41 10000 1.5 240 02:20 14.03.2020
1398 Clear -1 1020 58 10000 0.5 150 00:42 14.03.2020
1399 Clear -4 1019 68 10000 0.5 180 23:45 13.03.2020
1400 Clear -4 1020 79 10000 0.5 140 23:26 13.03.2020
1401 Haze -4 1020 68 8000 2.89 302 22:47 13.03.2020
1402 Clear -4 1020 73 10000 1 90 22:25 13.03.2020
1403 Clear -3 1019 58 10000 1 180 21:43 13.03.2020
1404 Clear -3 1020 79 10000 0.5 140 21:21 13.03.2020
1405 Clear -3 1020 79 10000 0.5 230 20:57 13.03.2020
1406 Clear -3 1019 63 10000 1 180 20:38 13.03.2020
1407 Clear -3 1021 79 10000 0.5 40 20:19 13.03.2020
1408 Clear -3 1019 63 10000 2.1 170 19:45 13.03.2020
1409 Clear -3 1021 68 10000 1.5 130 19:27 13.03.2020
1410 Clear -2 1020 50 10000 0.5 190 18:47 13.03.2020
1411 Clear -2 1022 62 10000 0.5 320 18:28 13.03.2020
1412 Clear -1 1020 40 10000 1 310 17:57 13.03.2020
1413 Clear -1 1022 73 10000 0.5 150 17:37 13.03.2020
1414 Clear -1 1020 37 10000 1.5 200 17:18 13.03.2020
1415 Clear 0 1020 34 10000 2.1 270 16:41 13.03.2020
1416 Clear 0 1023 63 10000 0.5 210 16:23 13.03.2020
1417 Clear 0 1023 54 10000 0.5 70 15:55 13.03.2020
1418 Clear 1 1020 31 10000 2.1 340 15:37 13.03.2020
1419 Clear 1 1020 31 10000 1.5 320 15:18 13.03.2020
1420 Clear 2 1022 50 10000 6.2 340 14:41 13.03.2020
1421 Clouds 2 1022 47 10000 4.6 320 14:22 13.03.2020
1422 Clouds 2 1022 43 10000 7.2 340 13:55 13.03.2020
1423 Clouds 2 1022 43 10000 7.2 340 13:55 13.03.2020
1424 Clouds 2 1021 47 10000 5.1 310 13:37 13.03.2020
1425 Clouds 2 1021 47 10000 5.1 310 13:18 13.03.2020
1426 Clear 3 1020 21 10000 1 60 12:39 13.03.2020
1427 Clear 4 1022 40 10000 1 310 12:21 13.03.2020
1428 Clear 4 1020 21 10000 1 320 11:57 13.03.2020
1429 Clouds 5 1021 35 10000 4.6 310 11:37 13.03.2020
1430 Clear 5 1019 19 10000 1.5 250 11:19 13.03.2020
1431 Clear 6 1020 13 10000 1.5 270 10:47 13.03.2020
1432 Clouds 6 1021 27 10000 5.1 310 10:26 13.03.2020
1433 Clear 6 1019 13 10000 1.5 250 09:56 13.03.2020
1434 Clear 6 1019 13 10000 1.5 250 09:38 13.03.2020
1435 Clear 6 1019 16 10000 1 290 09:19 13.03.2020
1436 Clear 6 1019 16 10000 1 290 09:19 13.03.2020
1437 Clouds 7 1019 16 10000 2.1 310 08:41 13.03.2020
1438 Clouds 8 1022 22 10000 2.6 300 08:22 13.03.2020
1439 Clouds 8 1022 27 10000 6.7 320 07:45 13.03.2020
1440 Clouds 8 1021 22 10000 5.7 330 07:27 13.03.2020
1441 Clouds 8 1022 28 10000 7.2 330 06:46 13.03.2020
1442 Clouds 8 1021 22 10000 5.7 330 06:23 13.03.2020
1443 Clear 8 1020 15 10000 2.6 250 05:46 13.03.2020
1444 Clouds 8 1024 24 10000 3.6 330 04:57 13.03.2020
1445 Clouds 8 1025 24 10000 2.6 270 04:26 13.03.2020
1446 Clouds 6 1025 27 10000 3.1 270 02:58 13.03.2020
1447 Clear 5 1023 38 10000 2.1 270 01:39 13.03.2020
1448 Clear 5 1023 38 10000 1 350 01:18 13.03.2020
1449 Clouds 4 1023 48 10000 2.1 280 00:42 13.03.2020
1450 Clouds 4 1023 52 10000 1.5 330 00:19 13.03.2020
1451 Clouds 4 1025 51 10000 1 330 23:40 12.03.2020
1452 Clouds 5 1022 60 10000 2.1 340 23:22 12.03.2020
1453 Clouds 5 1022 61 10000 1 340 22:47 12.03.2020
1454 Clouds 5 1024 60 10000 2.1 310 22:28 12.03.2020
1455 Clouds 5 1024 60 10000 0.5 270 21:57 12.03.2020
1456 Clouds 5 1021 75 10000 0.5 30 21:39 12.03.2020
1457 Clouds 5 1024 52 10000 0.5 350 21:20 12.03.2020
1458 Clouds 6 1021 75 10000 0.5 350 20:42 12.03.2020
1459 Clouds 5 1023 60 10000 1.5 10 20:20 12.03.2020
1460 Clouds 5 1023 56 10000 2.6 10 19:56 12.03.2020
1461 Clouds 6 1023 65 10000 2.1 10 19:37 12.03.2020
1462 Clouds 6 1021 87 10000 1 160 19:18 12.03.2020
1463 Clouds 7 1021 70 10000 0.5 140 18:42 12.03.2020
1464 Rain 6 1021 100 4000 4.1 280 18:22 12.03.2020
1465 Rain 7 1021 100 4000 4.1 280 17:56 12.03.2020
1466 Clouds 6 1023 93 10000 1.5 300 17:37 12.03.2020
1467 Clouds 6 1021 56 10000 1 180 17:18 12.03.2020
1468 Clouds 6 1021 52 10000 1 170 16:41 12.03.2020
1469 Rain 6 1022 93 2000 1.5 230 16:22 12.03.2020
1470 Clouds 7 1021 56 10000 1 180 15:49 12.03.2020
1471 Clouds 7 1022 81 10000 2.6 200 15:28 12.03.2020
1472 Haze 7 1022 75 9000 3.1 210 14:56 12.03.2020
1473 Haze 7 1022 75 9000 3.1 210 14:56 12.03.2020
1474 Clouds 7 1022 75 10000 2.6 200 14:37 12.03.2020
1475 Clouds 7 1022 75 10000 2.6 200 14:18 12.03.2020
1476 Clouds 8 1022 70 10000 2.6 200 13:40 12.03.2020
1477 Clear 7 1021 41 10000 1 170 13:21 12.03.2020
1478 Clouds 8 1022 70 10000 2.6 210 12:55 12.03.2020
1479 Clouds 8 1022 70 10000 2.6 190 12:37 12.03.2020
1480 Clouds 8 1022 70 10000 2.6 190 12:37 12.03.2020
1481 Clear 9 1021 33 10000 1 150 12:18 12.03.2020
1482 Clear 9 1021 27 10000 1 210 11:55 12.03.2020
1483 Clouds 9 1022 65 10000 3.1 200 11:36 12.03.2020
1484 Clear 10 1020 25 10000 1 240 11:18 12.03.2020
1485 Clear 10 1020 25 10000 2.6 280 10:41 12.03.2020
1486 Clouds 10 1021 61 10000 3.1 210 10:23 12.03.2020
1487 Clouds 11 1021 33 10000 2.6 240 09:49 12.03.2020
1488 Clouds 11 1021 49 10000 3.6 220 09:29 12.03.2020
1489 Clouds 12 1021 39 10000 5.1 220 08:55 12.03.2020
1490 Clouds 12 1018 24 10000 1.5 180 08:37 12.03.2020
1491 Clouds 12 1021 27 10000 5.7 240 08:18 12.03.2020
1492 Clouds 13 1020 27 10000 4.6 240 07:47 12.03.2020
1493 Clouds 13 1018 24 10000 3.6 180 07:21 12.03.2020
1494 Clouds 11 1019 24 10000 2.1 200 06:18 12.03.2020
1495 Clouds 11 1021 31 10000 4.1 230 05:33 12.03.2020
1496 Clouds 6 1024 56 10000 2.1 230 02:54 12.03.2020
1497 Clear 3 1023 69 10000 1 10 01:43 12.03.2020
1498 Clear 2 1023 74 10000 0.5 30 01:21 12.03.2020
1499 Clear 1 1023 48 10000 0.5 30 00:41 12.03.2020
1500 Clear -2 1023 92 10000 1.53 136 23:56 11.03.2020
1501 Clear -2 1023 92 10000 0.5 180 23:27 11.03.2020
1502 Clear -2 1023 100 6000 1 30 22:55 11.03.2020
1503 Clear -2 1024 100 6000 0.5 100 22:37 11.03.2020
1504 Clear -2 1024 100 6000 0.5 100 22:18 11.03.2020
1505 Clear -2 1023 100 6000 0.5 40 21:56 11.03.2020
1506 Clear -2 1023 86 10000 1.49 115 21:36 11.03.2020
1507 Clear -2 1023 92 10000 0.5 110 21:18 11.03.2020
1508 Clear -2 1023 92 10000 0.5 90 20:55 11.03.2020
1509 Clear -2 1023 92 10000 1.49 115 20:36 11.03.2020
1510 Clear -2 1023 92 10000 1.84 160 20:18 11.03.2020
1511 Clear -1 1023 86 10000 0.5 200 19:41 11.03.2020
1512 Clear -1 1023 86 10000 0.5 110 19:22 11.03.2020
1513 Clear -1 1023 86 10000 1 170 18:56 11.03.2020
1514 Clear -1 1024 61 10000 1.84 160 18:36 11.03.2020
1515 Clear -1 1023 86 10000 1 190 18:18 11.03.2020
1516 Clear -1 1024 61 10000 1.5 150 17:40 11.03.2020
1517 Clear -1 1023 80 10000 1 160 17:21 11.03.2020
1518 Clear 0 1023 74 10000 1.5 140 16:55 11.03.2020
1519 Clear 1 1022 69 10000 1 190 16:37 11.03.2020
1520 Clear 1 1022 69 10000 1 190 16:19 11.03.2020
1521 Clear 2 1022 69 10000 0.5 220 15:42 11.03.2020
1522 Clear 2 1022 69 10000 0.5 220 15:22 11.03.2020
1523 Clear 3 1021 60 10000 4.6 250 14:44 11.03.2020
1524 Clear 4 1021 64 10000 0.5 160 14:23 11.03.2020
1525 Clear 4 1021 64 10000 0.5 160 14:23 11.03.2020
1526 Clear 4 1021 60 10000 3.6 250 13:58 11.03.2020
1527 Clear 4 1020 60 10000 2.1 220 13:39 11.03.2020
1528 Clear 4 1020 60 10000 2.1 220 13:21 11.03.2020
1529 Clear 4 1020 60 10000 2.6 240 12:41 11.03.2020
1530 Clear 4 1020 60 10000 2.6 240 12:21 11.03.2020
1531 Clear 5 1020 52 10000 5.1 270 11:57 11.03.2020
1532 Clear 5 1020 52 10000 5.1 270 11:57 11.03.2020
1533 Clear 5 1020 52 10000 3.6 250 11:38 11.03.2020
1534 Clear 5 1020 52 10000 3.6 250 11:19 11.03.2020
1535 Clear 6 1019 38 10000 2.1 250 10:43 11.03.2020
1536 Clear 6 1020 45 10000 3.1 220 10:19 11.03.2020
1537 Clear 7 1018 33 10000 3.1 200 09:43 11.03.2020
1538 Clear 7 1020 39 10000 3.1 230 09:25 11.03.2020
1539 Clear 8 1019 33 10000 3.6 240 08:58 11.03.2020
1540 Clear 8 1018 24 10000 2.6 330 08:40 11.03.2020
1541 Clear 8 1019 24 10000 3.1 280 08:19 11.03.2020
1542 Clear 8 1019 33 10000 3.1 220 07:43 11.03.2020
1543 Clear 7 1019 28 10000 2.6 290 07:19 11.03.2020
1544 Clear 7 1017 26 10000 2.6 250 06:44 11.03.2020
1545 Clear 6 1019 28 10000 2.6 290 05:36 11.03.2020
1546 Clear 6 1020 35 10000 2.6 270 04:31 11.03.2020
1547 Clear 4 1020 37 10000 2.6 320 02:24 11.03.2020
1548 Clear 3 1020 40 10000 2.1 270 01:27 11.03.2020
1549 Clear 2 1017 40 10000 0.5 270 00:46 11.03.2020
1550 Clear 1 1019 50 10000 0.5 250 23:58 10.03.2020
1551 Clear 0 1018 58 10000 1 260 23:40 10.03.2020
1552 Clear 0 1016 47 10000 1 340 23:21 10.03.2020
1553 Clear 0 1015 50 10000 2.1 280 22:39 10.03.2020
1554 Clear 1 1017 39 10000 1.5 230 22:20 10.03.2020
1555 Clear 1 1016 39 10000 0.5 140 21:57 10.03.2020
1556 Clear 1 1014 55 10000 1.5 270 21:38 10.03.2020
1557 Clear 1 1016 50 10000 2.1 280 21:20 10.03.2020
1558 Clear 1 1016 55 10000 2.1 300 20:59 10.03.2020
1559 Clear 2 1013 55 10000 3.1 280 20:41 10.03.2020
1560 Clear 2 1016 55 10000 2.6 290 20:18 10.03.2020
1561 Clear 2 1015 55 10000 2.1 280 19:56 10.03.2020
1562 Clear 2 1013 51 10000 2.6 280 19:37 10.03.2020
1563 Clear 2 1013 51 10000 1.5 280 19:19 10.03.2020
1564 Clear 2 1013 55 10000 0.5 290 18:44 10.03.2020
1565 Clear 2 1015 55 10000 1.5 230 18:25 10.03.2020
1566 Clear 3 1013 51 10000 3.1 260 17:57 10.03.2020
1567 Clear 3 1014 55 10000 1.5 260 17:38 10.03.2020
1568 Clear 3 1012 64 10000 0.5 310 17:20 10.03.2020
1569 Clear 3 1011 51 10000 2.1 240 16:39 10.03.2020
1570 Clear 3 1013 55 10000 2.6 280 16:19 10.03.2020
1571 Clear 4 1013 55 10000 2.1 270 15:55 10.03.2020
1572 Clear 4 1013 55 10000 2.1 270 15:55 10.03.2020
1573 Clear 4 1011 48 10000 2.1 270 15:37 10.03.2020
1574 Clear 4 1013 55 10000 1.5 260 15:18 10.03.2020
1575 Clear 4 1013 55 10000 1.5 260 15:18 10.03.2020
1576 Clear 5 1010 52 10000 1 310 14:41 10.03.2020
1577 Clear 5 1012 51 10000 2.1 250 14:20 10.03.2020
1578 Clear 5 1012 51 10000 3.6 300 13:57 10.03.2020
1579 Clear 5 1009 52 10000 1.5 340 13:37 10.03.2020
1580 Clear 5 1012 51 10000 2.1 300 13:19 10.03.2020
1581 Clouds 5 1009 75 10000 1 260 12:39 10.03.2020
1582 Clouds 6 1008 70 10000 2.1 310 12:19 10.03.2020
1583 Clouds 6 1008 75 10000 1.5 220 11:43 10.03.2020
1584 Clouds 6 1010 60 10000 2.6 300 11:25 10.03.2020
1585 Haze 7 1010 75 6000 1.5 320 10:59 10.03.2020
1586 Clouds 7 1007 81 10000 1 170 10:41 10.03.2020
1587 Clouds 7 1007 81 10000 1 170 10:41 10.03.2020
1588 Haze 7 1009 81 6000 2.6 320 10:22 10.03.2020
1589 Rain 7 1007 87 4500 6.2 290 09:57 10.03.2020
1590 Clouds 7 1006 81 10000 1.5 260 09:38 10.03.2020
1591 Clouds 7 1008 87 10000 3.1 310 09:18 10.03.2020
1592 Clouds 7 1008 81 10000 2.1 300 08:45 10.03.2020
1593 Clouds 8 1008 87 10000 1 330 08:26 10.03.2020
1594 Clouds 8 1007 87 10000 1.5 340 07:49 10.03.2020
1595 Clouds 8 1007 87 10000 3.6 320 07:30 10.03.2020
1596 Clouds 8 1004 81 10000 1.5 280 06:42 10.03.2020
1597 Clouds 8 1004 81 10000 1.5 290 06:23 10.03.2020
1598 Rain 8 1007 93 10000 1 360 05:39 10.03.2020
1599 Rain 7 1005 100 6000 1 260 04:37 10.03.2020
1600 Clouds 7 1008 93 10000 2.6 360 03:35 10.03.2020
1601 Rain 7 1009 93 10000 2.6 360 02:18 10.03.2020
1602 Rain 7 1009 100 1200 1 360 00:54 10.03.2020
1603 Rain 7 1009 100 1200 1 330 00:30 10.03.2020
1604 Rain 7 1009 100 800 1 330 23:57 09.03.2020
1605 Rain 7 1009 100 800 1 330 23:57 09.03.2020
1606 Rain 7 1009 100 400 1 310 23:38 09.03.2020
1607 Clouds 7 1006 93 10000 0.5 330 23:20 09.03.2020
1608 Clouds 7 1006 100 10000 0.5 300 22:40 09.03.2020
1609 Rain 7 1009 100 400 0.5 340 22:22 09.03.2020
1610 Rain 7 1009 100 1200 0.5 10 21:57 09.03.2020
1611 Clouds 7 1006 93 10000 0.5 290 21:38 09.03.2020
1612 Rain 7 1009 100 800 1 20 21:20 09.03.2020
1613 Rain 7 1009 93 2000 2.05 332 20:55 09.03.2020
1614 Rain 8 1007 93 10000 0.5 160 20:36 09.03.2020
1615 Rain 8 1009 93 2400 1.68 334 20:18 09.03.2020
1616 Rain 8 1008 87 4200 3.1 310 19:42 09.03.2020
1617 Haze 8 1010 81 4800 0.5 40 19:20 09.03.2020
1618 Rain 8 1010 70 6000 0.5 150 18:57 09.03.2020
1619 Rain 9 1011 61 6000 0.5 320 18:38 09.03.2020
1620 Rain 9 1008 66 10000 0.5 320 18:19 09.03.2020
1621 Rain 9 1011 61 9000 1 200 17:57 09.03.2020
1622 Rain 9 1011 45 8000 1 20 17:37 09.03.2020
1623 Rain 9 1009 57 10000 0.5 30 17:19 09.03.2020
1624 Rain 9 1011 49 9000 0.5 150 16:57 09.03.2020
1625 Clouds 9 1009 57 10000 0.5 100 16:39 09.03.2020
1626 Clouds 9 1010 53 10000 0.5 260 16:20 09.03.2020
1627 Clouds 9 1010 53 10000 0.5 260 15:57 09.03.2020
1628 Clouds 10 1011 50 10000 0.5 40 15:38 09.03.2020
1629 Clouds 10 1011 50 10000 0.5 40 15:19 09.03.2020
1630 Clouds 10 1011 50 10000 0.5 310 14:41 09.03.2020
1631 Clouds 10 1011 50 10000 1 190 14:23 09.03.2020
1632 Clouds 11 1011 41 10000 0.5 300 13:59 09.03.2020
1633 Clouds 11 1011 41 10000 0.5 300 13:59 09.03.2020
1634 Clouds 11 1011 41 10000 1.7 335 13:40 09.03.2020
1635 Clouds 11 1011 41 10000 1.7 335 13:39 09.03.2020
1636 Clouds 11 1011 41 10000 1.7 335 13:21 09.03.2020
1637 Clouds 11 1012 42 10000 0.5 170 12:59 09.03.2020
1638 Haze 11 1014 42 8000 1 170 12:39 09.03.2020
1639 Haze 11 1014 42 8000 1 170 12:19 09.03.2020
1640 Clouds 12 1011 30 10000 1 340 11:40 09.03.2020
1641 Clouds 12 1011 30 10000 1 340 11:20 09.03.2020
1642 Clouds 14 1011 30 10000 0.5 180 10:57 09.03.2020
1643 Clouds 14 1011 29 10000 0.5 310 10:39 09.03.2020
1644 Clouds 14 1011 29 10000 0.5 310 10:19 09.03.2020
1645 Clouds 15 1010 25 10000 0.5 280 09:42 09.03.2020
1646 Clouds 15 1010 25 10000 0.5 280 09:24 09.03.2020
1647 Clouds 15 1010 27 10000 1 180 08:47 09.03.2020
1648 Clear 16 1010 25 10000 1.5 170 08:29 09.03.2020
1649 Clouds 16 1011 31 10000 6.7 340 07:57 09.03.2020
1650 Clouds 16 1011 27 10000 1 220 07:37 09.03.2020
1651 Clouds 16 1011 27 10000 1 220 07:18 09.03.2020
1652 Clouds 16 1012 27 10000 1.5 250 06:39 09.03.2020
1653 Clouds 16 1012 27 10000 1.5 250 06:21 09.03.2020
1654 Clouds 16 1013 27 10000 1 340 05:42 09.03.2020
1655 Clouds 15 1014 30 10000 1.5 250 04:57 09.03.2020
1656 Clouds 15 1015 28 10000 1 200 04:39 09.03.2020
1657 Clouds 15 1015 28 10000 1 200 04:19 09.03.2020
1658 Clouds 10 1016 40 10000 2.1 330 02:51 09.03.2020
1659 Clear 3 1017 69 10000 0.5 20 00:44 09.03.2020
1660 Clear 2 1017 80 10000 1 40 00:25 09.03.2020
1661 Clear 0 1017 80 10000 0.5 160 23:58 08.03.2020
1662 Clear 0 1017 37 10000 0.5 160 23:38 08.03.2020
1663 Clear 0 1017 42 10000 0.5 160 23:18 08.03.2020
1664 Clear 1 1017 86 10000 0.5 30 22:40 08.03.2020
1665 Clear 0 1017 42 10000 0.47 87 22:22 08.03.2020
1666 Clouds 1 1017 80 10000 0.47 87 21:59 08.03.2020
1667 Clouds 1 1017 80 10000 0.47 87 21:40 08.03.2020
1668 Mist 1 1018 42 2800 0.5 50 21:20 08.03.2020
1669 Clouds 2 1017 80 10000 0.5 30 20:56 08.03.2020
1670 Clouds 2 1017 74 10000 0.47 87 20:37 08.03.2020
1671 Clouds 2 1017 74 10000 0.14 333 20:19 08.03.2020
1672 Mist 2 1019 40 2400 0.14 333 19:38 08.03.2020
1673 Mist 2 1019 40 2400 0.5 140 19:19 08.03.2020
1674 Clouds 3 1018 69 10000 0.14 333 18:43 08.03.2020
1675 Mist 3 1019 40 2800 0.5 170 18:25 08.03.2020
1676 Clouds 3 1018 74 10000 0.14 333 17:58 08.03.2020
1677 Clouds 3 1018 74 10000 0.14 333 17:39 08.03.2020
1678 Clouds 4 1018 74 10000 0.81 353 17:20 08.03.2020
1679 Clouds 4 1018 74 10000 0.81 353 16:55 08.03.2020
1680 Clouds 4 1018 64 10000 0.5 100 16:36 08.03.2020
1681 Haze 4 1019 80 3200 0.5 150 16:18 08.03.2020
1682 Haze 5 1019 74 4000 0.81 353 15:41 08.03.2020
1683 Clouds 5 1018 69 10000 0.5 50 15:21 08.03.2020
1684 Haze 5 1020 69 4800 1 320 14:56 08.03.2020
1685 Haze 5 1020 69 4800 1 320 14:37 08.03.2020
1686 Haze 5 1020 32 4800 0.5 220 14:19 08.03.2020
1687 Haze 6 1019 32 4800 1 150 13:41 08.03.2020
1688 Haze 6 1019 32 4000 1 150 13:20 08.03.2020
1689 Haze 8 1020 65 4800 0.5 50 12:43 08.03.2020
1690 Haze 9 1019 65 4800 0.5 140 12:25 08.03.2020
1691 Haze 9 1019 61 6000 1.5 170 11:58 08.03.2020
1692 Clear 11 1017 43 10000 1 140 11:39 08.03.2020
1693 Clear 11 1017 43 10000 1 140 11:39 08.03.2020
1694 Haze 13 1019 36 8000 2.1 290 11:21 08.03.2020
1695 Haze 13 1019 36 8000 2.1 290 11:21 08.03.2020
1696 Haze 13 1019 29 8000 2.1 290 10:42 08.03.2020
1697 Clear 13 1016 28 10000 0.5 170 10:23 08.03.2020
1698 Clear 16 1018 26 10000 1 260 09:57 08.03.2020
1699 Clear 16 1018 26 10000 1 260 09:36 08.03.2020
1700 Haze 16 1018 33 9000 1.5 270 09:18 08.03.2020
1701 Haze 16 1018 33 9000 1.5 270 09:18 08.03.2020
1702 Clear 17 1018 26 10000 2.1 240 08:40 08.03.2020
1703 Clear 17 1018 26 10000 2.1 240 08:19 08.03.2020
1704 Clear 16 1016 20 10000 1.5 270 07:44 08.03.2020
1705 Clear 16 1019 24 10000 1 320 07:25 08.03.2020
1706 Clear 16 1017 18 10000 1 190 06:42 08.03.2020
1707 Clear 16 1017 18 10000 1.5 200 06:22 08.03.2020
1708 Clear 15 1018 21 10000 2.1 220 05:39 08.03.2020
1709 Haze 12 1021 37 8000 1 310 03:52 08.03.2020
1710 Haze 7 1022 52 8000 2.1 60 02:29 08.03.2020
1711 Mist 3 1020 80 4200 1 330 01:23 08.03.2020
1712 Clear 0 1021 74 10000 1.5 40 00:49 08.03.2020
1713 Clear -1 1021 86 10000 1 30 00:26 08.03.2020
1714 Clear -1 1021 86 10000 1 30 23:44 07.03.2020
1715 Clear -1 1020 86 10000 0.5 30 23:23 07.03.2020
1716 Clear -1 1020 86 10000 0.5 340 22:41 07.03.2020
1717 Clear -1 1020 86 10000 0.5 340 22:22 07.03.2020
1718 Clear -1 1020 86 10000 0.5 20 21:50 07.03.2020
1719 Mist -1 1019 61 4800 1 10 21:29 07.03.2020
1720 Clear -1 1019 86 10000 0.5 140 20:57 07.03.2020
1721 Clear 0 1019 86 10000 0.5 70 20:39 07.03.2020
1722 Clear 0 1019 86 10000 0.5 70 20:19 07.03.2020
1723 Clear 0 1019 86 10000 0.5 70 20:19 07.03.2020
1724 Clear 0 1018 55 10000 0.5 110 19:41 07.03.2020
1725 Clear 0 1018 55 10000 0.5 110 19:22 07.03.2020
1726 Clear 1 1019 80 10000 1 30 18:46 07.03.2020
1727 Clear 1 1019 55 10000 0.5 40 18:27 07.03.2020
1728 Clear 1 1019 55 10000 0.68 54 17:57 07.03.2020
1729 Mist 1 1020 55 2800 1 100 17:39 07.03.2020
1730 Mist 1 1020 55 2800 1 100 17:19 07.03.2020
1731 Clear 2 1018 74 10000 0.5 360 16:43 07.03.2020
1732 Clear 2 1018 74 10000 0.5 360 16:23 07.03.2020
1733 Clear 2 1018 74 10000 0.5 360 16:23 07.03.2020
1734 Clear 3 1018 74 10000 1 150 15:58 07.03.2020
1735 Clear 3 1018 69 10000 0.5 220 15:40 07.03.2020
1736 Clear 3 1018 69 10000 0.5 220 15:21 07.03.2020
1737 Clear 4 1018 69 10000 0.5 180 14:57 07.03.2020
1738 Clear 4 1017 64 10000 0.5 200 14:38 07.03.2020
1739 Clear 4 1017 64 10000 0.5 200 14:19 07.03.2020
1740 Haze 5 1019 75 4800 1 140 13:40 07.03.2020
1741 Haze 5 1019 75 4800 1 140 13:21 07.03.2020
1742 Clouds 6 1017 56 10000 0.5 190 12:44 07.03.2020
1743 Haze 7 1019 70 4800 1 180 12:22 07.03.2020
1744 Haze 7 1018 65 6000 0.5 260 11:59 07.03.2020
1745 Clouds 8 1016 45 10000 0.86 291 11:40 07.03.2020
1746 Clouds 8 1016 45 10000 0.86 291 11:22 07.03.2020
1747 Clear 10 1017 34 10000 0.5 230 10:42 07.03.2020
1748 Clear 10 1017 34 10000 0.5 230 10:21 07.03.2020
1749 Clouds 11 1017 40 10000 2.1 290 09:58 07.03.2020
1750 Clouds 12 1018 37 10000 1.5 320 09:39 07.03.2020
1751 Clouds 12 1018 37 10000 1.5 320 09:19 07.03.2020
1752 Clouds 12 1016 28 10000 1.5 240 08:44 07.03.2020
1753 Clouds 12 1016 30 10000 1.5 180 08:21 07.03.2020
1754 Clouds 12 1016 32 10000 1.5 190 07:52 07.03.2020
1755 Clouds 11 1017 32 0 1.87 252 07:23 07.03.2020
1756 Clouds 11 1017 32 0 1.87 252 06:59 07.03.2020
1757 Clouds 11 1017 32 0 1.87 252 06:33 07.03.2020
1758 Clouds 10 1018 34 10000 1 350 05:53 07.03.2020
1759 Clouds 9 1018 34 10000 1 350 04:47 07.03.2020
1760 Haze 2 1021 59 9000 1.5 60 02:57 07.03.2020
1761 Haze 2 1021 59 9000 1.5 60 02:33 07.03.2020
1762 Clouds 2 1021 59 10000 2.1 60 01:26 07.03.2020
1763 Haze 1 1021 29 9000 0.5 10 00:39 07.03.2020
1764 Haze 1 1021 29 9000 0.5 10 00:20 07.03.2020
1765 Haze 0 1021 74 8000 0.5 200 23:45 06.03.2020
1766 Haze -1 1021 68 9000 0.5 290 23:26 06.03.2020
1767 Haze -1 1021 79 8000 0.5 30 22:48 06.03.2020
1768 Haze -1 1021 68 9000 1 30 22:21 06.03.2020
1769 Haze -1 1021 74 9000 0.5 60 21:55 06.03.2020
1770 Clouds 0 1019 31 10000 1 20 21:37 06.03.2020
1771 Clouds 0 1019 31 10000 1 20 21:18 06.03.2020
1772 Haze 0 1020 68 9000 0.5 120 20:37 06.03.2020
1773 Haze 0 1020 68 9000 0.5 120 20:19 06.03.2020
1774 Clouds 0 1019 33 10000 0.5 70 19:45 06.03.2020
1775 Clouds 0 1019 33 10000 0.5 70 19:26 06.03.2020
1776 Haze 0 1021 79 9000 1 80 18:44 06.03.2020
1777 Clouds 0 1020 33 10000 0.78 99 18:22 06.03.2020
1778 Clouds 1 1020 64 10000 0.5 40 17:59 06.03.2020
1779 Clouds 0 1021 68 10000 0.5 110 17:41 06.03.2020
1780 Clouds 0 1021 68 10000 0.5 110 17:41 06.03.2020
1781 Clouds 1 1021 74 10000 1 50 17:22 06.03.2020
1782 Clouds 1 1021 74 10000 1 50 16:59 06.03.2020
1783 Clouds 1 1021 74 10000 1 50 16:40 06.03.2020
1784 Clouds 1 1021 74 10000 1 50 16:40 06.03.2020
1785 Clouds 1 1021 74 10000 1 50 16:19 06.03.2020
1786 Clouds 1 1020 32 10000 0.66 1 15:44 06.03.2020
1787 Clouds 1 1021 59 10000 0.5 210 15:24 06.03.2020
1788 Clear 2 1021 59 10000 0.5 40 14:45 06.03.2020
1789 Clear 2 1020 59 10000 0.5 120 14:25 06.03.2020
1790 Clear 2 1020 55 10000 0.5 80 13:59 06.03.2020
1791 Clear 3 1022 59 10000 0.5 70 13:40 06.03.2020
1792 Clear 3 1022 59 10000 0.5 70 13:21 06.03.2020
1793 Clear 3 1020 51 10000 0.5 40 12:55 06.03.2020
1794 Clear 4 1020 48 10000 0.5 150 12:36 06.03.2020
1795 Clear 4 1020 48 10000 0.5 150 12:18 06.03.2020
1796 Clear 5 1020 41 10000 0.5 160 11:43 06.03.2020
1797 Clear 5 1022 51 10000 0.5 290 11:21 06.03.2020
1798 Clear 6 1022 48 10000 1.5 280 10:58 06.03.2020
1799 Clear 8 1019 28 10000 1 20 10:37 06.03.2020
1800 Clear 8 1019 28 10000 1 20 10:19 06.03.2020
1801 Clear 9 1019 21 10000 1 250 09:42 06.03.2020
1802 Clear 9 1019 21 10000 1 250 09:24 06.03.2020
1803 Clear 9 1022 28 10000 0.5 220 08:58 06.03.2020
1804 Clear 9 1020 23 10000 1.5 180 08:39 06.03.2020
1805 Clear 9 1020 23 10000 1.5 180 08:20 06.03.2020
1806 Clear 9 1020 24 10000 2.6 220 07:45 06.03.2020
1807 Clouds 9 1022 20 10000 2.6 240 07:24 06.03.2020
1808 Clear 9 1020 21 10000 1.5 190 06:47 06.03.2020
1809 Clear 8 1021 26 10000 2.1 220 06:28 06.03.2020
1810 Clear 7 1024 26 10000 1 340 05:39 06.03.2020
1811 Clear 7 1024 26 10000 1 340 05:20 06.03.2020
1812 Clear 6 1023 22 10000 1 240 04:39 06.03.2020
1813 Clear 1 1025 41 10000 1 220 01:44 06.03.2020
1814 Clear 0 1024 74 10000 0.5 30 01:25 06.03.2020
1815 Clear -3 1025 79 10000 0.5 40 00:50 06.03.2020
1816 Mist -3 1025 92 4000 0.5 70 00:30 06.03.2020
1817 Clear -5 1024 85 10000 0.5 140 23:44 05.03.2020
1818 Mist -5 1025 100 3200 1 70 23:25 05.03.2020
1819 Mist -5 1025 92 4000 0.29 227 22:55 05.03.2020
1820 Clouds -5 1025 85 10000 0.29 227 22:37 05.03.2020
1821 Clouds -5 1025 85 10000 0.29 227 22:18 05.03.2020
1822 Clouds -5 1024 85 10000 0.5 140 21:55 05.03.2020
1823 Clear -4 1024 85 10000 0.5 160 21:37 05.03.2020
1824 Clear -4 1024 85 10000 0.5 160 21:19 05.03.2020
1825 Clear -4 1024 85 10000 0.5 170 20:42 05.03.2020
1826 Clear -4 1024 85 10000 0.5 170 20:21 05.03.2020
1827 Clear -4 1024 79 10000 0.5 180 19:59 05.03.2020
1828 Clear -4 1025 85 10000 0.5 180 19:39 05.03.2020
1829 Clear -4 1025 85 10000 0.5 180 19:21 05.03.2020
1830 Clear -3 1025 79 10000 0.68 278 18:58 05.03.2020
1831 Clear -3 1025 79 10000 0.5 150 18:37 05.03.2020
1832 Clear -3 1025 79 10000 0.5 150 18:19 05.03.2020
1833 Clear -3 1024 79 10000 0.5 190 17:57 05.03.2020
1834 Clear -3 1024 79 10000 0.5 190 17:57 05.03.2020
1835 Clear -3 1024 73 10000 0.5 130 17:39 05.03.2020
1836 Clear -3 1024 73 10000 0.5 130 17:20 05.03.2020
1837 Clear -2 1024 68 10000 0.5 150 16:41 05.03.2020
1838 Clear -2 1024 68 10000 0.5 160 16:23 05.03.2020
1839 Clear -1 1024 68 10000 0.5 200 15:57 05.03.2020
1840 Clear -1 1024 63 10000 1 180 15:37 05.03.2020
1841 Clear -1 1024 63 10000 1 180 15:19 05.03.2020
1842 Clear 0 1024 63 10000 0.5 180 14:41 05.03.2020
1843 Clear 0 1024 63 10000 0.5 180 14:22 05.03.2020
1844 Clear 1 1024 33 10000 0.5 190 13:58 05.03.2020
1845 Clear 1 1024 33 10000 0.5 160 13:39 05.03.2020
1846 Clear 1 1024 29 10000 0.5 160 13:20 05.03.2020
1847 Clear 2 1024 55 10000 0.5 150 12:43 05.03.2020
1848 Clear 2 1024 55 10000 0.5 180 12:21 05.03.2020
1849 Clear 2 1023 51 10000 1.5 190 11:58 05.03.2020
1850 Clear 2 1023 47 10000 1 180 11:39 05.03.2020
1851 Clear 2 1023 47 10000 1 180 11:20 05.03.2020
1852 Clear 4 1023 41 10000 1 230 10:58 05.03.2020
1853 Clear 4 1023 41 10000 1 230 10:58 05.03.2020
1854 Clear 4 1025 44 10000 2.6 220 10:40 05.03.2020
1855 Clear 4 1025 44 10000 2.6 220 10:21 05.03.2020
1856 Clear 6 1024 38 10000 2.1 240 09:59 05.03.2020
1857 Clear 6 1023 30 10000 1.5 180 09:40 05.03.2020
1858 Clear 6 1023 30 10000 1.5 180 09:19 05.03.2020
1859 Clear 6 1023 28 10000 2.6 190 08:42 05.03.2020
1860 Clear 6 1023 28 10000 2.6 190 08:22 05.03.2020
1861 Clear 6 1023 30 10000 1.5 240 07:42 05.03.2020
1862 Clear 6 1023 28 10000 2.1 220 07:42 05.03.2020
1863 Clear 6 1023 30 10000 1.5 240 07:21 05.03.2020
1864 Clear 5 1024 28 10000 2.6 230 06:44 05.03.2020
1865 Clear 5 1024 28 10000 2.6 230 06:44 05.03.2020
1866 Clear 5 1024 24 10000 0.5 270 06:20 05.03.2020
1867 Clear 5 1025 26 10000 1 230 05:35 05.03.2020
1868 Clear 3 1026 27 10000 0.5 330 04:24 05.03.2020
1869 Clear 2 1028 43 10000 0.5 350 03:58 05.03.2020
1870 Clear 1 1026 43 10000 1 20 02:32 05.03.2020
1871 Clear 0 1026 43 10000 0.5 310 01:26 05.03.2020
1872 Clear -1 1026 63 10000 1 100 00:49 05.03.2020
1873 Clear -3 1026 73 10000 0.5 190 23:57 04.03.2020
1874 Clear -3 1026 73 10000 0.5 190 23:57 04.03.2020
1875 Clear -3 1025 79 10000 0.5 190 23:39 04.03.2020
1876 Clear -3 1025 79 10000 0.5 190 23:21 04.03.2020
1877 Clear -4 1025 73 10000 1 150 22:55 04.03.2020
1878 Clear -3 1025 68 10000 1 170 22:36 04.03.2020
1879 Clear -3 1025 68 10000 1 170 22:18 04.03.2020
1880 Clear -3 1024 63 10000 1 230 21:42 04.03.2020
1881 Clear -3 1024 63 10000 1 230 21:22 04.03.2020
1882 Clear -2 1024 58 10000 1.5 200 20:59 04.03.2020
1883 Clear -2 1024 58 10000 2.1 300 20:40 04.03.2020
1884 Clear -2 1024 58 10000 2.1 300 20:21 04.03.2020
1885 Clear -2 1024 58 10000 1 260 19:43 04.03.2020
1886 Haze -2 1026 73 9000 1.5 160 19:24 04.03.2020
1887 Haze -2 1026 73 9000 1.5 160 19:24 04.03.2020
1888 Haze -1 1026 63 9000 1.5 270 18:59 04.03.2020
1889 Clear -1 1024 58 10000 2.1 200 18:41 04.03.2020
1890 Clear -1 1024 58 10000 1.5 190 18:23 04.03.2020
1891 Clear -1 1024 47 10000 0.5 310 17:59 04.03.2020
1892 Haze -1 1025 68 9000 0.5 310 17:38 04.03.2020
1893 Haze -1 1025 68 9000 0.5 310 17:20 04.03.2020
1894 Haze -1 1025 63 9000 1.5 270 16:55 04.03.2020
1895 Clouds -1 1023 46 10000 1 290 16:36 04.03.2020
1896 Clouds -1 1023 46 10000 1 290 16:18 04.03.2020
1897 Clouds -1 1024 46 10000 1 210 15:42 04.03.2020
1898 Haze 0 1025 63 8000 2.1 240 15:23 04.03.2020
1899 Clouds 0 1023 46 10000 1 230 14:56 04.03.2020
1900 Haze 0 1025 63 9000 1 250 14:38 04.03.2020
1901 Haze 0 1025 63 9000 1 250 14:19 04.03.2020
1902 Haze 0 1025 63 9000 2.1 240 13:57 04.03.2020
1903 Haze 0 1025 45 9000 2.1 270 13:38 04.03.2020
1904 Haze 0 1025 45 9000 2.1 270 13:20 04.03.2020
1905 Rain 0 1022 45 10000 0.5 240 12:45 04.03.2020
1906 Rain 0 1024 45 9000 2.6 250 12:27 04.03.2020
1907 Clouds 1 1021 47 10000 2.6 330 11:59 04.03.2020
1908 Clouds 1 1021 47 10000 2.6 330 11:41 04.03.2020
1909 Clouds 1 1022 59 10000 7.7 320 11:22 04.03.2020
1910 Clouds 1 1022 43 8000 10.3 310 10:56 04.03.2020
1911 Clouds 1 1021 55 9000 7.7 310 10:38 04.03.2020
1912 Clouds 1 1021 55 9000 7.7 310 10:18 04.03.2020
1913 Rain 3 1022 55 8000 8.2 310 09:42 04.03.2020
1914 Clouds 2 1021 59 9000 7.7 280 09:21 04.03.2020
1915 Clouds 3 1020 40 10000 3.6 270 08:44 04.03.2020
1916 Haze 3 1022 44 8000 4.6 310 08:26 04.03.2020
1917 Clouds 3 1020 41 10000 2.1 250 07:54 04.03.2020
1918 Snow 4 1021 41 10000 5.1 310 07:35 04.03.2020
1919 Thunderstorm 4 1021 47 9000 2.6 230 06:58 04.03.2020
1920 Clouds 4 1021 48 10000 3.1 250 06:40 04.03.2020
1921 Clouds 4 1021 48 10000 3.1 250 06:20 04.03.2020
1922 Thunderstorm 5 1022 44 9000 4.1 310 05:45 04.03.2020
1923 Haze 5 1023 48 6000 4.6 270 04:19 04.03.2020
1924 Clouds 4 1021 44 10000 3.1 290 03:38 04.03.2020
1925 Haze 4 1024 51 6000 3.6 300 02:59 04.03.2020
1926 Haze 4 1024 59 6000 2.6 280 02:32 04.03.2020
1927 Haze 4 1024 59 8000 2.6 270 01:58 04.03.2020
1928 Clouds 3 1022 60 10000 2.1 260 01:38 04.03.2020
1929 Clouds 3 1022 60 10000 2.1 240 00:42 04.03.2020
1930 Clouds 3 1021 60 10000 2.6 190 00:24 04.03.2020
1931 Clouds 2 1021 64 10000 1.5 280 23:45 03.03.2020
1932 Clouds 2 1021 59 10000 0.5 150 23:27 03.03.2020
1933 Clouds 3 1021 55 10000 2.1 170 22:56 03.03.2020
1934 Haze 3 1023 74 4800 1.5 250 22:38 03.03.2020
1935 Haze 3 1023 74 4800 1.5 250 22:19 03.03.2020
1936 Haze 3 1023 74 4800 1.5 220 21:56 03.03.2020
1937 Haze 3 1023 74 6000 2.6 250 21:36 03.03.2020
1938 Haze 3 1023 74 6000 2.6 250 21:18 03.03.2020
1939 Haze 3 1023 74 6000 2.6 250 21:18 03.03.2020
1940 Clouds 3 1020 69 10000 1 190 20:40 03.03.2020
1941 Thunderstorm 3 1022 74 6000 2.6 280 20:19 03.03.2020
1942 Clouds 4 1021 69 10000 0.5 180 19:58 03.03.2020
1943 Haze 3 1022 92 8000 2.1 180 19:37 03.03.2020
1944 Haze 3 1022 84 8000 2.1 180 19:19 03.03.2020
1945 Haze 3 1022 84 8000 1.5 180 18:58 03.03.2020
1946 Haze 3 1023 92 9000 0.5 200 18:40 03.03.2020
1947 Haze 3 1023 84 9000 0.5 200 18:19 03.03.2020
1948 Clouds 3 1023 84 10000 1 140 17:55 03.03.2020
1949 Clouds 3 1023 92 10000 1 140 17:55 03.03.2020
1950 Clouds 3 1023 92 10000 0.5 180 17:37 03.03.2020
1951 Clouds 3 1023 63 10000 0.5 180 17:18 03.03.2020
1952 Clouds 3 1022 69 10000 0.5 230 16:55 03.03.2020
1953 Clouds 3 1023 63 10000 1.5 200 16:36 03.03.2020
1954 Clouds 3 1023 63 10000 1.5 200 16:18 03.03.2020
1955 Clouds 3 1023 63 10000 1.5 200 16:18 03.03.2020
1956 Clouds 4 1022 64 10000 1.5 310 15:43 03.03.2020
1957 Clouds 4 1022 60 10000 1.5 270 15:21 03.03.2020
1958 Clouds 4 1022 60 10000 1.5 270 15:21 03.03.2020
1959 Clouds 4 1022 60 10000 1.5 250 14:55 03.03.2020
1960 Clouds 5 1022 56 10000 1 250 14:36 03.03.2020
1961 Clouds 5 1022 56 10000 1 250 14:18 03.03.2020
1962 Clouds 4 1022 60 10000 1 240 13:42 03.03.2020
1963 Haze 5 1024 74 9000 0.5 210 13:24 03.03.2020
1964 Haze 5 1024 69 9000 1 230 12:55 03.03.2020
1965 Haze 6 1024 69 9000 2.1 240 12:37 03.03.2020
1966 Haze 6 1024 69 9000 2.1 240 12:18 03.03.2020
1967 Haze 6 1024 60 6000 1.5 220 11:38 03.03.2020
1968 Haze 6 1024 60 6000 1.5 220 11:19 03.03.2020
1969 Haze 7 1023 56 6000 1.5 200 10:57 03.03.2020
1970 Haze 8 1023 60 6000 1.5 240 10:39 03.03.2020
1971 Haze 8 1023 60 6000 1.5 240 10:19 03.03.2020
1972 Haze 8 1023 56 9000 1.5 290 09:45 03.03.2020
1973 Haze 9 1023 49 8000 2.1 310 09:23 03.03.2020
1974 Haze 10 1023 45 9000 2.6 220 08:59 03.03.2020
1975 Haze 10 1023 45 6000 2.6 230 08:39 03.03.2020
1976 Haze 10 1023 45 6000 2.6 230 08:21 03.03.2020
1977 Clouds 11 1021 50 10000 2.6 190 07:44 03.03.2020
1978 Clouds 11 1021 47 10000 2.6 180 07:24 03.03.2020
1979 Clouds 10 1022 47 10000 1.5 190 06:54 03.03.2020
1980 Haze 10 1023 43 6000 3.1 250 06:27 03.03.2020
1981 Haze 10 1024 45 8000 1.5 230 05:48 03.03.2020
1982 Haze 10 1024 39 9000 3.1 190 05:30 03.03.2020
1983 Haze 9 1025 45 8000 2.6 190 04:37 03.03.2020
1984 Haze 2 1027 74 6000 1.5 40 01:41 03.03.2020
1985 Clear 0 1026 47 10000 1 40 00:59 03.03.2020
1986 Clear -1 1027 92 4800 0.5 10 00:37 03.03.2020
1987 Clear -1 1027 92 4800 0.5 10 00:18 03.03.2020
1988 Clear -2 1026 86 10000 1 70 23:41 02.03.2020
1989 Clear -2 1026 92 10000 0.5 170 23:22 02.03.2020
1990 Mist -2 1027 92 4000 1 20 22:55 02.03.2020
1991 Clouds -2 1026 92 10000 0.5 170 22:37 02.03.2020
1992 Clouds -2 1026 92 10000 0.5 170 22:19 02.03.2020
1993 Clouds -2 1026 92 10000 0.5 170 21:42 02.03.2020
1994 Thunderstorm -2 1027 92 4800 0.5 250 21:24 02.03.2020
1995 Clouds -2 1026 86 10000 0.96 96 20:58 02.03.2020
1996 Clouds -2 1026 86 10000 0.96 96 20:58 02.03.2020
1997 Clouds -1 1026 86 10000 0.5 180 20:40 02.03.2020
1998 Clouds -1 1026 86 10000 0.5 180 20:20 02.03.2020
1999 Clouds -1 1026 86 10000 0.5 170 19:57 02.03.2020
2000 Mist -1 1027 92 4800 0.28 78 19:38 02.03.2020
2001 Mist -1 1027 92 4800 0.28 78 19:20 02.03.2020
2002 Clear -1 1026 86 10000 0.5 170 18:45 02.03.2020
2003 Clear -1 1026 86 10000 0.5 120 18:21 02.03.2020
2004 Clear -1 1026 80 10000 0.28 78 17:59 02.03.2020
2005 Clear -1 1026 86 10000 0.5 60 17:41 02.03.2020
2006 Clear -1 1026 86 10000 0.5 60 17:21 02.03.2020
2007 Clear -1 1026 86 10000 0.5 60 17:21 02.03.2020
2008 Clear -1 1026 86 10000 0.5 60 17:21 02.03.2020
2009 Clear 0 1026 86 10000 0.81 246 16:55 02.03.2020
2010 Clear 0 1026 86 10000 0.81 246 16:37 02.03.2020
2011 Clear 0 1026 86 10000 0.81 246 16:19 02.03.2020
2012 Clear 0 1026 45 10000 0.81 246 15:43 02.03.2020
2013 Clear 1 1026 45 10000 0.5 130 15:20 02.03.2020
2014 Haze 2 1027 45 9000 0.5 90 14:42 02.03.2020
2015 Haze 2 1027 39 9000 0.5 90 14:20 02.03.2020
2016 Clouds 2 1025 69 10000 0.5 160 13:59 02.03.2020
2017 Clouds 3 1027 64 10000 0.5 160 13:39 02.03.2020
2018 Clouds 3 1027 64 10000 0.5 160 13:18 02.03.2020
2019 Clouds 4 1025 64 10000 2.18 278 12:44 02.03.2020
2020 Clear 4 1026 59 10000 0.5 190 12:20 02.03.2020
2021 Clouds 4 1024 55 10000 0.5 200 11:56 02.03.2020
2022 Clouds 4 1024 52 10000 0.5 140 11:37 02.03.2020
2023 Clouds 6 1023 48 10000 2.46 297 11:18 02.03.2020
2024 Clear 6 1023 45 10000 0.5 340 10:43 02.03.2020
2025 Clear 6 1023 45 10000 0.5 340 10:21 02.03.2020
2026 Clear 7 1023 36 10000 1 290 09:59 02.03.2020
2027 Clear 7 1023 36 10000 1 290 09:59 02.03.2020
2028 Clear 7 1023 36 10000 1 290 09:40 02.03.2020
2029 Clear 7 1023 36 10000 0.5 340 09:22 02.03.2020
2030 Clear 7 1023 36 10000 0.5 360 08:43 02.03.2020
2031 Clear 7 1023 34 10000 0.5 30 08:22 02.03.2020
2032 Clear 7 1022 36 10000 1 330 07:42 02.03.2020
2033 Clear 7 1022 36 10000 1 330 07:19 02.03.2020
2034 Clear 7 1022 39 10000 1.5 330 06:38 02.03.2020
2035 Clear 6 1025 41 10000 1.5 360 05:53 02.03.2020
2036 Clouds 5 1024 44 10000 0.5 300 04:23 02.03.2020
2037 Clear 4 1026 51 10000 1.5 270 03:20 02.03.2020
2038 Clouds 3 1024 55 10000 1 330 02:37 02.03.2020
2039 Clouds 3 1024 55 10000 1 330 02:37 02.03.2020
2040 Clear 2 1026 59 10000 2.1 310 01:45 02.03.2020
2041 Clear 2 1025 59 10000 1.5 330 01:26 02.03.2020
2042 Haze 1 1025 69 8000 0.5 360 00:23 02.03.2020
2043 Clear 1 1022 64 10000 2.1 270 23:56 01.03.2020
2044 Haze 1 1023 80 8000 0.5 240 23:38 01.03.2020
2045 Haze 1 1023 80 8000 0.5 240 23:19 01.03.2020
2046 Clouds 1 1021 64 10000 1.5 330 22:42 01.03.2020
2047 Clouds 1 1021 64 10000 1.5 330 22:19 01.03.2020
2048 Clouds 1 1021 69 10000 0.5 270 21:55 01.03.2020
2049 Haze 2 1022 56 8000 1.5 260 21:37 01.03.2020
2050 Haze 2 1022 56 8000 1.5 260 21:18 01.03.2020
2051 Clouds 2 1020 80 10000 0.5 90 20:43 01.03.2020
2052 Clouds 2 1020 80 10000 1 180 20:24 01.03.2020
2053 Haze 2 1022 80 6000 2.1 300 19:43 01.03.2020
2054 Clouds 2 1020 74 10000 1.5 180 19:24 01.03.2020
2055 Mist 3 1022 59 3200 1 150 18:59 01.03.2020
2056 Clouds 3 1020 59 10000 0.5 230 18:40 01.03.2020
2057 Clouds 3 1020 59 10000 0.5 230 18:20 01.03.2020
2058 Clouds 3 1020 59 10000 2.1 260 17:57 01.03.2020
2059 Clear 3 1022 86 6000 0.5 170 17:39 01.03.2020
2060 Clear 3 1022 86 6000 0.5 170 17:39 01.03.2020
2061 Clear 3 1022 86 6000 0.5 170 17:20 01.03.2020
2062 Haze 4 1022 69 6000 1 270 16:57 01.03.2020
2063 Clouds 4 1019 75 10000 0.5 250 16:38 01.03.2020
2064 Clouds 4 1019 75 10000 0.5 250 16:18 01.03.2020
2065 Clouds 4 1019 86 10000 0.5 260 15:56 01.03.2020
2066 Rain 5 1019 86 7000 2.6 330 15:37 01.03.2020
2067 Rain 5 1019 86 7000 2.6 330 15:19 01.03.2020
2068 Clouds 5 1018 93 10000 1.5 170 14:56 01.03.2020
2069 Clouds 5 1018 86 10000 1.5 180 14:38 01.03.2020
2070 Clouds 5 1018 86 10000 1.5 180 14:19 01.03.2020
2071 Clouds 5 1018 93 10000 1.5 170 13:44 01.03.2020
2072 Clouds 5 1018 87 10000 1.5 170 13:22 01.03.2020
2073 Clouds 5 1018 81 10000 2.1 200 12:59 01.03.2020
2074 Clouds 5 1018 81 10000 2.1 200 12:59 01.03.2020
2075 Clouds 6 1017 81 10000 2.1 210 12:41 01.03.2020
2076 Clouds 6 1017 81 10000 2.1 210 12:21 01.03.2020
2077 Clouds 6 1017 75 10000 1.5 230 11:42 01.03.2020
2078 Clouds 6 1017 70 10000 2.1 220 11:24 01.03.2020
2079 Haze 7 1019 75 4800 2.1 230 10:57 01.03.2020
2080 Haze 7 1018 70 6000 1.5 260 10:38 01.03.2020
2081 Haze 7 1018 70 6000 1.5 260 10:20 01.03.2020
2082 Clouds 7 1016 70 10000 1.5 250 09:55 01.03.2020
2083 Haze 8 1018 75 4800 1 290 09:37 01.03.2020
2084 Haze 8 1018 75 4800 1 290 09:18 01.03.2020
2085 Clouds 8 1016 66 10000 1.5 270 08:41 01.03.2020
2086 Clouds 8 1016 66 10000 1.5 270 08:20 01.03.2020
2087 Clouds 9 1016 61 10000 1 190 07:42 01.03.2020
2088 Clouds 9 1016 61 10000 1.5 190 07:24 01.03.2020
2089 Clouds 9 1016 57 10000 1.5 190 06:54 01.03.2020
2090 Haze 9 1018 75 4000 2.6 230 06:36 01.03.2020
2091 Clouds 8 1018 57 10000 1 330 04:26 01.03.2020
2092 Haze 6 1020 51 4800 0.5 70 02:54 01.03.2020
2093 Clouds 3 1019 61 10000 2.1 30 01:53 01.03.2020
2094 Clouds 3 1020 59 10000 1 20 01:22 01.03.2020
2095 Clouds 2 1020 59 10000 0.5 30 00:43 01.03.2020
2096 Clouds 1 1020 86 10000 1 30 00:21 01.03.2020
2097 Mist 0 1021 100 4000 0.97 144 23:49 29.02.2020
2098 Clouds 0 1019 59 10000 1 30 23:31 29.02.2020
2099 Clouds 0 1019 92 10000 0.5 30 22:44 29.02.2020
2100 Clouds 0 1019 92 10000 0.5 30 22:44 29.02.2020
2101 Clouds 0 1019 92 10000 0.5 210 22:24 29.02.2020
2102 Clear 0 1019 92 10000 0.5 130 21:43 29.02.2020
2103 Clear 0 1019 64 10000 1 40 21:25 29.02.2020
2104 Clear 1 1019 64 10000 1 20 20:44 29.02.2020
2105 Clear 1 1019 61 10000 1 30 20:22 29.02.2020
2106 Fog 1 1018 100 1400 1 330 19:57 29.02.2020
2107 Clear 1 1019 51 10000 0.5 160 19:38 29.02.2020
2108 Clear 1 1019 51 10000 0.5 160 19:19 29.02.2020
2109 Mist 1 1020 51 2000 0.5 340 18:43 29.02.2020
2110 Mist 1 1020 51 2000 0.5 340 18:25 29.02.2020
2111 Mist 2 1020 100 4000 0.5 80 17:58 29.02.2020
2112 Clear 2 1018 86 10000 0.5 10 17:40 29.02.2020
2113 Mist 2 1020 100 4800 0.5 70 17:21 29.02.2020
2114 Clear 2 1018 86 10000 0.5 180 16:45 29.02.2020
2115 Clear 2 1018 86 10000 0.5 150 16:22 29.02.2020
2116 Clear 3 1018 53 10000 0.5 40 15:59 29.02.2020
2117 Clear 3 1018 53 10000 0.5 40 15:41 29.02.2020
2118 Clear 3 1018 53 10000 0.47 314 15:21 29.02.2020
2119 Clear 4 1019 53 10000 0.47 314 14:42 29.02.2020
2120 Clear 4 1019 53 10000 0.47 314 14:42 29.02.2020
2121 Clear 4 1019 53 10000 0.47 314 14:23 29.02.2020
2122 Clear 5 1019 48 10000 1 277 13:56 29.02.2020
2123 Clear 5 1018 48 10000 1 277 13:37 29.02.2020
2124 Clear 5 1018 42 10000 1.08 282 13:18 29.02.2020
2125 Clear 7 1018 42 10000 1.08 282 12:42 29.02.2020
2126 Clear 7 1018 42 10000 1.08 282 12:21 29.02.2020
2127 Clear 7 1017 42 10000 1.08 282 11:56 29.02.2020
2128 Clear 7 1017 42 10000 1.08 282 11:56 29.02.2020
2129 Clear 8 1017 42 10000 0.5 360 11:38 29.02.2020
2130 Clear 8 1017 30 10000 0.5 360 11:20 29.02.2020
2131 Clear 9 1016 30 10000 0.5 190 10:44 29.02.2020
2132 Clear 10 1018 30 10000 1 230 10:26 29.02.2020
2133 Clear 11 1018 53 10000 1.5 270 09:47 29.02.2020
2134 Clear 12 1018 53 10000 2.1 240 09:23 29.02.2020
2135 Clear 12 1016 37 10000 1.5 230 08:42 29.02.2020
2136 Clear 12 1016 37 10000 1 170 08:22 29.02.2020
2137 Clear 12 1016 43 10000 1.5 200 07:57 29.02.2020
2138 Clouds 12 1016 50 10000 1 190 07:39 29.02.2020
2139 Clouds 12 1016 50 10000 1 190 07:18 29.02.2020
2140 Clear 11 1016 50 10000 1 210 06:42 29.02.2020
2141 Clear 11 1017 57 10000 1 320 06:22 29.02.2020
2142 Clear 10 1017 57 10000 1.5 330 05:46 29.02.2020
2143 Clouds 9 1018 66 10000 1.5 50 04:45 29.02.2020
2144 Clouds 7 1019 70 10000 1 350 03:40 29.02.2020
2145 Clouds 7 1019 70 10000 1 350 03:21 29.02.2020
2146 Haze 6 1021 80 8000 2.6 80 02:34 29.02.2020
2147 Mist 4 1021 100 2400 2.6 60 00:58 29.02.2020
2148 Mist 4 1021 100 1600 2.1 50 00:36 29.02.2020
2149 Clouds 4 1019 93 10000 0.5 330 23:42 28.02.2020
2150 Fog 4 1021 100 800 2.1 40 23:24 28.02.2020
2151 Clouds 4 1019 93 10000 0.33 359 22:44 28.02.2020
2152 Fog 4 1020 100 800 2.6 20 22:24 28.02.2020
2153 Fog 4 1020 100 400 1 30 21:56 28.02.2020
2154 Mist 4 1021 100 1200 0.5 70 21:38 28.02.2020
2155 Mist 4 1021 100 1200 0.5 70 21:20 28.02.2020
2156 Fog 4 1020 100 400 1 360 20:39 28.02.2020
2157 Fog 4 1020 100 400 1 360 20:21 28.02.2020
2158 Fog 4 1020 100 800 0.5 100 19:57 28.02.2020
2159 Fog 4 1020 100 800 0.5 350 19:39 28.02.2020
2160 Fog 4 1020 100 800 0.5 350 19:39 28.02.2020
2161 Fog 4 1020 100 800 0.5 350 19:20 28.02.2020
2162 Drizzle 4 1019 100 1600 3.6 330 18:47 28.02.2020
2163 Drizzle 4 1019 100 1600 3.6 330 18:47 28.02.2020
2164 Drizzle 4 1019 100 1600 3.6 330 18:47 28.02.2020
2165 Fog 4 1021 100 400 0.5 70 18:28 28.02.2020
2166 Clouds 4 1019 93 10000 0.5 180 17:58 28.02.2020
2167 Rain 4 1021 100 400 1 360 17:39 28.02.2020
2168 Rain 4 1021 100 400 1 360 17:39 28.02.2020
2169 Rain 4 1021 100 400 1 360 17:39 28.02.2020
2170 Rain 4 1021 100 400 1 360 17:20 28.02.2020
2171 Clouds 4 1019 93 10000 0.5 170 16:43 28.02.2020
2172 Mist 4 1020 100 1200 0.5 210 16:20 28.02.2020
2173 Fog 4 1021 100 400 0.5 190 15:57 28.02.2020
2174 Fog 4 1021 100 800 0.5 120 15:39 28.02.2020
2175 Fog 4 1021 100 800 0.5 120 15:19 28.02.2020
2176 Rain 4 1021 100 400 1 20 14:55 28.02.2020
2177 Rain 3 1022 100 400 0.5 20 14:37 28.02.2020
2178 Rain 4 1022 100 400 0.5 20 14:18 28.02.2020
2179 Fog 4 1021 100 800 1 50 13:41 28.02.2020
2180 Fog 4 1021 100 800 1 50 13:20 28.02.2020
2181 Mist 4 1021 93 1200 1 350 12:46 28.02.2020
2182 Rain 4 1022 100 800 1.5 20 12:28 28.02.2020
2183 Drizzle 4 1022 100 800 1 20 11:59 28.02.2020
2184 Clouds 4 1020 93 10000 0.5 10 11:40 28.02.2020
2185 Rain 4 1022 100 800 1.5 10 11:21 28.02.2020
2186 Clouds 4 1020 93 10000 1.11 58 10:43 28.02.2020
2187 Rain 4 1022 100 1200 1 50 10:24 28.02.2020
2188 Clouds 4 1020 93 10000 1 170 09:55 28.02.2020
2189 Drizzle 4 1022 100 1600 1 20 09:36 28.02.2020
2190 Drizzle 4 1022 100 1600 1 20 09:18 28.02.2020
2191 Clouds 4 1021 86 10000 0.5 210 08:42 28.02.2020
2192 Rain 4 1023 100 1600 0.5 330 08:20 28.02.2020
2193 Rain 4 1021 86 10000 1.5 190 07:45 28.02.2020
2194 Rain 4 1022 93 3200 0.5 200 07:25 28.02.2020
2195 Rain 4 1023 93 4000 1.5 190 06:50 28.02.2020
2196 Rain 4 1023 93 4000 1.5 180 06:29 28.02.2020
2197 Rain 3 1024 93 6000 2.1 180 05:22 28.02.2020
2198 Rain 4 1025 86 10000 0.5 170 04:31 28.02.2020
2199 Rain 4 1025 80 6000 1.89 225 02:47 28.02.2020
2200 Haze 4 1025 65 4800 0.5 210 02:28 28.02.2020
2201 Haze 3 1026 65 9000 0.5 100 01:33 28.02.2020
2202 Clouds 3 1026 86 8000 0.5 80 00:30 28.02.2020
2203 Clouds 2 1024 80 10000 0.5 20 23:45 27.02.2020
2204 Clouds 2 1025 86 8000 0.5 360 23:22 27.02.2020
2205 Clouds 2 1025 86 6000 1 350 22:55 27.02.2020
2206 Clouds 2 1025 61 6000 1 70 22:37 27.02.2020
2207 Clouds 2 1025 61 6000 1 70 22:19 27.02.2020
2208 Clouds 2 1025 86 8000 0.5 70 21:41 27.02.2020
2209 Clouds 2 1025 86 8000 0.5 70 21:19 27.02.2020
2210 Clouds 2 1025 86 10000 0.5 10 20:58 27.02.2020
2211 Clouds 2 1026 61 10000 1 60 20:39 27.02.2020
2212 Clouds 2 1026 57 10000 1 60 20:21 27.02.2020
2213 Clouds 1 1026 58 10000 1.01 90 19:56 27.02.2020
2214 Clouds 1 1026 58 10000 0.5 40 19:37 27.02.2020
2215 Clouds 1 1026 58 10000 0.5 40 19:37 27.02.2020
2216 Clouds 1 1026 58 10000 0.5 40 19:19 27.02.2020
2217 Clouds 2 1026 80 10000 0.5 150 18:42 27.02.2020
2218 Clouds 2 1026 80 10000 0.5 160 18:24 27.02.2020
2219 Clouds 1 1026 86 10000 0.5 20 17:58 27.02.2020
2220 Clouds 2 1027 74 10000 0.5 130 17:40 27.02.2020
2221 Clouds 2 1027 74 10000 0.5 130 17:19 27.02.2020
2222 Clouds 3 1026 86 10000 1 110 16:56 27.02.2020
2223 Clouds 3 1026 93 10000 1 300 16:38 27.02.2020
2224 Clouds 3 1026 93 10000 1 300 16:18 27.02.2020
2225 Clouds 3 1027 80 10000 0.5 350 15:56 27.02.2020
2226 Clouds 3 1028 80 10000 0.5 170 15:36 27.02.2020
2227 Clouds 3 1028 80 10000 0.5 170 15:18 27.02.2020
2228 Clouds 4 1027 69 10000 0.83 114 14:42 27.02.2020
2229 Clouds 4 1027 69 10000 0.83 114 14:23 27.02.2020
2230 Clouds 4 1027 69 10000 0.83 114 14:23 27.02.2020
2231 Clouds 4 1027 64 10000 0.83 317 13:57 27.02.2020
2232 Clear 4 1027 64 10000 0.5 10 13:39 27.02.2020
2233 Clear 4 1027 64 10000 0.5 10 13:39 27.02.2020
2234 Clear 4 1027 64 10000 0.5 10 13:20 27.02.2020
2235 Clear 5 1027 64 10000 0.5 50 12:45 27.02.2020
2236 Clear 6 1027 60 10000 0.5 210 12:22 27.02.2020
2237 Clear 6 1027 52 10000 1 120 11:56 27.02.2020
2238 Clear 7 1026 56 10000 0.5 200 11:37 27.02.2020
2239 Clear 7 1026 56 10000 0.5 200 11:18 27.02.2020
2240 Clear 8 1028 49 10000 2.1 280 10:41 27.02.2020
2241 Clear 8 1028 49 10000 2.1 280 10:20 27.02.2020
2242 Clear 10 1026 39 10000 1 250 09:45 27.02.2020
2243 Clear 10 1026 32 10000 1 180 09:26 27.02.2020
2244 Clear 11 1026 32 10000 1.5 200 08:56 27.02.2020
2245 Clear 10 1026 32 10000 2.1 210 08:37 27.02.2020
2246 Clear 10 1026 32 10000 2.1 210 08:18 27.02.2020
2247 Clear 10 1026 29 10000 0.5 340 07:42 27.02.2020
2248 Clear 10 1026 29 10000 0.5 340 07:24 27.02.2020
2249 Clear 10 1027 32 10000 1.5 260 06:23 27.02.2020
2250 Clear 9 1028 37 10000 2.1 320 05:19 27.02.2020
2251 Clouds 6 1029 48 10000 2.1 330 02:58 27.02.2020
2252 Clouds 4 1029 69 10000 0.5 10 01:32 27.02.2020
2253 Clear 2 1031 80 10000 1.5 30 00:41 27.02.2020
2254 Clouds 1 1029 80 10000 0.5 20 23:41 26.02.2020
2255 Clouds 1 1030 68 10000 2.6 40 23:23 26.02.2020
2256 Clouds 1 1030 73 10000 0.5 20 22:59 26.02.2020
2257 Clouds 1 1028 80 10000 0.5 10 22:40 26.02.2020
2258 Clouds 1 1030 80 10000 2.1 40 22:22 26.02.2020
2259 Clouds 1 1029 80 10000 2.6 50 21:59 26.02.2020
2260 Clouds 1 1029 80 10000 2.6 50 21:39 26.02.2020
2261 Clouds 1 1029 80 10000 2.6 50 21:19 26.02.2020
2262 Clouds 1 1027 74 10000 0.5 30 20:56 26.02.2020
2263 Clouds 1 1027 86 10000 2.1 330 20:38 26.02.2020
2264 Clouds 1 1027 86 10000 2.1 330 20:38 26.02.2020
2265 Clouds 1 1027 86 10000 2.1 330 20:18 26.02.2020
2266 Clouds 2 1027 74 10000 0.5 20 19:47 26.02.2020
2267 Clouds 2 1027 74 10000 1 20 19:21 26.02.2020
2268 Clear 2 1028 86 10000 1 350 18:59 26.02.2020
2269 Clouds 2 1027 74 10000 0.5 10 18:41 26.02.2020
2270 Clouds 2 1027 74 10000 0.5 10 18:41 26.02.2020
2271 Clouds 2 1029 74 10000 2.6 40 18:22 26.02.2020
2272 Clouds 3 1027 74 10000 0.5 30 17:58 26.02.2020
2273 Clouds 3 1026 74 10000 2.6 340 17:39 26.02.2020
2274 Clouds 3 1026 70 10000 2.6 340 17:18 26.02.2020
2275 Clear 3 1028 80 10000 1.5 30 16:43 26.02.2020
2276 Clear 3 1028 80 10000 1.5 30 16:43 26.02.2020
2277 Clear 3 1028 80 10000 1.5 30 16:22 26.02.2020
2278 Clouds 4 1026 65 10000 1 30 15:56 26.02.2020
2279 Clouds 4 1028 74 10000 1.5 40 15:38 26.02.2020
2280 Clouds 4 1028 74 10000 1.5 40 15:19 26.02.2020
2281 Clouds 5 1026 70 10000 0.5 350 14:42 26.02.2020
2282 Clouds 5 1025 75 10000 0.5 360 14:23 26.02.2020
2283 Clouds 6 1027 53 10000 2.6 20 13:43 26.02.2020
2284 Clouds 6 1027 54 10000 2.6 20 13:23 26.02.2020
2285 Clouds 6 1024 70 10000 1 30 12:42 26.02.2020
2286 Clouds 6 1024 70 10000 1.5 10 12:23 26.02.2020
2287 Clouds 6 1026 75 10000 1.5 360 11:59 26.02.2020
2288 Clouds 7 1026 70 10000 2.1 30 11:41 26.02.2020
2289 Clouds 7 1026 70 10000 2.1 30 11:22 26.02.2020
2290 Clouds 7 1025 65 10000 1.5 10 10:56 26.02.2020
2291 Clouds 8 1022 57 10000 0.5 40 10:38 26.02.2020
2292 Clouds 8 1022 57 10000 0.5 40 10:20 26.02.2020
2293 Clouds 8 1022 57 10000 0.5 40 10:20 26.02.2020
2294 Clouds 9 1022 49 10000 1 20 09:43 26.02.2020
2295 Clouds 9 1022 49 10000 1 20 09:21 26.02.2020
2296 Clouds 10 1021 49 10000 0.5 10 08:55 26.02.2020
2297 Clouds 10 1023 49 10000 2.1 360 08:36 26.02.2020
2298 Clouds 10 1023 45 10000 2.1 360 08:18 26.02.2020
2299 Clouds 10 1023 45 10000 2.1 360 08:18 26.02.2020
2300 Clouds 10 1021 50 10000 1.5 350 07:41 26.02.2020
2301 Clouds 10 1021 50 10000 1.5 350 07:21 26.02.2020
2302 Clouds 10 1021 45 10000 2.1 340 06:48 26.02.2020
2303 Clouds 10 1022 45 10000 1.5 20 06:27 26.02.2020
2304 Clouds 10 1024 53 10000 1 360 05:48 26.02.2020
2305 Clouds 10 1024 49 10000 1 310 05:19 26.02.2020
2306 Clouds 7 1023 48 10000 1 10 03:33 26.02.2020
2307 Clouds 4 1025 69 10000 2.6 70 01:59 26.02.2020
2308 Clouds 4 1025 69 10000 1.5 50 01:26 26.02.2020
2309 Clouds 2 1023 73 10000 1.5 360 00:44 26.02.2020
2310 Clouds 2 1023 73 10000 1.5 360 00:20 26.02.2020
2311 Clouds 1 1023 86 10000 1.5 20 23:42 25.02.2020
2312 Clouds 1 1024 86 10000 0.5 50 23:24 25.02.2020
2313 Clouds 1 1024 80 10000 1 70 22:56 25.02.2020
2314 Clouds 1 1024 80 10000 1 70 22:37 25.02.2020
2315 Clouds 1 1024 80 10000 1 70 22:18 25.02.2020
2316 Clouds 2 1024 80 10000 1.5 50 21:38 25.02.2020
2317 Clouds 2 1024 80 10000 1.5 50 21:20 25.02.2020
2318 Clouds 2 1023 80 10000 1 30 20:57 25.02.2020
2319 Clear 2 1021 83 10000 1.5 30 20:39 25.02.2020
2320 Clear 2 1021 82 10000 1 10 20:19 25.02.2020
2321 Clear 2 1021 82 10000 1 10 19:54 25.02.2020
2322 Clear 2 1021 74 10000 1 360 19:36 25.02.2020
2323 Clear 2 1021 74 10000 1 360 19:18 25.02.2020
2324 Clear 3 1021 74 10000 0.5 10 18:40 25.02.2020
2325 Clear 3 1021 74 10000 0.5 10 18:21 25.02.2020
2326 Clear 3 1021 74 10000 0.5 10 18:21 25.02.2020
2327 Clear 3 1021 82 10000 1 30 17:56 25.02.2020
2328 Clear 3 1021 82 10000 1 40 17:37 25.02.2020
2329 Clear 3 1021 81 10000 1 40 17:18 25.02.2020
2330 Clear 4 1021 69 10000 1 20 16:56 25.02.2020
2331 Clear 4 1021 81 10000 1 10 16:37 25.02.2020
2332 Clear 4 1021 81 10000 1 10 16:19 25.02.2020
2333 Clear 5 1020 60 10000 1 10 15:45 25.02.2020
2334 Clear 5 1020 60 10000 1 10 15:45 25.02.2020
2335 Clear 5 1020 60 10000 1.5 330 15:20 25.02.2020
2336 Clear 5 1020 60 10000 1 10 14:59 25.02.2020
2337 Clear 6 1020 60 10000 1.5 30 14:39 25.02.2020
2338 Clear 6 1020 60 10000 1.5 30 14:39 25.02.2020
2339 Clear 6 1020 60 10000 1.5 30 14:18 25.02.2020
2340 Clear 6 1020 60 10000 1.5 30 14:18 25.02.2020
2341 Clear 6 1020 56 10000 1 30 13:58 25.02.2020
2342 Clear 6 1019 78 10000 1 350 13:39 25.02.2020
2343 Clear 6 1019 83 10000 1 350 13:20 25.02.2020
2344 Clouds 7 1019 83 10000 1 50 12:56 25.02.2020
2345 Clouds 7 1019 83 10000 2.1 50 12:37 25.02.2020
2346 Clouds 7 1019 83 10000 2.1 50 12:19 25.02.2020
2347 Clouds 7 1019 70 10000 4.6 30 11:55 25.02.2020
2348 Clear 8 1020 83 10000 3.6 30 11:37 25.02.2020
2349 Clear 8 1020 77 10000 3.6 30 11:18 25.02.2020
2350 Clear 8 1019 61 10000 3.1 40 10:41 25.02.2020
2351 Clear 8 1019 61 10000 3.1 40 10:41 25.02.2020
2352 Clear 8 1019 61 10000 3.1 40 10:23 25.02.2020
2353 Clouds 8 1017 70 10000 1.5 10 09:42 25.02.2020
2354 Clouds 8 1018 61 10000 3.6 360 09:23 25.02.2020
2355 Clouds 8 1018 57 10000 4.1 40 08:56 25.02.2020
2356 Clouds 8 1018 66 10000 2.6 40 08:37 25.02.2020
2357 Clouds 8 1018 66 10000 2.6 40 08:19 25.02.2020
2358 Rain 7 1016 75 10000 1.5 40 07:41 25.02.2020
2359 Rain 7 1017 66 10000 4.6 360 07:20 25.02.2020
2360 Rain 7 1017 75 10000 4.6 60 06:41 25.02.2020
2361 Rain 6 1018 81 10000 3.1 50 05:37 25.02.2020
2362 Rain 5 1018 93 10000 4.1 40 03:35 25.02.2020
2363 Rain 5 1020 100 4000 4.1 40 01:36 25.02.2020
2364 Rain 5 1020 100 2400 3.1 30 00:48 25.02.2020
2365 Rain 5 1020 100 2000 2.6 20 00:29 25.02.2020
2366 Rain 5 1018 86 10000 1.5 30 23:43 24.02.2020
2367 Rain 5 1019 93 4000 1 350 23:20 24.02.2020
2368 Rain 5 1018 86 10000 1 20 22:42 24.02.2020
2369 Rain 5 1018 86 10000 1 20 22:20 24.02.2020
2370 Rain 5 1019 80 10000 1.5 360 21:57 24.02.2020
2371 Rain 5 1019 86 10000 1 20 21:39 24.02.2020
2372 Rain 5 1019 86 10000 1 20 21:20 24.02.2020
2373 Rain 5 1020 93 2800 1 30 20:58 24.02.2020
2374 Rain 4 1020 93 10000 1 30 20:40 24.02.2020
2375 Rain 5 1021 100 1600 2.6 30 20:40 24.02.2020
2376 Rain 5 1021 100 1600 2.6 30 20:19 24.02.2020
2377 Rain 5 1021 93 2400 2.1 40 19:56 24.02.2020
2378 Rain 5 1022 93 3200 3.6 60 19:38 24.02.2020
2379 Rain 5 1022 93 3200 3.6 60 19:19 24.02.2020
2380 Rain 5 1021 80 10000 1.92 89 18:43 24.02.2020
2381 Rain 5 1022 86 3200 3.6 40 18:42 24.02.2020
2382 Rain 5 1022 86 3200 3.6 40 18:24 24.02.2020
2383 Rain 5 1022 80 4800 3.1 50 17:58 24.02.2020
2384 Rain 6 1022 75 6000 4.1 50 17:39 24.02.2020
2385 Rain 6 1022 75 6000 4.1 50 17:20 24.02.2020
2386 Haze 6 1022 75 6000 1.5 350 16:58 24.02.2020
2387 Haze 6 1022 75 6000 2.6 40 16:38 24.02.2020
2388 Haze 6 1022 75 6000 2.6 40 16:20 24.02.2020
2389 Rain 6 1021 65 10000 1.61 87 15:57 24.02.2020
2390 Haze 6 1023 75 6000 2.1 60 15:38 24.02.2020
2391 Haze 6 1023 75 6000 2.1 60 15:20 24.02.2020
2392 Clouds 6 1022 42 10000 0.5 350 14:42 24.02.2020
2393 Haze 6 1023 75 6000 2.6 30 14:24 24.02.2020
2394 Haze 6 1023 75 6000 2.6 30 14:24 24.02.2020
2395 Haze 7 1023 75 6000 3.1 40 13:59 24.02.2020
2396 Clouds 7 1022 70 10000 1.15 53 13:41 24.02.2020
2397 Haze 7 1024 81 9000 1 30 13:23 24.02.2020
2398 Clouds 7 1024 81 10000 1 40 12:59 24.02.2020
2399 Clouds 7 1022 39 10000 0.5 210 12:41 24.02.2020
2400 Clouds 7 1024 81 10000 1.61 71 12:22 24.02.2020
2401 Haze 7 1024 81 9000 1 30 11:49 24.02.2020
2402 Haze 8 1024 81 9000 1 340 11:31 24.02.2020
2403 Clouds 9 1024 75 10000 1 20 10:52 24.02.2020
2404 Clouds 10 1023 75 10000 1.5 360 10:32 24.02.2020
2405 Clear 11 1024 75 10000 0.5 340 09:58 24.02.2020
2406 Clear 11 1022 34 10000 1 180 09:39 24.02.2020
2407 Clear 11 1022 34 10000 1 180 09:19 24.02.2020
2408 Clear 11 1022 34 10000 1 180 09:19 24.02.2020
2409 Clouds 12 1022 34 10000 1 170 08:48 24.02.2020
2410 Clouds 12 1024 61 10000 3.1 340 08:28 24.02.2020
2411 Clouds 12 1022 37 10000 2.1 180 07:52 24.02.2020
2412 Clouds 12 1022 37 10000 2.1 180 07:52 24.02.2020
2413 Clouds 11 1023 40 10000 2.1 200 07:31 24.02.2020
2414 Clouds 11 1022 40 10000 2.6 180 06:48 24.02.2020
2415 Clear 11 1023 37 10000 2.6 180 06:22 24.02.2020
2416 Clear 10 1024 43 10000 1 180 05:31 24.02.2020
2417 Clear 9 1024 46 10000 1 220 04:48 24.02.2020
2418 Clouds 5 1026 56 10000 2.1 180 02:56 24.02.2020
2419 Clouds 3 1027 69 10000 0.5 180 01:50 24.02.2020
2420 Clouds 3 1027 69 10000 0.5 180 01:28 24.02.2020
2421 Clouds 3 1027 69 10000 0.5 180 01:28 24.02.2020
2422 Clouds 0 1027 86 10000 1.38 128 00:36 24.02.2020
2423 Clouds 0 1027 86 10000 1.38 128 00:18 24.02.2020
2424 Clear -1 1027 86 10000 1.38 128 23:41 23.02.2020
2425 Clouds -1 1026 92 10000 0.5 160 23:20 23.02.2020
2426 Clear 0 1026 86 10000 0.5 180 22:57 23.02.2020
2427 Clear -1 1026 86 10000 0.5 170 22:39 23.02.2020
2428 Clear -1 1026 86 10000 0.5 170 22:19 23.02.2020
2429 Clear -1 1026 86 10000 0.5 190 21:45 23.02.2020
2430 Clear -1 1026 86 10000 0.5 170 21:20 23.02.2020
2431 Clouds 0 1026 80 10000 0.5 170 20:57 23.02.2020
2432 Clouds 0 1026 80 10000 1.31 130 20:39 23.02.2020
2433 Clouds 0 1026 80 10000 1.44 150 20:20 23.02.2020
2434 Clouds 0 1026 56 10000 1.44 150 19:57 23.02.2020
2435 Clouds 0 1026 56 10000 0.5 180 19:38 23.02.2020
2436 Clouds 0 1026 56 10000 0.5 180 19:18 23.02.2020
2437 Clouds 0 1027 56 10000 0.5 100 18:55 23.02.2020
2438 Clouds 0 1027 56 10000 1 180 18:36 23.02.2020
2439 Clouds 0 1027 56 10000 1 180 18:36 23.02.2020
2440 Clouds 0 1027 56 10000 1 180 18:18 23.02.2020
2441 Clouds 0 1027 56 10000 1 170 17:56 23.02.2020
2442 Clouds 0 1027 56 10000 1.44 150 17:37 23.02.2020
2443 Clouds 0 1027 56 10000 1.64 172 17:18 23.02.2020
2444 Clouds -1 1027 74 10000 0.5 170 16:42 23.02.2020
2445 Clouds -1 1027 74 10000 0.5 170 16:42 23.02.2020
2446 Clouds -1 1027 79 10000 0.5 260 16:24 23.02.2020
2447 Clear -1 1027 74 10000 1.64 172 15:58 23.02.2020
2448 Clear -1 1028 74 10000 1.64 172 15:38 23.02.2020
2449 Clear -1 1028 74 10000 1.64 172 15:38 23.02.2020
2450 Clear -1 1028 74 10000 1.64 172 15:20 23.02.2020
2451 Clear 0 1027 68 10000 1.64 172 14:56 23.02.2020
2452 Clear 1 1027 56 10000 0.5 170 14:37 23.02.2020
2453 Clear 1 1027 50 10000 0.5 170 14:19 23.02.2020
2454 Clear 1 1027 50 10000 0.5 170 13:56 23.02.2020
2455 Clear 1 1027 59 10000 0.5 180 13:38 23.02.2020
2456 Clear 1 1027 59 10000 0.5 180 13:19 23.02.2020
2457 Clear 2 1027 59 10000 1 150 12:40 23.02.2020
2458 Clear 2 1027 59 10000 1 150 12:21 23.02.2020
2459 Clear 4 1027 38 10000 1.5 290 11:39 23.02.2020
2460 Clear 4 1027 38 10000 1.5 290 11:20 23.02.2020
2461 Clear 5 1026 38 10000 1 310 10:58 23.02.2020
2462 Clear 5 1028 55 10000 2.6 240 10:40 23.02.2020
2463 Clear 5 1028 55 10000 2.6 240 10:22 23.02.2020
2464 Clear 6 1026 30 10000 2.1 270 09:56 23.02.2020
2465 Clear 7 1028 35 10000 2.1 250 09:38 23.02.2020
2466 Clear 7 1028 35 10000 2.1 250 09:18 23.02.2020
2467 Clear 7 1028 35 10000 2.1 250 09:18 23.02.2020
2468 Clear 7 1026 33 10000 3.1 210 08:45 23.02.2020
2469 Clear 7 1026 33 10000 3.1 200 08:25 23.02.2020
2470 Clear 7 1027 31 10000 2.6 230 07:45 23.02.2020
2471 Clear 7 1027 28 10000 2.6 210 07:27 23.02.2020
2472 Clear 7 1027 26 10000 2.6 220 06:24 23.02.2020
2473 Clear 6 1028 28 10000 2.1 180 05:19 23.02.2020
2474 Clear 6 1030 32 10000 2.1 270 04:23 23.02.2020
2475 Clear 4 1030 40 10000 1 150 02:49 23.02.2020
2476 Clear 0 1030 42 10000 0.5 140 01:39 23.02.2020
2477 Clear 0 1030 43 10000 0.5 140 01:20 23.02.2020
2478 Clear -2 1030 74 10000 0.5 250 00:43 23.02.2020
2479 Clear -3 1030 85 10000 0.5 240 00:20 23.02.2020
2480 Clear -4 1030 79 10000 0.5 170 23:43 22.02.2020
2481 Clear -4 1030 79 10000 0.5 170 23:43 22.02.2020
2482 Clear -4 1030 79 10000 0.5 180 23:22 22.02.2020
2483 Clear -3 1030 79 10000 0.5 200 22:45 22.02.2020
2484 Clear -3 1030 79 10000 0.5 140 22:20 22.02.2020
2485 Clear -3 1030 79 10000 0.5 180 21:43 22.02.2020
2486 Clear -3 1029 73 10000 1 160 21:25 22.02.2020
2487 Clear -2 1029 79 10000 1.5 170 20:58 22.02.2020
2488 Clear -2 1029 79 10000 1 170 20:39 22.02.2020
2489 Clear -2 1029 79 10000 1 170 20:39 22.02.2020
2490 Clear -2 1029 79 10000 1 170 20:21 22.02.2020
2491 Clear -1 1029 63 10000 1 250 19:42 22.02.2020
2492 Clear -1 1029 63 10000 1 250 19:23 22.02.2020
2493 Clear -1 1029 43 10000 1 230 18:54 22.02.2020
2494 Clear -1 1031 79 10000 1 190 18:36 22.02.2020
2495 Clear -1 1031 79 10000 1 190 18:18 22.02.2020
2496 Clear -1 1029 43 10000 1 320 17:43 22.02.2020
2497 Clear -1 1029 43 10000 1 320 17:25 22.02.2020
2498 Clear 0 1029 47 10000 1.5 280 16:58 22.02.2020
2499 Clear 0 1029 47 10000 0.5 20 16:40 22.02.2020
2500 Clear 0 1029 47 10000 0.5 20 16:20 22.02.2020
2501 Clouds 0 1029 50 10000 0.5 10 15:46 22.02.2020
2502 Clouds 1 1029 50 10000 1 240 15:27 22.02.2020
2503 Clouds 1 1029 50 10000 1 10 14:58 22.02.2020
2504 Clouds 1 1028 47 10000 2.1 50 14:39 22.02.2020
2505 Clouds 1 1028 47 10000 2.1 50 14:20 22.02.2020
2506 Clouds 2 1028 51 10000 0.5 100 13:42 22.02.2020
2507 Clear 2 1030 55 10000 2.6 320 13:20 22.02.2020
2508 Clear 2 1030 55 10000 2.1 310 12:57 22.02.2020
2509 Clear 2 1026 44 10000 2.6 200 12:38 22.02.2020
2510 Clear 2 1026 44 10000 2.6 200 12:20 22.02.2020
2511 Clouds 3 1025 44 10000 2.1 280 11:41 22.02.2020
2512 Clouds 3 1025 44 10000 2.1 280 11:23 22.02.2020
2513 Clouds 4 1024 41 10000 3.6 250 10:42 22.02.2020
2514 Clouds 4 1024 41 10000 3.6 250 10:42 22.02.2020
2515 Clouds 4 1024 41 10000 3.6 250 10:21 22.02.2020
2516 Clouds 4 1024 41 10000 2.1 260 09:59 22.02.2020
2517 Clouds 5 1023 35 10000 3.1 310 09:40 22.02.2020
2518 Clouds 5 1023 35 10000 3.1 310 09:21 22.02.2020
2519 Clouds 6 1023 39 10000 1.5 220 08:51 22.02.2020
2520 Clouds 6 1025 35 10000 5.1 280 08:28 22.02.2020
2521 Clouds 6 1023 60 10000 2.1 280 07:52 22.02.2020
2522 Clouds 6 1024 52 10000 1.5 240 07:20 22.02.2020
2523 Clouds 6 1023 60 10000 2.6 300 06:50 22.02.2020
2524 Clouds 6 1022 80 10000 1 190 06:32 22.02.2020
2525 Haze 7 1024 60 4000 1 270 04:38 22.02.2020
2526 Clouds 7 1023 56 10000 1.5 240 03:33 22.02.2020
2527 Clouds 6 1023 60 10000 3.1 230 02:33 22.02.2020
2528 Clouds 5 1024 60 10000 3.1 230 01:46 22.02.2020
2529 Clouds 5 1024 60 10000 3.6 230 01:27 22.02.2020
2530 Clouds 4 1023 60 10000 1.5 210 00:45 22.02.2020
2531 Clouds 4 1023 60 10000 2.6 220 00:27 22.02.2020
2532 Clouds 4 1023 60 10000 1.5 230 23:47 21.02.2020
2533 Mist 4 1024 86 2000 2.6 230 23:24 21.02.2020
2534 Clouds 4 1022 75 10000 2.6 210 22:56 21.02.2020
2535 Clouds 4 1022 75 10000 1 190 22:38 21.02.2020
2536 Clouds 4 1022 75 10000 1 190 22:18 21.02.2020
2537 Clouds 4 1021 80 10000 1.5 200 21:42 21.02.2020
2538 Clear 4 1021 75 10000 1.5 190 21:24 21.02.2020
2539 Clear 4 1021 75 10000 1.5 190 21:24 21.02.2020
2540 Mist 5 1023 100 2400 1.5 230 20:49 21.02.2020
2541 Clouds 5 1022 93 6000 2.1 240 20:29 21.02.2020
2542 Rain 5 1020 81 10000 3.1 330 19:57 21.02.2020
2543 Rain 6 1021 75 10000 3.6 300 19:37 21.02.2020
2544 Rain 6 1021 75 10000 3.6 300 19:18 21.02.2020
2545 Rain 6 1023 93 10000 3.1 250 18:40 21.02.2020
2546 Rain 6 1023 93 10000 3.1 250 18:22 21.02.2020
2547 Rain 7 1021 87 10000 2.1 200 17:41 21.02.2020
2548 Rain 7 1021 87 10000 2.1 200 17:23 21.02.2020
2549 Rain 7 1021 87 10000 2.1 200 17:23 21.02.2020
2550 Rain 6 1022 93 5000 3.6 270 16:58 21.02.2020
2551 Clouds 7 1022 93 10000 0.5 200 16:40 21.02.2020
2552 Clouds 7 1022 93 10000 0.5 200 16:20 21.02.2020
2553 Rain 7 1022 93 4000 4.1 210 15:46 21.02.2020
2554 Rain 7 1023 93 10000 0.5 180 15:19 21.02.2020
2555 Rain 7 1023 93 10000 0.5 180 15:19 21.02.2020
2556 Rain 7 1023 93 10000 0.5 20 14:59 21.02.2020
2557 Rain 7 1025 87 9000 1 230 14:41 21.02.2020
2558 Rain 7 1025 87 9000 1 230 14:19 21.02.2020
2559 Rain 7 1025 81 10000 2.1 180 13:42 21.02.2020
2560 Rain 7 1025 81 10000 2.1 180 13:24 21.02.2020
2561 Clouds 7 1024 75 10000 1 170 12:54 21.02.2020
2562 Rain 7 1026 87 2800 1 230 12:36 21.02.2020
2563 Rain 8 1026 87 2800 1 230 12:18 21.02.2020
2564 Rain 9 1026 93 2800 2.1 200 11:40 21.02.2020
2565 Rain 9 1026 93 2800 2.1 200 11:21 21.02.2020
2566 Haze 9 1027 81 4800 2.1 200 10:56 21.02.2020
2567 Haze 10 1027 66 9000 1.5 210 10:38 21.02.2020
2568 Haze 10 1027 66 9000 1.5 210 10:19 21.02.2020
2569 Clouds 11 1027 53 10000 2.1 190 09:43 21.02.2020
2570 Clouds 11 1027 53 10000 2.1 190 09:25 21.02.2020
2571 Clouds 11 1027 50 10000 2.1 180 08:58 21.02.2020
2572 Clouds 11 1027 50 10000 2.1 180 08:40 21.02.2020
2573 Clouds 11 1027 50 10000 2.6 170 08:21 21.02.2020
2574 Haze 11 1028 57 8000 3.1 220 07:58 21.02.2020
2575 Clouds 11 1027 43 10000 1 190 07:40 21.02.2020
2576 Clouds 11 1027 43 10000 1 190 07:18 21.02.2020
2577 Clouds 11 1028 43 10000 1 180 06:43 21.02.2020
2578 Haze 11 1029 53 4800 1 260 06:24 21.02.2020
2579 Haze 11 1029 53 4800 1 260 06:24 21.02.2020
2580 Clouds 10 1029 49 10000 1 180 05:42 21.02.2020
2581 Haze 8 1032 49 6000 3.1 130 04:30 21.02.2020
2582 Haze 7 1033 70 3200 0.5 340 03:56 21.02.2020
2583 Haze 6 1033 45 2400 0.5 100 03:20 21.02.2020
2584 Clear 2 1034 74 10000 1 30 01:45 21.02.2020
2585 Mist 2 1035 58 2000 0.5 330 01:23 21.02.2020
2586 Clear 0 1034 58 10000 0.5 170 00:40 21.02.2020
2587 Mist 0 1035 58 1200 1 350 00:20 21.02.2020
2588 Mist 0 1035 100 1200 1.31 102 23:42 20.02.2020
2589 Mist 0 1035 100 1200 1.31 102 23:22 20.02.2020
2590 Clouds -1 1034 92 10000 1 20 22:42 20.02.2020
2591 Mist -1 1035 100 1200 0.5 50 22:24 20.02.2020
2592 Mist -1 1035 100 1200 0.5 50 22:24 20.02.2020
2593 Mist -1 1035 100 1200 0.5 50 21:58 20.02.2020
2594 Fog -1 1035 100 800 1 80 21:40 20.02.2020
2595 Fog -1 1035 100 800 1 80 21:20 20.02.2020
2596 Fog -1 1035 100 800 1 80 21:20 20.02.2020
2597 Clear -1 1034 86 10000 1.37 99 20:57 20.02.2020
2598 Fog 0 1035 100 800 0.5 10 20:39 20.02.2020
2599 Fog 0 1035 100 800 0.5 10 20:39 20.02.2020
2600 Fog 0 1035 100 800 0.5 10 20:20 20.02.2020
2601 Clouds 0 1034 92 10000 0.5 30 19:59 20.02.2020
2602 Clouds 0 1034 92 10000 0.5 30 19:41 20.02.2020
2603 Mist 0 1035 100 1200 1.13 95 19:23 20.02.2020
2604 Mist 0 1036 100 1200 1 60 18:55 20.02.2020
2605 Clouds -1 1034 92 10000 0.5 180 18:37 20.02.2020
2606 Clouds -1 1034 92 10000 0.5 180 18:18 20.02.2020
2607 Fog 0 1036 100 800 1 340 17:39 20.02.2020
2608 Fog 0 1036 100 800 1 340 17:39 20.02.2020
2609 Clouds 0 1035 92 10000 0.5 170 17:19 20.02.2020
2610 Clouds 0 1035 92 10000 0.56 88 16:58 20.02.2020
2611 Clear 0 1035 58 10000 0.5 50 16:39 20.02.2020
2612 Clear 0 1035 58 10000 0.5 50 16:19 20.02.2020
2613 Clear 1 1035 58 10000 0.5 160 15:43 20.02.2020
2614 Clear 1 1035 58 10000 0.56 88 15:24 20.02.2020
2615 Clear 1 1035 80 10000 0.56 88 14:59 20.02.2020
2616 Clear 1 1035 80 10000 0.56 88 14:41 20.02.2020
2617 Clear 1 1035 80 10000 0.56 88 14:41 20.02.2020
2618 Clear 2 1035 80 10000 0.5 330 14:23 20.02.2020
2619 Clear 2 1035 80 10000 0.5 330 14:23 20.02.2020
2620 Clouds 3 1035 74 10000 0.5 50 13:56 20.02.2020
2621 Clouds 3 1034 74 10000 0.71 281 13:38 20.02.2020
2622 Clouds 3 1034 74 10000 0.71 281 13:19 20.02.2020
2623 Clear 3 1035 69 10000 0.5 350 12:42 20.02.2020
2624 Clear 4 1034 69 10000 0.5 90 12:21 20.02.2020
2625 Clear 5 1034 64 10000 0.5 150 11:58 20.02.2020
2626 Haze 6 1036 80 4800 1.5 240 11:39 20.02.2020
2627 Haze 6 1036 80 4800 1.5 240 11:21 20.02.2020
2628 Haze 7 1036 75 6000 1 270 10:56 20.02.2020
2629 Clear 8 1033 49 10000 0.5 20 10:38 20.02.2020
2630 Clear 8 1033 49 10000 0.5 20 10:19 20.02.2020
2631 Clear 10 1032 39 10000 0.5 230 09:39 20.02.2020
2632 Clear 10 1032 39 10000 0.5 230 09:21 20.02.2020
2633 Clear 10 1032 37 10000 1 200 08:44 20.02.2020
2634 Clear 11 1032 37 10000 1 210 08:24 20.02.2020
2635 Clear 10 1032 34 10000 1 190 07:48 20.02.2020
2636 Clear 10 1032 34 10000 1.5 260 07:27 20.02.2020
2637 Clear 10 1032 37 10000 0.5 190 06:57 20.02.2020
2638 Clear 9 1032 43 10000 2.1 190 06:38 20.02.2020
2639 Clear 9 1033 46 10000 1.5 170 05:47 20.02.2020
2640 Clear 9 1033 49 10000 1.5 220 05:24 20.02.2020
2641 Clear 8 1033 51 10000 1 200 04:47 20.02.2020
2642 Clear 6 1034 56 10000 1 340 03:46 20.02.2020
2643 Clear 2 1034 69 10000 1 360 02:46 20.02.2020
2644 Clear 0 1034 86 10000 1.5 20 01:24 20.02.2020
2645 Clear -2 1034 80 10000 1 30 00:42 20.02.2020
2646 Clear -2 1034 86 10000 1 30 00:19 20.02.2020
2647 Clear -2 1033 86 10000 0.5 20 23:42 19.02.2020
2648 Mist -2 1034 92 3200 1 80 23:18 19.02.2020
2649 Clouds -2 1033 86 10000 0.5 30 22:41 19.02.2020
2650 Mist -2 1033 92 2400 0.78 100 22:22 19.02.2020
2651 Clouds -2 1032 92 10000 0.78 100 21:57 19.02.2020
2652 Mist -2 1033 100 3200 1 60 21:39 19.02.2020
2653 Mist -2 1033 100 3200 1 60 21:19 19.02.2020
2654 Mist -2 1033 100 3200 1 60 21:19 19.02.2020
2655 Mist -1 1033 100 2800 0.5 60 20:56 19.02.2020
2656 Mist -1 1033 92 3200 0.5 70 20:37 19.02.2020
2657 Mist -1 1033 92 3200 0.5 70 20:18 19.02.2020
2658 Clouds -1 1031 86 10000 1 30 19:56 19.02.2020
2659 Clouds -1 1033 92 4800 1 90 19:37 19.02.2020
2660 Clouds -1 1033 92 4800 1 90 19:18 19.02.2020
2661 Mist -1 1033 92 4800 0.5 130 18:56 19.02.2020
2662 Mist -1 1033 92 4800 0.5 130 18:56 19.02.2020
2663 Mist -1 1032 92 4000 0.5 110 18:38 19.02.2020
2664 Mist -1 1032 92 4000 0.5 110 18:20 19.02.2020
2665 Clouds -1 1031 86 10000 0.5 20 17:43 19.02.2020
2666 Clouds -1 1032 92 4800 0.5 60 17:20 19.02.2020
2667 Clouds -1 1030 86 10000 0.5 30 16:44 19.02.2020
2668 Clouds 0 1031 86 10000 0.74 96 16:20 19.02.2020
2669 Haze -1 1032 86 4000 0.74 96 15:58 19.02.2020
2670 Haze -1 1032 86 4800 0.5 210 15:39 19.02.2020
2671 Haze -1 1032 86 4800 0.5 210 15:20 19.02.2020
2672 Clouds 0 1032 86 4800 0.5 360 14:55 19.02.2020
2673 Clouds 0 1030 86 10000 0.5 140 14:37 19.02.2020
2674 Clouds 0 1030 86 10000 0.5 140 14:18 19.02.2020
2675 Haze 1 1031 56 4800 0.67 110 13:41 19.02.2020
2676 Haze 1 1031 56 4800 0.55 103 13:20 19.02.2020
2677 Clouds 2 1029 74 10000 1 140 12:42 19.02.2020
2678 Clouds 2 1029 74 10000 1 140 12:19 19.02.2020
2679 Clouds 3 1029 69 10000 0.5 160 11:58 19.02.2020
2680 Clouds 3 1029 64 10000 0.5 190 11:37 19.02.2020
2681 Clouds 3 1029 64 10000 0.5 190 11:19 19.02.2020
2682 Clear 4 1029 59 10000 0.21 207 10:57 19.02.2020
2683 Clear 4 1029 55 10000 1 210 10:38 19.02.2020
2684 Clear 5 1029 55 10000 1 210 10:19 19.02.2020
2685 Clear 6 1028 56 10000 1 220 09:57 19.02.2020
2686 Clear 6 1028 39 10000 1 170 09:37 19.02.2020
2687 Clear 6 1028 39 10000 1 170 09:18 19.02.2020
2688 Clouds 6 1028 42 10000 1.5 180 08:44 19.02.2020
2689 Clouds 6 1028 41 10000 1.5 210 08:24 19.02.2020
2690 Clear 6 1029 39 10000 2.1 180 07:41 19.02.2020
2691 Clear 6 1029 39 10000 2.1 180 07:20 19.02.2020
2692 Clear 5 1028 45 10000 2.1 210 06:53 19.02.2020
2693 Clear 6 1029 45 10000 1.5 240 06:20 19.02.2020
2694 Clear 3 1030 47 10000 2.1 220 04:20 19.02.2020
2695 Clear 0 1031 42 10000 1 30 02:54 19.02.2020
2696 Clear -1 1031 63 10000 1.5 360 02:29 19.02.2020
2697 Clear -4 1031 73 10000 0.5 20 01:23 19.02.2020
2698 Clear -5 1031 73 10000 0.5 160 00:47 19.02.2020
2699 Clear -5 1031 85 10000 0.5 170 00:28 19.02.2020
2700 Clear -6 1030 92 10000 0.5 170 23:42 18.02.2020
2701 Clear -6 1030 92 10000 0.5 170 23:20 18.02.2020
2702 Clear -7 1030 92 10000 0.5 150 22:56 18.02.2020
2703 Clear -7 1030 85 10000 0.5 180 22:37 18.02.2020
2704 Clear -7 1030 85 10000 0.5 180 22:37 18.02.2020
2705 Clear -7 1030 85 10000 0.5 180 22:19 18.02.2020
2706 Clear -7 1030 85 10000 0.5 190 21:55 18.02.2020
2707 Clear -7 1029 85 10000 0.5 190 21:37 18.02.2020
2708 Clear -7 1029 85 10000 0.5 190 21:37 18.02.2020
2709 Clear -7 1029 85 10000 0.5 190 21:18 18.02.2020
2710 Clouds -6 1029 85 10000 1.02 121 20:56 18.02.2020
2711 Clouds -6 1030 85 10000 1.02 121 20:37 18.02.2020
2712 Clouds -6 1030 85 10000 1.02 121 20:37 18.02.2020
2713 Clouds -6 1030 85 10000 0.77 147 20:18 18.02.2020
2714 Clouds -6 1030 79 10000 0.5 170 19:42 18.02.2020
2715 Clear -6 1031 92 8000 0.5 40 19:20 18.02.2020
2716 Clouds -6 1030 79 10000 0.5 210 18:58 18.02.2020
2717 Clouds -6 1030 79 10000 0.5 170 18:40 18.02.2020
2718 Clouds -6 1030 79 10000 0.5 170 18:19 18.02.2020
2719 Clouds -6 1030 79 10000 0.5 180 17:42 18.02.2020
2720 Clouds -6 1029 79 10000 0.5 160 17:20 18.02.2020
2721 Clouds -6 1029 79 10000 0.5 160 17:20 18.02.2020
2722 Clear -5 1029 79 10000 1 170 16:41 18.02.2020
2723 Clear -5 1029 73 10000 1 170 16:22 18.02.2020
2724 Clear -4 1029 73 10000 1 190 15:59 18.02.2020
2725 Clear -4 1029 73 10000 0.5 170 15:39 18.02.2020
2726 Clear -4 1029 73 10000 0.5 170 15:19 18.02.2020
2727 Clear -4 1029 68 10000 0.5 170 14:56 18.02.2020
2728 Clear -4 1029 68 10000 0.5 170 14:56 18.02.2020
2729 Clear -4 1029 73 10000 0.5 200 14:38 18.02.2020
2730 Clear -4 1029 73 10000 0.5 200 14:19 18.02.2020
2731 Clear -3 1028 63 10000 1.5 190 13:41 18.02.2020
2732 Clear -3 1028 63 10000 1.5 190 13:21 18.02.2020
2733 Clear -2 1028 54 10000 0.5 90 12:54 18.02.2020
2734 Clear -2 1028 54 10000 0.5 90 12:54 18.02.2020
2735 Clear -2 1028 58 10000 0.5 170 12:36 18.02.2020
2736 Clear -2 1028 58 10000 0.5 170 12:18 18.02.2020
2737 Clear -1 1027 50 10000 0.67 227 11:42 18.02.2020
2738 Clear -1 1027 50 10000 2.46 250 11:23 18.02.2020
2739 Clear 0 1027 40 10000 1 180 10:46 18.02.2020
2740 Clear 0 1027 40 10000 1 220 10:25 18.02.2020
2741 Clear 0 1027 34 10000 2.1 200 09:58 18.02.2020
2742 Clear 1 1027 31 10000 1.5 230 09:39 18.02.2020
2743 Clear 1 1027 31 10000 1.5 230 09:20 18.02.2020
2744 Clear 1 1026 31 10000 1 180 08:59 18.02.2020
2745 Clear 1 1026 27 10000 0.5 60 08:40 18.02.2020
2746 Clear 1 1026 27 10000 0.5 60 08:20 18.02.2020
2747 Clear 1 1026 31 10000 0.5 220 07:55 18.02.2020
2748 Clear 1 1026 31 10000 2.1 190 07:29 18.02.2020
2749 Clear 1 1026 31 10000 1.5 180 06:55 18.02.2020
2750 Clear 0 1026 34 10000 1.5 210 06:29 18.02.2020
2751 Clear -1 1027 26 10000 1.5 220 05:53 18.02.2020
2752 Clear -1 1027 33 10000 1 230 05:22 18.02.2020
2753 Clear -3 1028 38 10000 0.5 40 03:55 18.02.2020
2754 Clear -5 1028 41 10000 0.5 160 02:58 18.02.2020
2755 Clear -5 1028 45 10000 0.5 320 01:45 18.02.2020
2756 Clear -8 1027 78 10000 0.5 30 00:44 18.02.2020
2757 Clear -8 1027 78 10000 0.5 170 00:19 18.02.2020
2758 Clear -10 1027 85 10000 0.5 250 23:44 17.02.2020
2759 Clear -9 1026 85 10000 1 170 23:24 17.02.2020
2760 Clear -9 1026 85 10000 0.5 140 22:58 17.02.2020
2761 Clear -9 1026 85 10000 0.5 140 22:40 17.02.2020
2762 Clear -8 1025 78 10000 0.5 190 22:19 17.02.2020
2763 Clear -9 1024 78 10000 0.5 170 21:39 17.02.2020
2764 Clear -9 1024 78 10000 0.5 170 21:19 17.02.2020
2765 Clear -9 1024 78 10000 1 150 20:57 17.02.2020
2766 Clear -8 1024 85 10000 1 160 20:38 17.02.2020
2767 Clear -8 1024 85 10000 1 160 20:19 17.02.2020
2768 Clear -8 1024 85 10000 1 160 19:43 17.02.2020
2769 Clear -8 1024 78 10000 1 180 19:22 17.02.2020
2770 Clear -8 1024 78 10000 1 180 19:22 17.02.2020
2771 Clear -8 1023 78 10000 1 150 18:58 17.02.2020
2772 Clear -8 1023 78 10000 1 160 18:37 17.02.2020
2773 Clear -8 1023 78 10000 1 160 18:18 17.02.2020
2774 Clear -7 1023 78 10000 1 180 17:38 17.02.2020
2775 Clear -7 1023 78 10000 1 180 17:20 17.02.2020
2776 Clear -7 1024 57 10000 0.5 230 16:59 17.02.2020
2777 Clear -7 1023 72 10000 1 180 16:41 17.02.2020
2778 Clear -7 1023 72 10000 1 180 16:22 17.02.2020
2779 Clear -7 1024 72 10000 0.5 270 15:48 17.02.2020
2780 Clear -7 1024 67 10000 1 270 15:29 17.02.2020
2781 Clear -7 1024 67 10000 1 270 15:29 17.02.2020
2782 Clouds -7 1022 62 10000 0.5 190 15:00 17.02.2020
2783 Clouds -7 1022 62 10000 0.5 190 14:41 17.02.2020
2784 Clouds -7 1022 62 10000 1 10 14:22 17.02.2020
2785 Clear -7 1021 57 10000 0.5 340 13:57 17.02.2020
2786 Clear -7 1021 57 10000 0.5 340 13:57 17.02.2020
2787 Clear -6 1023 73 10000 1 270 13:38 17.02.2020
2788 Clear -6 1023 73 10000 1 270 13:18 17.02.2020
2789 Clouds -6 1020 57 10000 1 250 12:43 17.02.2020
2790 Clouds -6 1020 57 10000 1 250 12:24 17.02.2020
2791 Clouds -6 1022 73 10000 2.1 290 11:57 17.02.2020
2792 Clouds -6 1019 53 10000 1 300 11:39 17.02.2020
2793 Clouds -6 1019 53 10000 1 300 11:39 17.02.2020
2794 Clouds -6 1019 53 10000 1 300 11:20 17.02.2020
2795 Clouds -6 1018 57 10000 1.5 220 10:41 17.02.2020
2796 Clouds -6 1018 57 10000 1.5 220 10:41 17.02.2020
2797 Clouds -6 1021 73 10000 1.5 320 10:22 17.02.2020
2798 Clouds -6 1021 73 10000 1.5 320 10:22 17.02.2020
2799 Clouds -5 1020 67 10000 2.6 320 09:59 17.02.2020
2800 Clouds -5 1020 62 10000 2.6 320 09:41 17.02.2020
2801 Clouds -5 1020 62 10000 2.6 320 09:21 17.02.2020
2802 Clouds -5 1019 57 10000 3.6 270 08:56 17.02.2020
2803 Clouds -5 1016 49 10000 1 270 08:38 17.02.2020
2804 Clouds -5 1016 49 10000 1 270 08:19 17.02.2020
2805 Clouds -5 1018 57 10000 3.6 300 07:42 17.02.2020
2806 Clouds -5 1018 57 10000 3.6 300 07:22 17.02.2020
2807 Snow -5 1017 73 7000 4.1 310 06:51 17.02.2020
2808 Clouds -5 1018 53 10000 3.1 310 06:30 17.02.2020
2809 Clouds -5 1018 57 10000 2.1 310 05:40 17.02.2020
2810 Clouds -5 1018 57 10000 3.1 320 04:58 17.02.2020
2811 Clouds -5 1018 53 10000 4.1 290 03:20 17.02.2020
2812 Clouds -6 1016 62 10000 1.5 290 01:36 17.02.2020
2813 Clouds -6 1017 62 10000 1 240 00:41 17.02.2020
2814 Clouds -6 1017 62 10000 1 240 00:19 17.02.2020
2815 Clouds -6 1018 62 10000 1.5 310 23:52 16.02.2020
2816 Clouds -5 1018 62 10000 2.6 310 23:28 16.02.2020
2817 Clouds -6 1017 62 10000 3.6 300 22:56 16.02.2020
2818 Clouds -5 1017 67 10000 2.6 250 22:38 16.02.2020
2819 Clouds -5 1017 67 10000 2.6 250 22:20 16.02.2020
2820 Clouds -5 1017 67 10000 3.1 280 21:55 16.02.2020
2821 Clouds -5 1015 73 10000 1 280 21:37 16.02.2020
2822 Clouds -5 1015 73 10000 1 280 21:18 16.02.2020
2823 Clouds -5 1015 73 10000 1.5 300 20:55 16.02.2020
2824 Clouds -4 1015 79 10000 1 310 20:36 16.02.2020
2825 Clouds -4 1015 79 10000 1 310 20:18 16.02.2020
2826 Clouds -4 1015 79 10000 1 310 20:18 16.02.2020
2827 Clouds -4 1017 79 10000 2.1 290 19:54 16.02.2020
2828 Clouds -4 1015 85 10000 0.5 310 19:36 16.02.2020
2829 Clouds -4 1015 85 10000 0.5 310 19:18 16.02.2020
2830 Clouds -4 1017 73 10000 2.6 300 18:41 16.02.2020
2831 Clouds -4 1017 73 10000 2.6 300 18:23 16.02.2020
2832 Clouds -4 1017 79 10000 1 320 17:45 16.02.2020
2833 Clouds -4 1015 79 10000 0.5 180 17:21 16.02.2020
2834 Snow -4 1017 85 9000 1.5 280 16:57 16.02.2020
2835 Snow -4 1017 85 2000 1.5 230 16:39 16.02.2020
2836 Snow -4 1017 85 2000 1.5 230 16:39 16.02.2020
2837 Snow -4 1017 85 2000 1.5 230 16:21 16.02.2020
2838 Haze -4 1016 79 6000 1.5 210 15:57 16.02.2020
2839 Haze -4 1017 79 6000 1 220 15:37 16.02.2020
2840 Haze -4 1017 79 6000 1 220 15:18 16.02.2020
2841 Clouds -4 1016 79 10000 0.5 160 14:39 16.02.2020
2842 Clouds -4 1016 79 10000 0.5 160 14:21 16.02.2020
2843 Clouds -4 1015 63 10000 2.1 280 13:46 16.02.2020
2844 Clouds -4 1017 85 10000 1 280 13:24 16.02.2020
2845 Clouds -3 1016 73 10000 1.5 250 12:55 16.02.2020
2846 Clouds -3 1014 58 10000 1.5 250 12:36 16.02.2020
2847 Clouds -3 1014 58 10000 1.5 250 12:18 16.02.2020
2848 Clouds -3 1016 73 10000 2.6 330 11:39 16.02.2020
2849 Clouds -3 1016 73 10000 2.6 330 11:18 16.02.2020
2850 Clear -3 1016 73 10000 3.1 330 10:56 16.02.2020
2851 Clouds -2 1013 74 10000 1.5 200 10:38 16.02.2020
2852 Clouds -2 1013 74 10000 1.5 200 10:20 16.02.2020
2853 Clouds -2 1013 74 10000 2.1 220 09:55 16.02.2020
2854 Mist -2 1013 79 4000 7.2 280 09:36 16.02.2020
2855 Mist -2 1013 79 4000 7.2 280 09:18 16.02.2020
2856 Clouds -2 1012 68 10000 2.1 230 08:45 16.02.2020
2857 Thunderstorm -1 1013 68 10000 4.1 230 08:21 16.02.2020
2858 Clouds -1 1013 79 10000 2.1 230 07:52 16.02.2020
2859 Clouds 0 1012 62 10000 4.1 220 07:34 16.02.2020
2860 Snow -1 1012 80 2800 7.2 270 06:33 16.02.2020
2861 Haze -1 1014 86 2800 3.1 270 04:44 16.02.2020
2862 Haze -1 1014 80 8000 2.6 230 03:31 16.02.2020
2863 Haze 0 1014 86 6000 3.1 260 02:32 16.02.2020
2864 Rain 0 1014 92 4000 2.1 230 01:43 16.02.2020
2865 Rain 0 1014 92 6000 2.6 260 01:23 16.02.2020
2866 Clouds 0 1014 86 4800 2.1 250 00:53 16.02.2020
2867 Clouds 0 1011 86 10000 3.6 220 00:31 16.02.2020
2868 Rain 0 1013 92 4800 2.6 230 23:54 15.02.2020
2869 Rain 1 1013 80 4000 4.1 230 23:36 15.02.2020
2870 Rain 1 1013 94 4000 4.1 230 23:18 15.02.2020
2871 Rain 1 1011 94 10000 2.6 180 22:41 15.02.2020
2872 Rain 1 1011 94 10000 2.1 190 22:22 15.02.2020
2873 Rain 1 1011 94 10000 2.1 180 21:59 15.02.2020
2874 Rain 1 1013 94 2000 0.5 190 21:40 15.02.2020
2875 Rain 1 1013 94 2000 0.5 190 21:21 15.02.2020
2876 Rain 2 1012 94 1200 1.5 220 20:41 15.02.2020
2877 Rain 2 1012 87 1200 1.5 220 20:21 15.02.2020
2878 Rain 2 1010 86 10000 2.1 190 19:44 15.02.2020
2879 Rain 3 1010 86 10000 2.1 220 19:23 15.02.2020
2880 Rain 4 1013 100 9000 3.6 230 18:55 15.02.2020
2881 Rain 5 1013 100 10000 3.1 240 18:36 15.02.2020
2882 Rain 5 1013 100 10000 3.1 240 18:18 15.02.2020
2883 Rain 5 1011 100 10000 1.5 170 17:43 15.02.2020
2884 Rain 5 1013 100 6000 2.1 250 17:22 15.02.2020
2885 Rain 6 1013 100 1600 1.5 230 16:58 15.02.2020
2886 Rain 6 1013 100 2000 0.5 290 16:39 15.02.2020
2887 Rain 6 1013 100 2000 0.5 290 16:19 15.02.2020
2888 Rain 7 1012 93 10000 3.85 249 15:42 15.02.2020
2889 Rain 7 1013 100 10000 1 280 15:23 15.02.2020
2890 Rain 7 1015 100 1200 1 20 14:45 15.02.2020
2891 Rain 7 1014 93 10000 0.5 170 14:45 15.02.2020
2892 Rain 7 1015 100 800 0.5 30 14:23 15.02.2020
2893 Rain 7 1016 100 2000 0.5 220 13:57 15.02.2020
2894 Clouds 8 1014 71 10000 1 280 13:39 15.02.2020
2895 Clouds 8 1014 71 10000 1 280 13:20 15.02.2020
2896 Clouds 9 1014 71 10000 0.5 150 12:43 15.02.2020
2897 Clouds 9 1014 71 10000 0.5 150 12:25 15.02.2020
2898 Clouds 9 1014 71 10000 0.5 150 12:25 15.02.2020
2899 Rain 9 1017 93 2400 2.1 10 11:54 15.02.2020
2900 Clouds 10 1014 66 10000 0.5 170 11:36 15.02.2020
2901 Clouds 10 1014 66 10000 0.5 170 11:18 15.02.2020
2902 Clouds 11 1014 62 10000 0.5 290 10:39 15.02.2020
2903 Clouds 11 1014 62 10000 0.5 290 10:20 15.02.2020
2904 Clouds 12 1014 58 10000 0.5 180 09:44 15.02.2020
2905 Haze 12 1017 76 4000 1.5 320 09:25 15.02.2020
2906 Clouds 14 1015 50 10000 0.5 170 08:46 15.02.2020
2907 Clouds 14 1015 50 10000 1 170 08:26 15.02.2020
2908 Clouds 14 1016 47 10000 1.5 170 07:59 15.02.2020
2909 Clouds 14 1016 44 10000 1.5 190 07:39 15.02.2020
2910 Clouds 14 1016 44 10000 1.5 190 07:20 15.02.2020
2911 Clouds 15 1016 41 10000 1.5 170 06:37 15.02.2020
2912 Clouds 15 1017 44 10000 2.1 180 05:55 15.02.2020
2913 Clear 14 1018 44 10000 1 190 04:49 15.02.2020
2914 Clear 14 1019 50 10000 1 330 04:21 15.02.2020
2915 Clear 10 1021 66 10000 1.5 360 02:58 15.02.2020
2916 Clear 9 1022 70 10000 0.5 20 02:24 15.02.2020
2917 Clear 5 1022 75 10000 0.5 330 01:43 15.02.2020
2918 Mist 3 1022 87 4800 2.6 210 00:58 15.02.2020
2919 Clear 1 1022 75 10000 0.5 180 00:27 15.02.2020
2920 Clear 2 1021 86 10000 1 240 23:44 14.02.2020
2921 Clear 2 1021 86 10000 1 240 23:21 14.02.2020
2922 Clear 2 1021 86 10000 1.5 20 22:54 14.02.2020
2923 Clear 2 1021 86 10000 1.5 30 22:36 14.02.2020
2924 Clear 2 1021 86 10000 1.5 30 22:36 14.02.2020
2925 Clear 2 1021 86 10000 1.5 30 22:18 14.02.2020
2926 Clear 2 1021 86 10000 1.5 30 21:40 14.02.2020
2927 Clear 2 1021 86 10000 1.5 30 21:21 14.02.2020
2928 Clear 2 1021 86 10000 1.5 30 20:44 14.02.2020
2929 Clear 2 1021 86 10000 1.5 30 20:20 14.02.2020
2930 Clear 3 1021 86 10000 1.5 30 19:57 14.02.2020
2931 Clear 3 1022 86 10000 1.5 20 19:38 14.02.2020
2932 Clear 3 1022 86 10000 1.5 20 19:19 14.02.2020
2933 Clear 3 1022 86 10000 1 20 18:56 14.02.2020
2934 Clear 3 1022 86 10000 1 30 18:38 14.02.2020
2935 Clear 3 1022 86 10000 1 30 18:18 14.02.2020
2936 Clear 3 1023 93 10000 0.5 40 17:42 14.02.2020
2937 Clear 3 1023 93 10000 0.5 40 17:20 14.02.2020
2938 Clear 3 1023 93 10000 0.5 170 16:57 14.02.2020
2939 Mist 3 1024 86 2400 0.5 250 16:39 14.02.2020
2940 Mist 3 1024 86 2400 0.5 250 16:20 14.02.2020
2941 Clear 4 1023 100 10000 0.5 30 15:55 14.02.2020
2942 Clear 4 1023 93 10000 0.5 40 15:37 14.02.2020
2943 Clear 4 1023 93 10000 0.5 40 15:19 14.02.2020
2944 Clear 5 1023 86 10000 0.5 190 14:42 14.02.2020
2945 Clear 5 1023 86 10000 0.5 190 14:23 14.02.2020
2946 Clear 5 1022 86 10000 0.87 4 13:59 14.02.2020
2947 Clear 6 1022 86 10000 0.5 10 13:39 14.02.2020
2948 Clear 6 1022 86 10000 0.5 10 13:20 14.02.2020
2949 Clear 6 1022 86 10000 0.5 10 13:20 14.02.2020
2950 Clear 6 1022 86 10000 0.5 10 13:20 14.02.2020
2951 Clear 6 1022 86 10000 0.63 43 12:57 14.02.2020
2952 Clear 7 1021 81 10000 1 180 12:38 14.02.2020
2953 Clear 7 1021 81 10000 1 180 12:20 14.02.2020
2954 Clear 8 1021 81 10000 0.5 170 11:57 14.02.2020
2955 Clear 8 1020 81 10000 1 180 11:39 14.02.2020
2956 Clear 8 1020 81 10000 1 180 11:20 14.02.2020
2957 Clear 10 1020 75 10000 1 190 10:43 14.02.2020
2958 Clear 11 1020 66 10000 1 180 10:23 14.02.2020
2959 Clear 12 1019 62 10000 1 180 09:56 14.02.2020
2960 Clear 13 1019 58 10000 1.5 180 09:36 14.02.2020
2961 Clear 13 1019 58 10000 1.5 180 09:36 14.02.2020
2962 Clear 13 1019 58 10000 1.5 180 09:18 14.02.2020
2963 Clear 14 1019 54 10000 1.5 190 08:40 14.02.2020
2964 Clear 14 1019 54 10000 1.5 190 08:22 14.02.2020
2965 Clear 14 1019 54 10000 1.5 190 08:22 14.02.2020
2966 Clear 13 1019 58 10000 1.5 180 07:50 14.02.2020
2967 Clear 13 1019 54 10000 2.1 180 07:31 14.02.2020
2968 Clear 12 1019 62 10000 2.6 180 06:48 14.02.2020
2969 Clear 11 1019 61 10000 2.1 210 06:21 14.02.2020
2970 Clear 10 1019 70 10000 2.1 210 05:41 14.02.2020
2971 Clear 10 1020 66 10000 1.5 340 05:41 14.02.2020
2972 Clouds 7 1021 75 10000 0.5 270 03:50 14.02.2020
2973 Clouds 6 1021 93 10000 0.5 30 02:58 14.02.2020
2974 Mist 4 1022 93 2400 1 300 01:57 14.02.2020
2975 Clear 2 1021 100 10000 0.5 10 00:52 14.02.2020
2976 Fog 2 1023 100 800 0.54 94 00:31 14.02.2020
2977 Fog 2 1021 93 400 0.54 94 23:57 13.02.2020
2978 Mist 2 1022 100 800 0.5 50 23:38 13.02.2020
2979 Mist 2 1022 100 800 0.5 50 23:18 13.02.2020
2980 Mist 3 1022 100 1600 0.5 250 22:40 13.02.2020
2981 Mist 3 1022 100 1600 0.5 250 22:19 13.02.2020
2982 Mist 3 1021 100 1600 0.5 330 21:58 13.02.2020
2983 Mist 3 1021 100 3200 3.1 330 21:40 13.02.2020
2984 Mist 3 1021 100 3200 3.1 330 21:20 13.02.2020
2985 Mist 3 1020 100 4828 1.5 80 20:42 13.02.2020
2986 Mist 3 1021 100 3500 3.1 330 20:22 13.02.2020
2987 Clouds 3 1021 100 4023 0.88 19 19:57 13.02.2020
2988 Mist 4 1020 93 4000 3.1 330 19:39 13.02.2020
2989 Mist 4 1020 93 4000 3.1 330 19:39 13.02.2020
2990 Mist 4 1020 93 4000 3.1 330 19:20 13.02.2020
2991 Mist 3 1020 100 3219 1.5 80 18:57 13.02.2020
2992 Mist 4 1021 93 3500 3.1 340 18:39 13.02.2020
2993 Mist 4 1021 93 3500 3.1 340 18:20 13.02.2020
2994 Mist 4 1021 80 4500 3.1 320 17:57 13.02.2020
2995 Mist 4 1021 93 2600 2.6 350 17:37 13.02.2020
2996 Mist 4 1021 93 2600 2.6 350 17:18 13.02.2020
2997 Mist 4 1021 100 3219 2.1 100 16:42 13.02.2020
2998 Mist 4 1021 87 2800 2.6 340 16:21 13.02.2020
2999 Mist 4 1021 87 2800 2.6 340 16:21 13.02.2020
3000 Mist 5 1021 100 4023 2.1 90 15:57 13.02.2020
3001 Mist 5 1021 87 3200 2.6 340 15:39 13.02.2020
3002 Mist 5 1021 87 3200 2.6 340 15:39 13.02.2020
3003 Mist 5 1021 87 3200 2.6 340 15:19 13.02.2020
3004 Mist 5 1021 100 6437 1.25 10 14:59 13.02.2020
3005 Mist 5 1021 87 3500 1 300 14:39 13.02.2020
3006 Mist 5 1021 87 3500 1 300 14:21 13.02.2020
3007 Clouds 6 1021 86 7000 1.5 360 13:48 13.02.2020
3008 Mist 6 1021 87 4000 2.1 240 13:19 13.02.2020
3009 Clouds 6 1021 86 8000 2.1 350 12:57 13.02.2020
3010 Mist 6 1020 87 4500 1 210 12:38 13.02.2020
3011 Mist 6 1020 87 4500 1 210 12:20 13.02.2020
3012 Clouds 6 1020 86 8000 1.5 350 11:47 13.02.2020
3013 Mist 6 1020 87 4800 1.5 310 11:21 13.02.2020
3014 Mist 7 1020 87 3219 2.1 10 10:57 13.02.2020
3015 Mist 7 1020 87 4300 3.6 300 10:39 13.02.2020
3016 Mist 7 1020 87 4300 3.6 300 10:20 13.02.2020
3017 Mist 8 1019 87 4500 3.1 290 09:42 13.02.2020
3018 Mist 8 1019 87 4500 3.1 290 09:23 13.02.2020
3019 Mist 8 1019 87 4828 1.5 10 08:45 13.02.2020
3020 Mist 8 1020 81 4000 3.1 200 08:19 13.02.2020
3021 Mist 8 1020 87 4828 3.6 330 07:42 13.02.2020
3022 Mist 8 1019 81 4000 3.1 200 07:22 13.02.2020
3023 Mist 8 1019 81 4000 3.1 200 07:22 13.02.2020
3024 Mist 9 1019 75 5000 2.1 260 06:49 13.02.2020
3025 Mist 9 1019 81 3500 3.1 190 06:31 13.02.2020
3026 Mist 8 1021 100 2000 1.5 60 05:38 13.02.2020
3027 Haze 8 1021 81 2800 1.5 240 04:28 13.02.2020
3028 Clouds 8 1019 76 10000 1.5 180 03:57 13.02.2020
3029 Mist 8 1021 87 1600 0.5 220 03:29 13.02.2020
3030 Fog 7 1022 100 0 0.5 330 02:55 13.02.2020
3031 Mist 7 1020 87 3200 2.1 210 02:19 13.02.2020
3032 -273 0 0 0 0 0 01:38 13.02.2020
3033 Fog 5 1019 100 800 0.5 30 01:38 13.02.2020
3034 Rain 4 1021 100 0 0.5 280 00:44 13.02.2020
3035 Fog 4 1020 100 0 1 350 00:25 13.02.2020
3036 Clouds 4 1018 100 10000 0.5 170 23:42 12.02.2020
3037 Fog 4 1019 100 0 0.5 270 23:22 12.02.2020
3038 Fog 4 1019 100 0 0.5 220 22:48 12.02.2020
3039 Clear 4 1017 100 10000 0.5 330 22:28 12.02.2020
3040 Mist 4 1017 100 1400 0.5 310 21:59 12.02.2020
3041 Fog 5 1018 100 0 0.5 210 21:40 12.02.2020
3042 Fog 5 1018 100 0 0.5 210 21:20 12.02.2020
3043 Fog 5 1018 100 0 0.5 350 20:58 12.02.2020
3044 Clouds 5 1016 93 10000 0.5 210 20:39 12.02.2020
3045 Clouds 5 1016 93 10000 0.5 210 20:20 12.02.2020
3046 Mist 5 1017 93 1600 1.5 280 19:55 12.02.2020
3047 Mist 5 1017 93 1600 1.5 280 19:55 12.02.2020
3048 Clouds 6 1015 93 10000 0.5 170 19:36 12.02.2020
3049 Clouds 6 1015 93 10000 0.5 170 19:36 12.02.2020
3050 Clouds 6 1015 93 10000 0.5 170 19:18 12.02.2020
3051 Clouds 6 1015 93 10000 0.5 210 18:46 12.02.2020
3052 Fog 6 1017 100 0 0.5 180 18:19 12.02.2020
3053 Clouds 6 1015 93 10000 0.5 180 17:43 12.02.2020
3054 Fog 6 1017 100 0 0.5 240 17:43 12.02.2020
3055 Fog 6 1017 100 0 0.5 240 17:21 12.02.2020
3056 Fog 6 1016 100 0 0.5 290 16:59 12.02.2020
3057 Fog 6 1016 100 0 0.5 180 16:39 12.02.2020
3058 Fog 6 1016 100 0 0.5 180 16:19 12.02.2020
3059 Clouds 6 1014 93 10000 0.5 20 15:43 12.02.2020
3060 Fog 6 1016 100 0 1 140 15:24 12.02.2020
3061 Fog 6 1016 100 0 1 190 14:57 12.02.2020
3062 Fog 6 1016 100 0 1 190 14:57 12.02.2020
3063 Clouds 6 1014 100 10000 0.5 20 14:39 12.02.2020
3064 Clouds 6 1014 100 10000 0.5 20 14:20 12.02.2020
3065 Fog 6 1016 100 0 0.5 80 13:57 12.02.2020
3066 Rain 6 1014 100 10000 0.46 4 13:38 12.02.2020
3067 Rain 6 1014 100 10000 0.85 302 13:19 12.02.2020
3068 Clouds 7 1014 93 10000 0.5 340 12:57 12.02.2020
3069 Rain 7 1015 100 400 1.5 70 12:37 12.02.2020
3070 Rain 7 1015 100 400 1.5 70 12:18 12.02.2020
3071 Rain 7 1013 93 10000 0.5 30 11:55 12.02.2020
3072 Rain 7 1013 93 10000 0.5 350 11:37 12.02.2020
3073 Rain 7 1013 93 10000 0.5 350 11:19 12.02.2020
3074 Clouds 7 1013 93 10000 1 20 10:54 12.02.2020
3075 Rain 7 1013 93 10000 1 10 10:36 12.02.2020
3076 Rain 7 1013 93 10000 1 10 10:18 12.02.2020
3077 Rain 7 1013 93 10000 1 10 10:18 12.02.2020
3078 Rain 7 1013 93 10000 1 20 09:40 12.02.2020
3079 Rain 7 1014 100 2000 0.5 340 09:20 12.02.2020
3080 Rain 7 1013 93 10000 1 360 08:57 12.02.2020
3081 Rain 7 1013 93 10000 1.5 10 08:37 12.02.2020
3082 Rain 7 1013 93 10000 1.5 10 08:19 12.02.2020
3083 Rain 7 1013 93 10000 1.5 10 08:19 12.02.2020
3084 Rain 7 1013 93 10000 1.5 360 07:43 12.02.2020
3085 Rain 7 1013 93 10000 1.5 360 07:43 12.02.2020
3086 Rain 7 1014 93 10000 1 10 07:23 12.02.2020
3087 Clouds 7 1014 87 10000 2.1 360 06:52 12.02.2020
3088 Haze 7 1016 81 4000 1 30 06:20 12.02.2020
3089 Rain 7 1017 61 6000 1 50 05:36 12.02.2020
3090 Rain 7 1017 61 6000 1 60 04:57 12.02.2020
3091 Rain 6 1018 61 6000 1 20 04:38 12.02.2020
3092 Rain 6 1018 60 10000 1 30 03:31 12.02.2020
3093 Rain 5 1020 56 6000 2.6 50 02:58 12.02.2020
3094 Rain 5 1019 75 8000 2.13 78 02:28 12.02.2020
3095 Rain 5 1019 52 10000 1.5 30 01:42 12.02.2020
3096 Clouds 4 1020 51 10000 1.5 30 00:44 12.02.2020
3097 Rain 4 1021 64 8000 1.5 60 00:25 12.02.2020
3098 Clouds 4 1020 55 10000 0.5 360 23:55 11.02.2020
3099 Haze 4 1021 64 9000 0.5 50 23:36 11.02.2020
3100 Haze 4 1021 64 9000 0.5 50 23:18 11.02.2020
3101 Haze 4 1022 64 9000 0.5 70 22:42 11.02.2020
3102 Haze 4 1022 64 9000 0.5 70 22:21 11.02.2020
3103 Haze 4 1022 59 9000 1.5 40 21:57 11.02.2020
3104 Haze 4 1022 64 8000 1.5 50 21:39 11.02.2020
3105 Haze 4 1022 64 8000 1.5 50 21:19 11.02.2020
3106 Haze 4 1023 59 9000 0.5 30 20:59 11.02.2020
3107 Clouds 4 1023 55 10000 1.54 76 20:39 11.02.2020
3108 Clouds 4 1023 55 10000 1.04 89 20:20 11.02.2020
3109 Haze 4 1023 59 9000 0.5 30 19:58 11.02.2020
3110 Haze 4 1024 59 8000 1 30 19:40 11.02.2020
3111 Haze 4 1024 59 8000 1 30 19:22 11.02.2020
3112 Clouds 4 1024 59 10000 0.5 10 18:46 11.02.2020
3113 Haze 4 1025 59 9000 0.5 100 18:28 11.02.2020
3114 Haze 4 1025 59 9000 1 60 17:57 11.02.2020
3115 Haze 4 1025 59 8000 1 110 17:39 11.02.2020
3116 Haze 4 1025 59 8000 1 110 17:19 11.02.2020
3117 Haze 4 1026 64 6000 0.5 190 16:58 11.02.2020
3118 Haze 4 1026 59 8000 0.5 20 16:39 11.02.2020
3119 Haze 4 1026 59 8000 0.5 20 16:21 11.02.2020
3120 Haze 4 1026 59 8000 0.5 20 16:21 11.02.2020
3121 Clouds 4 1025 59 10000 0.5 30 15:57 11.02.2020
3122 Clouds 5 1025 59 10000 0.55 163 15:39 11.02.2020
3123 Clouds 5 1025 59 10000 0.55 163 15:20 11.02.2020
3124 Clouds 5 1026 59 10000 0.5 360 14:41 11.02.2020
3125 Haze 5 1027 51 9000 0.5 20 14:19 11.02.2020
3126 Clouds 6 1026 55 10000 0.5 20 13:55 11.02.2020
3127 Haze 6 1027 48 9000 0.91 205 13:37 11.02.2020
3128 Haze 6 1027 48 9000 0.95 195 13:18 11.02.2020
3129 Clouds 6 1026 51 10000 1 200 12:41 11.02.2020
3130 Clouds 7 1027 45 10000 1.5 150 12:22 11.02.2020
3131 Clouds 7 1025 45 10000 0.5 320 11:58 11.02.2020
3132 Clouds 7 1025 45 10000 0.95 195 11:40 11.02.2020
3133 Clouds 7 1025 45 10000 0.45 198 11:19 11.02.2020
3134 Clouds 9 1025 39 10000 0.5 150 10:40 11.02.2020
3135 Clouds 9 1025 39 10000 0.5 150 10:40 11.02.2020
3136 Clouds 10 1025 42 10000 0.5 120 10:21 11.02.2020
3137 Clouds 11 1027 29 10000 2.6 230 09:58 11.02.2020
3138 Clouds 12 1027 25 10000 2.1 230 09:40 11.02.2020
3139 Clouds 12 1027 25 10000 2.1 230 09:22 11.02.2020
3140 Clouds 13 1025 20 10000 0.5 180 08:49 11.02.2020
3141 Clear 13 1025 20 10000 1.5 220 08:25 11.02.2020
3142 Clear 13 1025 20 10000 1 210 07:55 11.02.2020
3143 Clear 13 1025 19 10000 1.5 180 07:34 11.02.2020
3144 Clear 13 1026 20 10000 1.5 220 06:58 11.02.2020
3145 Clear 13 1026 20 10000 2.1 210 06:39 11.02.2020
3146 Clear 13 1026 20 10000 2.1 210 06:20 11.02.2020
3147 Clear 12 1026 23 10000 1.5 220 05:44 11.02.2020
3148 Clear 11 1027 31 10000 1.5 220 05:20 11.02.2020
3149 Clear 10 1029 34 10000 0.5 200 04:18 11.02.2020
3150 Clear 3 1029 55 10000 1.5 10 02:38 11.02.2020
3151 Clear 0 1029 52 10000 1.5 30 01:53 11.02.2020
3152 Clear -1 1029 74 10000 1 30 01:30 11.02.2020
3153 Clear -4 1029 79 10000 1 30 00:26 11.02.2020
3154 Clouds -4 1029 85 10000 0.5 170 23:48 10.02.2020
3155 Clear -3 1029 79 10000 1 50 23:29 10.02.2020
3156 Clear -4 1028 85 10000 0.5 30 22:57 10.02.2020
3157 Clear -3 1028 85 10000 0.5 20 22:37 10.02.2020
3158 Clear -3 1028 85 10000 0.5 20 22:18 10.02.2020
3159 Clear -4 1028 79 10000 0.5 180 21:40 10.02.2020
3160 Clear -4 1028 79 10000 0.5 180 21:22 10.02.2020
3161 Clear -4 1028 79 10000 0.5 160 20:56 10.02.2020
3162 Clear -3 1028 79 10000 0.5 20 20:37 10.02.2020
3163 Clear -3 1028 79 10000 0.5 20 20:19 10.02.2020
3164 Clear -3 1028 79 10000 0.5 360 19:57 10.02.2020
3165 Clear -3 1028 79 10000 1 30 19:36 10.02.2020
3166 Clear -3 1028 79 10000 1 30 19:18 10.02.2020
3167 Clear -2 1027 74 10000 1.5 70 18:55 10.02.2020
3168 Clear -2 1027 86 10000 1.5 320 18:37 10.02.2020
3169 Clear -2 1027 86 10000 1.5 320 18:18 10.02.2020
3170 Clear -2 1027 79 10000 1.5 30 17:40 10.02.2020
3171 Clear -2 1027 79 10000 1.5 30 17:22 10.02.2020
3172 Clear -2 1028 74 10000 0.5 170 16:59 10.02.2020
3173 Clear -1 1028 74 10000 0.64 136 16:40 10.02.2020
3174 Clear -1 1028 74 10000 0.64 136 16:20 10.02.2020
3175 Clear -1 1027 74 10000 0.5 330 15:58 10.02.2020
3176 Clear -1 1027 68 10000 0.5 30 15:39 10.02.2020
3177 Clear -1 1027 68 10000 0.5 30 15:21 10.02.2020
3178 Clear 0 1027 74 10000 1 20 14:57 10.02.2020
3179 Clear 0 1026 68 10000 0.5 190 14:39 10.02.2020
3180 Clear 0 1026 68 10000 0.5 190 14:19 10.02.2020
3181 Clear 1 1026 48 10000 0.5 20 13:44 10.02.2020
3182 Clear 1 1025 64 10000 0.5 350 13:25 10.02.2020
3183 Clear 2 1025 59 10000 0.5 170 12:56 10.02.2020
3184 Clear 3 1025 59 10000 0.5 350 12:38 10.02.2020
3185 Clear 3 1025 59 10000 0.5 350 12:19 10.02.2020
3186 Clear 4 1025 55 10000 0.27 298 11:45 10.02.2020
3187 Clear 4 1024 51 10000 0.5 170 11:21 10.02.2020
3188 Clear 5 1024 48 10000 0.5 180 10:48 10.02.2020
3189 Clouds 5 1024 48 11265 2.1 270 10:48 10.02.2020
3190 Clear 6 1024 38 10000 0.5 190 10:30 10.02.2020
3191 Clear 8 1023 33 10000 0.5 300 09:55 10.02.2020
3192 Clear 9 1023 29 10000 1 30 09:36 10.02.2020
3193 Clear 9 1023 29 10000 1 30 09:18 10.02.2020
3194 Clear 9 1023 25 10000 2.1 360 08:38 10.02.2020
3195 Clear 9 1023 25 10000 2.1 360 08:20 10.02.2020
3196 Clear 9 1023 25 10000 1 40 07:52 10.02.2020
3197 Clear 9 1023 26 10000 1 330 07:32 10.02.2020
3198 Clear 9 1023 27 10000 1.5 270 06:44 10.02.2020
3199 Clear 7 1023 33 10000 1 340 04:51 10.02.2020
3200 Clear 6 1024 52 10000 0.5 190 03:53 10.02.2020
3201 Clear 4 1024 60 7000 0.5 340 02:57 10.02.2020
3202 Clear 3 1024 69 10000 0.5 360 02:36 10.02.2020
3203 Clear -3 1023 86 10000 0.57 284 00:56 10.02.2020
3204 Clear -3 1023 92 10000 0.5 190 00:37 10.02.2020
3205 Clear -3 1023 85 10000 0.5 190 23:58 09.02.2020
3206 Clear -3 1023 85 10000 0.5 190 23:40 09.02.2020
3207 Clear -3 1023 86 10000 0.5 10 23:22 09.02.2020
3208 Clear -3 1022 92 10000 0.5 180 22:43 09.02.2020
3209 Clouds -2 1022 86 10000 0.5 170 22:21 09.02.2020
3210 Clear -2 1022 86 10000 1 190 21:45 09.02.2020
3211 Clear -1 1022 79 10000 0.66 264 21:25 09.02.2020
3212 Clear -1 1021 79 10000 0.66 264 20:58 09.02.2020
3213 Clouds 0 1021 74 10000 1 130 20:40 09.02.2020
3214 Clouds 0 1021 74 10000 1 130 20:19 09.02.2020
3215 Haze 0 1023 80 6000 0.5 70 19:40 09.02.2020
3216 Haze 0 1023 80 6000 0.5 70 19:21 09.02.2020
3217 Haze 0 1023 80 6000 1.1 161 18:57 09.02.2020
3218 Clouds 0 1022 74 10000 0.5 180 18:39 09.02.2020
3219 Clouds 0 1022 74 10000 0.5 180 18:21 09.02.2020
3220 Clouds 0 1022 74 10000 1 190 17:43 09.02.2020
3221 Clouds 0 1022 74 10000 0.5 180 17:23 09.02.2020
3222 Haze -1 1023 86 6000 0.5 330 16:56 09.02.2020
3223 Clouds -1 1022 68 10000 1 170 16:38 09.02.2020
3224 Clouds -1 1022 68 10000 1 170 16:18 09.02.2020
3225 Clouds -1 1022 74 10000 0.5 160 15:56 09.02.2020
3226 Clouds -1 1022 74 10000 0.5 190 15:38 09.02.2020
3227 Clouds -1 1022 74 10000 0.5 190 15:19 09.02.2020
3228 Clouds -1 1022 74 10000 0.5 290 14:42 09.02.2020
3229 Clouds 0 1022 74 10000 0.5 150 14:23 09.02.2020
3230 Clouds 0 1022 68 10000 0.5 180 13:47 09.02.2020
3231 Clouds 0 1022 63 10000 0.5 160 13:29 09.02.2020
3232 Clouds 0 1022 70 10000 1 180 12:58 09.02.2020
3233 Clouds 0 1022 70 10000 1 190 12:40 09.02.2020
3234 Clouds 0 1022 70 10000 1 190 12:19 09.02.2020
3235 Clouds 1 1022 55 10000 0.5 90 11:55 09.02.2020
3236 Clear 1 1022 55 10000 1 320 11:36 09.02.2020
3237 Clear 1 1022 55 10000 1 320 11:18 09.02.2020
3238 Clouds 2 1022 51 10000 1.5 270 10:41 09.02.2020
3239 Clouds 2 1022 44 10000 2.1 200 10:22 09.02.2020
3240 Clear 3 1022 44 10000 2.1 180 09:47 09.02.2020
3241 Clouds 3 1022 40 10000 3.1 210 09:28 09.02.2020
3242 Clouds 3 1023 32 10000 1.5 210 08:54 09.02.2020
3243 Clear 4 1023 25 10000 2.6 210 08:36 09.02.2020
3244 Clear 4 1023 25 10000 2.6 210 08:18 09.02.2020
3245 Clear 4 1023 25 10000 3.6 210 07:44 09.02.2020
3246 Clear 4 1023 25 10000 2.1 240 06:49 09.02.2020
3247 Clear 4 1024 23 10000 0.5 310 06:29 09.02.2020
3248 Clear 3 1024 27 10000 3.1 210 05:43 09.02.2020
3249 Clear 3 1025 29 10000 3.1 180 05:19 09.02.2020
3250 Clear 1 1026 40 10000 1.5 180 03:53 09.02.2020
3251 Clear -1 1027 54 10000 1 180 02:46 09.02.2020
3252 Clear -2 1027 54 10000 0.5 170 02:26 09.02.2020
3253 Clear -4 1028 73 10000 0.5 330 01:35 09.02.2020
3254 Clear -8 1028 79 10000 0.5 30 00:46 09.02.2020
3255 Clear -8 1028 85 10000 0.5 170 00:25 09.02.2020
3256 Clear -9 1028 85 10000 0.5 180 23:44 08.02.2020
3257 Clear -9 1028 85 10000 0.5 140 23:21 08.02.2020
3258 Clear -7 1028 78 10000 0.73 239 22:43 08.02.2020
3259 Clear -7 1028 78 10000 0.5 170 22:22 08.02.2020
3260 Clear -7 1028 78 10000 0.5 170 22:22 08.02.2020
3261 Clear -8 1028 78 10000 0.5 190 21:59 08.02.2020
3262 Clear -8 1028 78 10000 0.5 210 21:40 08.02.2020
3263 Clear -8 1028 78 10000 0.5 210 21:21 08.02.2020
3264 Clear -7 1028 78 10000 0.73 239 20:56 08.02.2020
3265 Clear -6 1028 79 10000 0.5 170 20:38 08.02.2020
3266 Clear -6 1028 79 10000 0.5 170 20:19 08.02.2020
3267 Clear -6 1028 79 10000 0.5 120 19:54 08.02.2020
3268 Clear -6 1028 79 10000 0.5 160 19:36 08.02.2020
3269 Clear -6 1028 79 10000 0.5 160 19:18 08.02.2020
3270 Clear -5 1028 73 10000 0.92 277 18:42 08.02.2020
3271 Clear -5 1028 73 10000 0.5 180 18:42 08.02.2020
3272 Clear -5 1028 73 10000 0.92 277 18:23 08.02.2020
3273 Clouds -5 1028 73 10000 0.5 160 17:43 08.02.2020
3274 Clear -4 1028 67 10000 1.71 300 17:21 08.02.2020
3275 Clear -4 1028 67 10000 0.5 190 16:58 08.02.2020
3276 Clear -4 1028 67 10000 0.5 190 16:58 08.02.2020
3277 Clear -4 1028 62 10000 1.71 300 16:38 08.02.2020
3278 Clear -4 1028 62 10000 1.71 300 16:20 08.02.2020
3279 Clear -3 1028 62 10000 0.5 120 15:42 08.02.2020
3280 Clear -3 1028 62 10000 0.5 120 15:19 08.02.2020
3281 Clear -2 1028 58 10000 0.5 270 14:57 08.02.2020
3282 Clear -2 1028 58 10000 1 190 14:39 08.02.2020
3283 Clear -2 1028 58 10000 1 190 14:18 08.02.2020
3284 Clear -1 1027 54 10000 1 170 13:43 08.02.2020
3285 Clear -1 1027 54 10000 1 170 13:23 08.02.2020
3286 Clear 0 1027 37 10000 0.5 290 12:50 08.02.2020
3287 Clear 0 1027 37 10000 1 300 12:25 08.02.2020
3288 Clear 0 1027 40 10000 0.5 110 11:59 08.02.2020
3289 Clear 1 1027 40 10000 0.5 110 11:40 08.02.2020
3290 Clear 1 1027 34 10000 1 170 11:21 08.02.2020
3291 Clear 2 1026 32 10000 1.5 330 10:43 08.02.2020
3292 Clear 2 1026 32 10000 1.5 330 10:24 08.02.2020
3293 Clear 2 1026 29 10000 2.6 280 09:53 08.02.2020
3294 Clear 3 1025 27 10000 1 350 09:30 08.02.2020
3295 Clear 3 1025 27 10000 0.5 270 08:57 08.02.2020
3296 Clear 4 1025 25 10000 1 320 08:38 08.02.2020
3297 Clear 4 1025 25 10000 1 320 08:20 08.02.2020
3298 Clear 4 1025 27 10000 1.5 250 07:48 08.02.2020
3299 Clear 4 1025 27 10000 2.1 290 07:30 08.02.2020
3300 Clear 3 1025 29 10000 1.5 10 06:30 08.02.2020
3301 Clear 3 1025 32 10000 1.5 240 05:49 08.02.2020
3302 Clear 2 1025 34 10000 1 30 05:30 08.02.2020
3303 Clear 2 1026 37 10000 2.6 340 04:50 08.02.2020
3304 Clear 1 1027 40 10000 0.5 340 03:53 08.02.2020
3305 Haze 0 1030 37 9000 2.1 300 02:52 08.02.2020
3306 Clear -1 1028 50 10000 1.5 340 01:55 08.02.2020
3307 Haze -1 1030 63 6000 2.1 290 01:26 08.02.2020
3308 Clouds -2 1027 58 10000 1 330 00:43 08.02.2020
3309 Clouds -2 1027 58 10000 1 330 00:22 08.02.2020
3310 Haze -2 1029 73 6000 0.5 320 23:55 07.02.2020
3311 Haze -2 1029 73 6000 0.5 140 23:37 07.02.2020
3312 Haze -2 1029 73 6000 0.5 140 23:18 07.02.2020
3313 Haze -1 1028 63 9000 2.1 340 22:39 07.02.2020
3314 Haze -1 1028 63 9000 2.1 340 22:19 07.02.2020
3315 Clouds 0 1026 58 10000 1 330 21:43 07.02.2020
3316 Clouds -1 1026 58 10000 1.5 270 21:22 07.02.2020
3317 Clouds 0 1026 67 10000 3.1 300 20:55 07.02.2020
3318 Clouds 0 1026 67 10000 1 310 20:37 07.02.2020
3319 Clouds 0 1026 68 10000 1 310 20:18 07.02.2020
3320 Clouds 0 1026 68 10000 0.5 180 19:40 07.02.2020
3321 Clouds 0 1026 68 10000 0.5 180 19:19 07.02.2020
3322 Clouds 0 1026 68 10000 1 170 18:55 07.02.2020
3323 Clouds -1 1026 74 10000 0.5 170 18:37 07.02.2020
3324 Clouds -1 1026 74 10000 0.5 170 18:18 07.02.2020
3325 Clouds 0 1026 68 10000 0.5 170 17:42 07.02.2020
3326 Clouds 0 1027 74 10000 1 180 17:21 07.02.2020
3327 Clouds 0 1027 74 10000 0.5 160 16:54 07.02.2020
3328 Clouds 0 1027 74 10000 0.5 180 16:25 07.02.2020
3329 Clouds -1 1028 80 10000 1 240 15:57 07.02.2020
3330 Clouds 0 1027 68 10000 1 180 15:39 07.02.2020
3331 Clouds 0 1027 68 10000 1 180 15:20 07.02.2020
3332 Clouds 0 1027 68 10000 0.5 170 14:43 07.02.2020
3333 Clouds 0 1027 68 10000 0.5 170 14:24 07.02.2020
3334 Clouds 0 1027 63 10000 0.5 170 13:58 07.02.2020
3335 Clouds 0 1027 63 10000 0.5 190 13:39 07.02.2020
3336 Clouds 0 1027 63 10000 0.5 190 13:39 07.02.2020
3337 Clouds 0 1027 63 10000 0.5 190 13:20 07.02.2020
3338 Clouds 0 1027 63 10000 0.5 160 12:45 07.02.2020
3339 Clouds 0 1027 63 10000 0.5 160 12:26 07.02.2020
3340 Clouds 0 1027 63 10000 0.5 200 11:59 07.02.2020
3341 Clouds 0 1027 63 10000 0.5 190 11:40 07.02.2020
3342 Clouds 0 1027 63 10000 0.5 190 11:19 07.02.2020
3343 Clear 1 1026 55 10000 0.5 210 10:41 07.02.2020
3344 Clear 1 1026 55 10000 0.5 210 10:21 07.02.2020
3345 Clear 1 1026 50 10000 1 230 09:47 07.02.2020
3346 Clear 1 1026 47 10000 0.5 270 09:27 07.02.2020
3347 Clouds 2 1026 43 10000 1 240 08:58 07.02.2020
3348 Clouds 2 1027 37 10000 2.1 250 08:37 07.02.2020
3349 Clouds 2 1027 37 10000 2.1 250 08:19 07.02.2020
3350 Clouds 2 1027 34 10000 1.5 230 07:40 07.02.2020
3351 Clouds 2 1028 37 10000 1 240 07:19 07.02.2020
3352 Clouds 1 1028 27 10000 1.5 250 06:43 07.02.2020
3353 Clouds 1 1028 27 10000 1.5 250 06:22 07.02.2020
3354 Clouds 1 1028 39 10000 1 250 05:43 07.02.2020
3355 Clouds -1 1030 26 10000 0.5 170 03:57 07.02.2020
3356 Clear -3 1031 53 10000 0.5 220 02:28 07.02.2020
3357 Clouds -5 1031 62 10000 0.5 160 01:25 07.02.2020
3358 Clouds -6 1031 62 10000 0.5 130 00:37 07.02.2020
3359 Clouds -6 1031 62 10000 0.5 140 23:40 06.02.2020
3360 Clouds -6 1031 62 10000 0.5 140 23:21 06.02.2020
3361 Clouds -6 1031 62 10000 0.5 140 22:58 06.02.2020
3362 Clouds -7 1031 62 10000 1.55 270 22:40 06.02.2020
3363 Clouds -7 1031 62 10000 1.55 270 22:40 06.02.2020
3364 Clouds -7 1031 62 10000 1.55 270 22:22 06.02.2020
3365 Clouds -7 1031 62 10000 1.55 270 21:37 06.02.2020
3366 Clouds -7 1031 62 10000 1.55 270 21:19 06.02.2020
3367 Clouds -7 1031 62 10000 0.5 110 20:56 06.02.2020
3368 Clouds -7 1031 67 10000 0.5 140 20:37 06.02.2020
3369 Clouds -7 1031 67 10000 0.5 140 20:18 06.02.2020
3370 Clouds -7 1031 72 10000 1 30 19:57 06.02.2020
3371 Clouds -8 1031 67 10000 0.5 310 19:39 06.02.2020
3372 Clouds -8 1031 67 10000 0.5 310 19:20 06.02.2020
3373 Clouds -8 1031 72 10000 0.5 170 18:57 06.02.2020
3374 Clouds -9 1032 72 10000 0.5 160 18:38 06.02.2020
3375 Clouds -9 1032 72 10000 0.5 160 18:19 06.02.2020
3376 Clear -8 1032 66 10000 0.5 180 17:42 06.02.2020
3377 Clear -8 1032 72 10000 0.5 140 17:20 06.02.2020
3378 Clear -8 1032 66 10000 0.5 180 16:45 06.02.2020
3379 Clear -8 1032 72 10000 0.5 180 16:27 06.02.2020
3380 Clear -7 1032 67 10000 0.5 150 15:58 06.02.2020
3381 Clear -7 1032 67 10000 0.94 307 15:40 06.02.2020
3382 Clear -7 1032 67 10000 0.94 307 15:20 06.02.2020
3383 Clear -7 1032 67 10000 0.94 307 14:46 06.02.2020
3384 Clear -7 1032 62 10000 0.5 170 14:25 06.02.2020
3385 Clear -6 1032 57 10000 0.5 120 13:46 06.02.2020
3386 Clear -6 1032 57 10000 0.5 170 13:27 06.02.2020
3387 Clear -6 1032 53 10000 0.5 130 12:56 06.02.2020
3388 Clear -5 1032 49 10000 0.5 170 12:37 06.02.2020
3389 Clear -5 1032 49 10000 0.5 170 12:18 06.02.2020
3390 Clear -4 1032 45 10000 0.5 180 11:41 06.02.2020
3391 Clear -4 1032 49 10000 0.5 190 11:23 06.02.2020
3392 Clear -3 1032 42 10000 0.5 120 10:59 06.02.2020
3393 Clear -2 1031 39 10000 0.5 180 10:41 06.02.2020
3394 Clear -2 1031 39 10000 0.5 180 10:21 06.02.2020
3395 Clear -1 1031 30 10000 0.5 220 09:59 06.02.2020
3396 Clear -1 1031 30 10000 0.5 220 09:40 06.02.2020
3397 Clear -1 1031 14 10000 1 330 09:20 06.02.2020
3398 Clear 0 1032 14 10000 1.27 312 08:43 06.02.2020
3399 Clear 0 1032 11 10000 1.02 298 08:23 06.02.2020
3400 Clear 0 1032 11 10000 2.6 210 07:54 06.02.2020
3401 Clear 0 1033 26 10000 1.5 150 07:29 06.02.2020
3402 Clear -1 1032 11 10000 0.5 230 06:47 06.02.2020
3403 Clear -2 1032 23 10000 1.5 250 06:19 06.02.2020
3404 Clear -3 1034 32 10000 1.02 298 05:24 06.02.2020
3405 Clear -6 1036 35 10000 0.5 250 03:47 06.02.2020
3406 Clear -8 1036 44 10000 1.5 340 02:58 06.02.2020
3407 Clear -10 1036 56 10000 1.5 10 01:42 06.02.2020
3408 Clear -12 1036 72 10000 1 10 00:59 06.02.2020
3409 Clear -12 1035 51 10000 0.61 54 00:28 06.02.2020
3410 Clear -12 1037 71 10000 2.1 30 23:50 05.02.2020
3411 Clear -12 1037 84 10000 2.1 40 23:29 05.02.2020
3412 Clear -12 1037 84 10000 2.6 50 22:59 05.02.2020
3413 Clear -12 1035 56 10000 1.08 325 22:40 05.02.2020
3414 Clear -12 1035 56 10000 1.08 325 22:22 05.02.2020
3415 Clear -12 1035 71 10000 0.5 160 21:55 05.02.2020
3416 Clear -12 1035 51 10000 1.08 325 21:36 05.02.2020
3417 Clear -12 1035 51 10000 1.08 325 21:18 05.02.2020
3418 Clear -12 1036 71 10000 1.08 325 20:39 05.02.2020
3419 Clear -12 1036 71 10000 1.08 325 20:39 05.02.2020
3420 Clear -12 1036 71 10000 1.08 325 20:39 05.02.2020
3421 Clear -12 1036 71 10000 1.54 304 20:20 05.02.2020
3422 Clear -12 1036 77 10000 1 40 19:58 05.02.2020
3423 Clear -11 1036 77 10000 1 50 19:38 05.02.2020
3424 Clear -11 1036 77 10000 1 50 19:19 05.02.2020
3425 Clear -11 1036 71 10000 1 40 18:55 05.02.2020
3426 Clear -11 1036 65 10000 0.5 90 18:36 05.02.2020
3427 Clear -11 1036 65 10000 0.5 90 18:18 05.02.2020
3428 Clear -11 1034 56 10000 0.5 150 17:38 05.02.2020
3429 Clear -10 1034 51 10000 0.5 350 17:18 05.02.2020
3430 Clear -10 1034 51 10000 0.5 350 17:18 05.02.2020
3431 Clear -10 1034 51 10000 0.5 350 16:56 05.02.2020
3432 Clear -10 1034 40 10000 1.5 300 16:37 05.02.2020
3433 Clear -10 1034 40 10000 1.5 300 16:18 05.02.2020
3434 Clear -10 1034 43 10000 3.15 311 15:42 05.02.2020
3435 Clear -10 1034 43 10000 3.15 311 15:19 05.02.2020
3436 Clear -9 1035 43 10000 2.1 340 14:55 05.02.2020
3437 Clear -9 1034 44 10000 3.15 311 14:37 05.02.2020
3438 Clear -9 1034 44 10000 3.9 315 14:19 05.02.2020
3439 Clear -8 1034 44 10000 1.5 360 13:41 05.02.2020
3440 Clear -8 1034 44 10000 1.5 360 13:22 05.02.2020
3441 Clear -7 1036 43 10000 2.6 10 12:44 05.02.2020
3442 Clear -7 1036 43 10000 2.6 10 12:25 05.02.2020
3443 Clear -7 1035 43 10000 2.1 10 11:57 05.02.2020
3444 Clear -7 1035 47 10000 2.1 360 11:38 05.02.2020
3445 Clear -7 1035 47 10000 2.1 360 11:20 05.02.2020
3446 Clear -6 1031 35 10000 0.5 170 10:43 05.02.2020
3447 Clear -6 1031 34 10000 2.1 240 10:25 05.02.2020
3448 Snow -5 1034 37 10000 2.6 320 09:58 05.02.2020
3449 Snow -5 1033 37 10000 3.1 290 09:38 05.02.2020
3450 Snow -5 1033 37 10000 3.1 290 09:20 05.02.2020
3451 Clear -4 1030 25 10000 1 340 08:44 05.02.2020
3452 Clear -4 1030 32 10000 4.98 304 08:24 05.02.2020
3453 Clear -4 1030 23 10000 2.6 330 07:54 05.02.2020
3454 Clear -4 1030 32 10000 2.6 260 07:33 05.02.2020
3455 Clear -5 1033 35 10000 2.1 280 06:49 05.02.2020
3456 Clear -5 1030 25 10000 3.1 270 06:23 05.02.2020
3457 Clear -5 1033 34 10000 1 260 05:52 05.02.2020
3458 Clear -6 1030 27 10000 1 310 05:18 05.02.2020
3459 Clear -6 1031 29 10000 1.5 320 04:45 05.02.2020
3460 Clear -7 1031 34 10000 1.5 240 03:48 05.02.2020
3461 Clear -9 1033 37 10000 2.1 260 02:25 05.02.2020
3462 Clear -9 1034 43 10000 1.5 90 01:36 05.02.2020
3463 Clear -10 1031 40 10000 1.5 330 00:42 05.02.2020
3464 Clear -10 1033 55 10000 1.5 360 23:44 04.02.2020
3465 Clear -10 1033 55 10000 1.5 360 23:23 04.02.2020
3466 Clear -10 1033 51 10000 0.5 340 22:59 04.02.2020
3467 Clear -9 1032 47 10000 1.5 290 22:41 04.02.2020
3468 Clear -9 1032 47 10000 1.5 290 22:21 04.02.2020
3469 Clear -9 1032 51 10000 2.1 300 21:59 04.02.2020
3470 Clear -9 1032 47 10000 2.1 290 21:40 04.02.2020
3471 Clear -9 1032 47 10000 2.1 290 21:19 04.02.2020
3472 Clear -9 1032 47 10000 2.1 290 21:19 04.02.2020
3473 Clear -9 1032 47 10000 2.1 290 21:19 04.02.2020
3474 Clear -8 1030 40 10000 1.5 360 20:57 04.02.2020
3475 Clear -8 1029 44 10000 2.1 360 20:38 04.02.2020
3476 Clear -8 1029 44 10000 2.1 360 20:19 04.02.2020
3477 Clear -8 1028 37 10000 2.6 340 19:55 04.02.2020
3478 Clear -8 1031 52 10000 2.6 330 19:37 04.02.2020
3479 Clear -7 1028 48 10000 1.5 290 19:18 04.02.2020
3480 Clear -7 1031 52 10000 1.5 350 18:54 04.02.2020
3481 Clear -7 1028 41 10000 1 320 18:36 04.02.2020
3482 Clear -6 1028 41 10000 1 320 18:18 04.02.2020
3483 Clear -6 1027 44 10000 1.5 320 17:41 04.02.2020
3484 Clear -6 1027 44 10000 1.5 320 17:20 04.02.2020
3485 Clear -6 1027 44 10000 1.5 320 17:20 04.02.2020
3486 Clear -4 1029 52 10000 2.1 320 16:39 04.02.2020
3487 Clear -4 1029 52 10000 2.1 320 16:21 04.02.2020
3488 Clear -3 1029 48 10000 3.1 320 15:58 04.02.2020
3489 Clear -3 1029 48 10000 3.1 320 15:58 04.02.2020
3490 Rain -3 1026 74 10000 2.6 300 15:39 04.02.2020
3491 Rain -3 1026 74 10000 2.6 300 15:20 04.02.2020
3492 Clear -2 1027 53 10000 3.1 270 14:56 04.02.2020
3493 Clouds -2 1025 74 10000 1.5 240 14:37 04.02.2020
3494 Clouds -2 1025 74 10000 1.5 240 14:19 04.02.2020
3495 Clouds -1 1025 74 10000 2.1 330 13:41 04.02.2020
3496 Clouds -1 1025 80 10000 2.6 290 13:23 04.02.2020
3497 Clouds 0 1025 88 10000 3.1 310 12:57 04.02.2020
3498 Rain 0 1024 86 9000 4.56 308 12:38 04.02.2020
3499 Rain 0 1024 86 9000 4.56 308 12:19 04.02.2020
3500 Clouds 0 1024 88 10000 8.2 330 11:55 04.02.2020
3501 Rain 1 1024 88 4800 4.56 308 11:37 04.02.2020
3502 Rain 1 1024 61 4800 5.97 241 11:18 04.02.2020
3503 Clouds 2 1023 64 10000 1.5 220 10:44 04.02.2020
3504 Snow 2 1023 74 10000 2.6 250 10:24 04.02.2020
3505 Clouds 2 1023 74 10000 1.5 250 09:56 04.02.2020
3506 Clouds 2 1023 69 10000 5.97 241 09:37 04.02.2020
3507 Clouds 2 1023 69 10000 5.97 241 09:18 04.02.2020
3508 Clouds 3 1023 51 10000 1.5 210 08:43 04.02.2020
3509 Snow 3 1024 48 10000 3.6 260 08:24 04.02.2020
3510 Rain 3 1023 60 10000 5.16 236 07:49 04.02.2020
3511 Snow 3 1025 86 1600 4.1 210 07:24 04.02.2020
3512 Clouds 4 1023 41 10000 2.6 180 06:45 04.02.2020
3513 Clouds 3 1025 69 10000 2.1 220 06:26 04.02.2020
3514 Clouds 3 1025 41 10000 2.6 310 05:29 04.02.2020
3515 Clear 1 1027 41 10000 2.6 210 03:54 04.02.2020
3516 Clear 0 1027 43 10000 3.01 216 03:34 04.02.2020
3517 Clear -1 1028 54 10000 1 180 02:59 04.02.2020
3518 Clear -2 1028 41 10000 3.01 216 02:32 04.02.2020
3519 Clear -4 1028 58 10000 0.5 160 01:55 04.02.2020
3520 Clear -5 1028 50 10000 0.91 143 01:35 04.02.2020
3521 Clear -5 1028 50 10000 0.91 143 01:35 04.02.2020
3522 Clear -7 1029 79 10000 1.08 149 00:45 04.02.2020
3523 Clear -7 1028 57 10000 1.08 149 00:21 04.02.2020
3524 Clear -8 1028 62 10000 1.08 149 23:40 03.02.2020
3525 Clear -8 1028 62 10000 0.38 297 23:22 03.02.2020
3526 Clear -8 1028 57 10000 0.38 297 22:39 03.02.2020
3527 Clear -8 1028 57 10000 0.38 297 22:20 03.02.2020
3528 Clear -7 1028 78 10000 0.38 297 21:56 03.02.2020
3529 Clear -7 1028 49 10000 0.38 297 21:37 03.02.2020
3530 Clear -7 1028 49 10000 0.38 297 21:18 03.02.2020
3531 Clear -7 1028 45 10000 0.38 297 20:42 03.02.2020
3532 Clear -7 1028 45 10000 1.32 303 20:19 03.02.2020
3533 Clouds -7 1028 73 10000 0.5 200 19:58 03.02.2020
3534 Clear -7 1028 42 10000 1.5 310 19:39 03.02.2020
3535 Clear -7 1028 42 10000 1.5 310 19:19 03.02.2020
3536 Clear -6 1028 67 10000 0.5 100 18:54 03.02.2020
3537 Clear -6 1028 67 10000 0.5 100 18:54 03.02.2020
3538 Clear -6 1028 42 10000 1.2 308 18:36 03.02.2020
3539 Clear -6 1028 42 10000 1.2 308 18:18 03.02.2020
3540 Clear -5 1028 42 10000 1.2 308 17:40 03.02.2020
3541 Clear -5 1028 42 10000 1.8 300 17:20 03.02.2020
3542 Clear -5 1028 62 10000 0.5 160 16:58 03.02.2020
3543 Clear -5 1028 62 10000 0.5 160 16:58 03.02.2020
3544 Clear -4 1029 50 10000 1.5 320 16:38 03.02.2020
3545 Clear -4 1029 50 10000 1.5 320 16:20 03.02.2020
3546 Clear -3 1028 58 10000 0.5 180 15:54 03.02.2020
3547 Clear -3 1028 46 10000 2.1 320 15:36 03.02.2020
3548 Clear -3 1028 46 10000 2.1 320 15:18 03.02.2020
3549 Clear -3 1028 58 10000 0.5 170 14:41 03.02.2020
3550 Clear -3 1028 46 10000 2.98 309 14:22 03.02.2020
3551 Clear -2 1028 53 10000 1 160 13:55 03.02.2020
3552 Clear -2 1027 28 10000 2.98 309 13:37 03.02.2020
3553 Clear -2 1027 28 10000 2.98 309 13:18 03.02.2020
3554 Clear -2 1027 26 10000 3.01 313 12:41 03.02.2020
3555 Clear -2 1027 26 10000 3.01 313 12:22 03.02.2020
3556 Clear -1 1027 36 10000 1.5 180 11:58 03.02.2020
3557 Clear -1 1027 26 10000 3.01 313 11:38 03.02.2020
3558 Clear -1 1027 24 10000 3.73 298 11:18 03.02.2020
3559 Clear 0 1027 40 10000 3.73 298 10:41 03.02.2020
3560 Clear 0 1027 40 10000 3.73 298 10:23 03.02.2020
3561 Clear 1 1028 24 10000 1 280 09:49 03.02.2020
3562 Clear 2 1028 26 10000 2.1 290 09:28 03.02.2020
3563 Clear 2 1026 21 10000 1.5 340 08:59 03.02.2020
3564 Clear 2 1026 21 10000 1.5 340 08:40 03.02.2020
3565 Clear 2 1026 29 10000 1.5 330 08:40 03.02.2020
3566 Clear 2 1026 29 10000 1.5 330 08:21 03.02.2020
3567 Clear 3 1025 25 10000 3.1 220 07:41 03.02.2020
3568 Clear 3 1026 32 10000 3.1 270 07:22 03.02.2020
3569 Clear 3 1026 32 10000 3.1 270 07:22 03.02.2020
3570 Clear 3 1025 21 10000 2.6 220 06:55 03.02.2020
3571 Clear 3 1026 29 10000 1.5 190 06:30 03.02.2020
3572 Clear 2 1026 25 10000 3.6 240 05:48 03.02.2020
3573 Clear 2 1026 37 10000 1.5 300 05:30 03.02.2020
3574 Clear 2 1027 40 10000 1.5 240 04:30 03.02.2020
3575 Clear 0 1027 50 10000 3.1 320 02:37 03.02.2020
3576 Clear 0 1027 50 10000 3.1 320 02:18 03.02.2020
3577 Clear -2 1027 54 10000 3.01 297 00:48 03.02.2020
3578 Clear -3 1026 58 10000 3.01 297 00:25 03.02.2020
3579 Clear -2 1026 58 10000 2.1 320 23:39 02.02.2020
3580 Clear -2 1026 58 10000 2.1 320 23:21 02.02.2020
3581 Clear -2 1025 54 10000 1 320 22:58 02.02.2020
3582 Clear -2 1025 58 10000 1.5 340 22:38 02.02.2020
3583 Clear -1 1025 58 10000 1.5 340 22:20 02.02.2020
3584 Clouds -1 1025 48 10000 1 290 21:55 02.02.2020
3585 Clouds -1 1025 48 10000 3.32 306 21:37 02.02.2020
3586 Clouds -1 1025 48 10000 3.32 306 21:19 02.02.2020
3587 Clouds 0 1024 48 10000 1 180 20:55 02.02.2020
3588 Clouds 0 1026 68 10000 1 250 20:37 02.02.2020
3589 Clouds 0 1026 68 10000 1 250 20:19 02.02.2020
3590 Clouds 0 1024 59 10000 0.5 330 19:55 02.02.2020
3591 Clouds 0 1024 69 10000 1.5 300 19:37 02.02.2020
3592 Clouds 0 1024 69 10000 1.5 300 19:18 02.02.2020
3593 Clouds 1 1024 69 10000 3.42 304 18:39 02.02.2020
3594 Clouds 1 1024 69 10000 3.42 304 18:21 02.02.2020
3595 Clouds 1 1024 64 10000 3.42 304 17:58 02.02.2020
3596 Clouds 1 1025 69 10000 3.42 304 17:38 02.02.2020
3597 Clouds 1 1025 69 10000 3.69 290 17:19 02.02.2020
3598 Haze 1 1026 68 4800 1 170 16:58 02.02.2020
3599 Clouds 1 1024 55 10000 3.69 290 16:39 02.02.2020
3600 Clouds 1 1024 55 10000 3.69 290 16:19 02.02.2020
3601 Clouds 1 1024 47 10000 1.5 180 15:57 02.02.2020
3602 Clouds 1 1024 40 10000 3.69 290 15:39 02.02.2020
3603 Clouds 1 1024 40 10000 3.69 290 15:19 02.02.2020
3604 Clouds 1 1024 55 10000 1 180 14:54 02.02.2020
3605 Clouds 1 1024 47 10000 3.69 290 14:36 02.02.2020
3606 Clouds 1 1024 47 10000 2.35 276 14:18 02.02.2020
3607 Clouds 1 1024 50 10000 0.5 190 13:54 02.02.2020
3608 Clouds 1 1024 47 10000 2.35 276 13:36 02.02.2020
3609 Clouds 1 1024 47 10000 2.35 276 13:36 02.02.2020
3610 Clouds 1 1024 47 10000 2.59 280 13:18 02.02.2020
3611 Haze 2 1026 50 8000 1 200 12:40 02.02.2020
3612 Haze 2 1026 50 8000 1 200 12:22 02.02.2020
3613 Clouds 2 1026 47 10000 1 230 11:55 02.02.2020
3614 Clouds 2 1024 32 10000 2.59 280 11:36 02.02.2020
3615 Clouds 2 1024 32 10000 2.7 265 11:18 02.02.2020
3616 Clouds 3 1024 35 10000 1.5 230 10:54 02.02.2020
3617 Clouds 3 1024 44 10000 2.7 265 10:36 02.02.2020
3618 Clouds 3 1024 44 10000 2.7 265 10:36 02.02.2020
3619 Clouds 3 1024 44 10000 2.7 265 10:18 02.02.2020
3620 Clouds 4 1023 35 10000 2.7 265 09:40 02.02.2020
3621 Clouds 4 1023 35 10000 2.7 265 09:21 02.02.2020
3622 Clear 5 1023 35 10000 1.5 210 08:56 02.02.2020
3623 Clouds 5 1024 28 10000 2.7 265 08:37 02.02.2020
3624 Clouds 5 1024 28 10000 2.48 264 08:37 02.02.2020
3625 Clouds 5 1024 28 10000 2.95 268 08:18 02.02.2020
3626 Clouds 5 1023 38 10000 1.5 190 07:42 02.02.2020
3627 Clouds 5 1023 38 10000 1.5 190 07:42 02.02.2020
3628 Clouds 5 1024 38 10000 2.6 300 07:24 02.02.2020
3629 Clouds 5 1024 35 10000 1.5 330 06:38 02.02.2020
3630 Clouds 5 1024 35 10000 1.5 330 06:18 02.02.2020
3631 Clouds 4 1025 41 10000 1.5 240 05:20 02.02.2020
3632 Clouds 4 1026 51 10000 1.57 248 04:21 02.02.2020
3633 Haze 1 1026 64 9000 1.57 248 03:24 02.02.2020
3634 Clouds 0 1027 69 10000 0.64 247 02:22 02.02.2020
3635 Clouds -2 1027 100 10000 0.5 330 01:50 02.02.2020
3636 Clear -3 1027 100 10000 0.5 170 00:51 02.02.2020
3637 Mist -4 1028 100 1600 0.5 257 00:29 02.02.2020
3638 Mist -4 1026 92 4800 0.5 257 23:58 01.02.2020
3639 Mist -4 1028 100 1600 0.5 270 23:39 01.02.2020
3640 Mist -4 1028 100 1600 0.5 270 23:21 01.02.2020
3641 Mist -4 1027 100 1600 0.5 60 22:43 01.02.2020
3642 Mist -4 1027 100 1600 1 150 22:19 01.02.2020
3643 Clouds -4 1026 92 10000 0.5 20 21:42 01.02.2020
3644 Mist -4 1025 86 9000 0.51 310 21:19 01.02.2020
3645 Clouds -3 1025 92 10000 0.5 70 20:56 01.02.2020
3646 Clear -3 1025 79 10000 0.51 310 20:37 01.02.2020
3647 Clear -3 1025 79 10000 1.29 263 20:18 01.02.2020
3648 Clear -3 1025 92 10000 0.5 180 19:55 01.02.2020
3649 Clouds -3 1025 49 10000 1.29 263 19:37 01.02.2020
3650 Clouds -3 1025 49 10000 1.29 263 19:37 01.02.2020
3651 Clouds -3 1025 49 10000 1.29 263 19:18 01.02.2020
3652 Clouds -2 1025 92 10000 1.29 263 18:55 01.02.2020
3653 Mist -2 1027 86 2400 1.5 110 18:36 01.02.2020
3654 Mist -2 1027 86 2400 1.5 110 18:18 01.02.2020
3655 Mist -2 1027 92 2800 0.5 100 17:45 01.02.2020
3656 Clouds -1 1025 69 10000 1.7 271 17:21 01.02.2020
3657 Clouds -1 1025 86 10000 1.7 271 16:59 01.02.2020
3658 Clear -1 1025 80 10000 1.7 271 16:39 01.02.2020
3659 Clear -1 1025 80 10000 1.7 271 16:20 01.02.2020
3660 Clouds -1 1025 86 10000 0.5 180 15:45 01.02.2020
3661 Clear 0 1025 43 10000 1.7 271 15:27 01.02.2020
3662 Clear 0 1025 86 10000 1.7 271 14:58 01.02.2020
3663 Mist 1 1024 86 8000 1.7 271 14:39 01.02.2020
3664 Mist 1 1024 86 8000 2.55 315 14:20 01.02.2020
3665 Clear 1 1024 49 10000 2.55 315 13:45 01.02.2020
3666 Mist 2 1024 49 8000 2.55 315 13:21 01.02.2020
3667 Haze 3 1024 40 9000 3.21 309 12:44 01.02.2020
3668 Haze 3 1024 40 9000 3.21 309 12:26 01.02.2020
3669 Haze 3 1026 74 4000 0.5 220 11:57 01.02.2020
3670 Clear 3 1024 69 10000 3.21 309 11:38 01.02.2020
3671 Clear 3 1024 69 10000 3.19 281 11:19 01.02.2020
3672 Clear 4 1024 64 10000 0.5 160 10:55 01.02.2020
3673 Haze 5 1025 60 4800 1 230 10:37 01.02.2020
3674 Haze 5 1025 60 4800 1 230 10:37 01.02.2020
3675 Haze 5 1025 60 4800 1 230 10:19 01.02.2020
3676 Clouds 6 1023 56 10000 3.19 281 09:41 01.02.2020
3677 Clear 6 1023 52 10000 3.19 281 09:41 01.02.2020
3678 Clouds 6 1023 56 10000 3.19 281 09:23 01.02.2020
3679 Clouds 7 1022 48 10000 1.5 200 08:59 01.02.2020
3680 Clouds 7 1022 52 10000 3.19 281 08:36 01.02.2020
3681 Clouds 7 1022 48 10000 1 230 07:46 01.02.2020
3682 Clouds 7 1022 52 10000 4.35 272 07:25 01.02.2020
3683 Clouds 7 1022 52 10000 2.1 290 06:50 01.02.2020
3684 Clouds 6 1023 56 10000 2.1 170 05:55 01.02.2020
3685 Haze 5 1023 56 6000 2.1 190 05:37 01.02.2020
3686 Mist 3 1026 80 3200 0.5 280 03:39 01.02.2020
3687 Mist 3 1026 80 3200 0.5 280 03:18 01.02.2020
3688 Haze 1 1024 69 9000 2.97 262 02:41 01.02.2020
3689 Haze 1 1024 69 9000 2.97 262 02:41 01.02.2020
3690 Haze 1 1024 69 9000 0.77 213 02:21 01.02.2020
3691 Clouds -1 1025 86 10000 0.5 150 01:47 01.02.2020
3692 Clouds -1 1024 86 10000 0.78 218 01:27 01.02.2020
3693 Clouds -2 1024 86 10000 0.78 218 00:24 01.02.2020
3694 Clear -3 1023 92 10000 0.78 218 23:42 31.01.2020
3695 Clear -3 1023 92 10000 1.1 244 23:19 31.01.2020
3696 Clouds -4 1023 92 10000 1 170 22:57 31.01.2020
3697 Clear -3 1023 86 10000 1.1 244 22:38 31.01.2020
3698 Clear -3 1023 86 10000 1.1 244 22:20 31.01.2020
3699 Clouds -3 1023 86 10000 1 180 21:55 31.01.2020
3700 Clear -3 1022 86 10000 1.1 244 21:37 31.01.2020
3701 Clear -3 1022 86 10000 1.1 244 21:18 31.01.2020
3702 Clouds -2 1023 92 10000 1 160 20:54 31.01.2020
3703 Clouds -2 1023 92 10000 1 160 20:54 31.01.2020
3704 Mist -2 1024 92 2000 0.5 270 20:36 31.01.2020
3705 Mist -2 1024 92 2000 0.5 270 20:36 31.01.2020
3706 Clouds -2 1023 86 10000 0.5 170 20:18 31.01.2020
3707 Mist -2 1022 92 9000 1.52 249 19:42 31.01.2020
3708 Mist -2 1022 92 9000 1.52 249 19:24 31.01.2020
3709 Mist -2 1022 92 9000 1.52 249 19:24 31.01.2020
3710 Clear -3 1022 92 10000 1 170 18:58 31.01.2020
3711 Mist -3 1022 92 9000 1.52 249 18:38 31.01.2020
3712 Mist -3 1022 92 9000 1.52 249 18:19 31.01.2020
3713 Clear -2 1022 86 10000 1 160 17:43 31.01.2020
3714 Mist -2 1023 100 2000 0.5 90 17:25 31.01.2020
3715 Clear -1 1022 86 10000 0.5 140 16:57 31.01.2020
3716 Clear -1 1022 74 10000 1.54 219 16:38 31.01.2020
3717 Clear -1 1022 74 10000 1.54 219 16:19 31.01.2020
3718 Clear -1 1022 86 10000 0.5 190 15:57 31.01.2020
3719 Clear -1 1022 86 10000 0.5 190 15:57 31.01.2020
3720 Clear -1 1022 74 10000 1.54 219 15:38 31.01.2020
3721 Clear -1 1022 74 10000 1.54 219 15:19 31.01.2020
3722 Clear 1 1022 74 10000 1.54 219 14:42 31.01.2020
3723 Clear 1 1022 74 10000 1.54 219 14:23 31.01.2020
3724 Clear 2 1022 74 10000 0.5 200 13:53 31.01.2020
3725 Clear 2 1021 74 10000 1.69 243 13:33 31.01.2020
3726 Clear 3 1021 69 10000 0.5 160 12:58 31.01.2020
3727 Clear 3 1021 64 10000 0.5 170 12:39 31.01.2020
3728 Clear 3 1021 64 10000 0.5 170 12:21 31.01.2020
3729 Clear 3 1020 60 10000 1 220 11:44 31.01.2020
3730 Clear 3 1020 69 10000 1.75 242 11:26 31.01.2020
3731 Clouds 4 1020 52 10000 2.1 290 10:59 31.01.2020
3732 Clouds 4 1020 52 10000 2.1 290 10:41 31.01.2020
3733 Haze 5 1020 60 8000 2.1 230 10:21 31.01.2020
3734 Clear 6 1021 60 10000 1.5 210 09:56 31.01.2020
3735 Clear 6 1021 52 10000 3.1 230 09:38 31.01.2020
3736 Clear 6 1021 52 10000 3.1 230 09:18 31.01.2020
3737 Clouds 7 1018 48 10000 1.5 220 08:49 31.01.2020
3738 Haze 7 1019 52 9000 2.6 170 08:24 31.01.2020
3739 Clouds 7 1018 49 10000 2.1 190 07:52 31.01.2020
3740 Haze 7 1018 56 9000 2.1 170 07:24 31.01.2020
3741 Clouds 7 1018 49 10000 3.1 180 06:42 31.01.2020
3742 Clouds 7 1018 52 10000 1.5 210 05:58 31.01.2020
3743 Haze 7 1019 57 8000 1.5 170 05:37 31.01.2020
3744 Haze 7 1020 60 6000 0.5 290 04:47 31.01.2020
3745 Clouds 4 1020 64 10000 1 340 02:55 31.01.2020
3746 Clouds 2 1019 69 10000 1.13 212 01:32 31.01.2020
3747 Clouds 0 1019 80 10000 0.5 190 00:42 31.01.2020
3748 Clouds 1 1018 80 10000 1.13 212 00:23 31.01.2020
3749 Clouds 0 1018 80 10000 0.5 140 23:44 30.01.2020
3750 Clouds 1 1018 74 10000 1.13 212 23:23 30.01.2020
3751 Clouds 1 1017 74 10000 0.66 138 22:40 30.01.2020
3752 Clouds 1 1017 74 10000 0.66 138 22:21 30.01.2020
3753 Clouds 1 1017 74 10000 0.66 138 22:21 30.01.2020
3754 Clouds 1 1019 71 10000 1 10 21:59 30.01.2020
3755 Clouds 1 1018 74 10000 1 30 21:40 30.01.2020
3756 Clouds 1 1018 74 10000 1 30 21:19 30.01.2020
3757 Clouds 1 1017 74 10000 1 30 20:57 30.01.2020
3758 Clouds 1 1019 71 10000 2.1 20 20:38 30.01.2020
3759 Clouds 1 1017 74 10000 1 30 20:20 30.01.2020
3760 Clouds 1 1017 74 10000 1 20 19:44 30.01.2020
3761 Clouds 1 1017 74 10000 1 20 19:19 30.01.2020
3762 Clouds 1 1017 74 10000 1 30 18:59 30.01.2020
3763 Clouds 1 1017 74 10000 0.55 107 18:37 30.01.2020
3764 Clouds 1 1017 74 10000 0.55 107 18:18 30.01.2020
3765 Clouds 2 1016 80 10000 0.55 107 17:42 30.01.2020
3766 Clouds 2 1016 80 10000 0.28 31 17:20 30.01.2020
3767 Clouds 2 1017 69 10000 1 20 16:59 30.01.2020
3768 Clear 2 1017 74 10000 0.28 31 16:40 30.01.2020
3769 Clear 2 1017 74 10000 0.28 31 16:21 30.01.2020
3770 Clouds 2 1017 74 10000 0.5 10 15:45 30.01.2020
3771 Clouds 3 1016 65 10000 0.28 31 15:21 30.01.2020
3772 Clouds 3 1017 74 10000 1 30 14:58 30.01.2020
3773 Clouds 3 1017 74 10000 1 30 14:39 30.01.2020
3774 Clouds 3 1017 74 10000 1 30 14:20 30.01.2020
3775 Clouds 4 1016 74 10000 0.5 10 13:41 30.01.2020
3776 Clouds 4 1016 64 10000 1.77 312 13:23 30.01.2020
3777 Clouds 5 1016 64 10000 1 30 12:55 30.01.2020
3778 Clear 5 1015 60 10000 1.77 312 12:37 30.01.2020
3779 Clouds 6 1015 65 10000 1.5 340 12:19 30.01.2020
3780 Clouds 6 1015 65 10000 1.5 340 11:41 30.01.2020
3781 Clouds 6 1015 45 10000 1.5 260 11:22 30.01.2020
3782 Clouds 7 1015 52 10000 1 340 10:58 30.01.2020
3783 Clouds 7 1014 45 10000 1.5 310 10:39 30.01.2020
3784 Clouds 7 1014 45 10000 1.5 310 10:20 30.01.2020
3785 Clouds 8 1014 45 10000 0.5 30 09:45 30.01.2020
3786 Clouds 8 1013 39 10000 1.5 20 09:24 30.01.2020
3787 Clouds 9 1013 39 10000 2.79 313 08:42 30.01.2020
3788 Clouds 9 1013 39 10000 2.79 313 08:22 30.01.2020
3789 Clouds 9 1013 39 10000 1.5 20 07:57 30.01.2020
3790 Clouds 9 1013 39 10000 2.1 300 07:39 30.01.2020
3791 Clouds 9 1013 39 10000 2.1 300 07:39 30.01.2020
3792 Clouds 9 1013 42 10000 1 30 06:57 30.01.2020
3793 Clouds 9 1013 39 10000 1.42 322 06:36 30.01.2020
3794 Clouds 9 1013 42 10000 1.5 360 05:59 30.01.2020
3795 Clouds 9 1014 37 10000 1.42 322 05:28 30.01.2020
3796 Clear 9 1014 45 10000 2.1 330 04:49 30.01.2020
3797 Clear 7 1015 48 10000 2.1 340 03:47 30.01.2020
3798 Clear 5 1015 60 10000 1.5 340 02:55 30.01.2020
3799 Clouds -1 1015 86 10000 1 40 00:57 30.01.2020
3800 Clear -1 1014 80 10000 0.71 75 00:27 30.01.2020
3801 Clouds -2 1015 86 10000 0.5 30 23:55 29.01.2020
3802 Clouds -2 1014 80 10000 0.71 75 23:37 29.01.2020
3803 Clouds -2 1014 80 10000 0.81 65 23:19 29.01.2020
3804 Clouds -1 1014 86 10000 0.5 210 22:54 29.01.2020
3805 Clouds -1 1014 86 10000 0.5 20 22:36 29.01.2020
3806 Clouds -1 1014 86 10000 0.5 20 22:18 29.01.2020
3807 Clouds -1 1014 86 10000 1.5 30 21:54 29.01.2020
3808 Clouds -1 1014 86 10000 1.5 30 21:36 29.01.2020
3809 Clouds -1 1014 86 10000 1.5 30 21:18 29.01.2020
3810 Clouds 0 1016 62 10000 2.6 50 20:40 29.01.2020
3811 Clouds 0 1016 62 10000 2.6 50 20:21 29.01.2020
3812 Clouds 0 1016 62 10000 2.6 50 20:21 29.01.2020
3813 Clear 0 1016 62 10000 0.5 200 19:57 29.01.2020
3814 Clouds 1 1014 69 10000 1.24 70 19:38 29.01.2020
3815 Clouds 1 1014 69 10000 1.24 70 19:20 29.01.2020
3816 Clouds 1 1015 62 10000 1.5 10 18:55 29.01.2020
3817 Clouds 1 1015 64 10000 1.24 70 18:37 29.01.2020
3818 Clouds 1 1015 64 10000 1.24 70 18:18 29.01.2020
3819 Clouds 2 1015 59 10000 1.24 70 17:40 29.01.2020
3820 Clouds 2 1015 59 10000 1.4 53 17:22 29.01.2020
3821 Clouds 2 1015 59 10000 1.4 53 16:43 29.01.2020
3822 Clouds 2 1015 59 10000 1.4 53 16:23 29.01.2020
3823 Clouds 3 1015 64 10000 1 20 15:59 29.01.2020
3824 Clear 3 1015 52 10000 1.4 53 15:38 29.01.2020
3825 Clear 3 1015 52 10000 1.4 53 15:20 29.01.2020
3826 Clouds 4 1015 55 10000 1 360 14:45 29.01.2020
3827 Clouds 4 1015 48 10000 1.77 51 14:22 29.01.2020
3828 Clouds 4 1015 59 10000 1 20 13:56 29.01.2020
3829 Clouds 5 1015 45 10000 2.1 40 13:38 29.01.2020
3830 Clouds 5 1015 45 10000 2.1 40 13:19 29.01.2020
3831 Clouds 6 1015 52 10000 0.5 10 12:56 29.01.2020
3832 Clouds 6 1014 45 10000 1.42 30 12:37 29.01.2020
3833 Clouds 6 1014 45 10000 1.42 30 12:19 29.01.2020
3834 Clouds 6 1015 56 10000 1 20 11:45 29.01.2020
3835 Clouds 7 1014 42 10000 1.45 348 11:21 29.01.2020
3836 Clouds 6 1014 48 10000 1 30 10:47 29.01.2020
3837 Clouds 8 1014 42 10000 1.45 348 10:26 29.01.2020
3838 Clouds 8 1014 42 10000 1.45 348 10:26 29.01.2020
3839 Clouds 9 1014 45 10000 1.5 210 09:58 29.01.2020
3840 Clouds 9 1014 45 10000 1.5 210 09:40 29.01.2020
3841 Clouds 9 1014 45 10000 1.5 210 09:20 29.01.2020
3842 Clouds 9 1014 36 10000 1.5 20 08:56 29.01.2020
3843 Clouds 9 1014 43 10000 1.45 348 08:37 29.01.2020
3844 Clouds 9 1014 43 10000 1.86 357 08:18 29.01.2020
3845 Clouds 10 1014 43 10000 2.1 220 07:43 29.01.2020
3846 Clouds 10 1014 43 10000 2.1 220 07:21 29.01.2020
3847 Clouds 9 1014 43 10000 1.86 357 06:38 29.01.2020
3848 Clouds 9 1014 43 10000 1.86 357 06:19 29.01.2020
3849 Clear 9 1014 42 10000 2.6 330 05:52 29.01.2020
3850 Clouds 9 1015 45 10000 1.5 120 05:33 29.01.2020
3851 Clouds 8 1016 49 10000 1.9 32 04:39 29.01.2020
3852 Clouds 7 1016 49 10000 1.5 20 03:59 29.01.2020
3853 Haze 2 1019 80 4800 0.5 120 02:38 29.01.2020
3854 Clouds 2 1017 66 10000 1.18 41 01:18 29.01.2020
3855 Clouds 2 1017 66 10000 1.18 41 01:18 29.01.2020
3856 Clouds 1 1017 80 10000 1.18 41 00:39 29.01.2020
3857 Clouds 1 1017 80 10000 1.18 41 00:20 29.01.2020
3858 Clouds 0 1017 74 10000 1.18 41 23:40 28.01.2020
3859 Clouds 0 1017 74 10000 1.3 34 23:20 28.01.2020
3860 Clouds 0 1017 71 10000 1 330 22:51 28.01.2020
3861 Clouds 0 1017 74 10000 1.3 34 22:27 28.01.2020
3862 Clouds 0 1017 92 10000 1 20 21:57 28.01.2020
3863 Clouds 0 1017 71 10000 1.3 34 21:38 28.01.2020
3864 Clouds 0 1017 71 10000 1.3 34 21:19 28.01.2020
3865 Clear 1 1018 100 10000 0.5 100 20:46 28.01.2020
3866 Clear 1 1017 74 10000 1.88 29 20:26 28.01.2020
3867 Clouds 1 1019 74 10000 2.6 50 19:55 28.01.2020
3868 Clear 1 1018 69 10000 2.07 30 19:37 28.01.2020
3869 Clear 1 1018 69 10000 2.07 30 19:19 28.01.2020
3870 Clear 1 1019 92 10000 0.5 350 18:42 28.01.2020
3871 Clear 1 1018 69 10000 2.07 30 18:23 28.01.2020
3872 Clear 2 1018 74 10000 0.5 170 17:59 28.01.2020
3873 Clear 2 1018 69 10000 2.07 30 17:40 28.01.2020
3874 Clear 2 1018 69 10000 2.41 49 17:21 28.01.2020
3875 Clear 2 1019 69 10000 1 350 16:59 28.01.2020
3876 Clear 2 1019 69 10000 1 350 16:59 28.01.2020
3877 Clear 3 1018 56 10000 2.41 49 16:40 28.01.2020
3878 Clear 3 1018 56 10000 2.41 49 16:22 28.01.2020
3879 Clear 4 1020 69 10000 2.1 40 15:48 28.01.2020
3880 Clear 4 1018 52 10000 2.41 49 15:19 28.01.2020
3881 Clear 5 1020 60 10000 2.6 50 14:59 28.01.2020
3882 Clear 5 1018 48 10000 1.5 50 14:41 28.01.2020
3883 Clear 5 1018 48 10000 1.5 50 14:18 28.01.2020
3884 Clouds 6 1018 49 10000 2.1 50 13:41 28.01.2020
3885 Clouds 6 1018 49 10000 2.1 50 13:23 28.01.2020
3886 Clouds 8 1018 45 10000 1.5 40 12:44 28.01.2020
3887 Clouds 8 1018 45 10000 1.5 40 12:24 28.01.2020
3888 Clouds 8 1020 52 10000 3.1 50 11:58 28.01.2020
3889 Clouds 8 1018 45 10000 2.6 40 11:39 28.01.2020
3890 Clouds 8 1018 45 10000 2.6 40 11:20 28.01.2020
3891 Clouds 9 1018 51 10000 3.1 10 10:42 28.01.2020
3892 Clouds 9 1017 46 10000 1.5 70 10:24 28.01.2020
3893 Clouds 9 1019 52 10000 3.1 40 09:58 28.01.2020
3894 Clouds 10 1017 43 10000 2.6 20 09:38 28.01.2020
3895 Clouds 10 1017 43 10000 2.6 20 09:19 28.01.2020
3896 Clouds 10 1016 46 10000 4.1 62 08:43 28.01.2020
3897 Clouds 10 1016 46 10000 3.72 61 08:22 28.01.2020
3898 Clouds 10 1017 43 10000 3.72 61 07:40 28.01.2020
3899 Clouds 10 1019 43 10000 3.1 40 06:58 28.01.2020
3900 Clouds 10 1017 46 10000 3.72 61 06:40 28.01.2020
3901 Clouds 10 1017 46 10000 3.72 61 06:22 28.01.2020
3902 Clouds 9 1017 46 10000 3.72 61 05:34 28.01.2020
3903 Clouds 9 1018 49 10000 1.5 130 04:40 28.01.2020
3904 Clouds 8 1018 49 10000 2.6 40 03:41 28.01.2020
3905 Clouds 8 1019 52 10000 2.1 30 02:40 28.01.2020
3906 Clouds 7 1018 66 10000 2.1 20 02:21 28.01.2020
3907 Clouds 7 1020 52 10000 2.1 30 01:48 28.01.2020
3908 Clouds 5 1020 56 10000 2.1 20 00:51 28.01.2020
3909 Clouds 5 1018 65 10000 2.66 7 00:30 28.01.2020
3910 Clouds 5 1020 56 10000 2.6 30 23:53 27.01.2020
3911 Clouds 5 1018 65 10000 1.5 30 23:31 27.01.2020
3912 Clouds 5 1018 65 10000 1.5 30 23:31 27.01.2020
3913 Clouds 5 1020 60 10000 2.1 10 22:59 27.01.2020
3914 Clouds 5 1018 68 10000 0.5 340 22:41 27.01.2020
3915 Clouds 5 1018 68 10000 2.6 40 22:20 27.01.2020
3916 Clouds 5 1020 60 10000 3.6 10 21:57 27.01.2020
3917 Clouds 5 1018 68 10000 2.44 1 21:38 27.01.2020
3918 Clouds 5 1018 68 10000 2.44 1 21:18 27.01.2020
3919 Clouds 5 1018 68 10000 2.44 1 21:18 27.01.2020
3920 Clouds 5 1020 60 10000 3.1 10 20:55 27.01.2020
3921 Clouds 5 1018 70 10000 2.44 1 20:37 27.01.2020
3922 Clouds 5 1018 70 10000 3.81 17 20:18 27.01.2020
3923 Clouds 5 1018 75 10000 3.81 17 19:41 27.01.2020
3924 Clouds 5 1018 75 10000 3.81 17 19:23 27.01.2020
3925 Clouds 5 1020 60 10000 1 30 18:56 27.01.2020
3926 Clouds 5 1019 75 10000 3.81 17 18:38 27.01.2020
3927 Clouds 5 1019 75 10000 3.81 17 18:20 27.01.2020
3928 Clouds 5 1021 65 10000 3.1 20 17:40 27.01.2020
3929 Rain 4 1021 70 10000 3.1 20 17:21 27.01.2020
3930 Rain 4 1021 70 10000 3.1 20 16:59 27.01.2020
3931 Rain 5 1019 75 10000 4.03 19 16:41 27.01.2020
3932 Rain 5 1019 75 10000 4.03 19 16:23 27.01.2020
3933 Clouds 5 1019 75 10000 4.03 19 15:55 27.01.2020
3934 Rain 5 1019 70 10000 4.03 19 15:37 27.01.2020
3935 Rain 5 1019 70 10000 4.03 19 15:37 27.01.2020
3936 Rain 5 1020 75 10000 4.6 20 15:18 27.01.2020
3937 Rain 5 1020 70 8000 3.1 40 14:42 27.01.2020
3938 Rain 5 1020 70 8000 3.1 40 14:22 27.01.2020
3939 Rain 5 1020 86 10000 1.5 330 13:58 27.01.2020
3940 Rain 5 1020 70 10000 3.93 23 13:39 27.01.2020
3941 Rain 5 1020 70 10000 3.78 16 13:19 27.01.2020
3942 Rain 5 1021 80 10000 5.1 40 12:45 27.01.2020
3943 Rain 5 1020 70 10000 2.1 40 12:23 27.01.2020
3944 Rain 5 1021 52 10000 1.5 40 11:58 27.01.2020
3945 Rain 6 1019 56 10000 3.1 30 11:40 27.01.2020
3946 Rain 6 1019 56 10000 3.1 30 11:20 27.01.2020
3947 Rain 6 1019 56 10000 3.6 30 10:43 27.01.2020
3948 Rain 6 1019 56 10000 2.1 40 10:24 27.01.2020
3949 Clouds 6 1021 45 10000 2.1 30 09:54 27.01.2020
3950 Rain 7 1019 60 9000 3.1 60 09:36 27.01.2020
3951 Rain 7 1019 60 9000 3.1 60 09:18 27.01.2020
3952 Clouds 7 1019 48 10000 3.1 30 08:42 27.01.2020
3953 Clouds 7 1018 42 10000 4.6 40 08:20 27.01.2020
3954 Clouds 8 1019 52 10000 2.6 310 07:53 27.01.2020
3955 Clouds 8 1018 42 10000 1.5 50 07:33 27.01.2020
3956 Clear 8 1021 42 10000 3.6 50 06:51 27.01.2020
3957 Clear 8 1021 39 10000 6.2 40 05:59 27.01.2020
3958 Clouds 8 1019 45 10000 3.1 40 05:18 27.01.2020
3959 Clouds 7 1022 45 10000 2.6 60 03:37 27.01.2020
3960 Clouds 7 1022 48 10000 3.6 50 02:27 27.01.2020
3961 Clouds 6 1022 52 10000 2.6 30 01:28 27.01.2020
3962 Clouds 6 1022 52 10000 5.1 50 00:42 27.01.2020
3963 Clouds 5 1022 48 10000 2.1 40 00:22 27.01.2020
3964 Clouds 5 1024 48 10000 2.6 50 23:58 26.01.2020
3965 Clouds 5 1022 48 10000 2.1 60 23:39 26.01.2020
3966 Clouds 5 1022 48 10000 2.1 60 23:18 26.01.2020
3967 Clouds 5 1022 52 10000 2.6 50 22:39 26.01.2020
3968 Clouds 5 1022 52 10000 2.6 50 22:20 26.01.2020
3969 Clouds 5 1025 55 10000 3.6 50 21:58 26.01.2020
3970 Clouds 5 1022 52 10000 2.6 50 21:39 26.01.2020
3971 Clouds 5 1022 52 10000 2.6 50 21:21 26.01.2020
3972 Clouds 5 1025 55 10000 2.1 30 20:58 26.01.2020
3973 Clouds 5 1023 52 10000 4.79 52 20:38 26.01.2020
3974 Clouds 5 1023 52 10000 4.27 74 20:19 26.01.2020
3975 Clouds 6 1026 48 10000 2.1 350 19:58 26.01.2020
3976 Clouds 6 1024 52 10000 3.1 50 19:38 26.01.2020
3977 Clouds 6 1024 52 10000 3.1 50 19:20 26.01.2020
3978 Clouds 6 1027 60 10000 1 40 18:56 26.01.2020
3979 Clouds 6 1024 48 10000 2.1 50 18:38 26.01.2020
3980 Clouds 6 1024 48 10000 2.1 50 18:20 26.01.2020
3981 Clouds 6 1027 48 10000 1 40 17:55 26.01.2020
3982 Clouds 7 1025 52 10000 2.6 40 17:36 26.01.2020
3983 Clouds 7 1025 52 10000 2.6 40 17:18 26.01.2020
3984 Clouds 7 1027 48 10000 2.6 50 16:56 26.01.2020
3985 Clouds 7 1027 48 10000 2.6 50 16:56 26.01.2020
3986 Clouds 7 1025 52 10000 1.5 80 16:37 26.01.2020
3987 Clouds 7 1025 52 10000 1.5 80 16:18 26.01.2020
3988 Clouds 5 1026 57 0 5.38 66 15:43 26.01.2020
3989 Clouds 5 1026 57 0 5.38 66 15:21 26.01.2020
3990 Clouds 5 1026 57 0 5.38 66 14:56 26.01.2020
3991 Clouds 5 1026 57 0 5.38 66 14:38 26.01.2020
3992 Clouds 6 1027 56 0 5.99 68 14:19 26.01.2020
3993 Clouds 6 1027 56 0 5.99 68 13:39 26.01.2020
3994 Clouds 6 1027 56 0 5.99 68 13:18 26.01.2020
3995 Clouds 6 1027 58 0 5.77 77 12:54 26.01.2020
3996 Clouds 6 1027 58 0 5.77 77 12:36 26.01.2020
3997 Clouds 6 1027 58 0 5.77 77 12:18 26.01.2020
3998 Clouds 6 1027 58 0 5.77 77 11:56 26.01.2020
3999 Clouds 9 1028 42 10000 1.5 70 11:36 26.01.2020
4000 Clouds 9 1026 43 10000 2.1 40 11:18 26.01.2020
4001 Clouds 9 1026 43 10000 2.1 40 10:39 26.01.2020
4002 Clouds 9 1026 43 10000 2.1 40 10:21 26.01.2020
4003 Clear 10 1028 42 10000 1.5 70 09:59 26.01.2020
4004 Clouds 11 1025 43 10000 2.1 40 09:41 26.01.2020
4005 Clouds 11 1025 43 10000 2.1 40 09:22 26.01.2020
4006 Clouds 11 1025 43 10000 3.6 40 08:45 26.01.2020
4007 Clouds 11 1025 40 10000 1.5 100 08:24 26.01.2020
4008 Clear 11 1027 40 10000 2.1 40 07:59 26.01.2020
4009 Clear 11 1026 43 10000 2.6 60 07:41 26.01.2020
4010 Clear 11 1025 40 10000 3.1 50 07:22 26.01.2020
4011 Clear 11 1025 43 10000 2.1 100 06:32 26.01.2020
4012 Clear 10 1027 46 10000 2.1 120 05:35 26.01.2020
4013 Clear 8 1029 45 10000 0.5 340 04:52 26.01.2020
4014 Clear 3 1030 69 10000 2.1 60 02:59 26.01.2020
4015 Haze -1 1031 78 9000 2.6 30 01:57 26.01.2020
4016 Mist -1 1029 100 6000 1.31 48 01:37 26.01.2020
4017 Mist -1 1029 100 6000 1.35 38 01:18 26.01.2020
4018 Mist -3 1028 100 6000 1.35 38 00:38 26.01.2020
4019 Mist -3 1028 100 6000 1.35 38 00:20 26.01.2020
4020 Clouds 2 1030 78 0 1.35 38 23:37 25.01.2020
4021 Clouds 2 1028 82 0 1.29 21 23:18 25.01.2020
4022 Clouds 2 1028 82 0 1.29 21 23:18 25.01.2020
4023 Clouds 2 1028 82 0 1.29 21 22:41 25.01.2020
4024 Clouds 2 1028 82 0 1.29 21 22:19 25.01.2020
4025 Clouds 2 1028 82 0 1.29 21 21:57 25.01.2020
4026 Clouds 2 1028 82 0 1.29 21 21:39 25.01.2020
4027 Clouds 2 1028 82 0 1.29 21 21:20 25.01.2020
4028 Clouds 2 1028 82 0 1.29 21 20:44 25.01.2020
4029 Clouds 2 1028 82 0 1.29 21 20:25 25.01.2020
4030 Clouds 3 1029 72 0 1.15 344 19:56 25.01.2020
4031 Clouds 3 1029 72 0 1.15 344 19:37 25.01.2020
4032 Clouds 3 1029 80 0 1.18 10 19:18 25.01.2020
4033 Clouds 3 1029 72 0 1.15 344 18:43 25.01.2020
4034 Clouds 3 1029 72 0 1.15 344 18:22 25.01.2020
4035 Clouds 3 1029 72 0 1.15 344 17:58 25.01.2020
4036 Clouds 3 1029 72 0 1.15 344 17:38 25.01.2020
4037 Clouds 4 1030 73 0 0.8 324 17:19 25.01.2020
4038 Clouds 4 1030 73 0 0.8 324 16:43 25.01.2020
4039 Clouds 4 1030 73 0 0.8 324 16:23 25.01.2020
4040 Clouds 4 1030 73 0 0.8 324 15:58 25.01.2020
4041 Clouds 4 1030 73 0 0.8 324 15:58 25.01.2020
4042 Clouds 4 1030 73 0 0.8 324 15:40 25.01.2020
4043 Clouds 4 1030 73 0 0.8 324 15:21 25.01.2020
4044 Clouds 4 1030 73 0 0.8 324 14:43 25.01.2020
4045 Clouds 5 1030 69 0 1.08 310 14:19 25.01.2020
4046 Clouds 5 1030 69 0 1.08 310 13:54 25.01.2020
4047 Clouds 5 1029 69 0 1.01 306 13:36 25.01.2020
4048 Clouds 5 1029 69 0 1.01 306 13:18 25.01.2020
4049 Clear 3 1028 69 10000 0.5 30 12:39 25.01.2020
4050 Clear 4 1028 69 10000 0.5 30 12:20 25.01.2020
4051 Clear 4 1028 70 10000 1.01 306 11:40 25.01.2020
4052 Clear 4 1028 70 10000 1.78 319 11:20 25.01.2020
4053 Clear 5 1028 60 10000 1.78 319 10:56 25.01.2020
4054 Clouds 5 1028 70 10000 1.78 319 10:38 25.01.2020
4055 Clouds 5 1028 70 10000 1.78 319 10:18 25.01.2020
4056 Haze 8 1027 61 9000 1.78 319 09:40 25.01.2020
4057 Haze 8 1027 61 9000 1.78 319 09:19 25.01.2020
4058 Clear 9 1027 60 10000 0.5 210 08:43 25.01.2020
4059 Clear 9 1027 57 10000 1.5 180 07:58 25.01.2020
4060 Haze 9 1027 55 8000 1.5 240 07:36 25.01.2020
4061 Haze 9 1027 55 8000 1.5 240 07:36 25.01.2020
4062 Clouds 8 1028 57 10000 1 270 06:41 25.01.2020
4063 Haze 8 1028 57 8000 0.64 319 06:22 25.01.2020
4064 Clouds 8 1029 57 10000 0.64 319 05:43 25.01.2020
4065 Clear 7 1029 61 10000 0.44 65 04:19 25.01.2020
4066 Clouds 6 1029 60 10000 1.5 20 03:49 25.01.2020
4067 Haze 3 1030 65 9000 0.44 65 02:37 25.01.2020
4068 Clouds 1 1030 80 10000 1.5 10 01:57 25.01.2020
4069 Haze 0 1030 80 6000 0.79 104 01:23 25.01.2020
4070 Mist -1 1030 75 4800 0.79 104 00:39 25.01.2020
4071 Mist -1 1030 75 4800 0.79 104 00:18 25.01.2020
4072 Mist -1 1030 86 6000 0.79 104 23:42 24.01.2020
4073 Mist -1 1030 86 6000 0.79 104 23:23 24.01.2020
4074 Mist -1 1030 86 6000 1.08 32 22:46 24.01.2020
4075 Mist -1 1030 78 6000 1.08 32 22:28 24.01.2020
4076 Clouds -2 1030 92 6000 0.5 170 21:58 24.01.2020
4077 Mist -1 1029 86 6000 1.08 32 21:40 24.01.2020
4078 Mist -1 1029 86 6000 1.08 32 21:18 24.01.2020
4079 Clear -1 1030 92 6000 1.5 30 20:43 24.01.2020
4080 Mist -2 1030 76 6000 1.13 61 20:22 24.01.2020
4081 Clouds -2 1031 92 6000 0.5 360 19:58 24.01.2020
4082 Mist -2 1030 86 6000 1.13 61 19:39 24.01.2020
4083 Mist -2 1030 86 6000 1.13 61 19:21 24.01.2020
4084 Clouds -2 1031 86 4800 1.13 61 18:44 24.01.2020
4085 Mist -2 1030 86 8000 1.13 61 18:25 24.01.2020
4086 Clear -1 1031 86 4800 0.5 170 17:56 24.01.2020
4087 Clear -1 1031 86 4800 0.5 170 17:56 24.01.2020
4088 Mist -1 1030 86 8000 1.13 61 17:38 24.01.2020
4089 Mist -1 1030 86 8000 0.91 23 17:20 24.01.2020
4090 Haze -1 1030 80 8000 0.91 23 16:39 24.01.2020
4091 Haze -1 1030 80 8000 0.91 23 16:21 24.01.2020
4092 Clouds -1 1031 86 4800 0.5 170 15:55 24.01.2020
4093 Haze 0 1030 65 8000 0.91 23 15:37 24.01.2020
4094 Haze 0 1030 65 8000 0.91 23 15:18 24.01.2020
4095 Haze 0 1030 65 8000 0.91 23 14:41 24.01.2020
4096 Haze 0 1030 65 8000 0.91 23 14:22 24.01.2020
4097 Haze 1 1031 56 6000 0.5 90 13:44 24.01.2020
4098 Haze 1 1030 69 8000 1.13 23 13:24 24.01.2020
4099 Haze 2 1030 74 6000 0.99 19 12:45 24.01.2020
4100 Haze 2 1030 64 9000 0.99 19 12:23 24.01.2020
4101 Haze 3 1030 69 6000 0.5 200 11:58 24.01.2020
4102 Haze 3 1030 60 9000 1.5 280 11:39 24.01.2020
4103 Haze 3 1030 60 9000 1.5 280 11:18 24.01.2020
4104 Haze 4 1029 60 8000 1.14 322 10:42 24.01.2020
4105 Haze 4 1029 60 8000 1.14 322 10:21 24.01.2020
4106 Haze 6 1029 48 8000 0.5 140 09:55 24.01.2020
4107 Haze 7 1029 60 6000 1.5 270 09:37 24.01.2020
4108 Haze 7 1029 60 6000 1.5 270 09:18 24.01.2020
4109 Haze 8 1029 56 6000 2.1 260 08:39 24.01.2020
4110 Haze 8 1029 56 6000 2.1 260 08:39 24.01.2020
4111 Haze 8 1029 56 6000 2.1 260 08:19 24.01.2020
4112 Clear 9 1028 31 10000 0.5 260 07:47 24.01.2020
4113 Haze 9 1029 56 6000 1.5 240 07:22 24.01.2020
4114 Haze 9 1029 56 6000 1.5 240 07:22 24.01.2020
4115 Clouds 8 1028 36 10000 1 280 06:43 24.01.2020
4116 Haze 8 1029 52 6000 0.99 333 06:23 24.01.2020
4117 Haze 7 1030 52 6000 1.5 270 05:22 24.01.2020
4118 Haze 3 1031 65 8000 2.1 220 03:34 24.01.2020
4119 Haze 1 1031 69 9000 1.55 350 02:40 24.01.2020
4120 Haze 1 1031 69 9000 1.71 353 02:20 24.01.2020
4121 Mist -1 1031 92 6000 1.71 353 01:38 24.01.2020
4122 Mist -3 1030 92 3000 1.68 358 00:42 24.01.2020
4123 Mist -3 1030 92 3000 1.68 358 00:19 24.01.2020
4124 Mist -3 1030 86 6000 1.68 358 23:41 23.01.2020
4125 Mist -3 1030 86 6000 1.25 327 23:21 23.01.2020
4126 Mist -3 1030 100 3200 0.5 60 22:58 23.01.2020
4127 Mist -2 1029 83 6000 1.25 327 22:37 23.01.2020
4128 Mist -2 1029 83 6000 1.25 327 22:37 23.01.2020
4129 Mist -2 1029 83 6000 1.25 327 22:18 23.01.2020
4130 Mist -2 1029 100 4000 0.5 20 21:55 23.01.2020
4131 Mist -2 1029 86 6000 1.25 327 21:37 23.01.2020
4132 Mist -2 1029 86 6000 1.25 327 21:18 23.01.2020
4133 Mist -2 1028 83 6000 1.25 327 20:41 23.01.2020
4134 Mist -2 1028 100 4000 0.5 350 20:22 23.01.2020
4135 Mist -1 1028 92 4000 0.5 360 19:57 23.01.2020
4136 Haze -1 1028 76 6000 1.08 284 19:39 23.01.2020
4137 Haze -1 1028 76 6000 1.08 284 19:21 23.01.2020
4138 Clear -1 1028 92 4800 0.5 360 18:56 23.01.2020
4139 Haze 0 1027 74 8000 1.08 284 18:37 23.01.2020
4140 Haze 0 1027 74 8000 1.08 284 18:19 23.01.2020
4141 Mist 0 1029 92 2800 0.5 130 18:19 23.01.2020
4142 Clear 0 1027 92 4800 0.5 50 17:44 23.01.2020
4143 Mist 0 1029 92 3200 0.5 170 17:21 23.01.2020
4144 Mist 0 1027 92 4000 0.5 350 16:58 23.01.2020
4145 Haze 1 1027 74 8000 1.39 300 16:38 23.01.2020
4146 Haze 1 1027 74 8000 1.39 300 16:19 23.01.2020
4147 Clear 1 1026 86 4800 0.5 100 15:57 23.01.2020
4148 Haze 1 1026 69 8000 1.39 300 15:38 23.01.2020
4149 Haze 1 1026 69 8000 1.39 300 15:38 23.01.2020
4150 Haze 1 1026 69 8000 1.39 300 15:38 23.01.2020
4151 Haze 1 1026 69 8000 1.39 300 15:19 23.01.2020
4152 Haze 2 1026 86 4800 0.5 170 14:57 23.01.2020
4153 Haze 2 1026 69 9000 1.39 300 14:39 23.01.2020
4154 Haze 2 1026 69 9000 1.52 290 14:21 23.01.2020
4155 Haze 2 1026 64 4800 0.5 170 13:46 23.01.2020
4156 Clear 3 1026 74 10000 1.52 290 13:21 23.01.2020
4157 Haze 4 1026 74 6000 1.6 286 12:56 23.01.2020
4158 Haze 4 1026 74 6000 1.41 298 12:56 23.01.2020
4159 Clear 4 1025 60 10000 1.6 286 12:38 23.01.2020
4160 Clear 4 1025 60 10000 1.6 286 12:20 23.01.2020
4161 Haze 4 1024 64 8000 1 160 11:43 23.01.2020
4162 Clear 5 1024 56 10000 1.5 290 11:25 23.01.2020
4163 Haze 5 1024 60 8000 0.5 170 10:58 23.01.2020
4164 Clear 6 1024 52 10000 2.94 303 10:40 23.01.2020
4165 Clear 6 1024 52 10000 2.94 303 10:19 23.01.2020
4166 Haze 8 1023 45 8000 2.94 303 09:41 23.01.2020
4167 Haze 8 1023 45 8000 3.07 298 09:22 23.01.2020
4168 Clear 9 1022 34 10000 2.1 330 08:56 23.01.2020
4169 Haze 10 1023 45 8000 3.07 298 08:38 23.01.2020
4170 Haze 10 1023 45 8000 2.37 321 08:18 23.01.2020
4171 Haze 10 1022 45 8000 2.1 270 07:37 23.01.2020
4172 Haze 10 1022 45 8000 2.1 270 07:18 23.01.2020
4173 Haze 10 1021 34 9000 1.5 210 06:44 23.01.2020
4174 Haze 10 1022 39 8000 2.37 321 06:18 23.01.2020
4175 Haze 7 1023 45 8000 1.5 190 04:25 23.01.2020
4176 Clear 6 1024 48 10000 1.81 339 03:23 23.01.2020
4177 Clear 0 1024 74 10000 1 20 01:53 23.01.2020
4178 Clear -2 1024 74 10000 1.5 20 00:44 23.01.2020
4179 Haze -2 1023 74 8000 0.99 327 00:22 23.01.2020
4180 Clear -2 1023 74 10000 1.5 10 23:46 22.01.2020
4181 Clear -2 1022 74 10000 0.99 327 23:28 22.01.2020
4182 Clouds -1 1022 79 10000 2.1 360 22:43 22.01.2020
4183 Clouds -1 1022 74 10000 1.31 6 22:25 22.01.2020
4184 Clouds -1 1022 68 10000 2.1 20 21:58 22.01.2020
4185 Clouds 0 1022 43 10000 1.31 6 21:36 22.01.2020
4186 Clouds 0 1022 43 10000 1.31 6 21:36 22.01.2020
4187 Clouds 0 1023 74 10000 1.5 20 21:18 22.01.2020
4188 Clouds 0 1023 74 10000 1.5 20 20:42 22.01.2020
4189 Clouds 0 1023 43 10000 1.31 6 20:42 22.01.2020
4190 Clouds 0 1023 44 10000 1.28 11 20:23 22.01.2020
4191 Clouds 0 1023 41 10000 2.6 360 19:59 22.01.2020
4192 Clouds 0 1023 41 10000 2.6 360 19:41 22.01.2020
4193 Clouds 0 1022 69 10000 1.31 3 19:20 22.01.2020
4194 Clouds 0 1023 41 10000 1 30 18:58 22.01.2020
4195 Clouds 0 1022 69 10000 1.31 3 18:39 22.01.2020
4196 Clouds 0 1022 41 10000 2.6 360 18:20 22.01.2020
4197 Clouds 0 1022 41 10000 2.6 360 17:56 22.01.2020
4198 Clouds 0 1022 64 10000 1.31 3 17:38 22.01.2020
4199 Clouds 0 1022 64 10000 1.13 51 17:19 22.01.2020
4200 Clouds 0 1023 64 10000 1.13 51 16:44 22.01.2020
4201 Clouds 0 1023 64 10000 1.13 51 16:24 22.01.2020
4202 Clouds 0 1023 74 10000 0.5 100 15:59 22.01.2020
4203 Clouds 0 1023 74 10000 0.5 100 15:41 22.01.2020
4204 Clouds 0 1023 64 10000 1.13 51 15:22 22.01.2020
4205 Clouds 0 1023 74 10000 0.5 60 14:58 22.01.2020
4206 Clouds 0 1023 69 10000 1.13 51 14:37 22.01.2020
4207 Clouds 0 1023 69 10000 1.26 70 14:18 22.01.2020
4208 Clouds 0 1024 74 10000 1 170 13:55 22.01.2020
4209 Clear 1 1024 69 10000 1.26 70 13:36 22.01.2020
4210 Clear 1 1024 69 10000 1.26 70 13:36 22.01.2020
4211 Clear 1 1024 69 10000 1.4 63 13:18 22.01.2020
4212 Haze 1 1024 74 9000 0.5 10 12:55 22.01.2020
4213 Clear 1 1024 64 10000 1.4 63 12:37 22.01.2020
4214 Clear 1 1024 64 10000 1.4 63 12:18 22.01.2020
4215 Clear 2 1025 58 10000 0.5 240 11:56 22.01.2020
4216 Clear 2 1024 55 10000 1.4 63 11:37 22.01.2020
4217 Clear 2 1024 55 10000 1.29 61 11:18 22.01.2020
4218 Clear 3 1024 64 10000 1 190 10:43 22.01.2020
4219 Clear 3 1024 44 10000 1.29 61 10:20 22.01.2020
4220 Clear 5 1024 38 10000 1.29 61 09:43 22.01.2020
4221 Clear 5 1024 38 10000 1.29 61 09:25 22.01.2020
4222 Clear 6 1024 45 10000 2.1 180 08:57 22.01.2020
4223 Clear 6 1023 36 10000 1.29 61 08:39 22.01.2020
4224 Clear 6 1023 36 10000 1.03 108 08:21 22.01.2020
4225 Clouds 6 1023 44 10000 1.5 210 07:48 22.01.2020
4226 Clear 6 1023 30 10000 1.5 70 07:30 22.01.2020
4227 Clouds 5 1024 35 10000 1 190 06:50 22.01.2020
4228 Clouds 5 1024 28 10000 1.03 108 06:26 22.01.2020
4229 Rain 4 1025 32 10000 1.03 108 05:33 22.01.2020
4230 Clouds 3 1026 43 10000 1 10 04:18 22.01.2020
4231 Clouds 2 1026 35 10000 0.86 73 03:21 22.01.2020
4232 Clouds 0 1027 35 10000 1 30 01:43 22.01.2020
4233 Clouds -1 1026 58 10000 0.5 30 00:44 22.01.2020
4234 Clouds -1 1026 58 10000 0.5 20 00:26 22.01.2020
4235 Clouds -1 1026 58 10000 1 10 23:38 21.01.2020
4236 Clouds -1 1026 58 10000 1 10 23:20 21.01.2020
4237 Clouds -1 1026 58 10000 1.5 20 22:55 21.01.2020
4238 Clouds -1 1026 58 10000 1.5 20 22:55 21.01.2020
4239 Clouds -1 1026 58 10000 1.5 20 22:55 21.01.2020
4240 Clouds -1 1026 43 10000 1.08 61 22:36 21.01.2020
4241 Clouds -1 1026 43 10000 1.08 61 22:18 21.01.2020
4242 Clouds -1 1027 54 10000 1 360 21:55 21.01.2020
4243 Clouds -1 1026 47 10000 1.08 61 21:37 21.01.2020
4244 Clouds -1 1026 47 10000 1.08 61 21:18 21.01.2020
4245 Clouds -1 1027 68 10000 0.5 20 20:39 21.01.2020
4246 Clouds -1 1027 68 10000 0.5 20 20:20 21.01.2020
4247 Clouds -1 1028 63 10000 1 50 19:59 21.01.2020
4248 Clouds -1 1028 29 10000 0.64 47 19:40 21.01.2020
4249 Clouds -1 1028 29 10000 0.64 47 19:40 21.01.2020
4250 Clouds -1 1028 29 10000 0.64 47 19:21 21.01.2020
4251 Snow -1 1028 63 10000 0.64 47 18:57 21.01.2020
4252 Snow -1 1028 63 10000 0.64 47 18:57 21.01.2020
4253 Clouds -1 1027 29 10000 0.64 47 18:39 21.01.2020
4254 Clouds -1 1027 29 10000 0.64 47 18:21 21.01.2020
4255 Clouds -2 1028 63 10000 0.5 20 17:59 21.01.2020
4256 Clouds -2 1028 63 10000 0.5 20 17:40 21.01.2020
4257 Clouds -2 1028 58 10000 0.85 83 17:18 21.01.2020
4258 Clouds -2 1028 58 10000 0.85 83 17:18 21.01.2020
4259 Clouds -2 1028 58 10000 0.85 83 16:38 21.01.2020
4260 Clouds -2 1028 58 10000 0.85 83 16:20 21.01.2020
4261 Clouds -2 1029 68 10000 0.5 120 15:59 21.01.2020
4262 Clouds -2 1028 54 10000 0.85 83 15:39 21.01.2020
4263 Clouds -2 1028 54 10000 0.85 83 15:19 21.01.2020
4264 Clouds -2 1028 54 10000 0.85 83 15:19 21.01.2020
4265 Clouds -2 1029 54 10000 0.85 83 14:40 21.01.2020
4266 Clouds -2 1029 54 10000 0.73 347 14:22 21.01.2020
4267 Clouds -1 1029 58 10000 0.5 360 13:55 21.01.2020
4268 Clouds -1 1029 43 10000 0.73 347 13:37 21.01.2020
4269 Clouds -1 1029 43 10000 0.75 331 13:18 21.01.2020
4270 Clouds 0 1029 40 10000 0.75 331 12:42 21.01.2020
4271 Clouds 0 1029 40 10000 0.75 331 12:24 21.01.2020
4272 Clouds -1 1029 54 10000 1 180 11:56 21.01.2020
4273 Clouds 0 1028 22 10000 0.75 331 11:37 21.01.2020
4274 Clouds 0 1028 20 10000 0.64 17 11:18 21.01.2020
4275 Clear 1 1028 46 10000 1 110 10:42 21.01.2020
4276 Clear 1 1028 27 10000 0.64 17 10:22 21.01.2020
4277 Clear 1 1028 27 10000 0.64 17 10:22 21.01.2020
4278 Clear 3 1028 37 10000 0.5 200 09:55 21.01.2020
4279 Clouds 4 1028 25 10000 0.64 17 09:37 21.01.2020
4280 Clouds 4 1028 25 10000 0.64 17 09:18 21.01.2020
4281 Clear 5 1028 27 10000 0.64 17 08:41 21.01.2020
4282 Clear 5 1028 27 10000 0.14 90 08:21 21.01.2020
4283 Clear 5 1028 20 10000 0.5 180 07:43 21.01.2020
4284 Clear 5 1028 20 10000 0.5 180 07:43 21.01.2020
4285 Clear 4 1028 27 10000 0.14 90 07:23 21.01.2020
4286 Clear 4 1028 25 10000 1 240 06:57 21.01.2020
4287 Clear 3 1029 32 10000 0.14 90 06:38 21.01.2020
4288 Clear 3 1029 32 10000 2.6 210 05:53 21.01.2020
4289 Clouds 1 1031 34 10000 0.54 142 04:41 21.01.2020
4290 Clouds 1 1031 34 10000 0.54 142 04:19 21.01.2020
4291 Clear -2 1032 53 10000 0.5 30 02:26 21.01.2020
4292 Clear -4 1031 58 10000 0.37 228 01:31 21.01.2020
4293 Clear -7 1031 85 10000 0.5 120 00:41 21.01.2020
4294 Clear -7 1031 73 10000 0.49 191 00:21 21.01.2020
4295 Clouds -7 1031 85 10000 0.5 190 23:41 20.01.2020
4296 Clear -7 1030 67 10000 1.36 318 23:19 20.01.2020
4297 Clear -7 1030 78 10000 1 160 22:59 20.01.2020
4298 Clear -7 1029 67 10000 1.36 318 22:39 20.01.2020
4299 Clear -7 1029 67 10000 1.36 318 22:21 20.01.2020
4300 Clouds -6 1029 79 10000 0.5 70 21:58 20.01.2020
4301 Clear -6 1029 67 10000 1.36 318 21:38 20.01.2020
4302 Clear -6 1029 67 10000 1.36 318 21:19 20.01.2020
4303 Clouds -6 1029 73 10000 0.5 160 20:57 20.01.2020
4304 Clear -6 1029 67 10000 1.36 318 20:38 20.01.2020
4305 Clear -6 1029 67 10000 2.6 312 20:19 20.01.2020
4306 Clouds -5 1029 67 10000 0.5 160 19:56 20.01.2020
4307 Clear -5 1029 62 10000 2.6 312 19:38 20.01.2020
4308 Clear -5 1029 62 10000 2.6 312 19:18 20.01.2020
4309 Clear -4 1029 57 10000 1 130 18:44 20.01.2020
4310 Clear -4 1029 49 10000 2.6 312 18:23 20.01.2020
4311 Clear -3 1028 49 10000 1 190 17:58 20.01.2020
4312 Clear -3 1028 46 10000 2.6 312 17:36 20.01.2020
4313 Clear -3 1028 46 10000 2.6 312 17:36 20.01.2020
4314 Clear -3 1028 46 10000 3.45 303 17:18 20.01.2020
4315 Clear -3 1028 42 10000 1.5 290 16:43 20.01.2020
4316 Clear -2 1028 46 10000 1.5 320 16:25 20.01.2020
4317 Clear -2 1027 42 10000 2.1 330 15:57 20.01.2020
4318 Clear -2 1027 46 10000 3.45 303 15:39 20.01.2020
4319 Clear -2 1027 46 10000 3.45 303 15:21 20.01.2020
4320 Clear -2 1026 42 10000 3.45 303 14:41 20.01.2020
4321 Clear -2 1026 42 10000 3.45 303 14:23 20.01.2020
4322 Clear -1 1025 46 10000 1.5 330 13:59 20.01.2020
4323 Clear 0 1026 46 10000 2.6 340 13:40 20.01.2020
4324 Clear 0 1026 46 10000 2.6 340 13:22 20.01.2020
4325 Clear 0 1024 42 10000 3.1 300 12:47 20.01.2020
4326 Clear 0 1024 42 10000 2.6 320 12:28 20.01.2020
4327 Clear 0 1024 42 10000 2.6 320 12:28 20.01.2020
4328 Clear 1 1023 29 10000 2.1 10 11:59 20.01.2020
4329 Clear 2 1023 47 10000 3.6 320 11:39 20.01.2020
4330 Clear 2 1023 47 10000 3.6 320 11:21 20.01.2020
4331 Clouds 3 1022 41 10000 2.6 220 10:48 20.01.2020
4332 Clouds 3 1022 41 10000 2.6 220 10:48 20.01.2020
4333 Clear 3 1022 48 10000 6.07 307 10:22 20.01.2020
4334 Clear 3 1022 48 10000 6.07 307 10:22 20.01.2020
4335 Clouds 3 1021 44 10000 1.5 210 09:57 20.01.2020
4336 Clouds 4 1021 41 10000 6.07 307 09:38 20.01.2020
4337 Clouds 4 1021 41 10000 6.07 307 09:19 20.01.2020
4338 Clouds 5 1021 44 10000 5.1 270 08:43 20.01.2020
4339 Clouds 5 1021 56 10000 2.1 240 08:25 20.01.2020
4340 Clouds 5 1020 41 10000 3.1 230 07:43 20.01.2020
4341 Clouds 5 1021 45 10000 6.06 277 07:24 20.01.2020
4342 Clear 6 1020 35 10000 2.6 250 06:46 20.01.2020
4343 Clouds 6 1020 36 10000 2.1 220 06:26 20.01.2020
4344 Clear 5 1021 30 10000 3.6 240 05:42 20.01.2020
4345 Clear 5 1021 26 10000 2.1 210 05:21 20.01.2020
4346 Clear 5 1022 32 10000 4.74 278 04:41 20.01.2020
4347 Clear 2 1022 47 10000 1.5 220 02:55 20.01.2020
4348 Haze -1 1022 86 2000 1 20 01:52 20.01.2020
4349 Clear -1 1022 64 10000 1.95 294 01:26 20.01.2020
4350 Mist -2 1021 92 4000 0.5 70 00:44 20.01.2020
4351 Clouds -2 1021 64 10000 1.95 294 00:22 20.01.2020
4352 Clear -2 1021 74 10000 1.95 294 23:39 19.01.2020
4353 Clear -2 1021 74 10000 1.4 280 23:19 19.01.2020
4354 Mist -2 1020 92 3200 0.5 170 22:56 19.01.2020
4355 Mist -1 1020 92 5000 1.5 350 22:38 19.01.2020
4356 Mist -1 1020 92 5000 1.5 350 22:38 19.01.2020
4357 Mist -1 1020 92 5000 1.5 350 22:19 19.01.2020
4358 Mist -1 1020 92 3200 0.5 210 21:56 19.01.2020
4359 Clouds -1 1020 62 10000 1.4 280 21:38 19.01.2020
4360 Clouds -1 1020 62 10000 1.4 280 21:19 19.01.2020
4361 Haze -2 1021 86 3200 0.5 80 20:57 19.01.2020
4362 Clouds -2 1020 62 10000 1.4 280 20:38 19.01.2020
4363 Clouds -2 1020 64 10000 1.27 288 20:20 19.01.2020
4364 Mist -2 1022 100 1600 0.5 320 19:56 19.01.2020
4365 Clouds -2 1020 64 10000 1.27 288 19:37 19.01.2020
4366 Clouds -2 1020 64 10000 1.27 288 19:19 19.01.2020
4367 Mist -2 1022 92 1600 0.5 110 18:55 19.01.2020
4368 Clouds -2 1020 74 10000 1.27 288 18:37 19.01.2020
4369 Clouds -2 1020 74 10000 1.27 288 18:19 19.01.2020
4370 Mist -2 1022 92 1600 1.27 288 17:57 19.01.2020
4371 Clouds -1 1020 64 10000 1.27 288 17:39 19.01.2020
4372 Clouds -1 1020 64 10000 2.71 285 17:20 19.01.2020
4373 Mist -1 1022 100 2000 1.5 150 16:57 19.01.2020
4374 Haze -1 1020 64 9000 2.71 285 16:38 19.01.2020
4375 Haze -1 1020 64 9000 2.71 285 16:19 19.01.2020
4376 Mist 0 1021 92 2000 1 130 15:57 19.01.2020
4377 Clear 0 1020 69 10000 2.71 285 15:37 19.01.2020
4378 Clear 0 1020 69 10000 2.71 285 15:19 19.01.2020
4379 Mist 0 1021 86 2400 1.5 160 14:57 19.01.2020
4380 Clear 1 1019 69 10000 2.71 285 14:37 19.01.2020
4381 Clear 1 1019 69 10000 2.68 293 14:18 19.01.2020
4382 Mist 1 1021 86 2800 0.5 100 13:54 19.01.2020
4383 Clear 1 1019 69 10000 2.68 293 13:36 19.01.2020
4384 Clear 1 1019 69 10000 4 288 13:18 19.01.2020
4385 Clear 2 1019 64 10000 4 288 12:42 19.01.2020
4386 Clear 2 1019 64 10000 4 288 12:23 19.01.2020
4387 Haze 2 1020 74 4000 1 330 11:57 19.01.2020
4388 Clear 2 1018 64 10000 4 288 11:39 19.01.2020
4389 Clear 2 1018 64 10000 4.23 284 11:19 19.01.2020
4390 Haze 3 1020 69 4800 1.5 240 10:54 19.01.2020
4391 Haze 3 1019 69 4800 1 260 10:36 19.01.2020
4392 Haze 3 1019 69 4800 1 260 10:18 19.01.2020
4393 Clouds 5 1017 52 10000 4.23 284 09:41 19.01.2020
4394 Clouds 5 1017 52 10000 4.23 284 09:23 19.01.2020
4395 Haze 5 1018 56 6000 2.1 240 08:56 19.01.2020
4396 Clear 5 1017 52 10000 4.23 284 08:38 19.01.2020
4397 Clear 5 1017 52 10000 6.61 276 08:19 19.01.2020
4398 Clear 5 1016 56 10000 6.61 276 07:30 19.01.2020
4399 Rain 5 1018 60 6000 2.1 280 06:56 19.01.2020
4400 Rain 5 1017 50 8000 6.61 276 06:23 19.01.2020
4401 Haze 4 1017 52 4800 6.16 264 04:19 19.01.2020
4402 Clouds 0 1018 52 10000 6.16 264 02:35 19.01.2020
4403 Snow -1 1018 86 4800 1.66 185 01:45 19.01.2020
4404 Snow -1 1018 74 8000 1.52 183 01:21 19.01.2020
4405 Snow -2 1019 88 9000 2.1 220 00:45 19.01.2020
4406 Clouds -2 1018 88 10000 1.52 183 00:24 19.01.2020
4407 Clouds -2 1018 88 10000 1.52 183 23:54 18.01.2020
4408 Clouds -2 1018 86 10000 1.52 183 23:36 18.01.2020
4409 Clouds -2 1018 86 10000 1.34 166 23:18 18.01.2020
4410 Haze -3 1018 73 6000 0.5 100 22:41 18.01.2020
4411 Clouds -2 1018 80 10000 1.34 166 22:23 18.01.2020
4412 Clouds -2 1020 85 8000 0.5 280 21:58 18.01.2020
4413 Clouds -2 1019 67 10000 1.34 166 21:39 18.01.2020
4414 Clouds -2 1019 67 10000 1.34 166 21:20 18.01.2020
4415 Clouds -2 1020 92 6000 1 140 20:56 18.01.2020
4416 Clouds -2 1019 69 10000 1.34 166 20:38 18.01.2020
4417 Clouds -2 1019 69 10000 1.25 220 20:18 18.01.2020
4418 Clouds -2 1019 69 10000 1.25 220 20:18 18.01.2020
4419 Haze -3 1020 73 6000 0.5 240 19:42 18.01.2020
4420 Clouds -3 1020 80 10000 1.25 220 19:24 18.01.2020
4421 Clouds -3 1020 74 10000 1.25 220 18:43 18.01.2020
4422 Clouds -3 1020 74 10000 1.25 220 18:24 18.01.2020
4423 Haze -3 1021 79 9000 1 90 17:58 18.01.2020
4424 Clouds -3 1020 74 10000 1.25 220 17:40 18.01.2020
4425 Clouds -3 1020 74 10000 0.16 197 17:20 18.01.2020
4426 Haze -3 1021 79 9000 0.5 110 16:56 18.01.2020
4427 Clouds -3 1020 74 10000 0.16 197 16:37 18.01.2020
4428 Clouds -3 1020 74 10000 0.16 197 16:19 18.01.2020
4429 Haze -3 1021 73 6000 0.5 320 15:42 18.01.2020
4430 Clouds -3 1021 68 10000 0.16 197 15:24 18.01.2020
4431 Clouds -3 1022 73 10000 0.16 197 14:57 18.01.2020
4432 Clear -3 1021 58 10000 0.16 197 14:39 18.01.2020
4433 Clear -3 1021 58 10000 0.48 207 14:18 18.01.2020
4434 Clouds -2 1023 68 10000 1 310 13:44 18.01.2020
4435 Clear -2 1021 54 10000 0.57 243 13:26 18.01.2020
4436 Clear -1 1022 63 10000 1.5 150 12:58 18.01.2020
4437 Clear 0 1021 47 10000 0.57 243 12:39 18.01.2020
4438 Clear 0 1021 47 10000 0.57 243 12:20 18.01.2020
4439 Clear 1 1020 54 10000 0.5 160 11:44 18.01.2020
4440 Clear 1 1021 40 10000 2.41 277 11:21 18.01.2020
4441 Clear 2 1022 33 10000 1 180 10:57 18.01.2020
4442 Clear 2 1021 34 10000 2.41 277 10:38 18.01.2020
4443 Clear 2 1021 34 10000 2.41 277 10:19 18.01.2020
4444 Clear 4 1022 43 10000 2.1 240 09:43 18.01.2020
4445 Clear 4 1020 23 10000 2.41 277 09:24 18.01.2020
4446 Clear 5 1022 38 10000 3.1 220 08:55 18.01.2020
4447 Clear 5 1022 38 10000 3.1 220 08:55 18.01.2020
4448 Clear 5 1020 23 10000 1.5 250 08:37 18.01.2020
4449 Clear 5 1020 23 10000 1.5 250 08:18 18.01.2020
4450 Clear 5 1020 23 10000 1.5 250 08:18 18.01.2020
4451 Clear 6 1020 25 10000 1.93 295 07:44 18.01.2020
4452 Clear 6 1020 25 10000 1.93 295 07:25 18.01.2020
4453 Clear 5 1020 35 10000 1.93 295 06:46 18.01.2020
4454 Clear 5 1022 38 10000 1 330 05:55 18.01.2020
4455 Haze 3 1022 47 9000 1.44 294 04:29 18.01.2020
4456 Haze 0 1024 68 6000 0.5 240 02:50 18.01.2020
4457 Haze -4 1024 85 4800 0.5 280 01:51 18.01.2020
4458 Clear -6 1022 92 6000 1 250 00:40 18.01.2020
4459 Mist -6 1022 85 8000 1.02 284 00:21 18.01.2020
4460 Mist -6 1023 92 4000 0.5 100 23:59 17.01.2020
4461 Mist -6 1021 85 9000 1.02 284 23:40 17.01.2020
4462 Mist -6 1021 85 9000 1.02 284 23:40 17.01.2020
4463 Mist -6 1021 85 9000 0.63 294 23:18 17.01.2020
4464 Clouds -6 1022 92 6000 0.63 294 22:42 17.01.2020
4465 Clouds -6 1021 79 10000 0.63 294 22:20 17.01.2020
4466 Clear -5 1021 85 6000 0.63 294 21:57 17.01.2020
4467 Clear -5 1021 79 10000 0.63 294 21:38 17.01.2020
4468 Clear -5 1021 79 10000 0.63 294 21:38 17.01.2020
4469 Clear -5 1021 79 10000 0.63 294 21:20 17.01.2020
4470 Clear -5 1021 92 6000 0.63 294 20:55 17.01.2020
4471 Clouds -4 1021 68 10000 0.63 294 20:36 17.01.2020
4472 Clouds -4 1021 68 10000 1.02 296 20:18 17.01.2020
4473 Clear -4 1022 85 6000 0.5 230 19:54 17.01.2020
4474 Clouds -4 1022 74 10000 1.02 296 19:36 17.01.2020
4475 Clouds -4 1022 74 10000 1.02 296 19:18 17.01.2020
4476 Clouds -3 1022 68 10000 1.02 296 18:41 17.01.2020
4477 Clouds -3 1022 68 10000 1.02 296 18:23 17.01.2020
4478 Haze -3 1022 79 8000 1.02 296 17:54 17.01.2020
4479 Clouds -4 1022 73 10000 1.02 296 17:36 17.01.2020
4480 Clouds -4 1022 73 10000 0.79 303 17:18 17.01.2020
4481 Haze -3 1022 79 8000 0.5 20 16:41 17.01.2020
4482 Clouds -3 1022 73 10000 0.79 303 16:19 17.01.2020
4483 Haze -2 1022 73 8000 0.5 190 15:48 17.01.2020
4484 Haze -2 1022 73 8000 0.5 190 15:48 17.01.2020
4485 Clouds -2 1022 63 10000 0.79 303 15:26 17.01.2020
4486 Haze -2 1022 73 9000 0.5 170 14:54 17.01.2020
4487 Clouds -2 1022 41 10000 0.79 303 14:36 17.01.2020
4488 Clouds -2 1022 38 10000 0.98 305 14:18 17.01.2020
4489 Clouds -2 1022 38 10000 0.98 305 13:38 17.01.2020
4490 Clouds -2 1022 37 10000 1.05 299 13:19 17.01.2020
4491 Clear -1 1021 63 10000 1.05 299 12:44 17.01.2020
4492 Clear -1 1022 63 10000 0.5 10 12:22 17.01.2020
4493 Clouds 0 1022 40 10000 1.05 299 11:40 17.01.2020
4494 Clouds 0 1022 40 10000 1.37 308 11:19 17.01.2020
4495 Clouds 1 1021 30 10000 1 190 10:44 17.01.2020
4496 Clouds 1 1021 40 10000 1.37 308 10:23 17.01.2020
4497 Clouds 2 1021 43 10000 0.5 190 09:58 17.01.2020
4498 Clouds 3 1021 34 10000 1.37 308 09:40 17.01.2020
4499 Clouds 3 1021 34 10000 1.37 308 09:20 17.01.2020
4500 Clear 4 1021 32 10000 2.1 270 08:45 17.01.2020
4501 Clouds 4 1021 35 10000 1.22 311 08:25 17.01.2020
4502 Clear 5 1021 33 10000 0.5 310 07:55 17.01.2020
4503 Clouds 5 1021 38 10000 1.2 308 07:32 17.01.2020
4504 Clouds 5 1021 38 10000 1.2 308 07:32 17.01.2020
4505 Clear 5 1021 32 10000 2.1 210 06:59 17.01.2020
4506 Clear 4 1022 29 10000 1.2 308 06:41 17.01.2020
4507 Clear 3 1022 35 10000 2.1 210 05:56 17.01.2020
4508 Clouds 1 1024 27 0 0.28 43 03:39 17.01.2020
4509 Clouds 1 1024 27 0 0.28 43 02:53 17.01.2020
4510 Clouds -1 1025 35 0 0.67 7 01:47 17.01.2020
4511 Clouds -1 1025 35 0 0.5 14 01:29 17.01.2020
4512 Clouds -1 1025 35 0 0.5 14 00:50 17.01.2020
4513 Clear -7 1024 73 10000 0.5 14 00:26 17.01.2020
4514 Clear -7 1024 73 10000 0.5 14 23:44 16.01.2020
4515 Clear -7 1024 73 10000 0.5 14 23:26 16.01.2020
4516 Clear -6 1024 85 10000 1.5 360 22:57 16.01.2020
4517 Clear -6 1024 73 10000 0.74 324 22:39 16.01.2020
4518 Clear -6 1024 73 10000 0.74 324 22:20 16.01.2020
4519 Clouds -6 1024 85 10000 0.5 90 21:55 16.01.2020
4520 Clouds -6 1024 67 10000 0.74 324 21:36 16.01.2020
4521 Clouds -6 1024 67 10000 0.74 324 21:18 16.01.2020
4522 Clouds -6 1025 85 10000 0.5 30 20:41 16.01.2020
4523 Haze -6 1026 79 4000 0.5 220 20:21 16.01.2020
4524 Clouds -5 1025 85 10000 0.5 190 19:58 16.01.2020
4525 Clouds -5 1025 73 10000 0.74 325 19:40 16.01.2020
4526 Clouds -5 1025 73 10000 0.74 325 19:22 16.01.2020
4527 Clouds -5 1025 73 10000 0.5 10 18:57 16.01.2020
4528 Clouds -5 1025 68 10000 0.74 325 18:38 16.01.2020
4529 Clouds -5 1025 68 10000 0.74 325 18:19 16.01.2020
4530 Clouds -5 1025 73 10000 0.5 100 17:58 16.01.2020
4531 Clouds -4 1025 63 10000 0.74 325 17:39 16.01.2020
4532 Clouds -4 1025 63 10000 0.77 332 17:20 16.01.2020
4533 Clouds -4 1025 73 10000 0.5 130 16:41 16.01.2020
4534 Clouds -4 1025 63 10000 0.77 332 16:23 16.01.2020
4535 Clouds -4 1025 68 10000 0.5 50 15:58 16.01.2020
4536 Clouds -4 1025 58 10000 0.77 332 15:39 16.01.2020
4537 Clouds -4 1025 58 10000 0.77 332 15:39 16.01.2020
4538 Clouds -4 1025 58 10000 0.77 332 15:20 16.01.2020
4539 Clouds -3 1025 68 10000 0.5 180 14:44 16.01.2020
4540 Clear -3 1025 54 10000 1.03 296 14:24 16.01.2020
4541 Clouds -3 1026 62 10000 0.5 180 13:55 16.01.2020
4542 Clear -2 1025 50 10000 1.03 296 13:37 16.01.2020
4543 Clear -2 1025 50 10000 1.2 292 13:19 16.01.2020
4544 Clear -1 1025 58 10000 0.5 360 12:41 16.01.2020
4545 Clear -1 1026 43 10000 1.2 292 12:21 16.01.2020
4546 Clear -1 1025 54 10000 0.5 50 11:43 16.01.2020
4547 Clouds -1 1026 40 10000 1.2 292 11:24 16.01.2020
4548 Clear 0 1025 46 10000 1 190 10:57 16.01.2020
4549 Clear 0 1025 37 10000 1.5 300 10:37 16.01.2020
4550 Clear 0 1025 37 10000 1.5 300 10:19 16.01.2020
4551 Clear 1 1025 34 10000 1 330 09:43 16.01.2020
4552 Clear 2 1025 34 10000 2.1 300 09:24 16.01.2020
4553 Clear 3 1025 23 10000 1 240 08:58 16.01.2020
4554 Clear 3 1025 34 10000 2.1 210 08:40 16.01.2020
4555 Clear 3 1025 34 10000 2.1 210 08:20 16.01.2020
4556 Clear 3 1025 29 10000 2.1 210 07:43 16.01.2020
4557 Clear 3 1025 29 10000 2.1 210 07:24 16.01.2020
4558 Clear 3 1025 27 10000 2.1 170 06:54 16.01.2020
4559 Clear 3 1025 34 10000 2.1 303 06:34 16.01.2020
4560 Clear 2 1025 40 10000 2.1 210 05:49 16.01.2020
4561 Clear 1 1026 40 10000 1 190 04:50 16.01.2020
4562 Clear -1 1027 42 10000 1 350 03:57 16.01.2020
4563 Clear -3 1029 62 10000 1 40 02:47 16.01.2020
4564 Clouds -5 1028 68 10000 0.8 294 01:34 16.01.2020
4565 Clouds -7 1028 62 10000 0.86 287 00:43 16.01.2020
4566 Clouds -7 1028 62 10000 0.86 287 00:23 16.01.2020
4567 Clouds -7 1029 92 10000 0.5 160 23:44 15.01.2020
4568 Clouds -7 1028 58 10000 1.27 294 23:22 15.01.2020
4569 Clouds -7 1029 92 10000 1.27 294 22:56 15.01.2020
4570 Clouds -7 1028 62 10000 1.27 294 22:38 15.01.2020
4571 Clouds -7 1028 62 10000 1.27 294 22:18 15.01.2020
4572 Clouds -7 1028 92 10000 0.5 170 21:56 15.01.2020
4573 Clouds -7 1028 92 10000 0.5 170 21:56 15.01.2020
4574 Clouds -7 1028 58 10000 1.5 270 21:37 15.01.2020
4575 Clouds -7 1028 58 10000 1.5 270 21:18 15.01.2020
4576 Clouds -7 1028 92 10000 1 20 20:55 15.01.2020
4577 Clouds -7 1028 67 10000 1.27 294 20:37 15.01.2020
4578 Clouds -7 1028 67 10000 1.45 303 20:18 15.01.2020
4579 Clouds -7 1028 85 10000 0.5 170 19:54 15.01.2020
4580 Clouds -7 1028 62 10000 1.45 303 19:36 15.01.2020
4581 Clouds -7 1028 62 10000 1.45 303 19:36 15.01.2020
4582 Clouds -7 1028 62 10000 1.45 303 19:18 15.01.2020
4583 Clear -7 1028 85 10000 1.45 303 18:55 15.01.2020
4584 Clear -7 1028 85 10000 1.45 303 18:55 15.01.2020
4585 Clear -7 1028 85 10000 1.45 303 18:55 15.01.2020
4586 Clouds -7 1028 67 10000 1.45 303 18:36 15.01.2020
4587 Clouds -7 1028 67 10000 1.45 303 18:18 15.01.2020
4588 Clouds -7 1028 67 10000 1.45 303 18:18 15.01.2020
4589 Clear -6 1028 62 10000 1.45 303 17:40 15.01.2020
4590 Clear -6 1028 62 10000 1.01 301 17:22 15.01.2020
4591 Clear -6 1028 62 10000 1.01 301 17:22 15.01.2020
4592 Clear -5 1027 79 10000 0.5 160 16:57 15.01.2020
4593 Clear -5 1028 53 10000 1.01 301 16:38 15.01.2020
4594 Clear -5 1028 53 10000 1.01 301 16:20 15.01.2020
4595 Clear -5 1028 53 10000 1.01 301 16:20 15.01.2020
4596 Clear -5 1028 73 10000 0.5 50 15:43 15.01.2020
4597 Clear -4 1028 54 10000 1.01 301 15:21 15.01.2020
4598 Clear -5 1028 67 10000 0.5 100 14:56 15.01.2020
4599 Clear -4 1028 54 10000 1.5 320 14:37 15.01.2020
4600 Clear -4 1028 54 10000 1.5 320 14:18 15.01.2020
4601 Clear -3 1028 67 10000 0.5 140 13:44 15.01.2020
4602 Clear -3 1028 54 10000 2.05 304 13:23 15.01.2020
4603 Clear -2 1028 62 10000 0.5 130 12:55 15.01.2020
4604 Clear -2 1029 46 10000 2.05 304 12:37 15.01.2020
4605 Clear -2 1029 46 10000 2.05 304 12:37 15.01.2020
4606 Clear -2 1029 46 10000 2.05 304 12:18 15.01.2020
4607 Clear -2 1029 46 10000 2.05 304 12:18 15.01.2020
4608 Clear -2 1028 46 10000 2.05 304 11:39 15.01.2020
4609 Clear -2 1028 42 10000 2.42 294 11:20 15.01.2020
4610 Clear -1 1028 50 10000 0.5 180 10:58 15.01.2020
4611 Clear -1 1028 42 10000 1.5 310 10:40 15.01.2020
4612 Clear -1 1028 42 10000 1.5 310 10:21 15.01.2020
4613 Clear 1 1027 34 10000 2.42 294 09:41 15.01.2020
4614 Clear 1 1027 34 10000 2.42 294 09:21 15.01.2020
4615 Clear 2 1027 29 10000 1.5 210 08:45 15.01.2020
4616 Clear 2 1027 31 10000 2.38 290 08:26 15.01.2020
4617 Clear 2 1027 29 10000 2.1 210 07:56 15.01.2020
4618 Clear 2 1027 37 10000 3.01 300 07:33 15.01.2020
4619 Clear 2 1027 31 10000 1.5 190 06:54 15.01.2020
4620 Clear 1 1027 31 10000 2.6 210 06:32 15.01.2020
4621 Clear 1 1028 35 10000 3.01 300 05:32 15.01.2020
4622 Clear -2 1029 39 10000 2.6 230 03:20 15.01.2020
4623 Clear -5 1029 79 10000 0.5 40 01:48 15.01.2020
4624 Clear -6 1029 58 10000 1.38 283 01:22 15.01.2020
4625 Clear -8 1029 73 10000 1.38 283 00:37 15.01.2020
4626 Clear -8 1029 73 10000 1.38 283 00:19 15.01.2020
4627 Clear -8 1029 92 10000 0.5 180 23:46 14.01.2020
4628 Clear -8 1028 67 10000 1.38 283 23:27 14.01.2020
4629 Clear -8 1029 92 10000 0.5 150 22:57 14.01.2020
4630 Clear -8 1029 92 10000 0.5 150 22:57 14.01.2020
4631 Clear -7 1028 67 10000 1.72 293 22:39 14.01.2020
4632 Clear -7 1028 67 10000 1.72 293 22:18 14.01.2020
4633 Clear -7 1028 92 10000 0.5 140 21:57 14.01.2020
4634 Clear -7 1027 62 10000 1.72 293 21:38 14.01.2020
4635 Clear -7 1027 62 10000 1.72 293 21:19 14.01.2020
4636 Clear -8 1028 92 10000 0.5 160 20:42 14.01.2020
4637 Clear -7 1027 85 10000 0.5 180 20:22 14.01.2020
4638 Clear -7 1027 85 10000 0.5 180 19:57 14.01.2020
4639 Clear -7 1028 67 10000 1.58 284 19:39 14.01.2020
4640 Clear -7 1028 67 10000 1.58 284 19:20 14.01.2020
4641 Clear -6 1028 85 10000 0.5 180 18:59 14.01.2020
4642 Clear -8 1027 79 10000 1.58 284 18:40 14.01.2020
4643 Clear -6 1027 79 10000 1.58 284 18:19 14.01.2020
4644 Clear -6 1027 79 10000 1.58 284 18:19 14.01.2020
4645 Clear -5 1027 50 10000 1.58 284 17:39 14.01.2020
4646 Clear -5 1027 50 10000 1.21 298 17:19 14.01.2020
4647 Clear -5 1027 79 10000 0.5 150 16:59 14.01.2020
4648 Clear -5 1027 46 10000 1.21 298 16:41 14.01.2020
4649 Clear -5 1027 46 10000 1.21 298 16:21 14.01.2020
4650 Clear -4 1027 79 10000 0.5 30 15:55 14.01.2020
4651 Clear -4 1027 49 10000 1.21 298 15:37 14.01.2020
4652 Clear -4 1027 49 10000 1.21 298 15:18 14.01.2020
4653 Clear -3 1027 67 10000 0.5 170 14:43 14.01.2020
4654 Clear -3 1027 42 10000 1.42 301 14:20 14.01.2020
4655 Clear -3 1027 73 10000 0.5 160 13:43 14.01.2020
4656 Clear -3 1027 50 10000 1.65 296 13:20 14.01.2020
4657 Clear -2 1028 58 10000 1.5 330 12:59 14.01.2020
4658 Clear -2 1026 37 10000 1.65 296 12:40 14.01.2020
4659 Clear -2 1026 37 10000 1.65 296 12:20 14.01.2020
4660 Clear -1 1025 53 10000 1.65 296 11:42 14.01.2020
4661 Clear -1 1026 33 10000 1.5 310 11:23 14.01.2020
4662 Clear -1 1026 33 10000 1.5 310 11:23 14.01.2020
4663 Clear -1 1027 50 10000 0.5 220 10:58 14.01.2020
4664 Clear 0 1025 31 10000 1.56 296 10:39 14.01.2020
4665 Clear 0 1025 31 10000 1.56 296 10:19 14.01.2020
4666 Clear 0 1025 31 10000 1.56 296 10:19 14.01.2020
4667 Clear 1 1027 42 10000 1 260 09:56 14.01.2020
4668 Clear 1 1025 29 10000 1.56 296 09:38 14.01.2020
4669 Clear 1 1025 29 10000 1.56 296 09:20 14.01.2020
4670 Clear 2 1024 29 10000 1 220 08:42 14.01.2020
4671 Clear 3 1024 24 10000 1.88 303 08:23 14.01.2020
4672 Clear 2 1026 34 10000 1 330 07:53 14.01.2020
4673 Clear 2 1024 29 10000 1.5 230 07:26 14.01.2020
4674 Clear 2 1026 29 10000 2.1 280 06:50 14.01.2020
4675 Clear 2 1024 34 10000 2.29 303 06:18 14.01.2020
4676 Rain 1 1027 39 10000 1.5 260 04:56 14.01.2020
4677 Haze -1 1025 37 4800 1.18 342 03:48 14.01.2020
4678 Clouds -3 1026 58 10000 1.18 342 02:40 14.01.2020
4679 Clouds -5 1025 63 10000 0.82 46 01:31 14.01.2020
4680 Clear -6 1027 78 10000 2.6 50 00:48 14.01.2020
4681 Clouds -6 1025 67 10000 0.68 40 00:22 14.01.2020
4682 Mist -7 1027 85 9000 0.5 320 23:44 13.01.2020
4683 Clouds -7 1025 62 10000 0.53 3 23:19 13.01.2020
4684 Clear -7 1027 92 6000 1.5 360 22:57 13.01.2020
4685 Clouds -6 1025 68 10000 0.53 3 22:39 13.01.2020
4686 Clouds -6 1025 68 10000 0.53 3 22:20 13.01.2020
4687 Clear -7 1026 92 10000 1 270 21:55 13.01.2020
4688 Clear -7 1025 73 10000 0.53 3 21:37 13.01.2020
4689 Clear -7 1025 73 10000 0.53 3 21:18 13.01.2020
4690 Clear -6 1027 92 10000 0.5 210 20:56 13.01.2020
4691 Clear -6 1025 73 10000 0.53 3 20:38 13.01.2020
4692 Clear -6 1025 73 10000 1 294 20:19 13.01.2020
4693 Clear -6 1025 67 10000 1.37 308 19:41 13.01.2020
4694 Clear -6 1025 67 10000 1.37 308 19:21 13.01.2020
4695 Clear -6 1027 85 10000 0.5 60 18:58 13.01.2020
4696 Clear -6 1027 85 10000 0.5 20 18:38 13.01.2020
4697 Clear -6 1027 85 10000 0.5 20 18:19 13.01.2020
4698 Clear -6 1027 85 10000 1.37 308 17:58 13.01.2020
4699 Clear -5 1025 67 10000 1.37 308 17:39 13.01.2020
4700 Clear -5 1025 67 10000 1.94 321 17:20 13.01.2020
4701 Clouds -2 1026 40 0 1.94 321 16:42 13.01.2020
4702 Clouds -2 1026 40 0 1.94 321 16:23 13.01.2020
4703 Clouds -2 1026 40 0 1.94 321 15:58 13.01.2020
4704 Clouds -2 1026 40 0 1.94 321 15:40 13.01.2020
4705 Clouds -2 1026 40 0 1.94 321 15:20 13.01.2020
4706 Clouds -2 1026 40 0 1.94 321 14:43 13.01.2020
4707 Clouds -2 1025 38 0 2.17 316 14:24 13.01.2020
4708 Clouds -2 1025 38 0 2.17 316 13:59 13.01.2020
4709 Clouds -2 1025 38 0 2.17 316 13:39 13.01.2020
4710 Clouds -2 1025 40 0 2.5 305 13:21 13.01.2020
4711 Clear -3 1026 49 10000 0.5 10 12:56 13.01.2020
4712 Clear -3 1026 49 10000 0.5 10 12:37 13.01.2020
4713 Clear -3 1026 49 10000 0.5 10 12:37 13.01.2020
4714 Clear -2 1026 38 10000 0.5 260 12:19 13.01.2020
4715 Clear -2 1026 38 10000 0.5 260 12:19 13.01.2020
4716 Clear -2 1026 38 10000 0.5 260 12:19 13.01.2020
4717 Clear -2 1024 39 10000 2.5 305 11:39 13.01.2020
4718 Clear -2 1024 39 10000 3.32 319 11:20 13.01.2020
4719 Clear -2 1026 45 10000 2.1 300 10:57 13.01.2020
4720 Clear -2 1026 45 10000 2.1 300 10:57 13.01.2020
4721 Clear -2 1025 39 10000 3.1 280 10:39 13.01.2020
4722 Clear -2 1025 39 10000 3.1 280 10:20 13.01.2020
4723 Clear -2 1025 39 10000 3.1 280 10:20 13.01.2020
4724 Clear -1 1025 39 10000 2.6 300 09:56 13.01.2020
4725 Clear -1 1024 33 10000 3.1 290 09:38 13.01.2020
4726 Clear -1 1024 33 10000 3.1 290 09:19 13.01.2020
4727 Clear 0 1023 37 10000 1.5 360 08:39 13.01.2020
4728 Clear 0 1023 34 10000 1.5 360 08:20 13.01.2020
4729 Clear 0 1023 34 10000 1.5 360 08:20 13.01.2020
4730 Clear 1 1024 34 10000 1.5 240 07:46 13.01.2020
4731 Clear 1 1023 34 10000 4.36 297 07:27 13.01.2020
4732 Clear 0 1023 31 10000 3.6 320 06:40 13.01.2020
4733 Clear 0 1023 31 10000 3.6 320 06:18 13.01.2020
4734 Clear 0 1023 40 10000 3.98 300 05:20 13.01.2020
4735 Clear -1 1025 46 10000 2.1 310 03:47 13.01.2020
4736 Clear -2 1023 63 10000 1.5 280 02:51 13.01.2020
4737 Clear -2 1023 63 10000 3.98 300 02:31 13.01.2020
4738 Clouds -3 1023 68 10000 3.91 290 01:47 13.01.2020
4739 Clouds -4 1022 92 6000 0.5 220 00:59 13.01.2020
4740 Clouds -4 1022 68 10000 1.5 310 00:37 13.01.2020
4741 Clouds -4 1022 68 10000 1.5 310 00:19 13.01.2020
4742 Clouds -5 1021 68 10000 3.77 291 23:41 12.01.2020
4743 Clouds -5 1021 68 10000 3.71 285 23:22 12.01.2020
4744 Clouds -5 1021 100 8000 0.5 170 22:57 12.01.2020
4745 Clear -5 1021 85 10000 3.71 285 22:39 12.01.2020
4746 Clear -5 1021 85 10000 3.71 285 22:19 12.01.2020
4747 Clear -5 1021 92 8000 3.71 285 21:54 12.01.2020
4748 Clear -5 1020 79 10000 3.71 285 21:36 12.01.2020
4749 Clear -5 1020 79 10000 3.71 285 21:18 12.01.2020
4750 Clear -5 1020 100 6000 0.5 180 20:54 12.01.2020
4751 Clear -4 1020 73 10000 3.71 285 20:36 12.01.2020
4752 Clear -4 1020 73 10000 2.35 280 20:18 12.01.2020
4753 Clouds -4 1020 92 8000 0.5 160 19:54 12.01.2020
4754 Clouds -4 1020 74 10000 2.12 292 19:36 12.01.2020
4755 Clouds -4 1020 74 10000 2.12 292 19:18 12.01.2020
4756 Clouds -4 1020 74 10000 2.12 292 19:18 12.01.2020
4757 Clouds -3 1020 74 10000 2.12 292 18:54 12.01.2020
4758 Clear -3 1020 74 10000 2.12 292 18:36 12.01.2020
4759 Clear -3 1020 74 10000 2.12 292 18:18 12.01.2020
4760 Clear -3 1019 85 9000 0.5 150 17:41 12.01.2020
4761 Clouds -3 1020 68 10000 3.17 305 17:19 12.01.2020
4762 Clouds -2 1020 92 8000 0.5 180 16:56 12.01.2020
4763 Clouds -2 1020 92 8000 0.5 180 16:56 12.01.2020
4764 Clouds -2 1020 74 10000 3.17 305 16:37 12.01.2020
4765 Clouds -2 1020 74 10000 3.17 305 16:19 12.01.2020
4766 Clear -2 1020 85 9000 1 160 15:43 12.01.2020
4767 Clouds -2 1020 74 10000 3.17 305 15:24 12.01.2020
4768 Clear -2 1019 86 10000 0.5 160 14:57 12.01.2020
4769 Clear -2 1020 68 10000 3.17 305 14:38 12.01.2020
4770 Clear -2 1020 68 10000 3.13 308 14:20 12.01.2020
4771 Clear -1 1019 86 10000 0.5 150 13:54 12.01.2020
4772 Clear -1 1019 60 10000 3.13 308 13:36 12.01.2020
4773 Clear -1 1019 57 10000 3.29 306 13:18 12.01.2020
4774 Clear -1 1018 57 10000 3.29 306 12:42 12.01.2020
4775 Clear -1 1018 57 10000 3.29 306 12:20 12.01.2020
4776 Clear 0 1018 68 10000 0.5 310 11:58 12.01.2020
4777 Clear 0 1018 64 10000 3.29 306 11:39 12.01.2020
4778 Clear 0 1018 64 10000 3.39 302 11:20 12.01.2020
4779 Clear 0 1018 55 10000 1 270 10:41 12.01.2020
4780 Clouds 0 1017 51 10000 3.39 302 10:22 12.01.2020
4781 Clear 1 1017 55 10000 0.5 250 09:57 12.01.2020
4782 Clear 1 1017 55 10000 3.39 302 09:38 12.01.2020
4783 Clear 1 1017 55 10000 3.39 302 09:19 12.01.2020
4784 Clear 2 1016 43 10000 2.1 220 08:45 12.01.2020
4785 Clear 2 1017 51 10000 1.5 280 08:20 12.01.2020
4786 Clear 2 1016 40 10000 3.1 210 07:41 12.01.2020
4787 Clear 2 1016 40 10000 3.1 210 07:41 12.01.2020
4788 Clear 2 1016 44 10000 3.99 295 07:23 12.01.2020
4789 Clear 2 1016 44 10000 2.6 210 06:48 12.01.2020
4790 Clear 2 1017 44 10000 3.99 295 06:30 12.01.2020
4791 Clear 2 1017 47 10000 1.5 320 05:32 12.01.2020
4792 Clear 2 1017 47 10000 1.5 320 05:32 12.01.2020
4793 Clear 1 1018 55 10000 2.1 350 04:27 12.01.2020
4794 Clouds 1 1019 59 10000 2.33 291 03:23 12.01.2020
4795 Clouds -1 1019 68 10000 2.33 291 02:33 12.01.2020
4796 Haze -2 1018 80 4800 0.5 180 01:43 12.01.2020
4797 Clouds -2 1018 74 10000 1.76 284 01:22 12.01.2020
4798 Clouds -3 1018 74 10000 1.6 285 00:41 12.01.2020
4799 Clouds -3 1018 74 10000 1.6 285 00:20 12.01.2020
4800 Clouds -3 1017 74 10000 1.6 285 23:42 11.01.2020
4801 Clouds -3 1017 74 10000 1.68 279 23:19 11.01.2020
4802 Clouds -3 1017 92 4800 1 170 22:58 11.01.2020
4803 Clouds -3 1017 74 10000 1.68 279 22:39 11.01.2020
4804 Clouds -3 1017 74 10000 1.68 279 22:20 11.01.2020
4805 Clouds -3 1017 92 4800 0.5 170 21:58 11.01.2020
4806 Clouds -3 1017 74 10000 1.68 279 21:39 11.01.2020
4807 Clouds -3 1017 74 10000 1.68 279 21:18 11.01.2020
4808 Clouds -3 1017 74 10000 1.68 279 21:18 11.01.2020
4809 Clouds -2 1017 74 10000 1.68 279 20:40 11.01.2020
4810 Clouds -2 1017 74 10000 1.68 279 20:40 11.01.2020
4811 Clouds -2 1017 74 10000 1.32 274 20:22 11.01.2020
4812 Clouds -2 1017 86 6000 0.5 180 19:58 11.01.2020
4813 Clouds -2 1018 74 10000 1.69 285 19:39 11.01.2020
4814 Clouds -2 1018 74 10000 1.69 285 19:20 11.01.2020
4815 Haze -2 1018 86 6000 1 180 18:58 11.01.2020
4816 Clouds -1 1018 74 10000 1.69 285 18:38 11.01.2020
4817 Clouds -1 1018 74 10000 1.69 285 18:19 11.01.2020
4818 Haze -1 1018 86 6000 0.5 180 17:57 11.01.2020
4819 Clouds -1 1018 60 10000 1.69 285 17:39 11.01.2020
4820 Clouds -1 1018 52 10000 1.59 294 17:19 11.01.2020
4821 Clouds -1 1018 52 10000 1.59 294 16:44 11.01.2020
4822 Clouds -1 1018 52 10000 1.59 294 16:26 11.01.2020
4823 Haze -1 1018 79 6000 1 170 15:58 11.01.2020
4824 Clear -1 1019 52 10000 1.59 294 15:40 11.01.2020
4825 Clear -1 1019 52 10000 1.59 294 15:20 11.01.2020
4826 Haze -1 1018 79 8000 1 170 14:56 11.01.2020
4827 Clouds -1 1018 52 10000 1.59 294 14:37 11.01.2020
4828 Clouds -1 1018 48 10000 1.2 303 14:19 11.01.2020
4829 Clouds 0 1018 55 10000 1.2 303 13:39 11.01.2020
4830 Clouds 0 1018 55 10000 1.52 295 13:20 11.01.2020
4831 Haze -1 1018 74 8000 0.5 170 12:56 11.01.2020
4832 Clouds -1 1019 55 10000 3.1 310 12:38 11.01.2020
4833 Clouds -1 1019 55 10000 3.1 310 12:20 11.01.2020
4834 Clouds 0 1018 68 10000 1.52 295 11:45 11.01.2020
4835 Clear 0 1019 55 10000 1.5 310 11:24 11.01.2020
4836 Clouds 1 1018 47 10000 1 160 10:50 11.01.2020
4837 Clouds 1 1018 59 10000 1.5 320 10:30 11.01.2020
4838 Clouds 2 1020 47 10000 0.5 270 09:55 11.01.2020
4839 Clear 2 1020 50 10000 1.5 300 09:37 11.01.2020
4840 Clear 2 1020 50 10000 1.5 300 09:18 11.01.2020
4841 Clear 3 1018 51 10000 1.5 270 08:41 11.01.2020
4842 Clear 3 1018 51 10000 1.5 270 08:20 11.01.2020
4843 Clear 4 1018 48 10000 2.6 250 07:43 11.01.2020
4844 Clear 4 1018 48 10000 1.5 270 07:24 11.01.2020
4845 Haze 4 1018 51 9000 2.1 190 06:45 11.01.2020
4846 Clear 3 1020 55 10000 2.1 210 05:31 11.01.2020
4847 Haze 3 1020 55 9000 2.1 200 04:43 11.01.2020
4848 Clear 3 1021 59 10000 2.1 230 04:25 11.01.2020
4849 Clouds 0 1022 74 10000 2.1 220 02:48 11.01.2020
4850 Clear -3 1022 86 6000 0.5 190 01:48 11.01.2020
4851 Mist -3 1022 86 9000 0.76 277 01:28 11.01.2020
4852 Mist -5 1022 92 4800 0.5 340 00:54 11.01.2020
4853 Mist -5 1021 92 6000 0.76 277 00:29 11.01.2020
4854 Mist -5 1021 100 4000 0.5 200 23:59 10.01.2020
4855 Mist -5 1021 92 9000 0.76 277 23:39 10.01.2020
4856 Mist -5 1021 92 9000 0.48 59 23:20 10.01.2020
4857 Mist -5 1021 100 4800 0.5 150 22:41 10.01.2020
4858 Clouds -5 1021 92 10000 0.48 59 22:22 10.01.2020
4859 Mist -4 1021 100 4000 0.5 160 21:59 10.01.2020
4860 Clouds -4 1021 86 10000 0.48 59 21:41 10.01.2020
4861 Clouds -4 1021 86 10000 0.48 59 21:20 10.01.2020
4862 Mist -4 1023 92 2400 0.5 360 20:58 10.01.2020
4863 Clear -4 1021 92 10000 0.48 59 20:40 10.01.2020
4864 Clear -4 1021 92 10000 0.48 59 20:40 10.01.2020
4865 Clear -4 1021 92 10000 0.25 125 20:22 10.01.2020
4866 Mist -4 1021 86 9000 0.25 125 19:41 10.01.2020
4867 Mist -4 1021 86 9000 0.25 125 19:21 10.01.2020
4868 Clear -4 1022 100 4800 0.5 190 18:56 10.01.2020
4869 Clear -4 1021 86 10000 0.25 125 18:37 10.01.2020
4870 Clear -4 1021 86 10000 0.25 125 18:18 10.01.2020
4871 Mist -3 1023 100 2400 0.5 310 17:56 10.01.2020
4872 Mist -3 1023 92 3200 0.5 80 17:38 10.01.2020
4873 Mist -3 1023 92 3200 0.5 80 17:38 10.01.2020
4874 Mist -3 1023 92 3200 0.5 80 17:19 10.01.2020
4875 Clear -3 1022 79 10000 0.74 233 16:43 10.01.2020
4876 Clear -3 1022 79 10000 0.74 233 16:21 10.01.2020
4877 Clear -3 1022 79 10000 0.74 233 16:21 10.01.2020
4878 Mist -2 1023 92 3200 0.5 100 15:57 10.01.2020
4879 Mist -2 1024 92 3200 0.5 160 15:38 10.01.2020
4880 Mist -2 1024 92 3200 0.5 160 15:20 10.01.2020
4881 Mist -2 1024 92 4000 0.5 160 14:58 10.01.2020
4882 Mist -2 1024 92 4000 0.5 160 14:58 10.01.2020
4883 Mist -2 1024 86 4000 0.5 160 14:40 10.01.2020
4884 Mist -2 1024 86 4000 0.5 160 14:19 10.01.2020
4885 Clear -1 1024 79 4800 1.5 150 13:56 10.01.2020
4886 Haze -1 1023 74 6000 0.5 150 13:37 10.01.2020
4887 Haze -1 1023 74 6000 0.5 150 13:18 10.01.2020
4888 Haze -1 1024 79 6000 0.5 80 12:56 10.01.2020
4889 Clear 0 1022 64 10000 0.42 256 12:38 10.01.2020
4890 Clear 0 1022 64 10000 0.42 256 12:18 10.01.2020
4891 Haze 0 1022 80 4800 0.5 160 11:42 10.01.2020
4892 Haze 0 1022 80 4800 0.5 160 11:42 10.01.2020
4893 Clear 0 1022 59 10000 2.06 288 11:22 10.01.2020
4894 Haze 1 1022 43 4800 0.5 130 10:59 10.01.2020
4895 Clear 2 1022 51 10000 2.06 288 10:38 10.01.2020
4896 Clear 2 1022 51 10000 2.06 288 10:19 10.01.2020
4897 Haze 3 1022 64 4800 0.5 350 09:46 10.01.2020
4898 Clear 3 1022 40 10000 2.06 288 09:26 10.01.2020
4899 Haze 4 1022 51 6000 1 200 08:58 10.01.2020
4900 Clear 4 1022 41 10000 1.5 300 08:38 10.01.2020
4901 Clear 4 1022 41 10000 1.5 300 08:20 10.01.2020
4902 Clear 4 1022 44 10000 1.5 290 07:41 10.01.2020
4903 Clear 4 1022 44 10000 1.5 290 07:41 10.01.2020
4904 Clear 4 1022 44 10000 1.5 290 07:22 10.01.2020
4905 Haze 3 1022 51 8000 3.1 220 06:42 10.01.2020
4906 Haze 3 1022 51 8000 3.1 220 06:24 10.01.2020
4907 Haze 3 1023 55 6000 2.6 230 05:25 10.01.2020
4908 Haze 0 1025 69 6000 0.63 300 03:32 10.01.2020
4909 Clouds -1 1025 86 4800 0.5 350 02:53 10.01.2020
4910 Haze -1 1025 38 6000 0.63 300 02:33 10.01.2020
4911 Mist -4 1025 86 6000 0.5 269 01:32 10.01.2020
4912 Mist -4 1025 100 4000 0.5 40 00:51 10.01.2020
4913 Mist -5 1025 92 4400 0.5 269 00:33 10.01.2020
4914 Mist -4 1025 85 4800 0.5 269 23:57 09.01.2020
4915 Mist -4 1025 85 4800 0.5 269 23:57 09.01.2020
4916 Mist -5 1025 85 6000 0.5 269 23:36 09.01.2020
4917 Mist -5 1025 85 6000 0.74 318 23:18 09.01.2020
4918 Mist -5 1025 100 4000 0.5 10 22:56 09.01.2020
4919 Mist -5 1024 85 6000 0.74 318 22:37 09.01.2020
4920 Mist -5 1024 85 6000 0.74 318 22:18 09.01.2020
4921 Mist -5 1024 100 4000 1 30 21:55 09.01.2020
4922 Mist -5 1025 92 6000 0.74 318 21:37 09.01.2020
4923 Mist -5 1025 92 6000 0.74 318 21:18 09.01.2020
4924 Mist -5 1025 100 3200 1 40 20:54 09.01.2020
4925 Mist -5 1025 100 3200 0.5 30 20:36 09.01.2020
4926 Mist -5 1025 92 8000 0.45 273 20:18 09.01.2020
4927 Mist -4 1025 100 4000 0.59 281 19:39 09.01.2020
4928 Mist -4 1025 85 8000 0.59 281 19:20 09.01.2020
4929 Clear -4 1026 100 4800 0.59 281 18:57 09.01.2020
4930 Mist -4 1025 100 4000 0.5 170 18:39 09.01.2020
4931 Mist -4 1025 85 9000 0.59 281 18:20 09.01.2020
4932 Mist -4 1025 100 4000 0.5 170 17:41 09.01.2020
4933 Mist -4 1025 100 4000 0.5 170 17:41 09.01.2020
4934 Mist -4 1025 79 9000 1.25 296 17:19 09.01.2020
4935 Mist -4 1027 92 4000 0.5 150 16:58 09.01.2020
4936 Clear -4 1025 92 4800 1.25 296 16:39 09.01.2020
4937 Mist -4 1027 85 4000 1 20 16:20 09.01.2020
4938 Haze -3 1027 85 4800 1.5 60 15:43 09.01.2020
4939 Clear -3 1025 79 10000 1.25 296 15:22 09.01.2020
4940 Mist -2 1027 92 3200 1.25 296 14:57 09.01.2020
4941 Clear -3 1025 92 6000 0.5 180 14:38 09.01.2020
4942 Clear -2 1025 74 10000 2.04 294 14:18 09.01.2020
4943 Mist -2 1027 92 4800 0.5 120 13:55 09.01.2020
4944 Clear -2 1025 92 6000 0.5 180 13:37 09.01.2020
4945 Clear -2 1025 44 10000 1.5 300 13:18 09.01.2020
4946 Haze -1 1026 79 6000 0.5 70 12:42 09.01.2020
4947 Clear -1 1024 46 10000 2.38 296 12:23 09.01.2020
4948 Haze -1 1026 74 8000 2.1 40 11:59 09.01.2020
4949 Haze -1 1024 79 8000 1 160 11:41 09.01.2020
4950 Clear 0 1024 41 10000 2.72 295 11:22 09.01.2020
4951 Haze 0 1024 41 8000 0.5 180 10:55 09.01.2020
4952 Clear 0 1023 41 10000 0.5 120 10:37 09.01.2020
4953 Clear 0 1024 59 10000 2.72 295 10:19 09.01.2020
4954 Clear 1 1023 55 10000 1 280 09:41 09.01.2020
4955 Clear 1 1023 59 10000 2.72 295 09:22 09.01.2020
4956 Clear 2 1025 55 10000 1.5 300 08:56 09.01.2020
4957 Clear 2 1023 55 10000 2.63 304 08:37 09.01.2020
4958 Clear 2 1023 55 10000 3.46 317 08:19 09.01.2020
4959 Clear 2 1023 47 10000 2.1 260 07:42 09.01.2020
4960 Clear 2 1023 51 10000 4.02 313 07:24 09.01.2020
4961 Clear 2 1022 47 10000 0.5 320 06:39 09.01.2020
4962 Clear 2 1023 55 10000 1.5 200 06:20 09.01.2020
4963 Clouds 2 1024 55 10000 1 270 05:50 09.01.2020
4964 Clouds 2 1024 55 10000 1 270 05:50 09.01.2020
4965 Clear 1 1025 46 10000 2.1 310 04:44 09.01.2020
4966 Haze 0 1026 63 9000 3.1 320 03:54 09.01.2020
4967 Clear 0 1027 63 10000 1.5 320 02:55 09.01.2020
4968 Clouds -1 1039 46 10000 4.35 302 02:30 09.01.2020
4969 Haze -1 1024 63 9000 2.6 280 01:40 09.01.2020
4970 Haze -1 1024 63 8000 1 330 00:44 09.01.2020
4971 Clouds -1 1030 79 10000 4.09 302 00:21 09.01.2020
4972 Haze -1 1024 74 9000 1.5 300 23:55 08.01.2020
4973 Haze -1 1023 68 6000 2.6 260 23:37 08.01.2020
4974 Haze -1 1024 64 8000 2.6 250 23:18 08.01.2020
4975 Haze 0 1023 64 6000 1.5 290 22:39 08.01.2020
4976 Clouds 0 1035 64 10000 3.16 296 22:21 08.01.2020
4977 Haze -1 1022 64 6000 1.5 300 21:57 08.01.2020
4978 Haze -1 1022 64 6000 1.5 300 21:38 08.01.2020
4979 Clouds 0 1023 86 6000 2.1 280 21:20 08.01.2020
4980 Haze 0 1022 64 8000 0.5 280 20:58 08.01.2020
4981 Haze 0 1022 64 8000 0.5 280 20:38 08.01.2020
4982 Clouds 0 1023 80 7000 2.1 270 20:20 08.01.2020
4983 Haze 0 1024 74 6000 2.6 280 19:56 08.01.2020
4984 Haze 0 1024 74 6000 2.6 280 19:56 08.01.2020
4985 Haze 0 1022 65 9000 3.1 250 19:37 08.01.2020
4986 Clouds 0 1023 65 10000 3.75 307 19:18 08.01.2020
4987 Haze 0 1024 74 6000 1 260 18:55 08.01.2020
4988 Haze 0 1022 65 8000 1 250 18:37 08.01.2020
4989 Clouds 0 1023 69 10000 3.75 307 18:18 08.01.2020
4990 Haze 0 1024 74 8000 1.5 290 17:47 08.01.2020
4991 Clouds 1 1023 69 10000 3.2 301 17:24 08.01.2020
4992 Haze 1 1022 80 6000 1.5 230 16:57 08.01.2020
4993 Haze 1 1022 80 6000 1.5 230 16:39 08.01.2020
4994 Clouds 1 1023 74 10000 3.2 301 16:19 08.01.2020
4995 Clouds 1 1023 74 10000 3.2 301 16:19 08.01.2020
4996 Haze 1 1024 66 9000 2.6 290 15:57 08.01.2020
4997 Clouds 1 1022 86 4800 1 280 15:39 08.01.2020
4998 Clouds 1 1022 74 10000 3.2 301 15:18 08.01.2020
4999 Haze 1 1024 66 6000 2.1 330 14:55 08.01.2020
5000 Haze 1 1021 80 6000 1 240 14:36 08.01.2020
5001 Clouds 1 1022 80 10000 4.63 297 14:18 08.01.2020
5002 Rain 2 1021 93 2800 3.6 280 13:38 08.01.2020
5003 Clouds 2 1022 80 10000 4.63 297 13:18 08.01.2020
5004 Mist 2 1020 93 4000 2.6 210 12:41 08.01.2020
5005 Clouds 3 1020 61 10000 3.82 304 12:18 08.01.2020
5006 Mist 3 1021 61 3200 3.6 240 11:49 08.01.2020
5007 Mist 3 1019 86 8000 3.85 265 11:20 08.01.2020
5008 Clouds 4 1020 86 4800 2.6 240 10:59 08.01.2020
5009 Haze 4 1018 80 6000 2.1 190 10:41 08.01.2020
5010 Mist 4 1019 86 9000 3.85 265 10:22 08.01.2020
5011 Clouds 4 1020 86 6000 2.6 230 09:58 08.01.2020
5012 Haze 4 1018 86 6000 2.1 220 09:38 08.01.2020
5013 Clouds 4 1018 80 10000 1.5 250 09:18 08.01.2020
5014 Clouds 5 1017 86 6000 1.5 220 08:42 08.01.2020
5015 Clouds 5 1017 80 10000 1.5 240 08:23 08.01.2020
5016 Clouds 5 1017 80 10000 3.15 286 07:59 08.01.2020
5017 Clouds 5 1016 86 6000 1.5 200 07:40 08.01.2020
5018 Clouds 5 1016 80 10000 1.5 250 07:19 08.01.2020
5019 Clouds 5 1017 86 6000 1.5 220 06:42 08.01.2020
5020 Clouds 4 1017 86 6000 1.5 300 05:57 08.01.2020
5021 Clouds 5 1016 80 10000 3.15 286 05:27 08.01.2020
5022 Clouds 4 1015 93 10000 1 190 04:37 08.01.2020
5023 Clouds 4 1016 86 10000 2.6 230 02:46 08.01.2020
5024 Clouds 4 1014 86 10000 3.66 284 02:28 08.01.2020
5025 Rain 4 1014 93 10000 1 190 01:57 08.01.2020
5026 Clouds 3 1012 93 10000 4.84 314 01:32 08.01.2020
5027 Rain 3 1011 100 10000 2.1 240 00:51 08.01.2020
5028 Rain 3 1009 93 10000 4.87 318 00:22 08.01.2020
5029 Rain 3 1010 100 10000 1 140 23:46 07.01.2020
5030 Rain 3 1007 93 9000 1.5 300 23:21 07.01.2020
5031 Rain 3 1006 93 6000 2.1 250 22:43 07.01.2020
5032 Rain 3 1006 93 8000 8.52 317 22:21 07.01.2020
5033 Rain 3 1006 100 10000 0.5 270 21:59 07.01.2020
5034 Rain 4 1004 100 6000 3.1 200 21:41 07.01.2020
5035 Rain 4 1005 100 9000 1 300 21:21 07.01.2020
5036 Rain 4 1005 100 9000 1 300 21:21 07.01.2020
5037 Rain 4 1004 93 10000 2.6 240 20:57 07.01.2020
5038 Rain 4 1002 93 10000 3.6 210 20:39 07.01.2020
5039 Rain 4 1002 93 10000 3.6 210 20:39 07.01.2020
5040 Rain 4 1003 100 10000 2.1 280 20:21 07.01.2020
5041 Rain 5 1002 93 10000 5.1 210 19:56 07.01.2020
5042 Rain 5 1000 93 10000 4.1 180 19:37 07.01.2020
5043 Rain 5 1002 100 10000 3.6 290 19:19 07.01.2020
5044 Rain 5 1002 100 10000 3.6 290 19:19 07.01.2020
5045 Rain 5 1002 100 10000 3.6 290 19:19 07.01.2020
5046 Rain 6 1000 93 10000 6.7 260 18:55 07.01.2020
5047 Clouds 6 999 93 10000 3.6 170 18:37 07.01.2020
5048 Rain 6 999 93 4800 7.06 277 18:18 07.01.2020
5049 Clouds 8 998 100 10000 2.1 180 17:41 07.01.2020
5050 Clouds 8 998 100 10000 2.1 180 17:23 07.01.2020
5051 Rain 8 997 100 8000 3.1 150 16:58 07.01.2020
5052 Rain 8 998 100 4800 1 360 16:38 07.01.2020
5053 Rain 8 998 100 3000 2.16 136 16:19 07.01.2020
5054 Rain 7 998 93 4400 2.16 136 15:59 07.01.2020
5055 Rain 7 999 100 2800 1.5 360 15:40 07.01.2020
5056 Rain 7 998 100 4800 2.16 136 15:22 07.01.2020
5057 Rain 7 1001 100 10000 3.1 40 14:56 07.01.2020
5058 Rain 8 1000 100 10000 2.1 10 14:37 07.01.2020
5059 Rain 7 1000 93 8000 3.2 45 14:18 07.01.2020
5060 Rain 7 1002 100 4000 1.5 360 13:40 07.01.2020
5061 Rain 7 1001 93 2200 1.5 90 13:19 07.01.2020
5062 Rain 7 1002 100 4800 2.1 360 12:42 07.01.2020
5063 Rain 7 1002 93 2800 3.83 57 12:20 07.01.2020
5064 Rain 7 1003 93 4800 2.1 70 11:57 07.01.2020
5065 Rain 7 1003 93 4000 2.1 70 11:38 07.01.2020
5066 Rain 7 1003 93 4000 2.1 70 11:20 07.01.2020
5067 Rain 7 1004 100 6000 3.04 62 10:42 07.01.2020
5068 Rain 7 1005 100 4400 2.1 60 10:24 07.01.2020
5069 Rain 7 1007 100 2800 1 360 09:58 07.01.2020
5070 Rain 7 1007 100 6000 1.5 350 09:38 07.01.2020
5071 Rain 7 1006 100 4800 1.5 60 09:20 07.01.2020
5072 Rain 7 1007 100 2800 3.04 62 08:43 07.01.2020
5073 Rain 6 1008 100 2200 3.07 33 08:25 07.01.2020
5074 Rain 6 1008 100 3600 2.51 63 07:54 07.01.2020
5075 Rain 6 1009 100 2600 1.5 60 07:28 07.01.2020
5076 Rain 6 1009 100 2600 1.5 60 07:28 07.01.2020
5077 Rain 6 1009 100 3600 1.5 80 06:53 07.01.2020
5078 Rain 6 1011 100 4000 1.5 360 06:34 07.01.2020
5079 Rain 6 1011 100 3000 2.51 63 05:55 07.01.2020
5080 Rain 6 1012 100 2000 1.5 350 04:41 07.01.2020
5081 Rain 6 1012 100 2000 1.5 350 04:41 07.01.2020
5082 Rain 6 1015 93 6000 1.45 37 03:27 07.01.2020
5083 Rain 6 1016 93 10000 1.5 60 02:22 07.01.2020
5084 Rain 5 1016 93 6000 2 51 01:54 07.01.2020
5085 Rain 5 1016 93 4800 2 51 01:30 07.01.2020
5086 Rain 5 1017 100 8000 2.1 360 00:37 07.01.2020
5087 Rain 5 1017 100 8000 2.1 360 00:37 07.01.2020
5088 Rain 5 1017 93 4400 1.5 80 00:18 07.01.2020
5089 Rain 5 1017 100 6000 1.5 350 23:39 06.01.2020
5090 Rain 5 1017 93 4800 1.66 63 23:21 06.01.2020
5091 Rain 5 1016 93 3200 1.66 63 22:58 06.01.2020
5092 Rain 4 1017 100 6000 2.1 360 22:38 06.01.2020
5093 Rain 5 1016 93 4800 1.66 63 22:20 06.01.2020
5094 Rain 4 1016 93 6000 1.66 63 21:56 06.01.2020
5095 Rain 4 1016 93 6000 1.66 63 21:56 06.01.2020
5096 Rain 4 1017 100 9000 1.5 20 21:37 06.01.2020
5097 Rain 4 1017 93 4000 1.66 63 21:19 06.01.2020
5098 Rain 4 1017 93 4800 1.66 63 20:56 06.01.2020
5099 Rain 5 1018 100 8000 1.5 10 20:37 06.01.2020
5100 Rain 5 1017 100 4800 1.78 48 20:19 06.01.2020
5101 Rain 4 1018 100 4800 1.78 48 19:55 06.01.2020
5102 Rain 4 1018 100 6000 1.5 10 19:37 06.01.2020
5103 Rain 4 1018 100 6000 1.78 48 19:18 06.01.2020
5104 Rain 4 1018 93 8000 1.5 40 18:44 06.01.2020
5105 Rain 4 1018 93 8000 1.78 48 18:20 06.01.2020
5106 Rain 4 1020 100 6000 1 360 17:40 06.01.2020
5107 Rain 4 1019 93 8000 2.1 60 17:20 06.01.2020
5108 Rain 4 1019 93 8000 2.1 60 17:20 06.01.2020
5109 Rain 4 1020 93 8000 2.1 50 16:57 06.01.2020
5110 Rain 4 1021 100 10000 1.5 20 16:39 06.01.2020
5111 Rain 4 1020 93 6000 1.5 40 16:21 06.01.2020
5112 Rain 3 1022 100 4800 2.1 350 15:44 06.01.2020
5113 Rain 3 1021 100 3500 1 360 15:22 06.01.2020
5114 Rain 3 1021 100 6000 1.5 60 15:00 06.01.2020
5115 Rain 3 1023 100 2000 1 10 14:41 06.01.2020
5116 Rain 3 1022 93 8000 2.1 60 14:22 06.01.2020
5117 Rain 3 1022 93 4800 2.32 70 13:59 06.01.2020
5118 Drizzle 3 1023 100 4800 1.5 20 13:38 06.01.2020
5119 Rain 3 1022 93 4800 1.5 60 13:20 06.01.2020
5120 Rain 3 1024 100 2000 2.1 30 12:44 06.01.2020
5121 Rain 3 1023 93 8000 2.6 50 12:21 06.01.2020
5122 Rain 3 1025 93 2400 3.1 40 11:59 06.01.2020
5123 Rain 3 1024 100 4800 1 10 11:41 06.01.2020
5124 Rain 3 1023 86 6000 1.5 70 11:23 06.01.2020
5125 Mist 3 1024 93 6000 1.5 50 10:58 06.01.2020
5126 Rain 3 1023 93 4500 3.1 80 10:39 06.01.2020
5127 Mist 3 1024 93 6000 2.1 70 10:20 06.01.2020
5128 Mist 3 1024 93 6000 2.1 70 10:20 06.01.2020
5129 Rain 3 1025 100 4000 1.5 10 09:39 06.01.2020
5130 Rain 3 1024 80 6000 2.61 74 09:20 06.01.2020
5131 Rain 3 1025 80 8000 2.6 210 08:48 06.01.2020
5132 Rain 3 1025 80 8000 2.6 210 08:48 06.01.2020
5133 Haze 3 1024 85 9000 1.5 60 08:30 06.01.2020
5134 Clouds 3 1026 74 10000 3.6 40 07:53 06.01.2020
5135 Clouds 4 1025 69 10000 2.6 50 07:32 06.01.2020
5136 Clouds 3 1025 69 10000 1.5 70 06:45 06.01.2020
5137 Rain 3 1025 60 10000 1.5 50 06:20 06.01.2020
5138 Rain 4 1027 69 10000 2.1 40 05:45 06.01.2020
5139 Clouds 4 1028 64 10000 1.5 10 04:37 06.01.2020
5140 Clouds 4 1027 60 10000 2.1 80 04:18 06.01.2020
5141 Clouds 2 1030 65 10000 1.5 60 02:46 06.01.2020
5142 Rain 2 1028 51 10000 1.5 90 02:23 06.01.2020
5143 Haze 1 1030 46 9000 0.5 350 01:44 06.01.2020
5144 Clouds 1 1029 51 10000 1.17 63 01:24 06.01.2020
5145 Clouds 0 1029 68 10000 0.5 40 00:41 06.01.2020
5146 Clouds 0 1028 51 10000 0.83 75 00:21 06.01.2020
5147 Clouds 0 1028 68 10000 0.5 150 23:41 05.01.2020
5148 Clouds 0 1028 55 10000 0.83 75 23:22 05.01.2020
5149 Clouds 0 1030 63 10000 1 70 22:56 05.01.2020
5150 Clouds 0 1029 63 10000 1.5 30 22:37 05.01.2020
5151 Clouds 0 1028 55 10000 1.27 88 22:19 05.01.2020
5152 Clouds -1 1030 63 10000 1.5 70 21:54 05.01.2020
5153 Clouds -1 1029 68 10000 1 30 21:36 05.01.2020
5154 Clouds 0 1028 59 10000 1.27 88 21:18 05.01.2020
5155 Clouds 0 1028 59 10000 1.27 88 21:18 05.01.2020
5156 Clouds 0 1030 63 10000 2.6 60 20:54 05.01.2020
5157 Clouds -1 1029 63 10000 1.5 40 20:36 05.01.2020
5158 Clouds -1 1028 55 10000 1.91 70 20:18 05.01.2020
5159 Clouds -1 1029 68 10000 0.5 140 19:41 05.01.2020
5160 Clouds -2 1029 43 10000 1.91 70 19:21 05.01.2020
5161 Clouds -1 1031 68 10000 1 200 18:56 05.01.2020
5162 Clouds -1 1030 74 10000 1 20 18:38 05.01.2020
5163 Clouds -2 1029 43 10000 1.91 70 18:19 05.01.2020
5164 Clouds -2 1031 63 10000 1 180 17:59 05.01.2020
5165 Clouds -2 1030 74 10000 1 10 17:39 05.01.2020
5166 Clouds -2 1029 68 10000 0.95 49 17:20 05.01.2020
5167 Clouds -2 1031 68 10000 0.5 250 16:57 05.01.2020
5168 Clouds -2 1030 74 10000 1 20 16:39 05.01.2020
5169 Clouds -2 1030 74 10000 1 20 16:39 05.01.2020
5170 Clouds -2 1029 68 10000 0.95 49 16:20 05.01.2020
5171 Clouds -2 1030 79 10000 1.5 30 15:40 05.01.2020
5172 Clouds -2 1030 68 10000 0.95 49 15:22 05.01.2020
5173 Clouds -2 1033 73 10000 0.5 40 14:57 05.01.2020
5174 Haze -2 1031 79 8000 0.5 160 14:39 05.01.2020
5175 Clouds -1 1030 68 10000 0.79 77 14:20 05.01.2020
5176 Clouds -1 1032 63 10000 0.5 280 13:57 05.01.2020
5177 Haze -1 1031 74 9000 0.5 170 13:38 05.01.2020
5178 Clouds 0 1030 31 10000 0.82 63 13:20 05.01.2020
5179 Clouds 0 1030 74 10000 1 30 13:20 05.01.2020
5180 Clouds 1 1032 58 10000 0.5 130 12:56 05.01.2020
5181 Haze 1 1031 68 9000 0.82 63 12:37 05.01.2020
5182 Clear 1 1030 51 10000 0.82 63 12:19 05.01.2020
5183 Clear 1 1030 51 10000 0.82 63 12:19 05.01.2020
5184 Clouds 2 1030 31 10000 0.5 200 11:44 05.01.2020
5185 Clouds 2 1030 47 10000 0.68 327 11:20 05.01.2020
5186 Clouds 2 1032 50 10000 0.5 140 11:00 05.01.2020
5187 Clouds 2 1031 59 10000 0.5 350 10:40 05.01.2020
5188 Clear 3 1030 44 10000 0.68 327 10:20 05.01.2020
5189 Haze 4 1030 51 9000 0.5 200 09:42 05.01.2020
5190 Clouds 4 1030 35 10000 0.68 327 09:22 05.01.2020
5191 Clouds 5 1032 38 10000 0.5 280 08:54 05.01.2020
5192 Clear 6 1030 33 10000 0.68 327 08:35 05.01.2020
5193 Haze 6 1031 35 4800 1 310 07:59 05.01.2020
5194 Clear 6 1029 33 10000 0.5 220 07:39 05.01.2020
5195 Clouds 6 1029 33 10000 1.5 160 07:20 05.01.2020
5196 Clear 6 1031 35 10000 1.5 340 06:44 05.01.2020
5197 Clear 5 1029 41 10000 1.5 220 05:38 05.01.2020
5198 Clear 4 1031 38 10000 1 220 04:55 05.01.2020
5199 Clear 3 1031 38 10000 0.55 60 04:18 05.01.2020
5200 Clear 3 1031 38 10000 0.55 60 04:18 05.01.2020
5201 Clear 3 1031 38 10000 0.55 60 04:18 05.01.2020
5202 Clear 1 1031 51 10000 0.55 60 03:18 05.01.2020
5203 Clear -2 1032 59 10000 0.55 60 02:32 05.01.2020
5204 Haze -4 1034 79 6000 0.5 40 01:49 05.01.2020
5205 Clear -4 1031 86 10000 0.11 332 01:20 05.01.2020
5206 Clear -7 1033 92 4800 0.5 150 00:56 05.01.2020
5207 Clear -7 1031 92 6000 0.5 40 00:37 05.01.2020
5208 Clear -7 1031 85 10000 0.11 332 00:19 05.01.2020
5209 Clear -6 1031 100 6000 0.5 170 23:40 04.01.2020
5210 Clear -6 1030 79 10000 0.48 302 23:20 04.01.2020
5211 Clear -6 1030 92 6000 0.5 170 22:40 04.01.2020
5212 Clear -6 1030 79 10000 0.48 302 22:22 04.01.2020
5213 Clear -5 1030 92 6000 0.5 140 21:58 04.01.2020
5214 Clear -5 1029 100 6000 0.5 70 21:40 04.01.2020
5215 Clear -5 1029 73 10000 0.48 302 21:21 04.01.2020
5216 Clear -5 1030 92 6000 0.5 90 20:59 04.01.2020
5217 Clear -5 1029 100 6000 0.48 302 20:40 04.01.2020
5218 Clear -5 1029 73 10000 0.71 290 20:22 04.01.2020
5219 Clear -4 1030 92 6000 0.5 190 19:57 04.01.2020
5220 Clear -4 1029 92 6000 0.5 180 19:38 04.01.2020
5221 Clear -4 1029 74 10000 0.71 290 19:20 04.01.2020
5222 Clear -4 1029 85 6000 0.71 290 18:56 04.01.2020
5223 Clear -5 1029 92 6000 0.5 180 18:37 04.01.2020
5224 Clear -4 1028 73 10000 0.71 290 18:19 04.01.2020
5225 Clear -4 1028 85 6000 0.5 230 17:41 04.01.2020
5226 Clear -3 1028 63 10000 0.95 268 17:23 04.01.2020
5227 Haze -3 1029 79 6000 1 130 16:58 04.01.2020
5228 Clouds -3 1028 92 6000 0.5 150 16:39 04.01.2020
5229 Clear -2 1028 55 10000 1.5 320 16:21 04.01.2020
5230 Haze -2 1028 85 9000 0.5 130 15:55 04.01.2020
5231 Clear -2 1028 85 6000 0.5 170 15:37 04.01.2020
5232 Clear -2 1028 58 10000 0.95 268 15:18 04.01.2020
5233 Clear -1 1028 79 10000 0.95 268 14:42 04.01.2020
5234 Clear -1 1027 46 10000 1.24 283 14:20 04.01.2020
5235 Clear 0 1028 74 10000 1.24 283 13:59 04.01.2020
5236 Clear 0 1028 74 10000 1.24 283 13:59 04.01.2020
5237 Haze 0 1027 74 8000 0.5 290 13:38 04.01.2020
5238 Clear 0 1027 44 10000 1.5 300 13:19 04.01.2020
5239 Clear 1 1028 63 10000 0.5 120 12:57 04.01.2020
5240 Haze 1 1027 68 8000 0.5 150 12:39 04.01.2020
5241 Haze 1 1027 68 8000 0.5 150 12:39 04.01.2020
5242 Clear 1 1027 48 10000 1.22 278 12:18 04.01.2020
5243 Clear 1 1027 48 10000 1.22 278 12:18 04.01.2020
5244 Clear 2 1027 55 10000 0.5 260 11:56 04.01.2020
5245 Haze 2 1026 46 9000 0.5 140 11:37 04.01.2020
5246 Clear 2 1026 44 10000 2.48 302 11:18 04.01.2020
5247 Clear 3 1026 48 10000 1.5 270 10:40 04.01.2020
5248 Clear 3 1026 48 10000 2.48 302 10:21 04.01.2020
5249 Clear 4 1026 44 10000 2.1 250 09:47 04.01.2020
5250 Clear 5 1025 41 10000 2.48 302 09:26 04.01.2020
5251 Clear 6 1027 41 10000 1.5 300 08:49 04.01.2020
5252 Clear 6 1025 41 10000 2.48 302 08:29 04.01.2020
5253 Clear 7 1026 35 10000 2.6 320 07:57 04.01.2020
5254 Clear 7 1024 30 10000 2.1 320 07:39 04.01.2020
5255 Clear 7 1026 35 10000 2.1 290 06:44 04.01.2020
5256 Clear 6 1025 45 10000 4.6 250 05:59 04.01.2020
5257 Haze 5 1026 51 8000 0.5 260 04:52 04.01.2020
5258 Clear 4 1025 56 10000 1.5 180 04:31 04.01.2020
5259 Clouds 2 1026 59 10000 1.3 292 03:30 04.01.2020
5260 Haze 0 1028 74 6000 2.1 70 02:52 04.01.2020
5261 Clouds -1 1026 69 10000 0.4 1 02:18 04.01.2020
5262 Haze -2 1028 79 4800 0.5 70 01:45 04.01.2020
5263 Clouds -2 1025 80 10000 0.4 1 01:27 04.01.2020
5264 Clouds -3 1025 74 10000 0.43 352 00:29 04.01.2020
5265 Mist -3 1027 85 4800 1 70 23:59 03.01.2020
5266 Mist -3 1027 85 4800 1 70 23:59 03.01.2020
5267 Clouds -4 1025 92 6000 0.43 352 23:37 03.01.2020
5268 Clouds -4 1025 80 10000 0.1 94 23:18 03.01.2020
5269 Clouds -5 1025 92 6000 0.5 200 22:40 03.01.2020
5270 Clouds -5 1025 86 10000 0.1 94 22:19 03.01.2020
5271 Clear -6 1026 100 4800 1 120 21:57 03.01.2020
5272 Clear -6 1025 92 6000 0.5 30 21:38 03.01.2020
5273 Mist -6 1025 85 9000 0.1 94 21:19 03.01.2020
5274 Mist -6 1027 92 4000 0.5 40 20:55 03.01.2020
5275 Clouds -6 1026 92 6000 0.5 160 20:37 03.01.2020
5276 Mist -5 1025 85 9000 0.62 217 20:18 03.01.2020
5277 Mist -5 1027 92 3200 0.5 100 19:54 03.01.2020
5278 Clouds -6 1026 92 6000 0.5 170 19:36 03.01.2020
5279 Clear -5 1025 85 10000 0.62 217 19:18 03.01.2020
5280 Clouds -5 1026 85 6000 0.5 200 18:39 03.01.2020
5281 Clouds -5 1026 85 6000 0.5 200 18:39 03.01.2020
5282 Clear -5 1025 85 10000 0.62 217 18:20 03.01.2020
5283 Clouds -4 1025 85 6000 0.5 180 17:42 03.01.2020
5284 Mist -5 1027 92 4000 0.5 140 17:22 03.01.2020
5285 Clear -4 1027 92 4800 0.5 60 16:59 03.01.2020
5286 Clear -4 1025 85 6000 0.5 180 16:40 03.01.2020
5287 Clear -4 1025 73 10000 0.47 104 16:21 03.01.2020
5288 Clear -3 1026 85 6000 0.47 104 15:42 03.01.2020
5289 Clear -3 1026 73 10000 0.47 104 15:19 03.01.2020
5290 Haze -3 1026 79 8000 0.47 104 14:40 03.01.2020
5291 Haze -2 1028 79 6000 0.57 242 14:21 03.01.2020
5292 Haze -2 1028 73 6000 1 120 13:59 03.01.2020
5293 Haze -2 1027 73 9000 0.5 170 13:40 03.01.2020
5294 Clear -2 1026 63 10000 0.92 252 13:22 03.01.2020
5295 Haze -1 1026 73 9000 0.5 160 12:41 03.01.2020
5296 Clear -1 1026 45 10000 0.92 252 12:22 03.01.2020
5297 Haze 0 1028 63 6000 1 180 11:57 03.01.2020
5298 Haze 0 1028 63 6000 1 180 11:57 03.01.2020
5299 Haze 0 1026 68 9000 0.5 280 11:39 03.01.2020
5300 Clear 1 1028 63 10000 0.5 240 10:59 03.01.2020
5301 Clear 1 1027 59 10000 2.1 280 10:40 03.01.2020
5302 Clear 1 1026 51 10000 0.8 295 10:22 03.01.2020
5303 Clear 3 1027 50 10000 1 220 09:55 03.01.2020
5304 Haze 3 1025 55 9000 0.5 170 09:37 03.01.2020
5305 Clear 3 1025 41 10000 0.8 295 09:19 03.01.2020
5306 Clear 5 1026 30 10000 1 310 08:45 03.01.2020
5307 Clear 5 1026 35 10000 1.5 10 08:23 03.01.2020
5308 Clear 5 1028 35 10000 1 230 07:56 03.01.2020
5309 Clear 5 1026 35 10000 2.1 250 07:37 03.01.2020
5310 Clear 5 1026 41 10000 1 270 07:18 03.01.2020
5311 Clear 5 1025 38 10000 1.5 230 06:42 03.01.2020
5312 Clear 4 1026 29 10000 2.1 220 06:22 03.01.2020
5313 Clear 3 1027 37 10000 3.6 280 04:59 03.01.2020
5314 Mist 1 1027 41 3200 1 190 03:38 03.01.2020
5315 Mist -1 1030 100 2000 0.5 300 02:53 03.01.2020
5316 Mist -1 1030 100 2000 0.5 300 02:53 03.01.2020
5317 Mist -3 1030 100 1600 0.5 60 01:51 03.01.2020
5318 Mist -4 1028 92 6000 1.48 311 01:31 03.01.2020
5319 Mist -5 1028 100 2800 1.63 306 00:40 03.01.2020
5320 Mist -5 1027 92 4400 1.63 306 00:20 03.01.2020
5321 Mist -4 1027 100 2400 0.5 150 23:39 02.01.2020
5322 Mist -4 1027 92 6000 0.91 304 23:20 02.01.2020
5323 Fog -4 1029 92 400 0.5 350 22:58 02.01.2020
5324 Mist -4 1027 100 2400 1 160 22:40 02.01.2020
5325 Mist -4 1027 80 9000 0.91 304 22:19 02.01.2020
5326 Fog -3 1029 92 0 0.91 304 21:55 02.01.2020
5327 Mist -3 1027 100 2400 0.5 170 21:37 02.01.2020
5328 Mist -3 1028 100 3500 2.1 330 21:18 02.01.2020
5329 Mist -3 1029 92 2000 0.91 304 20:56 02.01.2020
5330 Mist -3 1027 100 2800 1 190 20:37 02.01.2020
5331 Mist -3 1027 92 8000 1.04 288 20:18 02.01.2020
5332 Mist -3 1029 92 2000 1.04 288 19:54 02.01.2020
5333 Mist -2 1028 86 8000 1.04 288 19:36 02.01.2020
5334 Mist -3 1028 86 8000 1.04 288 19:36 02.01.2020
5335 Mist -2 1028 86 8000 1.04 288 19:18 02.01.2020
5336 Mist -2 1028 100 2800 0.5 240 18:42 02.01.2020
5337 Clear -2 1028 68 10000 1.04 288 18:23 02.01.2020
5338 Mist -2 1030 100 1600 0.5 140 17:58 02.01.2020
5339 Mist -2 1030 100 1600 0.5 140 17:58 02.01.2020
5340 Mist -2 1028 100 3200 1.04 288 17:38 02.01.2020
5341 Mist -1 1030 100 1600 0.5 170 17:20 02.01.2020
5342 Clouds -1 1029 75 4800 1 250 16:58 02.01.2020
5343 Mist -1 1028 92 3200 1 180 16:40 02.01.2020
5344 Mist -1 1028 92 3200 1 180 16:40 02.01.2020
5345 Clear -1 1028 75 10000 1.48 309 16:20 02.01.2020
5346 Clear -1 1028 75 10000 1.48 309 16:20 02.01.2020
5347 Mist -1 1030 92 1200 1.48 309 15:57 02.01.2020
5348 Mist -1 1030 92 1600 0.5 120 15:39 02.01.2020
5349 Mist -1 1028 92 4000 1 180 15:19 02.01.2020
5350 Mist -1 1030 100 1600 0.5 140 14:55 02.01.2020
5351 Mist -1 1030 92 1600 0.5 100 14:36 02.01.2020
5352 Mist 0 1029 92 4000 0.5 180 14:18 02.01.2020
5353 Mist 0 1030 92 2000 0.5 120 13:47 02.01.2020
5354 Mist 0 1030 92 2000 0.5 150 13:29 02.01.2020
5355 Clear 1 1028 86 4800 0.5 180 12:45 02.01.2020
5356 Mist 1 1030 100 3200 0.7 297 12:25 02.01.2020
5357 Mist 1 1030 100 3200 0.7 297 11:57 02.01.2020
5358 Mist 1 1030 86 4000 1 140 11:37 02.01.2020
5359 Mist 1 1030 86 4000 1 140 11:19 02.01.2020
5360 Haze 2 1028 74 6000 0.5 90 10:39 02.01.2020
5361 Clouds 2 1028 69 10000 0.25 316 10:19 02.01.2020
5362 Haze 3 1029 74 6000 0.5 350 09:42 02.01.2020
5363 Clouds 3 1028 64 10000 0.25 316 09:24 02.01.2020
5364 Haze 4 1029 69 8000 1 150 08:45 02.01.2020
5365 Haze 4 1029 69 8000 1 150 08:45 02.01.2020
5366 Clouds 3 1028 60 10000 0.25 316 08:27 02.01.2020
5367 Haze 4 1030 64 8000 1 300 07:50 02.01.2020
5368 Clouds 4 1028 60 10000 0.87 276 07:30 02.01.2020
5369 Haze 4 1029 64 9000 1 110 06:45 02.01.2020
5370 Clouds 4 1028 60 10000 0.87 276 06:26 02.01.2020
5371 Haze 3 1030 64 9000 0.5 20 04:53 02.01.2020
5372 Clouds 2 1029 64 10000 1.2 163 04:30 02.01.2020
5373 Clouds 1 1030 69 10000 1.2 163 02:32 02.01.2020
5374 Haze 0 1032 86 8000 0.5 50 01:58 02.01.2020
5375 Clouds 0 1030 74 10000 0.82 115 01:33 02.01.2020
5376 Haze -1 1032 86 6000 1 70 00:57 02.01.2020
5377 Clouds -1 1030 69 10000 0.69 99 00:33 02.01.2020
5378 Clouds -1 1032 86 6000 0.5 330 23:49 01.01.2020
5379 Clouds -1 1030 83 10000 0.69 99 23:26 01.01.2020
5380 Clouds -1 1031 86 6000 0.5 10 22:55 01.01.2020
5381 Clouds -1 1030 86 6000 0.53 122 22:37 01.01.2020
5382 Clouds -1 1030 78 10000 0.53 122 22:18 01.01.2020
5383 Clouds -1 1031 86 9000 0.53 122 21:42 01.01.2020
5384 Clouds -1 1030 78 10000 0.53 122 21:21 01.01.2020
5385 Haze -1 1031 86 6000 0.5 60 20:59 01.01.2020
5386 Clouds -1 1030 86 6000 0.5 40 20:39 01.01.2020
5387 Clouds -1 1030 68 10000 0.44 66 20:21 01.01.2020
5388 Haze -1 1031 86 6000 0.5 50 19:58 01.01.2020
5389 Haze -1 1031 86 6000 0.5 50 19:58 01.01.2020
5390 Clouds -1 1030 92 6000 0.44 66 19:39 01.01.2020
5391 Clouds -1 1030 68 10000 0.44 66 19:20 01.01.2020
5392 Clouds -1 1032 86 6000 0.5 40 18:57 01.01.2020
5393 Clouds -1 1030 92 6000 0.5 320 18:39 01.01.2020
5394 Clouds -1 1030 68 10000 0.44 66 18:20 01.01.2020
5395 Clouds -2 1031 92 6000 0.5 60 17:59 01.01.2020
5396 Clouds -2 1030 92 6000 0.5 170 17:40 01.01.2020
5397 Clouds -2 1030 74 10000 0.46 112 17:20 01.01.2020
5398 Clouds -1 1032 92 6000 0.5 340 16:58 01.01.2020
5399 Clouds -1 1031 92 6000 0.5 160 16:38 01.01.2020
5400 Clouds -2 1031 74 10000 0.46 112 16:19 01.01.2020
5401 Clouds -1 1033 92 4800 0.5 270 15:56 01.01.2020
5402 Clouds -2 1032 92 6000 0.5 170 15:37 01.01.2020
5403 Clouds -2 1031 74 10000 0.46 112 15:19 01.01.2020
5404 Clouds -1 1033 92 6000 1 90 14:42 01.01.2020
5405 Clouds -1 1031 80 10000 0.64 121 14:24 01.01.2020
5406 Clouds -1 1033 92 6000 0.5 100 13:57 01.01.2020
5407 Clouds -1 1031 86 6000 1 170 13:38 01.01.2020
5408 Clouds -1 1031 79 10000 0.56 133 13:19 01.01.2020
5409 Clouds -1 1032 74 10000 2.1 130 12:57 01.01.2020
5410 Clouds -1 1031 79 8000 0.5 160 12:39 01.01.2020
5411 Clouds -1 1031 69 10000 0.56 133 12:19 01.01.2020
5412 Clouds -1 1033 86 10000 0.5 310 11:56 01.01.2020
5413 Clouds -1 1033 86 10000 0.5 310 11:56 01.01.2020
5414 Haze -1 1031 79 9000 0.5 140 11:37 01.01.2020
5415 Clouds 0 1031 76 10000 0.46 298 11:18 01.01.2020
5416 Clear 0 1033 79 10000 0.5 160 10:54 01.01.2020
5417 Clouds 0 1031 79 10000 1 170 10:36 01.01.2020
5418 Clouds 0 1031 69 10000 0.46 298 10:18 01.01.2020
5419 Clouds 0 1031 74 10000 1 240 09:38 01.01.2020
5420 Clouds 0 1031 69 10000 0.46 298 09:19 01.01.2020
5421 Clouds 0 1031 69 10000 0.46 298 09:19 01.01.2020
5422 Clouds 0 1033 76 10000 1.5 210 08:56 01.01.2020
5423 Clouds 0 1031 74 10000 2.1 210 08:37 01.01.2020
5424 Clouds 0 1031 69 10000 2.25 283 08:19 01.01.2020
5425 Clouds 0 1033 62 10000 1.5 230 07:54 01.01.2020
5426 Clouds 0 1031 68 10000 1.5 200 07:36 01.01.2020
5427 Clouds 0 1032 62 10000 1 270 06:45 01.01.2020
5428 Clouds -1 1031 62 10000 2.25 283 06:21 01.01.2020
5429 Haze -2 1031 80 9000 1.5 40 05:22 01.01.2020
5430 Mist -3 1033 86 6000 0.3 294 03:46 01.01.2020
5431 Clouds -3 1033 86 4800 0.3 294 03:23 01.01.2020
5432 Clouds -3 1033 79 6000 0.3 294 02:57 01.01.2020
5433 Haze -4 1034 79 8000 1 190 02:35 01.01.2020
5434 Haze -4 1035 79 9000 0.5 20 01:57 01.01.2020
5435 Haze -4 1034 85 4800 0.5 170 01:38 01.01.2020
5436 Clouds -4 1033 79 6000 0.81 116 01:19 01.01.2020
5437 Clouds -5 1033 73 10000 0.81 116 00:44 01.01.2020
5438 Clouds -5 1032 68 10000 0.81 116 00:25 01.01.2020
5439 Clouds -5 1033 67 10000 1 140 23:41 31.12.2019
5440 Clouds -5 1032 62 10000 1.17 163 23:21 31.12.2019
5441 Clouds -5 1034 79 10000 1.17 163 22:57 31.12.2019
5442 Clouds -5 1033 62 10000 1.5 170 22:39 31.12.2019
5443 Clouds -5 1032 58 10000 1.17 163 22:20 31.12.2019
5444 Haze -5 1034 73 8000 1 20 21:57 31.12.2019
5445 Clouds -6 1032 62 10000 1 160 21:38 31.12.2019
5446 Clouds -6 1032 62 10000 1 160 21:38 31.12.2019
5447 Clouds -6 1032 62 10000 1.17 163 21:20 31.12.2019
5448 Clouds -6 1034 67 10000 1 20 20:55 31.12.2019
5449 Clouds -6 1032 57 10000 2.1 180 20:36 31.12.2019
5450 Snow -6 1032 62 10000 1.46 171 20:18 31.12.2019
5451 Clouds -6 1033 57 10000 1 180 19:42 31.12.2019
5452 Clouds -6 1032 57 10000 1.46 171 19:24 31.12.2019
5453 Clouds -5 1032 53 10000 1.46 171 18:59 31.12.2019
5454 Clouds -5 1033 57 10000 1 190 18:40 31.12.2019
5455 Clouds -6 1032 45 10000 1.46 171 18:20 31.12.2019
5456 Clouds -6 1034 62 10000 1 50 17:56 31.12.2019
5457 Clouds -6 1033 62 10000 0.5 200 17:38 31.12.2019
5458 Clouds -6 1033 45 10000 0.18 135 17:19 31.12.2019
5459 Clouds -6 1035 48 10000 0.18 135 16:57 31.12.2019
5460 Clouds -7 1033 57 10000 1 150 16:38 31.12.2019
5461 Clouds -7 1033 49 10000 0.18 135 16:19 31.12.2019
5462 Clouds -7 1034 57 10000 0.18 135 15:56 31.12.2019
5463 Clouds -8 1034 61 10000 1 120 15:38 31.12.2019
5464 Clouds -8 1034 61 10000 1 120 15:38 31.12.2019
5465 Clouds -8 1034 57 10000 0.18 135 15:20 31.12.2019
5466 Clouds -8 1035 57 10000 0.5 160 14:57 31.12.2019
5467 Clear -8 1034 61 10000 1 120 14:38 31.12.2019
5468 Clear -8 1034 57 10000 2.95 317 14:19 31.12.2019
5469 Clear -7 1035 56 10000 1.5 120 13:56 31.12.2019
5470 Clear -7 1034 57 10000 1 170 13:38 31.12.2019
5471 Clear -7 1035 44 10000 2.74 321 13:20 31.12.2019
5472 Clear -7 1036 48 10000 0.5 150 12:56 31.12.2019
5473 Clear -7 1035 34 10000 2.1 300 12:38 31.12.2019
5474 Clear -6 1035 44 10000 2.1 300 12:19 31.12.2019
5475 Clear -6 1037 44 10000 1.5 300 11:55 31.12.2019
5476 Clear -7 1034 37 10000 1.5 230 11:37 31.12.2019
5477 Clear -7 1034 37 10000 1.5 230 11:37 31.12.2019
5478 Clear -7 1035 41 10000 4.37 312 11:19 31.12.2019
5479 Clear -6 1037 44 10000 1 310 10:56 31.12.2019
5480 Clear -6 1034 35 10000 1 210 10:37 31.12.2019
5481 Clear -6 1035 41 10000 4.37 312 10:19 31.12.2019
5482 Clear -5 1035 32 10000 3.6 260 09:57 31.12.2019
5483 Clear -5 1034 29 10000 0.5 240 09:38 31.12.2019
5484 Clear -5 1035 35 10000 4.37 312 09:19 31.12.2019
5485 Clear -4 1034 27 10000 2.1 280 08:42 31.12.2019
5486 Clear -4 1034 35 10000 2.6 200 08:23 31.12.2019
5487 Clear -5 1036 29 10000 1.5 290 07:57 31.12.2019
5488 Clear -5 1034 27 10000 2.6 280 07:38 31.12.2019
5489 Clear -5 1035 35 10000 4.91 316 07:18 31.12.2019
5490 Clear -5 1034 27 10000 2.6 340 06:40 31.12.2019
5491 Clear -6 1035 34 10000 3.1 270 04:58 31.12.2019
5492 Clear -6 1036 41 10000 5.15 315 04:25 31.12.2019
5493 Clear -8 1036 40 10000 3.1 270 02:59 31.12.2019
5494 Clear -8 1036 37 10000 1.5 270 02:34 31.12.2019
5495 Clear -9 1036 47 10000 2.6 250 01:51 31.12.2019
5496 Clear -9 1036 40 10000 1.5 350 01:32 31.12.2019
5497 Clear -10 1036 47 10000 3.6 280 00:49 31.12.2019
5498 Clear -9 1035 47 10000 2.1 330 00:26 31.12.2019
5499 Clear -9 1035 47 10000 2.1 280 23:59 30.12.2019
5500 Clear -9 1034 56 10000 0.5 210 23:41 30.12.2019
5501 Clear -9 1034 52 10000 4.6 260 23:23 30.12.2019
5502 Clear -9 1035 52 10000 3.1 270 22:59 30.12.2019
5503 Clouds -9 1034 52 10000 1.5 220 22:41 30.12.2019
5504 Clear -9 1034 47 10000 2.1 320 22:22 30.12.2019
5505 Clear -9 1034 56 10000 4.6 270 21:57 30.12.2019
5506 Clear -9 1033 56 10000 1.5 320 21:39 30.12.2019
5507 Clear -9 1033 56 10000 1.5 320 21:39 30.12.2019
5508 Clear -9 1034 56 10000 1.5 300 21:20 30.12.2019
5509 Clear -8 1033 52 10000 5.1 270 20:59 30.12.2019
5510 Clear -8 1033 52 10000 5.1 270 20:41 30.12.2019
5511 Clear -8 1033 52 10000 3.1 300 20:20 30.12.2019
5512 Clouds -7 1032 57 10000 5.1 280 19:59 30.12.2019
5513 Clouds -7 1031 57 10000 2.1 290 19:40 30.12.2019
5514 Clouds -7 1032 57 10000 7.54 311 19:20 30.12.2019
5515 Clouds -7 1031 57 10000 3.6 260 18:59 30.12.2019
5516 Clouds -6 1030 52 10000 1 30 18:41 30.12.2019
5517 Clouds -6 1031 57 10000 1.5 320 18:20 30.12.2019
5518 Clouds -6 1030 62 10000 1.5 310 17:57 30.12.2019
5519 Clouds -6 1029 53 10000 1 170 17:39 30.12.2019
5520 Clouds -6 1030 62 10000 2.1 290 17:19 30.12.2019
5521 Clouds -5 1029 62 10000 2.6 320 16:58 30.12.2019
5522 Haze -4 1028 62 4800 1.5 150 16:37 30.12.2019
5523 Snow -4 1028 58 10000 2.1 260 16:19 30.12.2019
5524 Clouds -3 1028 53 10000 4.1 240 15:56 30.12.2019
5525 Clouds -3 1027 53 10000 1.5 310 15:37 30.12.2019
5526 Clouds -3 1028 58 10000 1.5 320 15:18 30.12.2019
5527 Clouds -2 1030 62 10000 4.6 310 14:43 30.12.2019
5528 Clouds -2 1030 62 10000 4.6 310 14:43 30.12.2019
5529 Clear -2 1027 58 10000 1.5 220 14:20 30.12.2019
5530 Clouds -1 1029 62 10000 3.1 310 13:57 30.12.2019
5531 Clear -1 1025 54 10000 3.1 240 13:39 30.12.2019
5532 Clear -1 1026 58 10000 6.81 294 13:21 30.12.2019
5533 Clouds 0 1026 44 10000 2.1 230 12:56 30.12.2019
5534 Clear 0 1025 44 10000 1.5 280 12:36 30.12.2019
5535 Clouds 1 1025 44 10000 1.5 300 12:18 30.12.2019
5536 Clouds 2 1024 59 10000 2.6 260 11:40 30.12.2019
5537 Clear 2 1025 64 10000 5.82 314 11:19 30.12.2019
5538 Clouds 3 1024 64 10000 2.1 230 10:57 30.12.2019
5539 Haze 3 1023 39 8000 1 240 10:38 30.12.2019
5540 Clear 3 1023 60 10000 5.82 314 10:18 30.12.2019
5541 Clouds 5 1022 65 10000 1 190 09:41 30.12.2019
5542 Clouds 5 1023 39 10000 2.1 320 09:20 30.12.2019
5543 Haze 6 1023 70 9000 2.6 250 08:55 30.12.2019
5544 Clouds 6 1022 70 10000 1.5 340 08:36 30.12.2019
5545 Clouds 6 1022 81 10000 4.43 316 08:18 30.12.2019
5546 Clouds 6 1023 75 7000 4.1 320 08:18 30.12.2019
5547 Clouds 6 1021 87 6000 1 210 07:40 30.12.2019
5548 Haze 6 1023 75 9000 3.1 280 06:55 30.12.2019
5549 Mist 6 1021 93 6000 4.43 316 06:23 30.12.2019
5550 Haze 6 1024 63 8000 0.5 360 03:58 30.12.2019
5551 Clouds 5 1022 81 10000 1.9 254 03:32 30.12.2019
5552 Mist 5 1022 93 4000 0.5 180 02:40 30.12.2019
5553 Clouds 4 1023 69 10000 0.5 60 01:56 30.12.2019
5554 Clouds 4 1022 81 10000 0.51 126 01:25 30.12.2019
5555 Mist 3 1023 93 6000 0.5 350 00:45 30.12.2019
5556 Clouds 3 1022 86 10000 2.1 290 00:23 30.12.2019
5557 Mist 3 1022 100 4000 1 20 23:39 29.12.2019
5558 Clouds 3 1022 100 4800 0.5 350 23:21 29.12.2019
5559 Haze 3 1023 74 9000 1 10 22:55 29.12.2019
5560 Clouds 3 1021 93 6000 0.5 20 22:37 29.12.2019
5561 Clouds 3 1021 86 10000 0.58 353 22:18 29.12.2019
5562 Clouds 3 1022 69 10000 0.58 353 21:43 29.12.2019
5563 Clouds 3 1020 86 10000 0.58 353 21:21 29.12.2019
5564 Clouds 3 1022 64 10000 0.5 350 20:57 29.12.2019
5565 Clouds 3 1021 93 8000 1 30 20:39 29.12.2019
5566 Clouds 3 1022 69 10000 2.6 40 20:21 29.12.2019
5567 Clouds 3 1023 69 10000 1 60 19:59 29.12.2019
5568 Clouds 3 1022 93 6000 1.5 30 19:40 29.12.2019
5569 Clouds 3 1021 86 10000 1.66 64 19:21 29.12.2019
5570 Clouds 3 1023 64 10000 1.5 70 18:58 29.12.2019
5571 Clouds 3 1022 93 6000 2.1 10 18:38 29.12.2019
5572 Clouds 3 1022 80 10000 1.66 64 18:20 29.12.2019
5573 Rain 3 1024 64 10000 3.1 40 17:58 29.12.2019
5574 Rain 3 1022 100 6000 1.5 30 17:39 29.12.2019
5575 Rain 3 1022 86 10000 1.13 120 17:20 29.12.2019
5576 Rain 3 1022 86 10000 1.13 120 16:56 29.12.2019
5577 Rain 3 1023 93 6000 1 40 16:37 29.12.2019
5578 Rain 3 1023 93 6000 1 40 16:37 29.12.2019
5579 Rain 3 1022 86 10000 1.13 120 16:19 29.12.2019
5580 Haze 3 1024 80 6000 1 60 15:57 29.12.2019
5581 Drizzle 3 1023 100 6000 1 30 15:39 29.12.2019
5582 Clouds 3 1023 80 10000 1.13 120 15:20 29.12.2019
5583 Rain 3 1024 74 8000 1.5 50 14:57 29.12.2019
5584 Rain 3 1023 100 4800 1 40 14:38 29.12.2019
5585 Rain 3 1023 86 10000 1.27 83 14:18 29.12.2019
5586 Rain 4 1025 74 9000 1 60 13:57 29.12.2019
5587 Rain 4 1025 74 9000 1 60 13:57 29.12.2019
5588 Rain 4 1024 93 6000 0.5 50 13:38 29.12.2019
5589 Rain 4 1023 75 10000 1.42 94 13:19 29.12.2019
5590 Rain 4 1025 86 9000 1 30 12:45 29.12.2019
5591 Rain 4 1023 57 10000 1.42 94 12:27 29.12.2019
5592 Clouds 5 1025 48 10000 1 30 11:57 29.12.2019
5593 Haze 5 1024 64 9000 0.5 20 11:38 29.12.2019
5594 Clear 5 1023 56 10000 1.96 101 11:20 29.12.2019
5595 Haze 5 1024 64 9000 0.5 360 10:43 29.12.2019
5596 Clouds 5 1024 48 10000 1.96 101 10:24 29.12.2019
5597 Rain 5 1024 56 10000 3.1 170 09:58 29.12.2019
5598 Rain 5 1024 56 10000 3.1 170 09:39 29.12.2019
5599 Clouds 5 1024 45 10000 1.96 101 09:21 29.12.2019
5600 Rain 6 1025 39 10000 0.5 60 08:47 29.12.2019
5601 Rain 6 1024 42 10000 1.5 80 08:27 29.12.2019
5602 Rain 6 1025 39 10000 1 120 07:55 29.12.2019
5603 Rain 6 1024 42 10000 2.09 102 07:28 29.12.2019
5604 Clouds 6 1026 45 10000 1 40 06:55 29.12.2019
5605 Clouds 6 1024 45 10000 2.09 102 06:25 29.12.2019
5606 Clouds 6 1026 48 10000 2.1 60 05:51 29.12.2019
5607 Clouds 5 1026 59 10000 1 30 04:36 29.12.2019
5608 Clouds 4 1027 64 10000 2.1 20 03:51 29.12.2019
5609 Clouds 3 1027 51 10000 2.1 70 03:20 29.12.2019
5610 Clouds 2 1027 55 10000 1.5 92 02:20 29.12.2019
5611 Clouds 1 1027 55 10000 1.44 94 01:31 29.12.2019
5612 Clouds 1 1027 55 10000 1.5 92 01:31 29.12.2019
5613 Clouds 1 1027 55 10000 1.5 92 01:31 29.12.2019
5614 Clouds 0 1028 57 10000 1 50 00:57 29.12.2019
5615 Clouds 0 1028 86 8000 0.5 160 00:39 29.12.2019
5616 Clouds 0 1027 59 10000 1.44 94 00:21 29.12.2019
5617 Clouds -1 1028 92 6000 0.5 170 23:42 28.12.2019
5618 Clouds -1 1028 92 6000 0.5 170 23:42 28.12.2019
5619 Clouds -1 1027 64 10000 1.61 82 23:18 28.12.2019
5620 Clouds -1 1028 92 8000 0.5 160 22:39 28.12.2019
5621 Clouds -1 1028 92 8000 0.5 160 22:39 28.12.2019
5622 Clouds -1 1026 59 10000 1.61 82 22:20 28.12.2019
5623 Haze -1 1028 60 9000 1 60 21:58 28.12.2019
5624 Haze -1 1028 60 9000 1 60 21:58 28.12.2019
5625 Clouds -1 1027 92 6000 0.5 150 21:39 28.12.2019
5626 Clouds -1 1027 64 10000 1.61 82 21:21 28.12.2019
5627 Clouds -1 1027 64 10000 1.61 82 21:21 28.12.2019
5628 Haze -2 1028 60 9000 1.61 82 20:57 28.12.2019
5629 Clouds -2 1028 100 6000 1.61 82 20:37 28.12.2019
5630 Clouds -1 1029 69 10000 1 80 20:19 28.12.2019
5631 Clouds -1 1029 69 10000 1 50 19:55 28.12.2019
5632 Clear -1 1028 59 10000 1.47 83 19:37 28.12.2019
5633 Clear -1 1028 59 10000 1.47 83 19:18 28.12.2019
5634 Clouds -1 1029 69 10000 1 70 18:56 28.12.2019
5635 Clouds -1 1029 92 6000 1.47 83 18:38 28.12.2019
5636 Clear -1 1028 59 10000 1.47 83 18:18 28.12.2019
5637 Clouds -1 1029 86 6000 0.5 200 17:42 28.12.2019
5638 Clouds -1 1029 86 6000 0.5 200 17:42 28.12.2019
5639 Clouds -1 1028 64 10000 1.36 82 17:21 28.12.2019
5640 Clouds 0 1029 55 10000 1 30 16:58 28.12.2019
5641 Clouds -1 1029 86 9000 0.5 160 16:40 28.12.2019
5642 Clear 0 1028 64 10000 1.36 82 16:21 28.12.2019
5643 Haze 0 1029 80 9000 0.5 170 15:43 28.12.2019
5644 Clear 0 1029 64 10000 1.36 82 15:22 28.12.2019
5645 Clouds 1 1030 59 10000 1 160 14:55 28.12.2019
5646 Clouds 1 1029 80 10000 1.36 82 14:37 28.12.2019
5647 Clouds 1 1029 55 10000 1.17 104 14:18 28.12.2019
5648 Haze 1 1029 80 9000 1 180 13:42 28.12.2019
5649 Clouds 1 1028 55 10000 1.19 101 13:21 28.12.2019
5650 Clouds 1 1029 55 10000 1.19 101 12:58 28.12.2019
5651 Clouds 1 1028 80 10000 0.5 360 12:40 28.12.2019
5652 Clouds 2 1028 48 10000 1.19 101 12:21 28.12.2019
5653 Clouds 3 1028 69 10000 1 180 11:40 28.12.2019
5654 Clouds 3 1028 48 10000 1.26 119 11:21 28.12.2019
5655 Clouds 3 1029 51 10000 1 180 10:56 28.12.2019
5656 Clouds 3 1028 64 10000 0.5 160 10:37 28.12.2019
5657 Clouds 3 1027 48 10000 1.26 119 10:19 28.12.2019
5658 Clouds 4 1029 51 10000 0.5 130 09:46 28.12.2019
5659 Clouds 5 1027 45 10000 1.26 119 09:24 28.12.2019
5660 Haze 5 1029 48 8000 1.5 190 08:58 28.12.2019
5661 Clouds 6 1028 48 10000 1 180 08:40 28.12.2019
5662 Clouds 5 1027 45 10000 1.65 168 08:22 28.12.2019
5663 Clouds 5 1028 44 10000 1.5 180 07:43 28.12.2019
5664 Clouds 5 1027 41 10000 1.42 147 07:21 28.12.2019
5665 Clouds 5 1027 41 10000 1 200 05:45 28.12.2019
5666 Clear 1 1029 55 10000 1 10 03:48 28.12.2019
5667 Clear 0 1030 63 10000 2.6 50 02:50 28.12.2019
5668 Clear -1 1029 42 10000 1.5 110 02:20 28.12.2019
5669 Clear -3 1030 73 10000 2.1 70 01:54 28.12.2019
5670 Clear -4 1028 63 10000 1.58 92 01:22 28.12.2019
5671 Clear -6 1029 85 10000 0.5 150 00:45 28.12.2019
5672 Clear -5 1028 63 10000 1.58 92 00:27 28.12.2019
5673 Clear -5 1029 92 4800 0.5 60 23:57 27.12.2019
5674 Clouds -5 1029 85 10000 1.58 92 23:37 27.12.2019
5675 Clear -5 1028 73 10000 1.1 112 23:18 27.12.2019
5676 Clear -6 1029 85 6000 1 60 22:55 27.12.2019
5677 Clouds -6 1029 92 10000 0.5 10 22:37 27.12.2019
5678 Clear -6 1028 73 10000 1.1 112 22:19 27.12.2019
5679 Clouds -6 1028 92 10000 0.5 150 21:41 27.12.2019
5680 Clear -6 1028 73 10000 1.1 112 21:23 27.12.2019
5681 Clear -6 1029 85 8000 0.5 40 20:44 27.12.2019
5682 Haze -6 1029 85 9000 0.5 140 20:26 27.12.2019
5683 Clouds -5 1029 79 10000 0.5 130 19:58 27.12.2019
5684 Clouds -5 1029 79 10000 0.5 130 19:58 27.12.2019
5685 Clouds -5 1029 85 10000 0.5 180 19:40 27.12.2019
5686 Clear -6 1028 73 10000 0.79 111 19:19 27.12.2019
5687 Clouds -5 1029 85 10000 0.5 100 18:55 27.12.2019
5688 Clear -5 1028 85 10000 0.5 150 18:36 27.12.2019
5689 Clear -5 1027 68 10000 0.79 111 18:18 27.12.2019
5690 Clear -5 1028 85 10000 0.5 130 17:42 27.12.2019
5691 Clear -5 1027 73 10000 0.64 120 17:20 27.12.2019
5692 Haze -5 1028 79 8000 0.5 150 16:59 27.12.2019
5693 Clear -5 1028 85 10000 0.5 200 16:41 27.12.2019
5694 Clear -5 1028 85 10000 0.5 200 16:41 27.12.2019
5695 Clear -5 1027 63 10000 0.64 120 16:22 27.12.2019
5696 Clear -4 1028 79 10000 0.5 120 15:56 27.12.2019
5697 Clear -4 1028 73 10000 0.5 170 15:37 27.12.2019
5698 Clear -4 1027 68 10000 0.64 120 15:18 27.12.2019
5699 Clear -3 1028 73 10000 0.5 110 14:55 27.12.2019
5700 Clear -3 1027 68 10000 0.64 120 14:36 27.12.2019
5701 Clear -3 1027 63 10000 0.48 56 14:18 27.12.2019
5702 Clear -3 1027 68 10000 0.48 56 13:43 27.12.2019
5703 Clear -3 1026 58 10000 0.48 56 13:22 27.12.2019
5704 Clear -2 1027 58 10000 0.5 100 12:48 27.12.2019
5705 Clear -2 1026 54 10000 0.69 352 12:29 27.12.2019
5706 Clear -1 1027 58 10000 0.5 120 11:56 27.12.2019
5707 Clear -1 1026 50 10000 0.5 200 11:38 27.12.2019
5708 Clear -1 1026 34 10000 2.23 311 11:19 27.12.2019
5709 Clear 0 1027 54 10000 0.5 160 10:45 27.12.2019
5710 Clear 0 1026 37 10000 2.23 311 10:23 27.12.2019
5711 Clear 1 1026 34 10000 2.6 250 09:50 27.12.2019
5712 -273 0 0 0 0 0 09:22 27.12.2019
5713 Clear 2 1027 43 10000 2.1 240 08:59 27.12.2019
5714 Clear 2 1024 27 10000 3.1 250 08:41 27.12.2019
5715 Clear 2 1024 34 10000 1.5 240 08:22 27.12.2019
5716 Clear 3 1024 29 10000 1.5 200 07:38 27.12.2019
5717 Clear 3 1026 31 10000 3.1 300 06:59 27.12.2019
5718 Clear 2 1024 29 10000 2.1 300 06:23 27.12.2019
5719 Clear 1 1024 40 10000 2.1 180 04:37 27.12.2019
5720 Clear -2 1025 46 10000 2.1 270 02:28 27.12.2019
5721 Haze -3 1024 73 6000 0.5 250 01:42 27.12.2019
5722 Clear -4 1024 63 10000 3.46 306 01:20 27.12.2019
5723 Clear -5 1026 92 4800 0.5 190 00:46 27.12.2019
5724 Clear -5 1023 63 10000 3.46 306 00:25 27.12.2019
5725 Mist -5 1025 92 4000 0.5 30 23:54 26.12.2019
5726 Clouds -5 1023 92 6000 0.5 170 23:36 26.12.2019
5727 Mist -5 1025 92 4000 1 50 23:18 26.12.2019
5728 Clear -5 1022 85 9000 0.5 170 22:38 26.12.2019
5729 Clear -5 1022 68 10000 3.28 300 22:18 26.12.2019
5730 Clear -4 1022 79 10000 1 150 21:40 26.12.2019
5731 Clear -4 1022 68 10000 3.28 300 21:21 26.12.2019
5732 Haze -4 1023 79 6000 0.5 130 20:57 26.12.2019
5733 Clear -4 1021 68 10000 1.5 180 20:38 26.12.2019
5734 Clear -3 1022 63 10000 1.5 320 20:19 26.12.2019
5735 Haze -3 1023 73 8000 0.5 140 19:54 26.12.2019
5736 Clear -3 1021 68 10000 1.5 190 19:36 26.12.2019
5737 Clear -3 1021 63 10000 4.5 307 19:18 26.12.2019
5738 Clear -3 1023 68 10000 0.5 260 18:55 26.12.2019
5739 Clear -3 1023 68 10000 0.5 260 18:55 26.12.2019
5740 Clear -3 1020 68 10000 1 90 18:36 26.12.2019
5741 Clear -3 1021 68 10000 4.5 307 18:18 26.12.2019
5742 Clear -2 1020 58 10000 1.5 310 17:40 26.12.2019
5743 Clear -2 1020 68 10000 1.5 330 17:20 26.12.2019
5744 Clear -1 1021 68 10000 2.6 300 16:48 26.12.2019
5745 Clear -1 1019 63 10000 5.07 305 16:26 26.12.2019
5746 Clear -1 1021 63 10000 1.5 310 15:57 26.12.2019
5747 Clear -1 1019 50 10000 1.5 290 15:38 26.12.2019
5748 Clear -1 1019 68 10000 1.5 290 15:19 26.12.2019
5749 Clear 0 1019 52 10000 4.1 240 14:41 26.12.2019
5750 Clear 0 1018 52 10000 1.5 320 14:23 26.12.2019
5751 Clear 0 1018 52 10000 1.5 320 14:23 26.12.2019
5752 Clear 0 1018 56 10000 4.1 240 13:45 26.12.2019
5753 Clear 0 1018 50 10000 1.5 330 13:26 26.12.2019
5754 Clear 1 1019 50 10000 5.1 290 12:59 26.12.2019
5755 Clear 1 1019 50 10000 5.1 290 12:59 26.12.2019
5756 Clouds 1 1017 64 10000 0.5 310 12:41 26.12.2019
5757 Clouds 1 1017 51 10000 2.1 310 12:23 26.12.2019
5758 Clouds 1 1019 54 10000 5.1 290 11:58 26.12.2019
5759 Clouds 1 1019 54 10000 5.1 290 11:58 26.12.2019
5760 Clouds 1 1016 51 10000 0.5 260 11:40 26.12.2019
5761 Clouds 1 1016 64 10000 5.32 305 11:21 26.12.2019
5762 Clouds 2 1018 50 10000 3.1 280 10:49 26.12.2019
5763 Clear 2 1016 55 10000 1.5 310 10:24 26.12.2019
5764 Clear 2 1018 51 10000 3.6 290 09:54 26.12.2019
5765 Clouds 3 1015 55 10000 2.6 280 09:32 26.12.2019
5766 Clear 3 1017 51 10000 2.1 300 08:57 26.12.2019
5767 Haze 3 1015 64 6000 0.5 220 08:38 26.12.2019
5768 Clouds 4 1017 55 10000 2.1 310 08:20 26.12.2019
5769 Clouds 4 1017 55 10000 2.1 310 08:20 26.12.2019
5770 Rain 4 1017 51 10000 2.1 290 07:31 26.12.2019
5771 Clouds 4 1017 51 10000 2.1 320 06:56 26.12.2019
5772 Haze 3 1015 69 4800 1 310 06:33 26.12.2019
5773 Rain 3 1017 55 10000 2.1 330 05:49 26.12.2019
5774 Rain 3 1018 64 4800 2.1 310 04:59 26.12.2019
5775 Rain 3 1017 62 6000 1.5 320 04:32 26.12.2019
5776 Rain 3 1018 80 6000 1.5 230 03:19 26.12.2019
5777 Rain 2 1018 100 2400 1 180 02:40 26.12.2019
5778 Rain 2 1018 86 8000 1.1 290 02:19 26.12.2019
5779 Rain 2 1018 66 9000 1.5 230 01:41 26.12.2019
5780 -273 0 0 0 0 0 01:22 26.12.2019
5781 Rain 2 1018 86 4800 0.5 120 00:41 26.12.2019
5782 Rain 2 1018 66 9000 1.05 298 00:22 26.12.2019
5783 Haze 2 1018 86 8000 1 350 23:42 25.12.2019
5784 Clouds 2 1018 69 10000 1.08 353 23:21 25.12.2019
5785 Haze 2 1019 74 6000 1 20 22:59 25.12.2019
5786 Haze 2 1017 86 8000 1 30 22:40 25.12.2019
5787 Clouds 1 1017 74 10000 1.08 353 22:22 25.12.2019
5788 Haze 1 1019 74 8000 0.5 350 21:59 25.12.2019
5789 Haze 1 1018 86 8000 0.5 20 21:40 25.12.2019
5790 Clouds 1 1018 74 10000 1.08 353 21:21 25.12.2019
5791 Clouds 1 1018 74 10000 1.08 353 21:21 25.12.2019
5792 Haze 1 1020 69 9000 0.5 290 20:57 25.12.2019
5793 Haze 1 1018 80 8000 1.5 30 20:39 25.12.2019
5794 Clouds 1 1018 74 10000 1.25 330 20:18 25.12.2019
5795 Clouds 1 1018 74 10000 1.25 330 20:18 25.12.2019
5796 Haze 1 1019 86 8000 1 350 19:43 25.12.2019
5797 Haze 1 1019 86 8000 1 350 19:43 25.12.2019
5798 Clouds 1 1019 74 10000 1.25 330 19:25 25.12.2019
5799 Clouds 1 1021 69 10000 2.6 30 18:58 25.12.2019
5800 Haze 1 1020 80 9000 1 30 18:37 25.12.2019
5801 Clouds 1 1020 69 10000 1.25 330 18:19 25.12.2019
5802 Haze 1 1020 80 9000 0.5 30 17:42 25.12.2019
5803 Clouds 1 1020 69 10000 1.1 333 17:20 25.12.2019
5804 Haze 1 1022 80 6000 0.5 330 16:58 25.12.2019
5805 Haze 1 1021 80 9000 0.5 20 16:38 25.12.2019
5806 Clouds 1 1021 64 10000 1.1 333 16:19 25.12.2019
5807 Haze 1 1021 80 9000 1 20 15:57 25.12.2019
5808 Haze 1 1021 80 9000 1 20 15:39 25.12.2019
5809 Haze 1 1023 80 6000 0.5 170 15:20 25.12.2019
5810 Haze 1 1023 80 6000 1 320 14:57 25.12.2019
5811 Haze 1 1021 74 9000 0.5 60 14:39 25.12.2019
5812 Haze 1 1021 74 9000 0.5 60 14:39 25.12.2019
5813 Clouds 1 1021 74 10000 0.73 53 14:20 25.12.2019
5814 Haze 1 1023 80 6000 0.5 360 13:44 25.12.2019
5815 Clouds 1 1021 74 10000 0.56 12 13:21 25.12.2019
5816 Haze 1 1023 48 6000 0.5 340 12:57 25.12.2019
5817 Haze 1 1022 48 8000 0.5 110 12:38 25.12.2019
5818 Clear 1 1022 69 10000 0.56 12 12:19 25.12.2019
5819 Haze 1 1022 48 8000 0.5 200 11:43 25.12.2019
5820 Clear 2 1021 64 10000 1.23 329 11:22 25.12.2019
5821 Haze 3 1023 69 6000 1 120 10:58 25.12.2019
5822 Clear 3 1022 69 10000 0.5 40 10:36 25.12.2019
5823 Clear 3 1022 56 10000 1.23 329 10:18 25.12.2019
5824 Clear 5 1022 64 10000 0.5 140 09:43 25.12.2019
5825 Clouds 5 1022 56 10000 1.5 300 09:25 25.12.2019
5826 Clear 5 1023 41 10000 0.5 200 08:45 25.12.2019
5827 Clouds 6 1025 52 10000 1 230 08:25 25.12.2019
5828 Haze 6 1024 56 9000 0.5 310 07:45 25.12.2019
5829 Clouds 6 1022 36 10000 1.23 309 07:23 25.12.2019
5830 Haze 6 1022 56 9000 1.5 180 06:41 25.12.2019
5831 Clouds 5 1022 38 10000 1.5 160 06:21 25.12.2019
5832 Haze 3 1025 69 4800 0.5 350 04:47 25.12.2019
5833 Clouds 2 1024 60 10000 1.5 100 04:25 25.12.2019
5834 Haze 1 1026 80 4800 0.5 340 03:46 25.12.2019
5835 Clouds 0 1026 74 10000 2.1 120 03:18 25.12.2019
5836 Clouds -2 1026 80 10000 0.12 20 02:30 25.12.2019
5837 Mist -3 1028 92 4000 0.5 30 01:53 25.12.2019
5838 Mist -3 1026 92 9000 0.46 79 01:22 25.12.2019
5839 Mist -4 1027 100 3200 0.5 240 00:42 25.12.2019
5840 Mist -4 1026 86 8000 0.46 79 00:23 25.12.2019
5841 Mist -4 1026 100 3200 1.5 20 23:40 24.12.2019
5842 Mist -4 1025 92 9000 0.64 106 23:20 24.12.2019
5843 Snow -4 1026 100 1200 1.5 120 22:42 24.12.2019
5844 Mist -4 1024 86 8000 0.64 106 22:24 24.12.2019
5845 Mist -4 1026 100 3200 1 20 21:59 24.12.2019
5846 Fog -4 1026 100 400 1 120 21:41 24.12.2019
5847 Fog -4 1026 100 400 1 120 21:41 24.12.2019
5848 Mist -4 1024 92 9000 0.64 106 21:20 24.12.2019
5849 Mist -4 1025 100 3200 0.5 100 20:42 24.12.2019
5850 Mist -4 1025 92 8000 0.78 41 20:23 24.12.2019
5851 Mist -4 1027 100 2000 0.5 350 19:55 24.12.2019
5852 Mist -4 1026 100 2400 1 10 19:37 24.12.2019
5853 Mist -4 1025 86 8000 0.78 41 19:18 24.12.2019
5854 Mist -4 1025 86 8000 0.78 41 19:18 24.12.2019
5855 Mist -3 1026 100 1600 1.5 30 18:42 24.12.2019
5856 Mist -3 1026 86 9000 0.78 41 18:19 24.12.2019
5857 Mist -3 1026 100 3200 1 30 17:44 24.12.2019
5858 Mist -3 1026 92 9000 0.78 41 17:22 24.12.2019
5859 Mist -3 1026 92 9000 1.01 101 17:22 24.12.2019
5860 Mist -3 1027 100 3200 0.5 80 16:58 24.12.2019
5861 Mist -3 1026 100 3200 0.5 130 16:40 24.12.2019
5862 Clear -3 1026 86 10000 1.01 101 16:21 24.12.2019
5863 Mist -3 1028 92 3200 1.01 101 15:57 24.12.2019
5864 Mist -3 1027 100 3200 0.5 110 15:37 24.12.2019
5865 Clear -3 1026 86 10000 1.01 101 15:19 24.12.2019
5866 Mist -2 1028 92 4800 1 110 14:58 24.12.2019
5867 Mist -3 1027 100 3200 0.5 20 14:40 24.12.2019
5868 Clear -2 1026 80 10000 0.82 41 14:21 24.12.2019
5869 Clear -2 1026 80 10000 0.82 41 14:21 24.12.2019
5870 Clear -2 1028 92 4800 0.82 41 13:56 24.12.2019
5871 Mist -1 1027 100 4000 0.5 110 13:38 24.12.2019
5872 Clear -1 1026 80 10000 0.92 83 13:19 24.12.2019
5873 Haze -1 1028 79 6000 1.5 60 12:56 24.12.2019
5874 Mist -1 1027 100 4000 0.5 130 12:37 24.12.2019
5875 Clear -1 1026 74 10000 0.92 83 12:19 24.12.2019
5876 Clear -1 1028 74 10000 1 140 11:56 24.12.2019
5877 Clear -1 1026 92 4800 0.5 200 11:37 24.12.2019
5878 Clear -1 1026 92 4800 0.5 200 11:37 24.12.2019
5879 Clear 0 1026 27 10000 1.07 344 11:19 24.12.2019
5880 Clear 1 1028 63 10000 1 140 10:56 24.12.2019
5881 Clear 1 1027 27 6000 0.5 40 10:37 24.12.2019
5882 Clear 2 1026 59 10000 1.07 344 10:19 24.12.2019
5883 Clear 3 1028 55 10000 1 140 09:55 24.12.2019
5884 Haze 3 1027 74 8000 0.5 340 09:37 24.12.2019
5885 Clear 3 1026 48 10000 1.07 344 09:19 24.12.2019
5886 Haze 4 1026 69 9000 1.5 350 08:45 24.12.2019
5887 Clear 5 1028 44 10000 1 90 08:21 24.12.2019
5888 Clear 5 1028 51 10000 2.1 40 07:46 24.12.2019
5889 Clear 4 1026 48 10000 0.93 19 07:26 24.12.2019
5890 Clear 4 1026 48 10000 0.93 19 07:26 24.12.2019
5891 Haze 4 1027 23 4800 1.5 170 06:58 24.12.2019
5892 Haze 4 1026 64 9000 1.5 340 06:38 24.12.2019
5893 Clear 3 1026 52 10000 2.1 60 06:19 24.12.2019
5894 Clear 2 1027 60 10000 1.5 170 05:21 24.12.2019
5895 Mist 1 1029 92 2000 3.1 50 04:44 24.12.2019
5896 Mist 0 1030 92 2400 2.6 60 03:50 24.12.2019
5897 Clear 0 1029 74 10000 1.5 40 03:18 24.12.2019
5898 Clear -1 1029 86 10000 0.81 10 02:21 24.12.2019
5899 Mist -2 1029 92 6000 0.81 10 01:50 24.12.2019
5900 Mist -3 1029 100 4000 0.73 7 01:21 24.12.2019
5901 Mist -3 1030 100 1200 1 120 00:45 24.12.2019
5902 Mist -4 1028 100 3200 0.73 7 00:23 24.12.2019
5903 Mist -4 1030 100 1600 1.5 40 23:56 23.12.2019
5904 Mist -4 1030 100 1600 1.5 40 23:56 23.12.2019
5905 Mist -4 1028 100 2000 1 20 23:37 23.12.2019
5906 Mist -4 1028 92 4800 0.48 337 23:19 23.12.2019
5907 Mist -4 1029 100 2000 1 80 22:55 23.12.2019
5908 Mist -4 1029 100 2000 1 80 22:55 23.12.2019
5909 Mist -3 1028 100 1600 1 30 22:36 23.12.2019
5910 Mist -3 1028 100 1600 1 30 22:36 23.12.2019
5911 Mist -3 1028 100 1600 1 30 22:36 23.12.2019
5912 Mist -3 1027 100 4800 0.48 337 22:18 23.12.2019
5913 Mist -3 1029 92 2400 2.1 50 21:55 23.12.2019
5914 Fog -3 1027 100 400 1 20 21:36 23.12.2019
5915 Fog -3 1027 100 400 1 20 21:36 23.12.2019
5916 Mist -3 1027 92 4800 0.48 337 21:18 23.12.2019
5917 Mist -3 1029 92 3200 1 80 20:56 23.12.2019
5918 Mist -3 1029 92 3200 1 80 20:56 23.12.2019
5919 Fog -3 1027 100 400 1 30 20:38 23.12.2019
5920 Mist -3 1027 100 4800 0.68 297 20:18 23.12.2019
5921 Mist -3 1028 100 2400 1.5 60 19:54 23.12.2019
5922 Fog -3 1027 100 0 1 20 19:36 23.12.2019
5923 Mist -3 1026 92 4800 0.68 297 19:18 23.12.2019
5924 Fog -3 1026 100 0 0.5 20 18:54 23.12.2019
5925 Fog -3 1026 100 0 0.5 20 18:36 23.12.2019
5926 Fog -2 1026 100 0 1 40 18:18 23.12.2019
5927 Mist -2 1026 92 6000 0.68 297 17:55 23.12.2019
5928 Fog -2 1026 100 400 0.5 40 17:37 23.12.2019
5929 Fog -2 1026 100 400 0.5 40 17:37 23.12.2019
5930 Mist -2 1026 92 6000 1.04 313 17:18 23.12.2019
5931 Mist -2 1026 100 1600 0.5 190 16:42 23.12.2019
5932 Mist -2 1026 65 9000 1.04 313 16:19 23.12.2019
5933 Mist -1 1028 100 1600 0.5 360 15:58 23.12.2019
5934 Mist -1 1026 100 2400 1.04 313 15:37 23.12.2019
5935 Clear -1 1026 80 10000 1.04 313 15:19 23.12.2019
5936 Mist -1 1028 92 2000 0.5 150 14:57 23.12.2019
5937 Mist -1 1026 100 2000 0.5 40 14:39 23.12.2019
5938 Mist -1 1026 100 2000 0.5 40 14:39 23.12.2019
5939 Clear 0 1026 80 10000 1.5 303 14:19 23.12.2019
5940 Clear 0 1026 80 10000 1.5 303 14:19 23.12.2019
5941 Mist 0 1028 92 2800 0.5 130 13:57 23.12.2019
5942 Mist 0 1025 100 2800 0.5 150 13:39 23.12.2019
5943 Mist 0 1025 100 2800 0.5 150 13:39 23.12.2019
5944 Clear 0 1025 59 10000 1.64 283 13:20 23.12.2019
5945 Clear 0 1025 59 10000 1.64 283 13:20 23.12.2019
5946 Haze 1 1027 80 4000 2.1 10 12:55 23.12.2019
5947 Mist 1 1025 59 3200 0.5 170 12:36 23.12.2019
5948 Clear 1 1025 59 10000 1.64 283 12:18 23.12.2019
5949 Mist 3 1024 59 4000 0.5 210 11:42 23.12.2019
5950 Mist 3 1024 59 4000 0.5 210 11:42 23.12.2019
5951 Mist 3 1024 59 4000 0.5 210 11:42 23.12.2019
5952 Clouds 3 1024 55 10000 1.5 250 11:24 23.12.2019
5953 Haze 3 1026 80 6000 2.1 320 10:56 23.12.2019
5954 Haze 3 1023 55 6000 0.5 260 10:38 23.12.2019
5955 Clouds 4 1023 65 10000 1.5 310 10:20 23.12.2019
5956 Haze 4 1025 55 9000 1.5 20 09:58 23.12.2019
5957 Haze 4 1023 65 9000 1 330 09:39 23.12.2019
5958 Clouds 5 1023 60 10000 1.5 360 09:19 23.12.2019
5959 Haze 5 1022 60 9000 1.5 20 08:42 23.12.2019
5960 Clouds 5 1022 60 10000 2.66 310 08:23 23.12.2019
5961 Clouds 5 1022 57 10000 2.1 330 07:57 23.12.2019
5962 Haze 5 1022 65 8000 2.1 340 07:38 23.12.2019
5963 Clouds 5 1022 57 10000 2.66 310 07:19 23.12.2019
5964 Haze 5 1021 75 6000 1 350 06:39 23.12.2019
5965 Clouds 6 1021 70 10000 2.1 220 06:21 23.12.2019
5966 Clouds 5 1021 75 10000 2.66 310 05:45 23.12.2019
5967 Mist 5 1021 86 3200 2.1 220 04:44 23.12.2019
5968 Mist 4 1022 80 4800 3.1 300 03:58 23.12.2019
5969 Haze 4 1022 80 6000 1.5 330 02:47 23.12.2019
5970 Mist 3 1021 86 4800 2.1 300 02:19 23.12.2019
5971 Mist 2 1021 86 4800 1.5 300 01:46 23.12.2019
5972 Mist 2 1020 93 4800 2.6 310 01:27 23.12.2019
5973 Mist 2 1020 93 3600 1.5 300 00:48 23.12.2019
5974 Mist 2 1020 100 4400 2.22 311 00:27 23.12.2019
5975 Mist 1 1020 100 6000 2.22 311 23:56 22.12.2019
5976 Mist 1 1020 100 1200 2.22 311 23:37 22.12.2019
5977 Mist 1 1019 100 4400 0.22 262 23:19 22.12.2019
5978 Mist 1 1019 100 2400 0.5 180 22:41 22.12.2019
5979 Mist 1 1018 100 3000 0.22 262 22:23 22.12.2019
5980 Mist 2 1018 100 3200 0.22 262 21:59 22.12.2019
5981 Mist 2 1018 100 1200 0.5 120 21:40 22.12.2019
5982 Mist 2 1018 100 3200 0.22 262 21:21 22.12.2019
5983 Mist 2 1018 100 3200 0.22 262 21:21 22.12.2019
5984 Rain 2 1018 100 2800 0.5 240 20:59 22.12.2019
5985 Rain 2 1018 100 2800 0.5 240 20:39 22.12.2019
5986 Rain 3 1018 100 4800 0.63 352 20:19 22.12.2019
5987 Rain 3 1018 93 6000 0.63 352 19:57 22.12.2019
5988 Rain 3 1018 93 3200 1.5 270 19:39 22.12.2019
5989 Rain 3 1017 93 6000 0.63 352 19:20 22.12.2019
5990 Rain 3 1019 100 1600 0.5 160 18:42 22.12.2019
5991 Rain 3 1017 93 6000 0.63 352 18:24 22.12.2019
5992 Rain 3 1017 86 6000 0.63 352 17:56 22.12.2019
5993 Rain 3 1017 86 6000 0.63 352 17:56 22.12.2019
5994 Mist 3 1018 100 1200 0.5 30 17:38 22.12.2019
5995 Rain 3 1017 86 6000 1.62 160 17:19 22.12.2019
5996 Rain 3 1017 93 4000 1.62 160 16:57 22.12.2019
5997 Rain 3 1018 73 3200 0.5 340 16:38 22.12.2019
5998 Rain 3 1017 86 6000 1.62 160 16:20 22.12.2019
5999 Rain 3 1019 93 2000 1 250 15:56 22.12.2019
6000 Rain 3 1019 93 2000 1 250 15:56 22.12.2019
6001 Mist 3 1018 73 4000 0.5 330 15:38 22.12.2019
6002 Rain 3 1017 60 10000 1.62 160 15:19 22.12.2019
6003 Haze 3 1019 86 2800 1.5 330 14:55 22.12.2019
6004 Mist 3 1017 86 3200 0.5 140 14:36 22.12.2019
6005 Clouds 2 1017 69 10000 1.07 142 14:18 22.12.2019
6006 Haze 3 1018 80 3200 0.5 150 13:55 22.12.2019
6007 Mist 3 1018 86 4000 0.5 190 13:36 22.12.2019
6008 Clouds 3 1018 69 10000 1.08 133 13:18 22.12.2019
6009 Clouds 3 1018 69 10000 1.08 133 13:18 22.12.2019
6010 Haze 2 1019 69 3200 2.1 170 12:55 22.12.2019
6011 Mist 3 1019 86 4000 0.5 290 12:37 22.12.2019
6012 Clouds 3 1018 65 10000 1.08 133 12:18 22.12.2019
6013 Clouds 3 1018 65 10000 1.08 133 12:18 22.12.2019
6014 Haze 3 1020 86 3200 1.08 133 11:54 22.12.2019
6015 Haze 3 1019 86 4800 0.5 140 11:36 22.12.2019
6016 Clouds 3 1018 65 10000 1 130 11:18 22.12.2019
6017 Haze 5 1020 62 4000 0.5 100 10:54 22.12.2019
6018 Haze 5 1019 74 4800 0.5 150 10:36 22.12.2019
6019 Clouds 5 1018 60 10000 1 130 10:18 22.12.2019
6020 Haze 6 1018 62 6000 0.5 180 09:40 22.12.2019
6021 Clouds 6 1018 52 10000 1 130 09:22 22.12.2019
6022 Haze 7 1020 70 4800 1 120 08:59 22.12.2019
6023 Haze 7 1018 66 6000 0.5 230 08:38 22.12.2019
6024 Clouds 7 1018 52 10000 0.63 116 08:18 22.12.2019
6025 Clouds 7 1018 52 10000 0.63 116 08:18 22.12.2019
6026 Haze 8 1018 62 8000 1.5 200 07:38 22.12.2019
6027 Clear 8 1018 52 10000 0.63 116 07:20 22.12.2019
6028 Haze 8 1018 56 8000 1.5 200 06:40 22.12.2019
6029 Clear 6 1019 56 10000 0.5 110 05:54 22.12.2019
6030 Clear 6 1019 66 10000 1.5 70 05:21 22.12.2019
6031 Clear 4 1021 66 10000 1.5 120 04:29 22.12.2019
6032 Haze 3 1023 66 4800 2.1 40 03:52 22.12.2019
6033 Clouds 2 1024 86 6000 1.5 10 02:40 22.12.2019
6034 Clouds 0 1024 74 4800 1 20 01:42 22.12.2019
6035 Clouds 0 1023 86 10000 1.1 88 01:22 22.12.2019
6036 Clouds -1 1024 92 6000 1.1 88 00:45 22.12.2019
6037 Mist -1 1023 74 9000 1.1 88 00:22 22.12.2019
6038 Clouds -1 1023 92 10000 1.1 88 23:55 21.12.2019
6039 Mist -1 1024 100 4000 1.1 88 23:37 21.12.2019
6040 Clouds -1 1023 92 10000 1.15 91 23:18 21.12.2019
6041 Mist -1 1024 100 4000 0.5 30 22:40 21.12.2019
6042 Mist -1 1024 100 4000 0.5 30 22:40 21.12.2019
6043 Clear -1 1023 75 10000 1.15 91 22:19 21.12.2019
6044 Mist -1 1024 100 2400 0.5 360 21:57 21.12.2019
6045 Mist -1 1023 100 4800 0.5 350 21:37 21.12.2019
6046 Clouds -1 1023 75 10000 1.15 91 21:19 21.12.2019
6047 Mist -1 1024 100 2400 0.5 100 20:58 21.12.2019
6048 Mist -1 1024 100 2400 0.5 100 20:58 21.12.2019
6049 Clouds -1 1023 100 4800 0.5 170 20:39 21.12.2019
6050 Clouds -1 1023 71 10000 1.14 119 20:21 21.12.2019
6051 Mist -1 1023 92 9000 1.2 109 19:57 21.12.2019
6052 Clouds 0 1024 92 6000 0.5 170 19:39 21.12.2019
6053 Clouds 0 1024 86 10000 1.2 109 19:19 21.12.2019
6054 Clouds 0 1025 78 6000 0.5 120 18:42 21.12.2019
6055 Clouds 0 1024 86 10000 1.2 109 18:23 21.12.2019
6056 Mist 0 1026 100 2400 1 330 17:57 21.12.2019
6057 Clouds 0 1025 78 6000 1.2 109 17:39 21.12.2019
6058 Mist -1 1025 79 9000 1.24 111 17:20 21.12.2019
6059 Mist -1 1024 79 9000 1.24 111 16:57 21.12.2019
6060 Clouds -1 1025 79 6000 0.5 320 16:39 21.12.2019
6061 Mist -1 1024 92 8000 1.24 111 16:18 21.12.2019
6062 Clouds -1 1025 92 4800 0.5 350 15:56 21.12.2019
6063 Clouds -1 1024 79 6000 0.5 20 15:37 21.12.2019
6064 Mist -1 1025 79 9000 1.24 111 15:18 21.12.2019
6065 Clouds 0 1025 79 8000 0.5 180 14:42 21.12.2019
6066 Clouds 0 1025 79 10000 1.24 111 14:23 21.12.2019
6067 Clouds -1 1026 92 6000 1 30 13:58 21.12.2019
6068 Haze -1 1026 85 9000 0.5 170 13:40 21.12.2019
6069 Mist 0 1025 92 9000 1.68 154 13:19 21.12.2019
6070 Clouds 0 1027 82 8000 1.68 154 12:56 21.12.2019
6071 Haze 0 1026 82 8000 0.5 170 12:38 21.12.2019
6072 Haze 0 1026 82 8000 0.5 170 12:38 21.12.2019
6073 Haze 0 1026 82 8000 0.5 170 12:38 21.12.2019
6074 Clouds 0 1026 86 10000 1.68 154 12:20 21.12.2019
6075 Clouds 1 1027 82 8000 1 30 11:48 21.12.2019
6076 Clouds 1 1026 82 10000 1.68 154 11:27 21.12.2019
6077 Clouds 1 1027 88 10000 0.5 30 10:59 21.12.2019
6078 Clouds 1 1027 88 10000 0.5 180 10:40 21.12.2019
6079 Mist 1 1026 88 9000 2.02 176 10:21 21.12.2019
6080 Mist 1 1026 88 9000 2.02 176 10:21 21.12.2019
6081 Mist 1 1026 88 9000 2.02 176 09:58 21.12.2019
6082 Clouds 1 1027 88 10000 2.1 210 09:39 21.12.2019
6083 Snow 1 1027 88 4800 2.6 190 09:19 21.12.2019
6084 Rain 1 1026 88 10000 2.1 200 08:47 21.12.2019
6085 Rain 1 1026 84 9000 1.35 178 08:27 21.12.2019
6086 Snow 1 1026 89 4800 1.95 172 07:47 21.12.2019
6087 Clouds 1 1026 80 4800 1.95 172 07:23 21.12.2019
6088 Snow 2 1027 64 8000 2.1 130 06:49 21.12.2019
6089 Clouds 1 1026 59 10000 1.95 172 06:31 21.12.2019
6090 Drizzle 1 1028 86 3200 1.95 172 05:59 21.12.2019
6091 Haze 0 1028 68 9000 1.5 350 04:59 21.12.2019
6092 Clouds 1 1026 47 10000 2.07 191 04:34 21.12.2019
6093 Clouds 0 1028 63 10000 1 350 03:56 21.12.2019
6094 Clouds -3 1028 54 10000 1.23 103 02:23 21.12.2019
6095 Clouds -5 1029 79 10000 1 50 01:42 21.12.2019
6096 Clear -5 1028 58 10000 1.15 102 01:23 21.12.2019
6097 Clear -6 1029 92 10000 0.5 40 00:39 21.12.2019
6098 Clear -6 1028 62 10000 1.15 102 00:20 21.12.2019
6099 Clear -7 1030 92 10000 0.5 180 23:38 20.12.2019
6100 Clouds -7 1029 73 10000 1.14 113 23:20 20.12.2019
6101 Clear -7 1030 92 10000 1 50 22:57 20.12.2019
6102 Clouds -7 1030 85 10000 0.5 150 22:36 20.12.2019
6103 Clear -7 1029 67 10000 1.14 113 22:18 20.12.2019
6104 Clear -7 1029 85 10000 0.5 160 21:41 20.12.2019
6105 Clear -7 1029 67 10000 1.14 113 21:21 20.12.2019
6106 Clear -7 1029 67 10000 1.14 113 21:21 20.12.2019
6107 Clear -7 1030 92 10000 1 70 20:57 20.12.2019
6108 Clouds -7 1030 92 10000 0.5 170 20:38 20.12.2019
6109 Clear -7 1030 92 10000 0.5 110 20:18 20.12.2019
6110 Clear -7 1030 85 10000 0.5 120 19:42 20.12.2019
6111 Clear -7 1029 67 10000 1.07 55 19:21 20.12.2019
6112 Clear -6 1031 85 10000 0.5 90 18:58 20.12.2019
6113 Clear -6 1030 85 10000 1.07 55 18:39 20.12.2019
6114 Clear -6 1029 62 10000 1.07 55 18:21 20.12.2019
6115 Clear -6 1030 58 10000 1.07 55 17:55 20.12.2019
6116 Clear -6 1030 58 10000 1.07 55 17:37 20.12.2019
6117 Clear -5 1030 79 10000 0.5 170 17:18 20.12.2019
6118 Clear -5 1030 53 10000 0.29 55 16:40 20.12.2019
6119 Clear -5 1030 53 10000 0.29 55 16:20 20.12.2019
6120 Clear -5 1030 73 10000 0.5 170 15:57 20.12.2019
6121 Clear -5 1030 45 10000 0.29 55 15:39 20.12.2019
6122 Clear -5 1030 45 10000 0.29 55 15:20 20.12.2019
6123 Clear -4 1031 67 10000 1 170 14:59 20.12.2019
6124 Clear -4 1030 42 10000 0.29 55 14:40 20.12.2019
6125 Clear -4 1030 42 10000 0.96 318 14:22 20.12.2019
6126 Clear -3 1030 67 10000 1 170 13:55 20.12.2019
6127 Clear -3 1030 39 10000 0.96 318 13:36 20.12.2019
6128 Clear -3 1030 39 10000 0.96 318 13:18 20.12.2019
6129 Clear -3 1029 36 10000 1.24 325 12:41 20.12.2019
6130 Clear -3 1029 36 10000 1.24 325 12:19 20.12.2019
6131 Clear -2 1029 58 10000 1.24 325 11:59 20.12.2019
6132 Clear -2 1029 33 10000 2.1 290 11:40 20.12.2019
6133 Clear -2 1029 32 10000 2.1 290 11:21 20.12.2019
6134 Clear -2 1028 50 10000 0.5 170 10:59 20.12.2019
6135 Clear -2 1028 54 10000 0.5 160 10:41 20.12.2019
6136 Clear -2 1028 54 10000 0.5 160 10:20 20.12.2019
6137 Clear 0 1028 46 10000 0.5 150 09:56 20.12.2019
6138 Clear 1 1028 29 10000 1.74 320 09:38 20.12.2019
6139 Clear 1 1028 29 10000 1.74 320 09:19 20.12.2019
6140 Clear 2 1028 27 10000 2.1 330 08:43 20.12.2019
6141 Clear 2 1028 27 10000 2.1 330 08:24 20.12.2019
6142 Clear 2 1028 27 10000 2.1 290 07:59 20.12.2019
6143 Clear 2 1028 29 10000 2.91 304 07:40 20.12.2019
6144 Clear 2 1028 29 10000 2.91 304 07:19 20.12.2019
6145 Clear 3 1028 29 10000 1.5 180 06:51 20.12.2019
6146 Clear 3 1029 27 10000 2.6 310 06:31 20.12.2019
6147 Clear 2 1029 29 10000 1 180 05:53 20.12.2019
6148 Clear 2 1029 34 10000 2.91 304 05:35 20.12.2019
6149 Clear 1 1030 34 10000 3.15 305 04:33 20.12.2019
6150 Clear 1 1031 50 10000 3.15 305 03:30 20.12.2019
6151 Clear 0 1030 38 10000 0.5 330 02:42 20.12.2019
6152 Clouds -2 1030 68 10000 0.5 250 01:47 20.12.2019
6153 Clear -2 1030 63 10000 2.79 305 01:29 20.12.2019
6154 Clear -4 1029 85 9000 0.5 70 00:42 20.12.2019
6155 Clear -4 1029 63 10000 2.79 305 00:20 20.12.2019
6156 Clear -4 1028 58 10000 2.79 305 23:43 19.12.2019
6157 Clear -4 1028 58 10000 2.9 324 23:24 19.12.2019
6158 Clear -3 1028 92 10000 0.5 170 22:56 19.12.2019
6159 Clear -3 1027 63 10000 2.9 324 22:36 19.12.2019
6160 Clear -3 1027 63 10000 2.9 324 22:18 19.12.2019
6161 Clear -2 1027 54 10000 2.9 324 21:42 19.12.2019
6162 Clear -3 1027 85 10000 0.5 220 21:42 19.12.2019
6163 Clear -2 1027 54 10000 2.9 324 21:20 19.12.2019
6164 Clouds -2 1027 54 10000 1.5 350 20:59 19.12.2019
6165 Clouds -2 1028 54 10000 1.5 310 20:39 19.12.2019
6166 Clouds -2 1028 59 10000 1.5 310 20:21 19.12.2019
6167 Clouds -2 1028 79 10000 0.5 170 19:59 19.12.2019
6168 Clouds -2 1027 69 10000 2.41 312 19:40 19.12.2019
6169 Clouds -2 1027 69 10000 2.41 312 19:20 19.12.2019
6170 Clouds -2 1027 62 10000 1.5 310 19:00 19.12.2019
6171 Clouds -2 1027 62 10000 2.41 312 18:40 19.12.2019
6172 Clouds -2 1027 62 10000 2.41 312 18:20 19.12.2019
6173 Clouds -2 1028 62 10000 2.6 210 17:57 19.12.2019
6174 Clouds -2 1027 73 10000 1 170 17:38 19.12.2019
6175 Clouds -2 1027 73 10000 1 170 17:18 19.12.2019
6176 Clouds -2 1027 73 10000 0.5 170 16:56 19.12.2019
6177 Clouds -2 1027 50 10000 0.88 298 16:38 19.12.2019
6178 Clouds -2 1027 50 10000 0.88 298 16:19 19.12.2019
6179 Snow -2 1028 63 10000 1.5 200 15:58 19.12.2019
6180 Clouds -2 1027 41 10000 0.88 298 15:38 19.12.2019
6181 Clouds -2 1027 41 10000 0.88 298 15:38 19.12.2019
6182 Clouds -2 1027 41 10000 0.88 298 15:19 19.12.2019
6183 Clear -2 1027 73 10000 1 170 14:57 19.12.2019
6184 Clouds -3 1027 58 10000 0.88 298 14:38 19.12.2019
6185 Clouds -3 1027 58 10000 1.31 306 14:18 19.12.2019
6186 Clear -2 1027 54 10000 1.31 306 13:39 19.12.2019
6187 Clear -2 1027 54 10000 1.58 309 13:20 19.12.2019
6188 Clear -1 1026 68 10000 0.5 150 12:58 19.12.2019
6189 Clear -1 1027 39 10000 1.58 309 12:40 19.12.2019
6190 Clear -1 1027 39 10000 1.58 309 12:19 19.12.2019
6191 Clear -1 1027 39 10000 1.58 309 12:19 19.12.2019
6192 Clear -1 1027 68 10000 1 180 11:59 19.12.2019
6193 Clear 0 1027 43 10000 1.58 309 11:40 19.12.2019
6194 Clear 0 1027 43 10000 3.16 308 11:18 19.12.2019
6195 Clear 0 1026 47 10000 1 240 10:58 19.12.2019
6196 Clear 0 1026 47 10000 1 240 10:58 19.12.2019
6197 Clear 1 1028 50 10000 0.5 240 10:38 19.12.2019
6198 Clear 1 1028 50 10000 0.5 240 10:20 19.12.2019
6199 Clear 1 1027 32 10000 1 280 09:56 19.12.2019
6200 Clear 2 1027 40 10000 1.5 280 09:37 19.12.2019
6201 Clear 2 1025 34 10000 0.5 300 09:18 19.12.2019
6202 Clear 2 1025 34 10000 0.5 300 08:55 19.12.2019
6203 Clear 3 1025 40 10000 3.16 308 08:36 19.12.2019
6204 Clear 3 1025 40 10000 3.86 300 08:18 19.12.2019
6205 Clear 4 1027 34 10000 0.5 10 07:40 19.12.2019
6206 Clear 4 1027 34 10000 0.5 10 07:22 19.12.2019
6207 Clear 3 1027 32 10000 0.5 350 06:52 19.12.2019
6208 Clear 3 1025 40 10000 3.86 300 06:33 19.12.2019
6209 Clear 3 1024 29 10000 2.1 280 05:59 19.12.2019
6210 Clear 3 1027 40 10000 1.5 220 05:41 19.12.2019
6211 Clear 2 1024 29 10000 2.6 250 05:18 19.12.2019
6212 Clear 1 1025 40 10000 1.5 210 03:46 19.12.2019
6213 Clouds -1 1026 27 10000 1.5 270 02:25 19.12.2019
6214 Clear -2 1026 50 10000 2.06 288 01:24 19.12.2019
6215 Clear -3 1025 100 4800 0.5 360 00:45 19.12.2019
6216 Clear -4 1026 63 10000 1.5 310 00:25 19.12.2019
6217 Clear -4 1026 68 10000 2.1 240 23:59 18.12.2019
6218 Clear -3 1025 58 10000 2.06 288 23:41 18.12.2019
6219 Clear -3 1025 58 10000 1.72 292 23:19 18.12.2019
6220 Clear -3 1026 74 10000 1.5 270 22:56 18.12.2019
6221 Clouds -3 1025 74 10000 1.5 260 22:37 18.12.2019
6222 Clouds -3 1025 74 10000 1.5 260 22:19 18.12.2019
6223 Clouds -3 1025 74 10000 2.1 250 21:57 18.12.2019
6224 Clouds -3 1025 79 10000 1.5 290 21:39 18.12.2019
6225 Clouds -3 1025 79 10000 1.5 290 21:19 18.12.2019
6226 Clouds -3 1025 86 10000 0.5 320 20:55 18.12.2019
6227 Clouds -2 1025 79 10000 1 340 20:37 18.12.2019
6228 Clouds -2 1025 79 10000 1 340 20:19 18.12.2019
6229 Mist -2 1024 100 2800 0.5 190 19:55 18.12.2019
6230 Clouds -2 1025 86 9000 1.5 310 19:37 18.12.2019
6231 Clouds -2 1025 86 9000 1.5 310 19:37 18.12.2019
6232 Mist -2 1025 100 2800 0.5 130 19:18 18.12.2019
6233 Clouds -2 1025 86 8000 0.5 240 18:44 18.12.2019
6234 Clouds -2 1025 86 8000 0.5 240 18:25 18.12.2019
6235 Mist -1 1024 100 2800 0.5 170 17:57 18.12.2019
6236 Clouds -1 1025 92 8000 1.98 290 17:39 18.12.2019
6237 Clouds -1 1025 92 8000 2.13 290 17:19 18.12.2019
6238 Clouds -1 1025 92 8000 2.13 290 17:19 18.12.2019
6239 Mist -1 1024 100 3200 0.5 170 16:56 18.12.2019
6240 Mist -1 1024 100 3200 0.5 170 16:56 18.12.2019
6241 Mist -1 1024 100 3200 0.5 170 16:56 18.12.2019
6242 Mist -1 1024 100 3200 0.5 150 16:38 18.12.2019
6243 Clouds -1 1025 37 10000 2.13 290 16:20 18.12.2019
6244 Clear 0 1025 86 9000 2.13 290 15:55 18.12.2019
6245 Mist 0 1024 100 3200 0.5 160 15:37 18.12.2019
6246 Clouds 0 1024 37 10000 1.5 320 15:18 18.12.2019
6247 Mist 0 1024 100 3200 0.5 180 14:42 18.12.2019
6248 Clouds 0 1024 64 10000 2.6 301 14:22 18.12.2019
6249 Clouds 0 1025 74 10000 2.6 301 13:57 18.12.2019
6250 Mist 0 1024 34 4800 0.5 170 13:38 18.12.2019
6251 Clouds 1 1024 64 10000 2.1 330 13:20 18.12.2019
6252 Clouds 1 1025 69 10000 1.5 330 12:57 18.12.2019
6253 Clouds 1 1025 64 10000 1 260 12:38 18.12.2019
6254 Clouds 1 1025 64 10000 1 260 12:19 18.12.2019
6255 Haze 1 1026 80 9000 0.5 130 11:55 18.12.2019
6256 Haze 1 1026 80 9000 0.5 130 11:55 18.12.2019
6257 Haze 1 1026 80 9000 2.8 291 11:37 18.12.2019
6258 Haze 1 1024 86 6000 0.5 20 11:18 18.12.2019
6259 Clouds 2 1026 34 10000 0.5 310 10:55 18.12.2019
6260 Clouds 2 1024 59 10000 1.5 290 10:37 18.12.2019
6261 Clouds 2 1024 59 10000 1.5 290 10:19 18.12.2019
6262 Clouds 3 1023 64 10000 2.54 281 09:43 18.12.2019
6263 Clouds 2 1024 55 10000 1.5 230 09:18 18.12.2019
6264 Clouds 2 1024 55 10000 1.5 230 09:18 18.12.2019
6265 Clouds 3 1023 60 10000 1 350 08:40 18.12.2019
6266 Clouds 4 1023 51 10000 1.5 280 08:21 18.12.2019
6267 Clouds 4 1023 60 10000 1 340 07:43 18.12.2019
6268 Clear 4 1025 59 10000 2.1 210 07:22 18.12.2019
6269 Clear 4 1025 59 10000 2.1 230 06:55 18.12.2019
6270 Clear 4 1025 55 10000 1 280 06:27 18.12.2019
6271 Clouds 3 1023 64 10000 2.1 200 05:44 18.12.2019
6272 Clear 3 1025 59 10000 1.5 230 04:46 18.12.2019
6273 Clear 1 1027 43 10000 1.5 310 02:51 18.12.2019
6274 Clear 1 1026 69 10000 1.38 295 02:31 18.12.2019
6275 Clouds 1 1026 69 10000 1.67 288 01:57 18.12.2019
6276 Haze 1 1024 80 6000 1.5 170 01:37 18.12.2019
6277 Clouds 1 1026 69 10000 1.67 288 01:19 18.12.2019
6278 Clouds 0 1024 86 6000 1 140 00:40 18.12.2019
6279 Mist -1 1023 52 4000 0.5 160 00:21 18.12.2019
6280 Clouds 0 1024 80 10000 1.66 285 23:54 17.12.2019
6281 Mist 0 1023 52 3200 0.5 170 23:36 17.12.2019
6282 Mist 0 1023 53 4000 0.5 160 23:18 17.12.2019
6283 Haze 0 1024 80 8000 2.1 270 23:18 17.12.2019
6284 Clear 0 1025 92 6000 1 110 22:54 17.12.2019
6285 Mist 0 1022 53 3200 0.5 150 22:36 17.12.2019
6286 Clouds 0 1022 53 10000 1.89 279 22:18 17.12.2019
6287 Haze 0 1022 80 9000 1.5 240 21:55 17.12.2019
6288 Mist 0 1021 53 2400 1.89 279 21:36 17.12.2019
6289 Clear 0 1022 74 10000 1.89 279 21:18 17.12.2019
6290 Mist 0 1021 53 2400 0.5 190 20:40 17.12.2019
6291 Clear 1 1021 80 10000 2.45 286 20:19 17.12.2019
6292 Mist 1 1023 100 4000 0.5 360 19:59 17.12.2019
6293 Mist 1 1020 100 3200 1 190 19:41 17.12.2019
6294 Mist 1 1020 100 3200 1 190 19:41 17.12.2019
6295 Mist 1 1020 100 3200 1 190 19:41 17.12.2019
6296 Mist 1 1023 92 4000 0.5 130 19:20 17.12.2019
6297 Clear 2 1023 51 6000 1 120 18:58 17.12.2019
6298 Mist 2 1020 100 4800 1 50 18:39 17.12.2019
6299 Clouds 2 1021 51 10000 3.1 260 18:21 17.12.2019
6300 Clouds 3 1021 80 10000 2.6 240 17:55 17.12.2019
6301 Haze 3 1022 80 6000 1 350 17:37 17.12.2019
6302 Haze 3 1019 80 9000 1.5 320 17:18 17.12.2019
6303 Clouds 4 1020 86 8000 1 10 16:55 17.12.2019
6304 Clouds 4 1020 86 8000 1 10 16:55 17.12.2019
6305 Haze 4 1019 80 9000 1 270 16:37 17.12.2019
6306 Clouds 4 1020 80 10000 1.5 310 16:18 17.12.2019
6307 Clouds 4 1019 86 10000 0.5 120 15:38 17.12.2019
6308 Clouds 5 1020 86 8000 3.1 320 15:20 17.12.2019
6309 Clouds 5 1019 81 10000 3.6 260 14:57 17.12.2019
6310 Clouds 5 1018 81 10000 0.5 330 14:38 17.12.2019
6311 Clouds 5 1019 80 10000 3.39 301 14:19 17.12.2019
6312 Haze 5 1021 86 6000 1.5 270 13:59 17.12.2019
6313 Clouds 5 1018 93 10000 0.5 160 13:40 17.12.2019
6314 Haze 6 1020 86 6000 1.5 320 13:19 17.12.2019
6315 Clouds 6 1018 81 10000 1.5 240 12:59 17.12.2019
6316 Clouds 6 1017 81 10000 3.49 298 12:38 17.12.2019
6317 Clouds 6 1017 75 10000 0.5 340 12:18 17.12.2019
6318 Clouds 6 1017 75 10000 0.5 340 12:18 17.12.2019
6319 Clouds 7 1018 87 10000 1 260 11:57 17.12.2019
6320 Clouds 7 1018 87 10000 2.1 260 11:37 17.12.2019
6321 Clouds 7 1017 75 10000 1.5 350 11:18 17.12.2019
6322 Clouds 8 1016 76 10000 1.5 330 10:57 17.12.2019
6323 Clouds 8 1017 81 10000 3.67 296 10:38 17.12.2019
6324 Clouds 8 1017 81 10000 5.7 320 10:19 17.12.2019
6325 Clouds 8 1017 81 10000 3.67 296 10:19 17.12.2019
6326 Clouds 8 1017 81 10000 4.1 270 09:55 17.12.2019
6327 Clouds 8 1015 87 10000 2.1 270 09:37 17.12.2019
6328 Clouds 8 1015 76 10000 3.67 296 09:18 17.12.2019
6329 Mist 9 1014 100 3200 0.5 60 08:40 17.12.2019
6330 Clouds 9 1017 75 10000 2.1 360 08:22 17.12.2019
6331 Clouds 9 1016 75 10000 2.6 360 07:59 17.12.2019
6332 Mist 9 1013 100 1200 1 160 07:41 17.12.2019
6333 Clouds 9 1016 76 10000 3.1 320 07:22 17.12.2019
6334 Rain 9 1013 100 800 0.5 200 06:42 17.12.2019
6335 Rain 9 1013 100 800 1 230 06:24 17.12.2019
6336 Rain 9 1013 100 800 1 230 06:24 17.12.2019
6337 Rain 10 1013 100 1200 0.5 160 05:41 17.12.2019
6338 Clouds 9 1013 93 10000 0.68 111 04:53 17.12.2019
6339 Mist 9 1014 100 4800 0.68 111 03:51 17.12.2019
6340 Rain 7 1014 100 6000 1.24 63 02:25 17.12.2019
6341 Rain 7 1015 100 400 1 340 01:21 17.12.2019
6342 Rain 8 1014 93 3000 2.6 180 00:47 17.12.2019
6343 Rain 8 1014 93 2200 1.09 75 00:21 17.12.2019
6344 Rain 8 1014 93 2200 1.09 75 00:21 17.12.2019
6345 Rain 8 1014 93 2200 1.09 75 00:21 17.12.2019
6346 Rain 8 1014 100 2000 0.5 20 23:44 16.12.2019
6347 Rain 8 1013 93 4400 1.71 110 23:20 16.12.2019
6348 Rain 8 1013 93 10000 1.71 110 22:59 16.12.2019
6349 Rain 7 1015 100 4000 0.5 10 22:39 16.12.2019
6350 Rain 7 1014 93 10000 1.71 110 22:21 16.12.2019
6351 Rain 7 1014 87 10000 1.71 110 21:57 16.12.2019
6352 Rain 7 1014 87 10000 1.71 110 21:57 16.12.2019
6353 Rain 7 1014 87 10000 1.71 110 21:57 16.12.2019
6354 Rain 7 1015 100 3200 0.5 20 21:39 16.12.2019
6355 Rain 7 1014 87 8000 1.71 110 21:20 16.12.2019
6356 Haze 7 1015 81 6000 2.6 170 20:58 16.12.2019
6357 Rain 7 1016 100 6000 1.71 110 20:39 16.12.2019
6358 Rain 7 1015 66 10000 1.5 90 20:19 16.12.2019
6359 Rain 7 1015 66 10000 1.5 90 20:19 16.12.2019
6360 Rain 7 1016 66 10000 1.5 120 19:57 16.12.2019
6361 Clouds 7 1017 87 10000 0.5 270 19:37 16.12.2019
6362 Rain 7 1017 87 6000 0.5 180 19:19 16.12.2019
6363 Haze 7 1017 87 6000 0.5 90 18:59 16.12.2019
6364 Clouds 7 1017 87 10000 0.5 80 18:40 16.12.2019
6365 Clouds 7 1016 66 10000 1.28 116 18:20 16.12.2019
6366 Haze 7 1018 81 8000 1.28 116 17:58 16.12.2019
6367 Haze 7 1018 81 9000 1 120 17:39 16.12.2019
6368 Haze 7 1018 81 9000 1 120 17:21 16.12.2019
6369 Haze 8 1018 75 9000 0.5 100 16:57 16.12.2019
6370 Clouds 7 1018 87 10000 0.5 160 16:39 16.12.2019
6371 Clouds 7 1017 62 10000 1.11 118 16:19 16.12.2019
6372 Haze 8 1018 75 9000 0.5 110 15:58 16.12.2019
6373 Clouds 8 1018 81 10000 0.5 10 15:38 16.12.2019
6374 Clouds 9 1017 62 10000 1.11 118 15:20 16.12.2019
6375 Haze 8 1019 75 9000 0.5 100 14:57 16.12.2019
6376 Clouds 8 1019 81 10000 0.5 50 14:37 16.12.2019
6377 Clouds 9 1018 62 10000 1.63 102 14:19 16.12.2019
6378 Clouds 9 1018 62 10000 1.63 102 14:19 16.12.2019
6379 Haze 8 1020 70 9000 0.5 70 13:56 16.12.2019
6380 Haze 8 1020 70 9000 0.5 70 13:56 16.12.2019
6381 Clouds 8 1019 81 10000 1 10 13:37 16.12.2019
6382 Clouds 8 1019 81 10000 1 10 13:37 16.12.2019
6383 Clouds 8 1020 70 10000 1.65 101 13:19 16.12.2019
6384 Clouds 8 1020 66 10000 2.1 70 12:57 16.12.2019
6385 Clouds 8 1020 66 10000 2.1 70 12:57 16.12.2019
6386 Clouds 8 1020 81 10000 0.5 50 12:39 16.12.2019
6387 Clouds 8 1020 81 10000 0.5 220 12:18 16.12.2019
6388 Clouds 9 1021 66 10000 1 120 11:57 16.12.2019
6389 Clouds 9 1021 81 10000 0.5 180 11:39 16.12.2019
6390 Clouds 9 1020 75 10000 1.72 92 11:19 16.12.2019
6391 Clouds 10 1021 66 10000 0.5 60 10:55 16.12.2019
6392 Thunderstorm 9 1020 70 9000 1 360 10:36 16.12.2019
6393 Clouds 9 1019 61 10000 1.72 92 10:18 16.12.2019
6394 Clouds 11 1021 66 10000 1 90 09:44 16.12.2019
6395 Clouds 11 1020 54 10000 2.11 97 09:26 16.12.2019
6396 Clouds 12 1020 57 10000 1 360 08:41 16.12.2019
6397 Clouds 12 1021 57 10000 1 20 08:20 16.12.2019
6398 Clouds 12 1022 57 10000 1 70 07:53 16.12.2019
6399 Clouds 12 1022 53 10000 1.5 50 07:31 16.12.2019
6400 Clouds 12 1023 57 10000 1 50 06:59 16.12.2019
6401 Clouds 13 1023 57 10000 1 40 06:40 16.12.2019
6402 Clouds 12 1021 53 10000 1.5 330 06:21 16.12.2019
6403 Clear 11 1022 53 10000 1 350 05:41 16.12.2019
6404 Clear 11 1023 50 10000 1.5 150 05:23 16.12.2019
6405 Clouds 6 1025 57 10000 2.1 90 03:29 16.12.2019
6406 Clouds 2 1027 86 4800 1 80 01:51 16.12.2019
6407 Clouds 1 1027 75 4800 1 40 01:33 16.12.2019
6408 Clouds 0 1027 75 8000 1.5 30 00:39 16.12.2019
6409 Mist 0 1027 92 4000 0.5 60 00:20 16.12.2019
6410 Clouds -1 1027 100 6000 2.1 20 23:44 15.12.2019
6411 Mist -1 1027 100 3200 1 70 23:25 15.12.2019
6412 Mist -1 1027 100 3200 0.5 40 22:57 15.12.2019
6413 Clear -1 1027 100 6000 1.5 30 22:39 15.12.2019
6414 Clouds -1 1026 78 10000 1.16 85 22:19 15.12.2019
6415 Mist 0 1027 100 4000 1.16 85 21:59 15.12.2019
6416 Clouds 0 1027 78 9000 1.5 30 21:39 15.12.2019
6417 Clouds 0 1027 78 9000 1.5 30 21:39 15.12.2019
6418 Clear -1 1026 78 10000 1.16 85 21:20 15.12.2019
6419 Mist -1 1027 100 3200 0.5 200 20:58 15.12.2019
6420 Clear -1 1026 100 8000 1 30 20:40 15.12.2019
6421 Clear -1 1026 100 8000 1 30 20:40 15.12.2019
6422 Clear -1 1026 74 10000 1.05 86 20:22 15.12.2019
6423 Mist -1 1028 92 4000 1.5 50 19:58 15.12.2019
6424 Clear -1 1027 100 6000 1 30 19:40 15.12.2019
6425 Clear 0 1028 100 6000 0.5 120 19:20 15.12.2019
6426 Clear 0 1028 92 4800 0.5 90 18:58 15.12.2019
6427 Mist 0 1028 92 4000 0.5 10 18:39 15.12.2019
6428 Clear 0 1027 100 6000 0.5 150 18:19 15.12.2019
6429 Clear 0 1028 92 4800 0.5 140 17:57 15.12.2019
6430 Clear 0 1028 71 6000 0.5 360 17:38 15.12.2019
6431 Clear 0 1028 76 6000 0.5 360 17:38 15.12.2019
6432 Clear 1 1027 71 9000 0.5 160 17:19 15.12.2019
6433 Clear 1 1028 66 6000 0.5 270 16:58 15.12.2019
6434 Clouds 1 1027 71 8000 0.5 60 16:39 15.12.2019
6435 Clear 1 1026 86 10000 0.87 78 16:21 15.12.2019
6436 Clear 1 1028 66 4800 0.5 310 15:56 15.12.2019
6437 Clear 1 1027 66 10000 0.5 20 15:38 15.12.2019
6438 Clear 2 1026 80 10000 0.87 78 15:19 15.12.2019
6439 Clouds 2 1028 71 4800 0.5 240 14:56 15.12.2019
6440 Clear 2 1027 93 10000 1 20 14:37 15.12.2019
6441 Clear 2 1027 93 10000 1 20 14:37 15.12.2019
6442 Clear 2 1026 65 10000 0.83 65 14:18 15.12.2019
6443 Haze 3 1028 86 6000 0.5 160 13:58 15.12.2019
6444 Clear 3 1027 61 10000 0.5 110 13:37 15.12.2019
6445 Clear 3 1027 61 10000 0.5 110 13:37 15.12.2019
6446 Haze 3 1028 80 8000 0.5 320 13:19 15.12.2019
6447 Haze 3 1028 80 8000 0.5 320 13:19 15.12.2019
6448 Haze 4 1029 74 9000 0.5 90 12:56 15.12.2019
6449 Haze 4 1029 74 9000 0.5 10 12:38 15.12.2019
6450 Clouds 4 1028 61 10000 1 30 12:20 15.12.2019
6451 Clouds 5 1028 80 10000 1 40 11:39 15.12.2019
6452 Clouds 5 1028 54 10000 0.5 190 11:20 15.12.2019
6453 Clouds 6 1029 60 10000 1 60 10:59 15.12.2019
6454 Clear 6 1027 80 10000 0.5 10 10:41 15.12.2019
6455 Clouds 7 1027 60 10000 1.02 107 10:20 15.12.2019
6456 Clouds 8 1029 60 10000 1 360 09:59 15.12.2019
6457 Clouds 8 1028 70 10000 0.5 180 09:39 15.12.2019
6458 Clouds 9 1027 43 10000 1.02 107 09:20 15.12.2019
6459 Clouds 10 1029 49 10000 0.5 270 08:56 15.12.2019
6460 Clouds 10 1028 61 10000 0.5 310 08:38 15.12.2019
6461 Clouds 10 1028 43 10000 1.06 167 08:20 15.12.2019
6462 Clouds 10 1030 49 10000 1 320 07:55 15.12.2019
6463 Clouds 11 1029 49 10000 0.5 320 07:33 15.12.2019
6464 Clouds 11 1030 45 10000 1 330 06:31 15.12.2019
6465 Clear 9 1028 49 10000 1 340 05:51 15.12.2019
6466 Clouds 9 1030 49 10000 1 290 05:25 15.12.2019
6467 Clear 7 1029 52 10000 2.1 50 04:24 15.12.2019
6468 Clear 4 1030 56 10000 1 40 03:22 15.12.2019
6469 Clear 1 1031 74 9000 1 330 02:32 15.12.2019
6470 Haze 0 1031 53 8000 1.5 30 01:43 15.12.2019
6471 Clear -1 1030 64 10000 1.26 93 01:20 15.12.2019
6472 Haze -2 1032 86 8000 0.5 360 00:53 15.12.2019
6473 Clear -3 1032 86 6000 1.5 30 00:34 15.12.2019
6474 Clear -3 1031 100 4800 0.5 90 23:56 14.12.2019
6475 Clear -3 1031 86 6000 0.5 80 23:38 14.12.2019
6476 Clouds -3 1030 92 7000 1.5 320 23:18 14.12.2019
6477 Clear -3 1031 86 8000 3.6 40 22:56 14.12.2019
6478 Clouds -3 1030 86 8000 0.5 20 22:37 14.12.2019
6479 Clouds -3 1031 86 6000 1 40 22:18 14.12.2019
6480 Clouds -3 1031 86 6000 1 40 22:18 14.12.2019
6481 Clouds -2 1031 86 6000 1.5 10 21:55 14.12.2019
6482 Clouds -2 1030 86 8000 1.5 30 21:36 14.12.2019
6483 Clouds -2 1030 92 9000 2.1 330 21:18 14.12.2019
6484 Clouds -3 1030 86 8000 1.5 40 20:42 14.12.2019
6485 Clouds -2 1030 79 10000 1.03 78 20:20 14.12.2019
6486 Clouds -2 1031 86 6000 1.5 30 19:59 14.12.2019
6487 Clouds -2 1031 86 6000 1.5 30 19:39 14.12.2019
6488 Clouds -2 1031 86 6000 1.5 30 19:39 14.12.2019
6489 Clouds -2 1032 92 10000 0.5 70 19:20 14.12.2019
6490 Clear -2 1032 79 10000 1 70 18:56 14.12.2019
6491 Clear -2 1032 79 10000 0.5 50 18:38 14.12.2019
6492 Haze -2 1031 80 8000 0.5 140 18:20 14.12.2019
6493 Haze -1 1031 86 8000 1.5 30 17:44 14.12.2019
6494 Clear -1 1032 74 10000 1.5 50 17:24 14.12.2019
6495 Clear -1 1032 74 10000 3.6 50 16:59 14.12.2019
6496 Haze -1 1030 40 8000 1.5 30 16:40 14.12.2019
6497 Clear -1 1029 40 10000 0.82 71 16:19 14.12.2019
6498 Haze 0 1030 40 8000 2.1 30 15:43 14.12.2019
6499 Clouds 0 1030 69 10000 0.82 71 15:25 14.12.2019
6500 Clouds 0 1030 69 10000 0.82 71 15:25 14.12.2019
6501 Clouds 0 1032 74 10000 2.1 30 14:59 14.12.2019
6502 Haze 1 1030 40 8000 0.5 40 14:39 14.12.2019
6503 Clouds 1 1030 59 10000 0.92 44 14:20 14.12.2019
6504 Clouds 0 1032 33 10000 1.5 20 13:58 14.12.2019
6505 Haze 0 1030 33 9000 1 40 13:39 14.12.2019
6506 Clouds 0 1030 35 10000 1.5 10 13:19 14.12.2019
6507 Clouds 0 1032 42 10000 3.1 40 12:55 14.12.2019
6508 Clouds 0 1032 68 10000 1.5 30 12:37 14.12.2019
6509 Haze 1 1030 35 9000 0.5 80 12:18 14.12.2019
6510 Clouds 1 1032 35 10000 1.5 30 11:55 14.12.2019
6511 Clouds 1 1031 35 10000 1.5 40 11:37 14.12.2019
6512 Haze 1 1029 33 9000 0.5 220 11:18 14.12.2019
6513 Clouds 2 1031 55 10000 2.1 20 10:55 14.12.2019
6514 Clear 2 1028 44 10000 1.5 20 10:37 14.12.2019
6515 Clear 3 1028 44 10000 1.5 20 10:18 14.12.2019
6516 Clear 3 1028 64 10000 0.5 130 09:41 14.12.2019
6517 Clear 3 1028 48 10000 0.49 78 09:21 14.12.2019
6518 Clear 5 1030 47 10000 2.6 20 08:45 14.12.2019
6519 Clear 5 1030 48 10000 2.6 60 08:20 14.12.2019
6520 Clear 6 1030 38 10000 2.6 20 07:57 14.12.2019
6521 Clear 6 1030 38 10000 3.6 360 07:38 14.12.2019
6522 Clear 6 1029 41 10000 1.5 300 07:19 14.12.2019
6523 Clear 6 1028 52 10000 2.1 190 06:41 14.12.2019
6524 Clear 5 1028 48 10000 2.1 220 06:22 14.12.2019
6525 Clear 5 1030 48 10000 2.1 70 05:22 14.12.2019
6526 Clear 3 1031 59 10000 1.5 250 02:49 14.12.2019
6527 Clear 2 1029 64 10000 3.75 301 02:22 14.12.2019
6528 Haze 2 1028 74 8000 2.1 260 01:43 14.12.2019
6529 Clear 1 1030 46 10000 1 290 00:50 14.12.2019
6530 Clear 0 1029 80 10000 1 280 00:29 14.12.2019
6531 Clear 0 1028 46 10000 0.5 270 23:58 13.12.2019
6532 Haze 1 1026 69 6000 1 310 23:38 13.12.2019
6533 Haze 1 1026 69 6000 2.1 310 23:19 13.12.2019
6534 Haze 2 1025 69 4800 0.5 320 22:42 13.12.2019
6535 Clear 2 1025 69 10000 4.13 304 22:19 13.12.2019
6536 Haze 3 1027 55 6000 1 190 21:56 13.12.2019
6537 Haze 2 1026 80 6000 2.6 290 21:38 13.12.2019
6538 Haze 3 1026 80 6000 2.6 290 21:20 13.12.2019
6539 Haze 4 1022 55 4000 1.5 250 20:43 13.12.2019
6540 Haze 4 1024 80 3200 1.5 300 20:24 13.12.2019
6541 Haze 4 1024 80 3200 1.5 300 19:59 13.12.2019
6542 Haze 4 1024 65 4000 2.6 280 19:41 13.12.2019
6543 Haze 4 1024 65 4000 2.6 280 19:41 13.12.2019
6544 Haze 4 1024 65 4000 2.6 280 19:23 13.12.2019
6545 Rain 4 1024 65 3200 3.1 320 18:59 13.12.2019
6546 Rain 4 1024 80 3200 3.1 320 18:41 13.12.2019
6547 Rain 4 1024 80 3200 3.1 320 18:19 13.12.2019
6548 Rain 4 1022 81 5000 5.1 300 17:55 13.12.2019
6549 Rain 3 1021 86 10000 5.24 310 17:37 13.12.2019
6550 Rain 4 1022 100 6000 0.5 250 17:18 13.12.2019
6551 Rain 4 1022 100 6000 0.5 250 17:18 13.12.2019
6552 Clouds 3 1021 86 10000 1.84 220 16:54 13.12.2019
6553 Rain 4 1021 81 8000 1.84 220 16:36 13.12.2019
6554 Rain 4 1022 89 6000 0.5 110 16:18 13.12.2019
6555 Rain 5 1023 93 4800 3.6 220 15:38 13.12.2019
6556 Rain 5 1023 93 4800 3.6 220 15:20 13.12.2019
6557 Rain 4 1023 100 2800 2.6 160 14:41 13.12.2019
6558 Rain 4 1023 100 2800 2.6 160 14:21 13.12.2019
6559 Rain 4 1024 93 2800 2.1 30 13:58 13.12.2019
6560 Rain 4 1024 93 2800 2.1 30 13:58 13.12.2019
6561 Clouds 4 1024 48 10000 1.5 240 13:39 13.12.2019
6562 Clouds 4 1024 50 10000 1.5 240 13:21 13.12.2019
6563 Clouds 4 1023 56 10000 5.1 180 12:42 13.12.2019
6564 Clouds 4 1023 56 10000 5.1 180 12:20 13.12.2019
6565 Clouds 4 1023 52 10000 5.7 180 11:57 13.12.2019
6566 Clouds 4 1024 56 10000 5.1 180 11:39 13.12.2019
6567 Clouds 4 1024 56 10000 5.1 180 11:21 13.12.2019
6568 Clouds 4 1024 59 10000 1 170 10:42 13.12.2019
6569 Clouds 4 1025 56 10000 4.1 180 10:23 13.12.2019
6570 Clouds 5 1025 56 10000 3.6 180 09:56 13.12.2019
6571 Clouds 5 1025 60 10000 3.6 180 09:38 13.12.2019
6572 Clouds 5 1026 59 10000 1 130 09:18 13.12.2019
6573 Clouds 6 1026 56 10000 3.1 200 08:41 13.12.2019
6574 Clouds 6 1026 56 10000 3.1 200 08:23 13.12.2019
6575 Clouds 5 1025 48 10000 1.5 210 07:45 13.12.2019
6576 Clouds 5 1025 48 10000 1.5 210 07:45 13.12.2019
6577 Clouds 5 1026 60 10000 0.5 200 07:21 13.12.2019
6578 Clouds 5 1026 60 10000 0.5 200 07:21 13.12.2019
6579 Clouds 5 1026 59 10000 0.5 320 06:51 13.12.2019
6580 Clouds 5 1027 64 10000 1 310 06:28 13.12.2019
6581 Clouds 5 1026 44 10000 2.1 170 05:45 13.12.2019
6582 Clouds 4 1027 59 10000 0.5 320 05:24 13.12.2019
6583 Clouds 2 1027 45 10000 3.6 150 04:35 13.12.2019
6584 Clouds 1 1029 47 10000 1.5 60 03:31 13.12.2019
6585 Haze -1 1030 79 9000 1 40 02:32 13.12.2019
6586 Clouds -3 1029 32 10000 1.19 104 01:42 13.12.2019
6587 Haze -5 1030 85 9000 1 80 00:53 13.12.2019
6588 Haze -6 1030 85 9000 0.5 80 00:34 13.12.2019
6589 Clouds -6 1030 85 8000 0.5 60 23:57 12.12.2019
6590 Clouds -6 1030 85 6000 0.5 70 23:37 12.12.2019
6591 Clouds -6 1030 85 6000 0.5 70 23:19 12.12.2019
6592 Clouds -6 1030 92 8000 1 70 22:42 12.12.2019
6593 Clouds -6 1030 92 8000 1 70 22:23 12.12.2019
6594 Thunderstorm -6 1031 92 8000 1 90 21:57 12.12.2019
6595 Clear -6 1031 92 8000 0.5 110 21:39 12.12.2019
6596 Clear -6 1031 92 8000 0.5 110 21:20 12.12.2019
6597 Clear -6 1031 92 9000 0.5 40 20:59 12.12.2019
6598 Clear -6 1031 85 10000 1 40 20:41 12.12.2019
6599 Clear -6 1031 85 10000 1 40 20:23 12.12.2019
6600 Clear -6 1031 85 10000 0.5 130 19:59 12.12.2019
6601 Clear -5 1031 92 10000 0.5 120 19:41 12.12.2019
6602 Clear -5 1031 92 10000 0.5 120 19:21 12.12.2019
6603 Clear -5 1031 85 10000 1 80 18:58 12.12.2019
6604 Clear -5 1031 85 10000 0.94 105 18:39 12.12.2019
6605 Clear -5 1031 85 10000 0.94 105 18:20 12.12.2019
6606 Clear -5 1031 85 10000 0.5 50 17:57 12.12.2019
6607 Clear -5 1031 92 10000 0.5 50 17:39 12.12.2019
6608 Clear -5 1031 92 10000 0.5 50 17:20 12.12.2019
6609 Clear -4 1031 79 10000 0.5 140 16:56 12.12.2019
6610 Clear -4 1032 85 10000 0.5 50 16:37 12.12.2019
6611 Clear -4 1032 85 10000 0.5 50 16:19 12.12.2019
6612 Clear -4 1032 73 10000 0.5 90 15:54 12.12.2019
6613 Haze -4 1032 79 9000 0.5 210 15:36 12.12.2019
6614 Haze -4 1032 79 9000 0.5 210 15:18 12.12.2019
6615 Clear -3 1032 79 10000 0.5 160 14:38 12.12.2019
6616 Clear -3 1032 79 10000 0.5 160 14:20 12.12.2019
6617 Clear -3 1030 63 10000 0.5 110 13:57 12.12.2019
6618 Clear -3 1032 68 10000 0.5 150 13:39 12.12.2019
6619 Clear -3 1032 68 10000 0.5 150 13:21 12.12.2019
6620 Clear -1 1031 53 10000 0.5 50 12:57 12.12.2019
6621 Clear -1 1032 58 10000 0.5 160 12:38 12.12.2019
6622 Clear -1 1032 58 10000 0.5 160 12:20 12.12.2019
6623 Clear -1 1032 68 10000 1 170 11:55 12.12.2019
6624 Clear -1 1032 68 10000 1 170 11:55 12.12.2019
6625 Clear 0 1030 40 10000 0.37 29 11:37 12.12.2019
6626 Clear 0 1031 54 10000 0.5 320 11:19 12.12.2019
6627 Clear 0 1031 54 10000 1 300 10:42 12.12.2019
6628 Clear 0 1031 54 10000 1 300 10:24 12.12.2019
6629 Clear 1 1031 37 10000 1 190 09:59 12.12.2019
6630 Clear 2 1031 47 10000 1 270 09:41 12.12.2019
6631 Clear 2 1031 47 10000 1 270 09:23 12.12.2019
6632 Clear 3 1028 27 10000 1 350 08:55 12.12.2019
6633 Clear 3 1030 37 10000 2.6 280 08:37 12.12.2019
6634 Clear 3 1028 23 10000 1.5 310 08:19 12.12.2019
6635 Clear 3 1028 34 10000 1.5 230 07:41 12.12.2019
6636 Clear 3 1028 34 10000 1.5 230 07:23 12.12.2019
6637 Clear 3 1028 25 10000 0.5 350 06:44 12.12.2019
6638 Clear 3 1030 37 10000 2.1 290 06:24 12.12.2019
6639 Clear 3 1030 40 10000 1 300 05:36 12.12.2019
6640 Clear 2 1031 43 10000 1.5 250 04:51 12.12.2019
6641 Clear 1 1031 50 10000 1 280 03:20 12.12.2019
6642 Clear -1 1031 58 10000 0.5 340 02:37 12.12.2019
6643 Clear -1 1031 58 10000 0.5 340 02:19 12.12.2019
6644 Clear -2 1030 63 10000 0.5 240 01:37 12.12.2019
6645 Clear -2 1028 58 10000 0.5 170 01:18 12.12.2019
6646 Clear -3 1030 79 10000 1 160 00:40 12.12.2019
6647 Clear -4 1028 79 10000 0.5 260 00:18 12.12.2019
6648 Clear -3 1029 73 10000 0.5 140 23:42 11.12.2019
6649 Clear -3 1029 73 10000 0.5 140 23:20 11.12.2019
6650 Clear -3 1029 73 10000 0.5 120 22:57 11.12.2019
6651 Clear -3 1028 73 10000 0.5 250 22:38 11.12.2019
6652 Clear -3 1028 73 10000 0.5 250 22:19 11.12.2019
6653 Clear -2 1028 73 10000 2.1 130 21:55 11.12.2019
6654 Clear -2 1025 46 10000 1 310 21:37 11.12.2019
6655 Clear -2 1025 46 10000 1 310 21:19 11.12.2019
6656 Clear -2 1026 63 10000 5.7 340 20:55 11.12.2019
6657 Clear -2 1025 54 10000 3.77 312 20:37 11.12.2019
6658 Clear -1 1025 46 10000 1.5 310 20:18 11.12.2019
6659 Clear -1 1027 68 10000 1 160 19:43 11.12.2019
6660 Clear -1 1027 68 10000 1 160 19:23 11.12.2019
6661 Clear 0 1027 63 10000 0.5 270 18:59 11.12.2019
6662 Clear -1 1026 63 10000 1.5 20 18:40 11.12.2019
6663 Clear 0 1025 58 10000 1.5 320 18:20 11.12.2019
6664 Clear 0 1026 68 10000 1 310 17:57 11.12.2019
6665 Thunderstorm 0 1025 58 10000 2.1 300 17:38 11.12.2019
6666 Thunderstorm 0 1025 58 10000 2.1 300 17:18 11.12.2019
6667 Clear 1 1025 58 10000 2.1 320 16:56 11.12.2019
6668 Clear 1 1023 50 10000 6.16 314 16:37 11.12.2019
6669 Clear 1 1023 50 10000 6.16 314 16:19 11.12.2019
6670 Clear 1 1022 50 10000 2.1 270 15:56 11.12.2019
6671 Clear 1 1023 55 10000 2.1 300 15:37 11.12.2019
6672 Clear 1 1023 55 10000 2.1 300 15:19 11.12.2019
6673 Thunderstorm 2 1024 50 10000 3.1 290 14:55 11.12.2019
6674 Clear 2 1024 50 10000 4.1 280 14:36 11.12.2019
6675 Clouds 2 1022 51 10000 4.6 260 14:18 11.12.2019
6676 Clouds 2 1023 55 10000 2.6 290 13:43 11.12.2019
6677 Clouds 2 1023 55 10000 2.6 290 13:22 11.12.2019
6678 Clouds 3 1023 59 10000 2.6 310 12:58 11.12.2019
6679 Clouds 3 1023 59 10000 2.6 300 12:39 11.12.2019
6680 Clouds 3 1023 59 10000 2.6 300 12:21 11.12.2019
6681 Clear 3 1022 64 10000 1.5 310 11:58 11.12.2019
6682 Clear 3 1022 64 10000 2.1 320 11:39 11.12.2019
6683 Clear 3 1022 64 10000 2.1 320 11:19 11.12.2019
6684 Clear 4 1021 59 10000 2.1 320 10:57 11.12.2019
6685 Clear 4 1018 52 10000 2.1 270 10:39 11.12.2019
6686 Clear 4 1018 52 10000 2.1 270 10:39 11.12.2019
6687 Clear 5 1018 52 10000 2.1 270 10:20 11.12.2019
6688 Clear 5 1018 52 10000 2.1 270 10:20 11.12.2019
6689 Clear 6 1019 55 10000 3.1 320 09:44 11.12.2019
6690 Clear 6 1019 55 10000 3.1 320 09:21 11.12.2019
6691 Clear 7 1018 52 10000 3.1 270 08:58 11.12.2019
6692 Haze 7 1018 56 9000 3.6 320 08:40 11.12.2019
6693 Haze 7 1018 56 9000 3.6 320 08:20 11.12.2019
6694 Clouds 8 1017 36 10000 5.7 290 07:59 11.12.2019
6695 Clouds 8 1017 49 10000 3.6 260 07:41 11.12.2019
6696 Haze 9 1016 52 9000 5.1 250 07:22 11.12.2019
6697 Haze 9 1014 45 8000 2.6 190 06:44 11.12.2019
6698 Clear 9 1015 42 10000 6.79 278 06:23 11.12.2019
6699 Clouds 9 1016 42 7000 9.3 290 05:46 11.12.2019
6700 Clouds 9 1015 42 7000 8.7 270 05:27 11.12.2019
6701 Haze 9 1017 65 4000 3.1 260 04:41 11.12.2019
6702 Haze 9 1016 70 6000 5.62 278 02:49 11.12.2019
6703 Rain 8 1015 87 3200 3.7 265 01:26 11.12.2019
6704 Rain 8 1016 93 800 2.1 210 00:49 11.12.2019
6705 Rain 8 1016 93 800 2.1 210 00:25 11.12.2019
6706 Mist 8 1016 93 800 2.1 210 23:59 10.12.2019
6707 Mist 8 1016 100 1200 1 220 23:40 10.12.2019
6708 Mist 8 1016 100 1200 1 220 23:21 10.12.2019
6709 Clouds 7 1014 87 10000 2.19 183 22:41 10.12.2019
6710 Clouds 7 1014 87 10000 2.19 183 22:22 10.12.2019
6711 Clouds 6 1014 87 10000 1.5 150 21:57 10.12.2019
6712 Clouds 6 1014 87 10000 1.5 170 21:39 10.12.2019
6713 Clouds 6 1014 87 10000 1.5 170 21:21 10.12.2019
6714 Clouds 6 1015 87 10000 1.5 170 20:57 10.12.2019
6715 Fog 6 1016 100 0 0.5 190 20:38 10.12.2019
6716 Fog 6 1016 100 0 0.5 190 20:19 10.12.2019
6717 Fog 6 1016 100 0 0.5 190 20:19 10.12.2019
6718 Thunderstorm 6 1016 100 4800 3.1 150 19:55 10.